<?xml version="1.0" encoding="UTF-8" standalone="no" ?>
<gpx xmlns="http://www.topografix.com/GPX/1/1" xmlns:xsi="http://www.w3.org/2001/XMLSchema-instance" xsi:schemaLocation="http://www.topografix.com/GPX/1/1 http://www.topografix.com/GPX/1/1/gpx.xsd" version="1.1" creator="VisuGPX - https://www.visugpx.com">
  <metadata>
    <name>circuits Cotentin</name>
  </metadata>
  <trk>
    <name><![CDATA[Port Bail  19 km]]></name>
    <extensions>
      <line xmlns="http://www.topografix.com/GPX/gpx_style/0/2">
        <color>0000FF</color>
        <width>4</width>
      </line>
    </extensions>
    <trkseg>
      <trkpt lat="49.33435" lon="-1.72536">
        <ele>6</ele>
        <time>2022-06-18T08:54:55Z</time>
      </trkpt>
      <trkpt lat="49.33374" lon="-1.72397">
        <ele>6</ele>
        <time>2022-06-18T08:57:21Z</time>
      </trkpt>
      <trkpt lat="49.33472" lon="-1.72185">
        <ele>7</ele>
        <time>2022-06-18T09:01:07Z</time>
      </trkpt>
      <trkpt lat="49.33233" lon="-1.71928">
        <ele>7</ele>
        <time>2022-06-18T09:07:36Z</time>
      </trkpt>
      <trkpt lat="49.33155" lon="-1.71848">
        <ele>6</ele>
        <time>2022-06-18T09:09:41Z</time>
      </trkpt>
      <trkpt lat="49.33058" lon="-1.71655">
        <ele>5</ele>
        <time>2022-06-18T09:13:13Z</time>
      </trkpt>
      <trkpt lat="49.33035" lon="-1.71622">
        <ele>6</ele>
        <time>2022-06-18T09:13:55Z</time>
      </trkpt>
      <trkpt lat="49.33032" lon="-1.71604">
        <ele>6</ele>
        <time>2022-06-18T09:14:12Z</time>
      </trkpt>
      <trkpt lat="49.33024" lon="-1.716">
        <ele>6</ele>
        <time>2022-06-18T09:14:23Z</time>
      </trkpt>
      <trkpt lat="49.33012" lon="-1.7155">
        <ele>6</ele>
        <time>2022-06-18T09:15:09Z</time>
      </trkpt>
      <trkpt lat="49.33007" lon="-1.71503">
        <ele>6</ele>
        <time>2022-06-18T09:15:51Z</time>
      </trkpt>
      <trkpt lat="49.32997" lon="-1.71223">
        <ele>5</ele>
        <time>2022-06-18T09:19:54Z</time>
      </trkpt>
      <trkpt lat="49.32974" lon="-1.71087">
        <ele>6</ele>
        <time>2022-06-18T09:21:57Z</time>
      </trkpt>
      <trkpt lat="49.32952" lon="-1.70987">
        <ele>5</ele>
        <time>2022-06-18T09:23:28Z</time>
      </trkpt>
      <trkpt lat="49.32934" lon="-1.70951">
        <ele>5</ele>
        <time>2022-06-18T09:24:08Z</time>
      </trkpt>
      <trkpt lat="49.32934" lon="-1.70919">
        <ele>5</ele>
        <time>2022-06-18T09:24:36Z</time>
      </trkpt>
      <trkpt lat="49.3291" lon="-1.70834">
        <ele>6</ele>
        <time>2022-06-18T09:25:56Z</time>
      </trkpt>
      <trkpt lat="49.32899" lon="-1.70744">
        <ele>3</ele>
        <time>2022-06-18T09:27:16Z</time>
      </trkpt>
      <trkpt lat="49.32907" lon="-1.70734">
        <ele>3</ele>
        <time>2022-06-18T09:27:30Z</time>
      </trkpt>
      <trkpt lat="49.32957" lon="-1.70738">
        <ele>4</ele>
        <time>2022-06-18T09:28:36Z</time>
      </trkpt>
      <trkpt lat="49.3297" lon="-1.70695">
        <ele>3</ele>
        <time>2022-06-18T09:29:18Z</time>
      </trkpt>
      <trkpt lat="49.33003" lon="-1.70642">
        <ele>2</ele>
        <time>2022-06-18T09:30:21Z</time>
      </trkpt>
      <trkpt lat="49.33013" lon="-1.70631">
        <ele>2</ele>
        <time>2022-06-18T09:30:38Z</time>
      </trkpt>
      <trkpt lat="49.33049" lon="-1.70576">
        <ele>2</ele>
        <time>2022-06-18T09:31:46Z</time>
      </trkpt>
      <trkpt lat="49.33063" lon="-1.7055">
        <ele>3</ele>
        <time>2022-06-18T09:32:15Z</time>
      </trkpt>
      <trkpt lat="49.33118" lon="-1.70468">
        <ele>4</ele>
        <time>2022-06-18T09:33:57Z</time>
      </trkpt>
      <trkpt lat="49.33138" lon="-1.70427">
        <ele>4</ele>
        <time>2022-06-18T09:34:42Z</time>
      </trkpt>
      <trkpt lat="49.33153" lon="-1.70433">
        <ele>4</ele>
        <time>2022-06-18T09:35:03Z</time>
      </trkpt>
      <trkpt lat="49.33316" lon="-1.7019">
        <ele>5.3</ele>
        <time>2022-06-18T09:40:06Z</time>
      </trkpt>
      <trkpt lat="49.33319" lon="-1.70196">
        <ele>5.1</ele>
        <time>2022-06-18T09:40:12Z</time>
      </trkpt>
      <trkpt lat="49.33358" lon="-1.70134">
        <ele>5.4</ele>
        <time>2022-06-18T09:41:27Z</time>
      </trkpt>
      <trkpt lat="49.33454" lon="-1.69994">
        <ele>5</ele>
        <time>2022-06-18T09:44:24Z</time>
      </trkpt>
      <trkpt lat="49.33464" lon="-1.69968">
        <ele>7</ele>
        <time>2022-06-18T09:44:50Z</time>
      </trkpt>
      <trkpt lat="49.33429" lon="-1.69935">
        <ele>6</ele>
        <time>2022-06-18T09:45:45Z</time>
      </trkpt>
      <trkpt lat="49.33421" lon="-1.69939">
        <ele>5</ele>
        <time>2022-06-18T09:45:56Z</time>
      </trkpt>
      <trkpt lat="49.33343" lon="-1.69818">
        <ele>5</ele>
        <time>2022-06-18T09:48:24Z</time>
      </trkpt>
      <trkpt lat="49.33299" lon="-1.69782">
        <ele>5</ele>
        <time>2022-06-18T09:49:31Z</time>
      </trkpt>
      <trkpt lat="49.33263" lon="-1.6975">
        <ele>5</ele>
        <time>2022-06-18T09:50:26Z</time>
      </trkpt>
      <trkpt lat="49.33218" lon="-1.69714">
        <ele>4</ele>
        <time>2022-06-18T09:51:34Z</time>
      </trkpt>
      <trkpt lat="49.33112" lon="-1.69581">
        <ele>4</ele>
        <time>2022-06-18T09:54:37Z</time>
      </trkpt>
      <trkpt lat="49.3309" lon="-1.69542">
        <ele>3</ele>
        <time>2022-06-18T09:55:22Z</time>
      </trkpt>
      <trkpt lat="49.33074" lon="-1.6946">
        <ele>4</ele>
        <time>2022-06-18T09:56:36Z</time>
      </trkpt>
      <trkpt lat="49.3307" lon="-1.69369">
        <ele>4</ele>
        <time>2022-06-18T09:57:55Z</time>
      </trkpt>
      <trkpt lat="49.33032" lon="-1.69276">
        <ele>4</ele>
        <time>2022-06-18T09:59:31Z</time>
      </trkpt>
      <trkpt lat="49.33002" lon="-1.69236">
        <ele>3</ele>
        <time>2022-06-18T10:00:24Z</time>
      </trkpt>
      <trkpt lat="49.32993" lon="-1.69149">
        <ele>5</ele>
        <time>2022-06-18T10:01:41Z</time>
      </trkpt>
      <trkpt lat="49.32987" lon="-1.69031">
        <ele>5</ele>
        <time>2022-06-18T10:03:23Z</time>
      </trkpt>
      <trkpt lat="49.32991" lon="-1.68957">
        <ele>5</ele>
        <time>2022-06-18T10:04:28Z</time>
      </trkpt>
      <trkpt lat="49.3301" lon="-1.68908">
        <ele>4</ele>
        <time>2022-06-18T10:05:18Z</time>
      </trkpt>
      <trkpt lat="49.33019" lon="-1.68837">
        <ele>4</ele>
        <time>2022-06-18T10:06:21Z</time>
      </trkpt>
      <trkpt lat="49.33056" lon="-1.68752">
        <ele>4</ele>
        <time>2022-06-18T10:07:49Z</time>
      </trkpt>
      <trkpt lat="49.33056" lon="-1.68696">
        <ele>5</ele>
        <time>2022-06-18T10:08:38Z</time>
      </trkpt>
      <trkpt lat="49.32982" lon="-1.68686">
        <ele>2</ele>
        <time>2022-06-18T10:10:17Z</time>
      </trkpt>
      <trkpt lat="49.32949" lon="-1.68676">
        <ele>2</ele>
        <time>2022-06-18T10:11:02Z</time>
      </trkpt>
      <trkpt lat="49.32892" lon="-1.68632">
        <ele>3</ele>
        <time>2022-06-18T10:12:27Z</time>
      </trkpt>
      <trkpt lat="49.3287" lon="-1.68603">
        <ele>4</ele>
        <time>2022-06-18T10:13:06Z</time>
      </trkpt>
      <trkpt lat="49.32804" lon="-1.68723">
        <ele>5</ele>
        <time>2022-06-18T10:15:23Z</time>
      </trkpt>
      <trkpt lat="49.32772" lon="-1.68749">
        <ele>5</ele>
        <time>2022-06-18T10:16:11Z</time>
      </trkpt>
      <trkpt lat="49.32769" lon="-1.68775">
        <ele>5</ele>
        <time>2022-06-18T10:16:34Z</time>
      </trkpt>
      <trkpt lat="49.32764" lon="-1.68784">
        <ele>5</ele>
        <time>2022-06-18T10:16:44Z</time>
      </trkpt>
      <trkpt lat="49.32753" lon="-1.68797">
        <ele>6</ele>
        <time>2022-06-18T10:17:03Z</time>
      </trkpt>
      <trkpt lat="49.32739" lon="-1.68823">
        <ele>6</ele>
        <time>2022-06-18T10:17:32Z</time>
      </trkpt>
      <trkpt lat="49.32723" lon="-1.68866">
        <ele>6</ele>
        <time>2022-06-18T10:18:15Z</time>
      </trkpt>
      <trkpt lat="49.32728" lon="-1.68933">
        <ele>7</ele>
        <time>2022-06-18T10:19:14Z</time>
      </trkpt>
      <trkpt lat="49.3271" lon="-1.68957">
        <ele>8</ele>
        <time>2022-06-18T10:19:46Z</time>
      </trkpt>
      <trkpt lat="49.32696" lon="-1.68998">
        <ele>9</ele>
        <time>2022-06-18T10:20:26Z</time>
      </trkpt>
      <trkpt lat="49.32668" lon="-1.69027">
        <ele>10</ele>
        <time>2022-06-18T10:21:11Z</time>
      </trkpt>
      <trkpt lat="49.32669" lon="-1.69052">
        <ele>11</ele>
        <time>2022-06-18T10:21:33Z</time>
      </trkpt>
      <trkpt lat="49.32635" lon="-1.69179">
        <ele>10</ele>
        <time>2022-06-18T10:23:32Z</time>
      </trkpt>
      <trkpt lat="49.32621" lon="-1.69199">
        <ele>11</ele>
        <time>2022-06-18T10:23:58Z</time>
      </trkpt>
      <trkpt lat="49.32591" lon="-1.69221">
        <ele>12</ele>
        <time>2022-06-18T10:24:42Z</time>
      </trkpt>
      <trkpt lat="49.3257" lon="-1.69242">
        <ele>13</ele>
        <time>2022-06-18T10:25:15Z</time>
      </trkpt>
      <trkpt lat="49.3255" lon="-1.69257">
        <ele>13</ele>
        <time>2022-06-18T10:25:45Z</time>
      </trkpt>
      <trkpt lat="49.32509" lon="-1.69293">
        <ele>15</ele>
        <time>2022-06-18T10:26:48Z</time>
      </trkpt>
      <trkpt lat="49.32497" lon="-1.69314">
        <ele>15</ele>
        <time>2022-06-18T10:27:12Z</time>
      </trkpt>
      <trkpt lat="49.32492" lon="-1.69393">
        <ele>15</ele>
        <time>2022-06-18T10:28:22Z</time>
      </trkpt>
      <trkpt lat="49.32458" lon="-1.69418">
        <ele>15</ele>
        <time>2022-06-18T10:29:12Z</time>
      </trkpt>
      <trkpt lat="49.32415" lon="-1.6947">
        <ele>17</ele>
        <time>2022-06-18T10:30:25Z</time>
      </trkpt>
      <trkpt lat="49.32388" lon="-1.69521">
        <ele>15</ele>
        <time>2022-06-18T10:31:22Z</time>
      </trkpt>
      <trkpt lat="49.32374" lon="-1.69535">
        <ele>14</ele>
        <time>2022-06-18T10:31:44Z</time>
      </trkpt>
      <trkpt lat="49.32339" lon="-1.69541">
        <ele>13</ele>
        <time>2022-06-18T10:32:31Z</time>
      </trkpt>
      <trkpt lat="49.32317" lon="-1.69537">
        <ele>12</ele>
        <time>2022-06-18T10:33:01Z</time>
      </trkpt>
      <trkpt lat="49.32284" lon="-1.6959">
        <ele>10</ele>
        <time>2022-06-18T10:34:05Z</time>
      </trkpt>
      <trkpt lat="49.32218" lon="-1.69676">
        <ele>9</ele>
        <time>2022-06-18T10:36:00Z</time>
      </trkpt>
      <trkpt lat="49.32211" lon="-1.69716">
        <ele>9</ele>
        <time>2022-06-18T10:36:36Z</time>
      </trkpt>
      <trkpt lat="49.32222" lon="-1.69784">
        <ele>10</ele>
        <time>2022-06-18T10:37:37Z</time>
      </trkpt>
      <trkpt lat="49.32243" lon="-1.69852">
        <ele>10</ele>
        <time>2022-06-18T10:38:43Z</time>
      </trkpt>
      <trkpt lat="49.32254" lon="-1.69895">
        <ele>9</ele>
        <time>2022-06-18T10:39:23Z</time>
      </trkpt>
      <trkpt lat="49.32249" lon="-1.69967">
        <ele>8</ele>
        <time>2022-06-18T10:40:26Z</time>
      </trkpt>
      <trkpt lat="49.32253" lon="-1.69996">
        <ele>8</ele>
        <time>2022-06-18T10:40:52Z</time>
      </trkpt>
      <trkpt lat="49.3224" lon="-1.70088">
        <ele>10</ele>
        <time>2022-06-18T10:42:13Z</time>
      </trkpt>
      <trkpt lat="49.32246" lon="-1.70121">
        <ele>10</ele>
        <time>2022-06-18T10:42:43Z</time>
      </trkpt>
      <trkpt lat="49.32248" lon="-1.70213">
        <ele>8</ele>
        <time>2022-06-18T10:44:03Z</time>
      </trkpt>
      <trkpt lat="49.32266" lon="-1.70267">
        <ele>7</ele>
        <time>2022-06-18T10:44:56Z</time>
      </trkpt>
      <trkpt lat="49.32267" lon="-1.70303">
        <ele>8</ele>
        <time>2022-06-18T10:45:27Z</time>
      </trkpt>
      <trkpt lat="49.32284" lon="-1.70347">
        <ele>8</ele>
        <time>2022-06-18T10:46:12Z</time>
      </trkpt>
      <trkpt lat="49.32285" lon="-1.70418">
        <ele>8</ele>
        <time>2022-06-18T10:47:14Z</time>
      </trkpt>
      <trkpt lat="49.32273" lon="-1.7048">
        <ele>5</ele>
        <time>2022-06-18T10:48:10Z</time>
      </trkpt>
      <trkpt lat="49.32231" lon="-1.7048">
        <ele>6</ele>
        <time>2022-06-18T10:49:06Z</time>
      </trkpt>
      <trkpt lat="49.32174" lon="-1.7047">
        <ele>6</ele>
        <time>2022-06-18T10:50:23Z</time>
      </trkpt>
      <trkpt lat="49.32028" lon="-1.70384">
        <ele>8</ele>
        <time>2022-06-18T10:53:51Z</time>
      </trkpt>
      <trkpt lat="49.31956" lon="-1.70346">
        <ele>8</ele>
        <time>2022-06-18T10:55:33Z</time>
      </trkpt>
      <trkpt lat="49.31881" lon="-1.7038">
        <ele>9</ele>
        <time>2022-06-18T10:57:17Z</time>
      </trkpt>
      <trkpt lat="49.31859" lon="-1.70474">
        <ele>11</ele>
        <time>2022-06-18T10:58:44Z</time>
      </trkpt>
      <trkpt lat="49.31837" lon="-1.70644">
        <ele>7</ele>
        <time>2022-06-18T11:01:15Z</time>
      </trkpt>
      <trkpt lat="49.31714" lon="-1.70502">
        <ele>10</ele>
        <time>2022-06-18T11:04:40Z</time>
      </trkpt>
      <trkpt lat="49.31743" lon="-1.70428">
        <ele>11</ele>
        <time>2022-06-18T11:05:55Z</time>
      </trkpt>
      <trkpt lat="49.31644" lon="-1.70308">
        <ele>9</ele>
        <time>2022-06-18T11:08:44Z</time>
      </trkpt>
      <trkpt lat="49.31725" lon="-1.70342">
        <ele>9</ele>
        <time>2022-06-18T11:10:36Z</time>
      </trkpt>
      <trkpt lat="49.31754" lon="-1.7008">
        <ele>8</ele>
        <time>2022-06-18T11:14:27Z</time>
      </trkpt>
      <trkpt lat="49.31766" lon="-1.69983">
        <ele>9</ele>
        <time>2022-06-18T11:15:53Z</time>
      </trkpt>
      <trkpt lat="49.31805" lon="-1.69958">
        <ele>9</ele>
        <time>2022-06-18T11:16:49Z</time>
      </trkpt>
      <trkpt lat="49.3184" lon="-1.69813">
        <ele>10</ele>
        <time>2022-06-18T11:19:04Z</time>
      </trkpt>
      <trkpt lat="49.31885" lon="-1.69713">
        <ele>10</ele>
        <time>2022-06-18T11:20:49Z</time>
      </trkpt>
      <trkpt lat="49.31893" lon="-1.69703">
        <ele>10</ele>
        <time>2022-06-18T11:21:03Z</time>
      </trkpt>
      <trkpt lat="49.31898" lon="-1.69707">
        <ele>10</ele>
        <time>2022-06-18T11:21:11Z</time>
      </trkpt>
      <trkpt lat="49.31915" lon="-1.69722">
        <ele>11</ele>
        <time>2022-06-18T11:21:37Z</time>
      </trkpt>
      <trkpt lat="49.31901" lon="-1.6969">
        <ele>10</ele>
        <time>2022-06-18T11:22:10Z</time>
      </trkpt>
      <trkpt lat="49.31965" lon="-1.69596">
        <ele>10</ele>
        <time>2022-06-18T11:24:09Z</time>
      </trkpt>
      <trkpt lat="49.31997" lon="-1.69341">
        <ele>12</ele>
        <time>2022-06-18T11:27:55Z</time>
      </trkpt>
      <trkpt lat="49.32082" lon="-1.6918">
        <ele>12</ele>
        <time>2022-06-18T11:30:55Z</time>
      </trkpt>
      <trkpt lat="49.32095" lon="-1.69062">
        <ele>11</ele>
        <time>2022-06-18T11:32:39Z</time>
      </trkpt>
      <trkpt lat="49.3203" lon="-1.69011">
        <ele>12</ele>
        <time>2022-06-18T11:34:16Z</time>
      </trkpt>
      <trkpt lat="49.32013" lon="-1.69015">
        <ele>12</ele>
        <time>2022-06-18T11:34:39Z</time>
      </trkpt>
      <trkpt lat="49.31861" lon="-1.69068">
        <ele>10</ele>
        <time>2022-06-18T11:38:07Z</time>
      </trkpt>
      <trkpt lat="49.31791" lon="-1.69132">
        <ele>11</ele>
        <time>2022-06-18T11:39:56Z</time>
      </trkpt>
      <trkpt lat="49.31735" lon="-1.69354">
        <ele>11</ele>
        <time>2022-06-18T11:43:23Z</time>
      </trkpt>
      <trkpt lat="49.31747" lon="-1.69372">
        <ele>11</ele>
        <time>2022-06-18T11:43:46Z</time>
      </trkpt>
      <trkpt lat="49.31572" lon="-1.69258">
        <ele>11</ele>
        <time>2022-06-18T11:47:59Z</time>
      </trkpt>
      <trkpt lat="49.31564" lon="-1.69317">
        <ele>11</ele>
        <time>2022-06-18T11:48:52Z</time>
      </trkpt>
      <trkpt lat="49.31814" lon="-1.68437">
        <ele>14</ele>
        <time>2022-06-18T12:02:47Z</time>
      </trkpt>
      <trkpt lat="49.31947" lon="-1.6856">
        <ele>14</ele>
        <time>2022-06-18T12:06:14Z</time>
      </trkpt>
      <trkpt lat="49.32081" lon="-1.68204">
        <ele>16</ele>
        <time>2022-06-18T12:12:12Z</time>
      </trkpt>
      <trkpt lat="49.3211" lon="-1.68296">
        <ele>15</ele>
        <time>2022-06-18T12:13:40Z</time>
      </trkpt>
      <trkpt lat="49.32149" lon="-1.68338">
        <ele>13</ele>
        <time>2022-06-18T12:14:44Z</time>
      </trkpt>
      <trkpt lat="49.3221" lon="-1.68336">
        <ele>13</ele>
        <time>2022-06-18T12:16:05Z</time>
      </trkpt>
      <trkpt lat="49.3226" lon="-1.6842">
        <ele>12</ele>
        <time>2022-06-18T12:17:44Z</time>
      </trkpt>
      <trkpt lat="49.32324" lon="-1.68373">
        <ele>12</ele>
        <time>2022-06-18T12:19:19Z</time>
      </trkpt>
      <trkpt lat="49.32394" lon="-1.68391">
        <ele>11</ele>
        <time>2022-06-18T12:20:54Z</time>
      </trkpt>
      <trkpt lat="49.32425" lon="-1.68384">
        <ele>10</ele>
        <time>2022-06-18T12:21:36Z</time>
      </trkpt>
      <trkpt lat="49.32442" lon="-1.68388">
        <ele>10</ele>
        <time>2022-06-18T12:21:59Z</time>
      </trkpt>
      <trkpt lat="49.32468" lon="-1.68357">
        <ele>9</ele>
        <time>2022-06-18T12:22:42Z</time>
      </trkpt>
      <trkpt lat="49.32503" lon="-1.68382">
        <ele>8</ele>
        <time>2022-06-18T12:23:34Z</time>
      </trkpt>
      <trkpt lat="49.32547" lon="-1.68438">
        <ele>8</ele>
        <time>2022-06-18T12:24:50Z</time>
      </trkpt>
      <trkpt lat="49.32582" lon="-1.68489">
        <ele>8</ele>
        <time>2022-06-18T12:25:55Z</time>
      </trkpt>
      <trkpt lat="49.32624" lon="-1.68542">
        <ele>7</ele>
        <time>2022-06-18T12:27:07Z</time>
      </trkpt>
      <trkpt lat="49.32664" lon="-1.68599">
        <ele>7</ele>
        <time>2022-06-18T12:28:20Z</time>
      </trkpt>
      <trkpt lat="49.32717" lon="-1.68662">
        <ele>7</ele>
        <time>2022-06-18T12:29:50Z</time>
      </trkpt>
      <trkpt lat="49.3276" lon="-1.68721">
        <ele>6</ele>
        <time>2022-06-18T12:31:07Z</time>
      </trkpt>
      <trkpt lat="49.32765" lon="-1.68709">
        <ele>6</ele>
        <time>2022-06-18T12:31:19Z</time>
      </trkpt>
      <trkpt lat="49.3279" lon="-1.68721">
        <ele>5</ele>
        <time>2022-06-18T12:31:54Z</time>
      </trkpt>
      <trkpt lat="49.32797" lon="-1.68721">
        <ele>5</ele>
        <time>2022-06-18T12:32:03Z</time>
      </trkpt>
      <trkpt lat="49.32808" lon="-1.68708">
        <ele>5</ele>
        <time>2022-06-18T12:32:22Z</time>
      </trkpt>
      <trkpt lat="49.32866" lon="-1.68599">
        <ele>4</ele>
        <time>2022-06-18T12:34:24Z</time>
      </trkpt>
      <trkpt lat="49.3285" lon="-1.68554">
        <ele>5</ele>
        <time>2022-06-18T12:35:09Z</time>
      </trkpt>
      <trkpt lat="49.32742" lon="-1.68319">
        <ele>7</ele>
        <time>2022-06-18T12:39:19Z</time>
      </trkpt>
      <trkpt lat="49.32717" lon="-1.67853">
        <ele>9</ele>
        <time>2022-06-18T12:46:05Z</time>
      </trkpt>
      <trkpt lat="49.33233" lon="-1.6793">
        <ele>13</ele>
        <time>2022-06-18T12:57:37Z</time>
      </trkpt>
      <trkpt lat="49.33135" lon="-1.6815">
        <ele>9</ele>
        <time>2022-06-18T13:01:29Z</time>
      </trkpt>
      <trkpt lat="49.33091" lon="-1.68357">
        <ele>5</ele>
        <time>2022-06-18T13:04:38Z</time>
      </trkpt>
      <trkpt lat="49.33073" lon="-1.68571">
        <ele>7</ele>
        <time>2022-06-18T13:07:46Z</time>
      </trkpt>
      <trkpt lat="49.33286" lon="-1.68707">
        <ele>15</ele>
        <time>2022-06-18T13:12:54Z</time>
      </trkpt>
      <trkpt lat="49.33265" lon="-1.68864">
        <ele>14</ele>
        <time>2022-06-18T13:15:13Z</time>
      </trkpt>
      <trkpt lat="49.3331" lon="-1.68947">
        <ele>14</ele>
        <time>2022-06-18T13:16:47Z</time>
      </trkpt>
      <trkpt lat="49.3336" lon="-1.69067">
        <ele>13</ele>
        <time>2022-06-18T13:18:51Z</time>
      </trkpt>
      <trkpt lat="49.33332" lon="-1.69208">
        <ele>12</ele>
        <time>2022-06-18T13:20:59Z</time>
      </trkpt>
      <trkpt lat="49.3339" lon="-1.69238">
        <ele>13</ele>
        <time>2022-06-18T13:22:21Z</time>
      </trkpt>
      <trkpt lat="49.33448" lon="-1.69293">
        <ele>14</ele>
        <time>2022-06-18T13:23:52Z</time>
      </trkpt>
      <trkpt lat="49.33349" lon="-1.69687">
        <ele>9</ele>
        <time>2022-06-18T13:29:59Z</time>
      </trkpt>
      <trkpt lat="49.33401" lon="-1.69723">
        <ele>10</ele>
        <time>2022-06-18T13:31:15Z</time>
      </trkpt>
      <trkpt lat="49.33435" lon="-1.6976">
        <ele>10</ele>
        <time>2022-06-18T13:32:11Z</time>
      </trkpt>
      <trkpt lat="49.33461" lon="-1.69806">
        <ele>11</ele>
        <time>2022-06-18T13:33:04Z</time>
      </trkpt>
      <trkpt lat="49.33497" lon="-1.69862">
        <ele>11</ele>
        <time>2022-06-18T13:34:12Z</time>
      </trkpt>
      <trkpt lat="49.33502" lon="-1.69895">
        <ele>11</ele>
        <time>2022-06-18T13:34:42Z</time>
      </trkpt>
      <trkpt lat="49.33493" lon="-1.69949">
        <ele>9</ele>
        <time>2022-06-18T13:35:30Z</time>
      </trkpt>
      <trkpt lat="49.33522" lon="-1.69985">
        <ele>9</ele>
        <time>2022-06-18T13:36:20Z</time>
      </trkpt>
      <trkpt lat="49.33559" lon="-1.70013">
        <ele>8</ele>
        <time>2022-06-18T13:37:15Z</time>
      </trkpt>
      <trkpt lat="49.33656" lon="-1.70063">
        <ele>6</ele>
        <time>2022-06-18T13:39:32Z</time>
      </trkpt>
      <trkpt lat="49.33677" lon="-1.70066">
        <ele>6</ele>
        <time>2022-06-18T13:40:00Z</time>
      </trkpt>
      <trkpt lat="49.33839" lon="-1.69998">
        <ele>7</ele>
        <time>2022-06-18T13:43:44Z</time>
      </trkpt>
      <trkpt lat="49.33906" lon="-1.70022">
        <ele>8</ele>
        <time>2022-06-18T13:45:16Z</time>
      </trkpt>
      <trkpt lat="49.33906" lon="-1.70021">
        <ele>8</ele>
        <time>2022-06-18T13:45:16Z</time>
      </trkpt>
      <trkpt lat="49.33939" lon="-1.70037">
        <ele>9</ele>
        <time>2022-06-18T13:46:03Z</time>
      </trkpt>
      <trkpt lat="49.34006" lon="-1.70077">
        <ele>8</ele>
        <time>2022-06-18T13:47:39Z</time>
      </trkpt>
      <trkpt lat="49.34052" lon="-1.70111">
        <ele>8</ele>
        <time>2022-06-18T13:48:47Z</time>
      </trkpt>
      <trkpt lat="49.34083" lon="-1.70138">
        <ele>8</ele>
        <time>2022-06-18T13:49:34Z</time>
      </trkpt>
      <trkpt lat="49.34123" lon="-1.70182">
        <ele>8</ele>
        <time>2022-06-18T13:50:40Z</time>
      </trkpt>
      <trkpt lat="49.34227" lon="-1.70344">
        <ele>7</ele>
        <time>2022-06-18T13:53:58Z</time>
      </trkpt>
      <trkpt lat="49.34283" lon="-1.70437">
        <ele>6</ele>
        <time>2022-06-18T13:55:48Z</time>
      </trkpt>
      <trkpt lat="49.34293" lon="-1.70476">
        <ele>6</ele>
        <time>2022-06-18T13:56:24Z</time>
      </trkpt>
      <trkpt lat="49.34309" lon="-1.70524">
        <ele>6</ele>
        <time>2022-06-18T13:57:11Z</time>
      </trkpt>
      <trkpt lat="49.34332" lon="-1.70602">
        <ele>6</ele>
        <time>2022-06-18T13:58:26Z</time>
      </trkpt>
      <trkpt lat="49.34353" lon="-1.70688">
        <ele>6</ele>
        <time>2022-06-18T13:59:45Z</time>
      </trkpt>
      <trkpt lat="49.3438" lon="-1.70753">
        <ele>6</ele>
        <time>2022-06-18T14:00:52Z</time>
      </trkpt>
      <trkpt lat="49.34397" lon="-1.70785">
        <ele>7</ele>
        <time>2022-06-18T14:01:28Z</time>
      </trkpt>
      <trkpt lat="49.34418" lon="-1.70824">
        <ele>8</ele>
        <time>2022-06-18T14:02:12Z</time>
      </trkpt>
      <trkpt lat="49.34459" lon="-1.70892">
        <ele>9</ele>
        <time>2022-06-18T14:03:33Z</time>
      </trkpt>
      <trkpt lat="49.34513" lon="-1.7098">
        <ele>10</ele>
        <time>2022-06-18T14:05:18Z</time>
      </trkpt>
      <trkpt lat="49.34562" lon="-1.71052">
        <ele>10</ele>
        <time>2022-06-18T14:06:49Z</time>
      </trkpt>
      <trkpt lat="49.34623" lon="-1.71155">
        <ele>10</ele>
        <time>2022-06-18T14:08:50Z</time>
      </trkpt>
      <trkpt lat="49.34643" lon="-1.71182">
        <ele>10</ele>
        <time>2022-06-18T14:09:25Z</time>
      </trkpt>
      <trkpt lat="49.34675" lon="-1.71231">
        <ele>10</ele>
        <time>2022-06-18T14:10:25Z</time>
      </trkpt>
      <trkpt lat="49.34711" lon="-1.71276">
        <ele>10</ele>
        <time>2022-06-18T14:11:27Z</time>
      </trkpt>
      <trkpt lat="49.34719" lon="-1.71289">
        <ele>10</ele>
        <time>2022-06-18T14:11:43Z</time>
      </trkpt>
      <trkpt lat="49.34708" lon="-1.71309">
        <ele>9</ele>
        <time>2022-06-18T14:12:06Z</time>
      </trkpt>
      <trkpt lat="49.34625" lon="-1.71403">
        <ele>5</ele>
        <time>2022-06-18T14:14:23Z</time>
      </trkpt>
      <trkpt lat="49.3462" lon="-1.71411">
        <ele>5</ele>
        <time>2022-06-18T14:14:33Z</time>
      </trkpt>
      <trkpt lat="49.34611" lon="-1.71447">
        <ele>4</ele>
        <time>2022-06-18T14:15:06Z</time>
      </trkpt>
      <trkpt lat="49.34625" lon="-1.71576">
        <ele>5</ele>
        <time>2022-06-18T14:17:00Z</time>
      </trkpt>
      <trkpt lat="49.34658" lon="-1.7156">
        <ele>6</ele>
        <time>2022-06-18T14:17:46Z</time>
      </trkpt>
      <trkpt lat="49.3468" lon="-1.71555">
        <ele>6</ele>
        <time>2022-06-18T14:18:16Z</time>
      </trkpt>
      <trkpt lat="49.3474" lon="-1.71519">
        <ele>5</ele>
        <time>2022-06-18T14:19:42Z</time>
      </trkpt>
      <trkpt lat="49.34744" lon="-1.71523">
        <ele>5</ele>
        <time>2022-06-18T14:19:48Z</time>
      </trkpt>
      <trkpt lat="49.34756" lon="-1.71547">
        <ele>6</ele>
        <time>2022-06-18T14:20:15Z</time>
      </trkpt>
      <trkpt lat="49.34722" lon="-1.71599">
        <ele>6</ele>
        <time>2022-06-18T14:21:19Z</time>
      </trkpt>
      <trkpt lat="49.34688" lon="-1.71669">
        <ele>6</ele>
        <time>2022-06-18T14:22:35Z</time>
      </trkpt>
      <trkpt lat="49.34675" lon="-1.71716">
        <ele>5</ele>
        <time>2022-06-18T14:23:19Z</time>
      </trkpt>
      <trkpt lat="49.34675" lon="-1.71753">
        <ele>4</ele>
        <time>2022-06-18T14:23:51Z</time>
      </trkpt>
      <trkpt lat="49.34672" lon="-1.71797">
        <ele>5</ele>
        <time>2022-06-18T14:24:30Z</time>
      </trkpt>
      <trkpt lat="49.34663" lon="-1.71836">
        <ele>5</ele>
        <time>2022-06-18T14:25:06Z</time>
      </trkpt>
      <trkpt lat="49.34616" lon="-1.71972">
        <ele>5</ele>
        <time>2022-06-18T14:27:19Z</time>
      </trkpt>
      <trkpt lat="49.34516" lon="-1.72198">
        <ele>7</ele>
        <time>2022-06-18T14:31:17Z</time>
      </trkpt>
      <trkpt lat="49.34497" lon="-1.72212">
        <ele>7</ele>
        <time>2022-06-18T14:31:45Z</time>
      </trkpt>
      <trkpt lat="49.34257" lon="-1.71956">
        <ele>6</ele>
        <time>2022-06-18T14:38:15Z</time>
      </trkpt>
      <trkpt lat="49.3418" lon="-1.7214">
        <ele>7</ele>
        <time>2022-06-18T14:41:25Z</time>
      </trkpt>
      <trkpt lat="49.34028" lon="-1.7198">
        <ele>8</ele>
        <time>2022-06-18T14:45:31Z</time>
      </trkpt>
      <trkpt lat="49.3402" lon="-1.71978">
        <ele>8</ele>
        <time>2022-06-18T14:45:42Z</time>
      </trkpt>
      <trkpt lat="49.34012" lon="-1.71981">
        <ele>8</ele>
        <time>2022-06-18T14:45:53Z</time>
      </trkpt>
      <trkpt lat="49.33829" lon="-1.72323">
        <ele>6</ele>
        <time>2022-06-18T14:52:18Z</time>
      </trkpt>
      <trkpt lat="49.33776" lon="-1.72425">
        <ele>7</ele>
        <time>2022-06-18T14:54:11Z</time>
      </trkpt>
      <trkpt lat="49.33736" lon="-1.72497">
        <ele>7</ele>
        <time>2022-06-18T14:55:34Z</time>
      </trkpt>
      <trkpt lat="49.33475" lon="-1.72191">
        <ele>7</ele>
        <time>2022-06-18T15:02:52Z</time>
      </trkpt>
      <trkpt lat="49.33378" lon="-1.72398">
        <ele>6</ele>
        <time>2022-06-18T15:06:34Z</time>
      </trkpt>
      <trkpt lat="49.33443" lon="-1.72542">
        <ele>6</ele>
        <time>2022-06-18T15:09:06Z</time>
      </trkpt>
    </trkseg>
  </trk>
  <trk>
    <name><![CDATA[port  bail 17,2 Km]]></name>
    <desc><![CDATA[Total: 17.2km]]></desc>
    <extensions>
      <line xmlns="http://www.topografix.com/GPX/gpx_style/0/2">
        <color>FF0000</color>
        <width>4</width>
      </line>
    </extensions>
    <trkseg>
      <trkpt lat="49.33435" lon="-1.72536">
        <ele>7</ele>
      </trkpt>
      <trkpt lat="49.33374" lon="-1.72397">
        <ele>7.842</ele>
      </trkpt>
      <trkpt lat="49.33472" lon="-1.72185">
        <ele>8</ele>
      </trkpt>
      <trkpt lat="49.33233" lon="-1.71928">
        <ele>7.155</ele>
      </trkpt>
      <trkpt lat="49.33155" lon="-1.71848">
        <ele>7</ele>
      </trkpt>
      <trkpt lat="49.33058" lon="-1.71655">
        <ele>7.853</ele>
      </trkpt>
      <trkpt lat="49.33048" lon="-1.7164">
        <ele>8.269</ele>
      </trkpt>
      <trkpt lat="49.33035" lon="-1.71622">
        <ele>8.744</ele>
      </trkpt>
      <trkpt lat="49.33032" lon="-1.71605">
        <ele>8.649</ele>
      </trkpt>
      <trkpt lat="49.33024" lon="-1.716">
        <ele>8.367</ele>
      </trkpt>
      <trkpt lat="49.33017" lon="-1.71569">
        <ele>7.298</ele>
      </trkpt>
      <trkpt lat="49.33012" lon="-1.7155">
        <ele>7</ele>
      </trkpt>
      <trkpt lat="49.33007" lon="-1.71503">
        <ele>7.671</ele>
      </trkpt>
      <trkpt lat="49.32997" lon="-1.71223">
        <ele>7.724</ele>
      </trkpt>
      <trkpt lat="49.32974" lon="-1.71087">
        <ele>7.875</ele>
      </trkpt>
      <trkpt lat="49.32952" lon="-1.70987">
        <ele>7.913</ele>
      </trkpt>
      <trkpt lat="49.32934" lon="-1.70951">
        <ele>7.465</ele>
      </trkpt>
      <trkpt lat="49.32934" lon="-1.70919">
        <ele>6.902</ele>
      </trkpt>
      <trkpt lat="49.3291" lon="-1.70834">
        <ele>8.763</ele>
      </trkpt>
      <trkpt lat="49.32899" lon="-1.70744">
        <ele>5.379</ele>
      </trkpt>
      <trkpt lat="49.32907" lon="-1.70734">
        <ele>3.903</ele>
      </trkpt>
      <trkpt lat="49.32957" lon="-1.70738">
        <ele>6.731</ele>
      </trkpt>
      <trkpt lat="49.3297" lon="-1.70695">
        <ele>6.534</ele>
      </trkpt>
      <trkpt lat="49.33003" lon="-1.70642">
        <ele>6.884</ele>
      </trkpt>
      <trkpt lat="49.33013" lon="-1.70631">
        <ele>6.04</ele>
      </trkpt>
      <trkpt lat="49.33049" lon="-1.70576">
        <ele>6.851</ele>
      </trkpt>
      <trkpt lat="49.33063" lon="-1.7055">
        <ele>6.378</ele>
      </trkpt>
      <trkpt lat="49.33118" lon="-1.70468">
        <ele>6.823</ele>
      </trkpt>
      <trkpt lat="49.33138" lon="-1.70427">
        <ele>7.363</ele>
      </trkpt>
      <trkpt lat="49.33153" lon="-1.70433">
        <ele>6.9</ele>
      </trkpt>
      <trkpt lat="49.33195" lon="-1.7037">
        <ele>7.624</ele>
      </trkpt>
      <trkpt lat="49.33234" lon="-1.70314">
        <ele>6.741</ele>
      </trkpt>
      <trkpt lat="49.3329" lon="-1.70228">
        <ele>6.484</ele>
      </trkpt>
      <trkpt lat="49.33316" lon="-1.70191">
        <ele>5.34</ele>
      </trkpt>
      <trkpt lat="49.33319" lon="-1.70196">
        <ele>5.074</ele>
      </trkpt>
      <trkpt lat="49.33358" lon="-1.70134">
        <ele>5.443</ele>
      </trkpt>
      <trkpt lat="49.33404" lon="-1.70067">
        <ele>2</ele>
      </trkpt>
      <trkpt lat="49.33431" lon="-1.70026">
        <ele>3.576</ele>
      </trkpt>
      <trkpt lat="49.33454" lon="-1.69994">
        <ele>6.487</ele>
      </trkpt>
      <trkpt lat="49.33464" lon="-1.69968">
        <ele>7.113</ele>
      </trkpt>
      <trkpt lat="49.33429" lon="-1.69935">
        <ele>6.272</ele>
      </trkpt>
      <trkpt lat="49.33421" lon="-1.69939">
        <ele>5.66</ele>
      </trkpt>
      <trkpt lat="49.33385" lon="-1.69882">
        <ele>6.622</ele>
      </trkpt>
      <trkpt lat="49.33343" lon="-1.69818">
        <ele>6.438</ele>
      </trkpt>
      <trkpt lat="49.33299" lon="-1.69782">
        <ele>6.567</ele>
      </trkpt>
      <trkpt lat="49.33263" lon="-1.6975">
        <ele>6.457</ele>
      </trkpt>
      <trkpt lat="49.33218" lon="-1.69714">
        <ele>6.767</ele>
      </trkpt>
      <trkpt lat="49.33171" lon="-1.69656">
        <ele>6.511</ele>
      </trkpt>
      <trkpt lat="49.33112" lon="-1.69581">
        <ele>7.087</ele>
      </trkpt>
      <trkpt lat="49.3309" lon="-1.69542">
        <ele>6.851</ele>
      </trkpt>
      <trkpt lat="49.33074" lon="-1.6946">
        <ele>6.665</ele>
      </trkpt>
      <trkpt lat="49.33073" lon="-1.69427">
        <ele>7.137</ele>
      </trkpt>
      <trkpt lat="49.3307" lon="-1.69369">
        <ele>7.453</ele>
      </trkpt>
      <trkpt lat="49.33032" lon="-1.69276">
        <ele>6.516</ele>
      </trkpt>
      <trkpt lat="49.33002" lon="-1.69236">
        <ele>5.144</ele>
      </trkpt>
      <trkpt lat="49.32993" lon="-1.69149">
        <ele>5.972</ele>
      </trkpt>
      <trkpt lat="49.32987" lon="-1.69031">
        <ele>6.09</ele>
      </trkpt>
      <trkpt lat="49.32991" lon="-1.68957">
        <ele>6.192</ele>
      </trkpt>
      <trkpt lat="49.3301" lon="-1.68908">
        <ele>5.71</ele>
      </trkpt>
      <trkpt lat="49.33019" lon="-1.68838">
        <ele>5.756</ele>
      </trkpt>
      <trkpt lat="49.33056" lon="-1.68752">
        <ele>6.12</ele>
      </trkpt>
      <trkpt lat="49.33056" lon="-1.68696">
        <ele>6.048</ele>
      </trkpt>
      <trkpt lat="49.33018" lon="-1.6869">
        <ele>3.366</ele>
      </trkpt>
      <trkpt lat="49.32982" lon="-1.68686">
        <ele>4.652</ele>
      </trkpt>
      <trkpt lat="49.32949" lon="-1.68676">
        <ele>5</ele>
      </trkpt>
      <trkpt lat="49.32892" lon="-1.68632">
        <ele>5.465</ele>
      </trkpt>
      <trkpt lat="49.3287" lon="-1.68603">
        <ele>6.514</ele>
      </trkpt>
      <trkpt lat="49.32804" lon="-1.68723">
        <ele>4.985</ele>
      </trkpt>
      <trkpt lat="49.32772" lon="-1.68749">
        <ele>6.163</ele>
      </trkpt>
      <trkpt lat="49.32769" lon="-1.68775">
        <ele>6.612</ele>
      </trkpt>
      <trkpt lat="49.32764" lon="-1.68784">
        <ele>6.785</ele>
      </trkpt>
      <trkpt lat="49.32753" lon="-1.68797">
        <ele>6.554</ele>
      </trkpt>
      <trkpt lat="49.32739" lon="-1.68823">
        <ele>7.028</ele>
      </trkpt>
      <trkpt lat="49.32723" lon="-1.68867">
        <ele>8.194</ele>
      </trkpt>
      <trkpt lat="49.32728" lon="-1.68933">
        <ele>9.481</ele>
      </trkpt>
      <trkpt lat="49.3271" lon="-1.68957">
        <ele>11.755</ele>
      </trkpt>
      <trkpt lat="49.32696" lon="-1.68998">
        <ele>16.599</ele>
      </trkpt>
      <trkpt lat="49.32668" lon="-1.69027">
        <ele>15.804</ele>
      </trkpt>
      <trkpt lat="49.32669" lon="-1.69052">
        <ele>14.703</ele>
      </trkpt>
      <trkpt lat="49.32665" lon="-1.69064">
        <ele>15.573</ele>
      </trkpt>
      <trkpt lat="49.3265" lon="-1.69123">
        <ele>16.317</ele>
      </trkpt>
      <trkpt lat="49.32635" lon="-1.69179">
        <ele>18.567</ele>
      </trkpt>
      <trkpt lat="49.32621" lon="-1.69199">
        <ele>19.683</ele>
      </trkpt>
      <trkpt lat="49.32591" lon="-1.69221">
        <ele>18.742</ele>
      </trkpt>
      <trkpt lat="49.3257" lon="-1.69242">
        <ele>17.479</ele>
      </trkpt>
      <trkpt lat="49.3255" lon="-1.69257">
        <ele>18.872</ele>
      </trkpt>
      <trkpt lat="49.32509" lon="-1.69293">
        <ele>18.037</ele>
      </trkpt>
      <trkpt lat="49.32497" lon="-1.69314">
        <ele>17.484</ele>
      </trkpt>
      <trkpt lat="49.32492" lon="-1.69393">
        <ele>18.665</ele>
      </trkpt>
      <trkpt lat="49.32458" lon="-1.69418">
        <ele>18.539</ele>
      </trkpt>
      <trkpt lat="49.32415" lon="-1.6947">
        <ele>19.554</ele>
      </trkpt>
      <trkpt lat="49.32388" lon="-1.69521">
        <ele>17.937</ele>
      </trkpt>
      <trkpt lat="49.32374" lon="-1.69535">
        <ele>17.581</ele>
      </trkpt>
      <trkpt lat="49.32339" lon="-1.69541">
        <ele>19.123</ele>
      </trkpt>
      <trkpt lat="49.32317" lon="-1.69537">
        <ele>17.499</ele>
      </trkpt>
      <trkpt lat="49.32284" lon="-1.6959">
        <ele>15.607</ele>
      </trkpt>
      <trkpt lat="49.32218" lon="-1.69676">
        <ele>10.347</ele>
      </trkpt>
      <trkpt lat="49.32211" lon="-1.69716">
        <ele>11.451</ele>
      </trkpt>
      <trkpt lat="49.32222" lon="-1.69784">
        <ele>11.194</ele>
      </trkpt>
      <trkpt lat="49.32243" lon="-1.69852">
        <ele>10.49</ele>
      </trkpt>
      <trkpt lat="49.32254" lon="-1.69895">
        <ele>9.966</ele>
      </trkpt>
      <trkpt lat="49.32252" lon="-1.6994">
        <ele>9.102</ele>
      </trkpt>
      <trkpt lat="49.32249" lon="-1.69967">
        <ele>9.065</ele>
      </trkpt>
      <trkpt lat="49.32253" lon="-1.69996">
        <ele>8.121</ele>
      </trkpt>
      <trkpt lat="49.32244" lon="-1.70063">
        <ele>8.824</ele>
      </trkpt>
      <trkpt lat="49.3224" lon="-1.70088">
        <ele>9.942</ele>
      </trkpt>
      <trkpt lat="49.32246" lon="-1.70121">
        <ele>10.082</ele>
      </trkpt>
      <trkpt lat="49.32248" lon="-1.70213">
        <ele>9.759</ele>
      </trkpt>
      <trkpt lat="49.32266" lon="-1.70267">
        <ele>9.205</ele>
      </trkpt>
      <trkpt lat="49.32266" lon="-1.70285">
        <ele>9.64</ele>
      </trkpt>
      <trkpt lat="49.32267" lon="-1.70303">
        <ele>9.06</ele>
      </trkpt>
      <trkpt lat="49.32284" lon="-1.70347">
        <ele>9</ele>
      </trkpt>
      <trkpt lat="49.32285" lon="-1.70418">
        <ele>8.23</ele>
      </trkpt>
      <trkpt lat="49.32273" lon="-1.7048">
        <ele>7.114</ele>
      </trkpt>
      <trkpt lat="49.32231" lon="-1.7048">
        <ele>7.907</ele>
      </trkpt>
      <trkpt lat="49.32174" lon="-1.7047">
        <ele>8.157</ele>
      </trkpt>
      <trkpt lat="49.32028" lon="-1.70384">
        <ele>10.401</ele>
      </trkpt>
      <trkpt lat="49.31956" lon="-1.70346">
        <ele>11.32</ele>
      </trkpt>
      <trkpt lat="49.31855" lon="-1.70348">
        <ele>8.535</ele>
      </trkpt>
      <trkpt lat="49.3174" lon="-1.70348">
        <ele>10.14</ele>
      </trkpt>
      <trkpt lat="49.31754" lon="-1.7008">
        <ele>8.241</ele>
      </trkpt>
      <trkpt lat="49.31701" lon="-1.69988">
        <ele>9</ele>
      </trkpt>
      <trkpt lat="49.31657" lon="-1.69921">
        <ele>9.362</ele>
      </trkpt>
      <trkpt lat="49.31649" lon="-1.69853">
        <ele>10.213</ele>
      </trkpt>
      <trkpt lat="49.31744" lon="-1.69371">
        <ele>13</ele>
      </trkpt>
      <trkpt lat="49.31595" lon="-1.69285">
        <ele>13</ele>
      </trkpt>
      <trkpt lat="49.31586" lon="-1.6928">
        <ele>13</ele>
      </trkpt>
      <trkpt lat="49.31574" lon="-1.69274">
        <ele>13</ele>
      </trkpt>
      <trkpt lat="49.31644" lon="-1.6903">
        <ele>13.745</ele>
      </trkpt>
      <trkpt lat="49.31712" lon="-1.68791">
        <ele>14.51</ele>
      </trkpt>
      <trkpt lat="49.3178" lon="-1.68554">
        <ele>15</ele>
      </trkpt>
      <trkpt lat="49.31814" lon="-1.68437">
        <ele>15.192</ele>
      </trkpt>
      <trkpt lat="49.31947" lon="-1.6856">
        <ele>15</ele>
      </trkpt>
      <trkpt lat="49.32081" lon="-1.68205">
        <ele>16</ele>
      </trkpt>
      <trkpt lat="49.3211" lon="-1.68296">
        <ele>15.666</ele>
      </trkpt>
      <trkpt lat="49.32149" lon="-1.68338">
        <ele>15.301</ele>
      </trkpt>
      <trkpt lat="49.3221" lon="-1.68337">
        <ele>14.596</ele>
      </trkpt>
      <trkpt lat="49.32238" lon="-1.68382">
        <ele>14.782</ele>
      </trkpt>
      <trkpt lat="49.3226" lon="-1.6842">
        <ele>14</ele>
      </trkpt>
      <trkpt lat="49.32324" lon="-1.68373">
        <ele>14</ele>
      </trkpt>
      <trkpt lat="49.32394" lon="-1.68392">
        <ele>12.484</ele>
      </trkpt>
      <trkpt lat="49.32425" lon="-1.68384">
        <ele>11.187</ele>
      </trkpt>
      <trkpt lat="49.32442" lon="-1.68388">
        <ele>11.032</ele>
      </trkpt>
      <trkpt lat="49.32468" lon="-1.68357">
        <ele>11.118</ele>
      </trkpt>
      <trkpt lat="49.32503" lon="-1.68382">
        <ele>10.658</ele>
      </trkpt>
      <trkpt lat="49.32547" lon="-1.68438">
        <ele>8.938</ele>
      </trkpt>
      <trkpt lat="49.32582" lon="-1.68489">
        <ele>9.633</ele>
      </trkpt>
      <trkpt lat="49.32624" lon="-1.68543">
        <ele>8.504</ele>
      </trkpt>
      <trkpt lat="49.32638" lon="-1.68564">
        <ele>7.638</ele>
      </trkpt>
      <trkpt lat="49.32664" lon="-1.68599">
        <ele>8.037</ele>
      </trkpt>
      <trkpt lat="49.32696" lon="-1.68636">
        <ele>7.1</ele>
      </trkpt>
      <trkpt lat="49.32717" lon="-1.68662">
        <ele>6.495</ele>
      </trkpt>
      <trkpt lat="49.3276" lon="-1.68721">
        <ele>6.291</ele>
      </trkpt>
      <trkpt lat="49.32765" lon="-1.68709">
        <ele>6.512</ele>
      </trkpt>
      <trkpt lat="49.3279" lon="-1.68721">
        <ele>5.183</ele>
      </trkpt>
      <trkpt lat="49.32797" lon="-1.68721">
        <ele>5.105</ele>
      </trkpt>
      <trkpt lat="49.32808" lon="-1.68708">
        <ele>6.005</ele>
      </trkpt>
      <trkpt lat="49.32825" lon="-1.68675">
        <ele>6.528</ele>
      </trkpt>
      <trkpt lat="49.32866" lon="-1.68599">
        <ele>6.545</ele>
      </trkpt>
      <trkpt lat="49.3285" lon="-1.68554">
        <ele>7.944</ele>
      </trkpt>
      <trkpt lat="49.32742" lon="-1.68319">
        <ele>9.151</ele>
      </trkpt>
      <trkpt lat="49.32728" lon="-1.68084">
        <ele>9</ele>
      </trkpt>
      <trkpt lat="49.32717" lon="-1.67853">
        <ele>11</ele>
      </trkpt>
      <trkpt lat="49.32982" lon="-1.67892">
        <ele>8.676</ele>
      </trkpt>
      <trkpt lat="49.33233" lon="-1.6793">
        <ele>14.524</ele>
      </trkpt>
      <trkpt lat="49.33135" lon="-1.6815">
        <ele>10.691</ele>
      </trkpt>
      <trkpt lat="49.33091" lon="-1.68357">
        <ele>5.516</ele>
      </trkpt>
      <trkpt lat="49.33073" lon="-1.68572">
        <ele>9.628</ele>
      </trkpt>
      <trkpt lat="49.33286" lon="-1.68707">
        <ele>14.693</ele>
      </trkpt>
      <trkpt lat="49.33265" lon="-1.68864">
        <ele>14</ele>
      </trkpt>
      <trkpt lat="49.3331" lon="-1.68947">
        <ele>14.164</ele>
      </trkpt>
      <trkpt lat="49.3336" lon="-1.69067">
        <ele>14.557</ele>
      </trkpt>
      <trkpt lat="49.33332" lon="-1.69208">
        <ele>14</ele>
      </trkpt>
      <trkpt lat="49.3339" lon="-1.69238">
        <ele>14</ele>
      </trkpt>
      <trkpt lat="49.33448" lon="-1.69294">
        <ele>13.504</ele>
      </trkpt>
      <trkpt lat="49.33349" lon="-1.69687">
        <ele>11.575</ele>
      </trkpt>
      <trkpt lat="49.33401" lon="-1.69724">
        <ele>12.035</ele>
      </trkpt>
      <trkpt lat="49.33435" lon="-1.6976">
        <ele>9.64</ele>
      </trkpt>
      <trkpt lat="49.33461" lon="-1.69806">
        <ele>11.195</ele>
      </trkpt>
      <trkpt lat="49.33497" lon="-1.69862">
        <ele>10.997</ele>
      </trkpt>
      <trkpt lat="49.33502" lon="-1.69895">
        <ele>10.876</ele>
      </trkpt>
      <trkpt lat="49.33493" lon="-1.69949">
        <ele>8.58</ele>
      </trkpt>
      <trkpt lat="49.33522" lon="-1.69985">
        <ele>9.233</ele>
      </trkpt>
      <trkpt lat="49.33559" lon="-1.70013">
        <ele>9.715</ele>
      </trkpt>
      <trkpt lat="49.3363" lon="-1.70049">
        <ele>8.565</ele>
      </trkpt>
      <trkpt lat="49.33656" lon="-1.70063">
        <ele>7.274</ele>
      </trkpt>
      <trkpt lat="49.33677" lon="-1.70066">
        <ele>7</ele>
      </trkpt>
      <trkpt lat="49.33719" lon="-1.70049">
        <ele>7.243</ele>
      </trkpt>
      <trkpt lat="49.33839" lon="-1.69998">
        <ele>7.251</ele>
      </trkpt>
      <trkpt lat="49.33906" lon="-1.70022">
        <ele>9.252</ele>
      </trkpt>
      <trkpt lat="49.33906" lon="-1.70021">
        <ele>9.301</ele>
      </trkpt>
      <trkpt lat="49.33939" lon="-1.70037">
        <ele>10.276</ele>
      </trkpt>
      <trkpt lat="49.33972" lon="-1.70057">
        <ele>10.888</ele>
      </trkpt>
      <trkpt lat="49.34006" lon="-1.70077">
        <ele>10.623</ele>
      </trkpt>
      <trkpt lat="49.34052" lon="-1.70111">
        <ele>9.877</ele>
      </trkpt>
      <trkpt lat="49.34083" lon="-1.70138">
        <ele>9.997</ele>
      </trkpt>
      <trkpt lat="49.34123" lon="-1.70182">
        <ele>10.112</ele>
      </trkpt>
      <trkpt lat="49.34156" lon="-1.70232">
        <ele>9.745</ele>
      </trkpt>
      <trkpt lat="49.34227" lon="-1.70344">
        <ele>8.258</ele>
      </trkpt>
      <trkpt lat="49.34252" lon="-1.70387">
        <ele>8.351</ele>
      </trkpt>
      <trkpt lat="49.34275" lon="-1.70424">
        <ele>7.562</ele>
      </trkpt>
      <trkpt lat="49.34283" lon="-1.70437">
        <ele>7.355</ele>
      </trkpt>
      <trkpt lat="49.34293" lon="-1.70476">
        <ele>6.719</ele>
      </trkpt>
      <trkpt lat="49.34309" lon="-1.70524">
        <ele>7.858</ele>
      </trkpt>
      <trkpt lat="49.34332" lon="-1.70602">
        <ele>8.168</ele>
      </trkpt>
      <trkpt lat="49.34353" lon="-1.70688">
        <ele>6.58</ele>
      </trkpt>
      <trkpt lat="49.34367" lon="-1.70722">
        <ele>6.218</ele>
      </trkpt>
      <trkpt lat="49.3438" lon="-1.70753">
        <ele>7.287</ele>
      </trkpt>
      <trkpt lat="49.34397" lon="-1.70785">
        <ele>7.368</ele>
      </trkpt>
      <trkpt lat="49.34418" lon="-1.70824">
        <ele>8.416</ele>
      </trkpt>
      <trkpt lat="49.34459" lon="-1.70892">
        <ele>9.989</ele>
      </trkpt>
      <trkpt lat="49.34513" lon="-1.7098">
        <ele>10.805</ele>
      </trkpt>
      <trkpt lat="49.34562" lon="-1.71052">
        <ele>10.592</ele>
      </trkpt>
      <trkpt lat="49.34596" lon="-1.7111">
        <ele>11.474</ele>
      </trkpt>
      <trkpt lat="49.34623" lon="-1.71155">
        <ele>11.608</ele>
      </trkpt>
      <trkpt lat="49.34643" lon="-1.71182">
        <ele>11.744</ele>
      </trkpt>
      <trkpt lat="49.34675" lon="-1.71231">
        <ele>12.3</ele>
      </trkpt>
      <trkpt lat="49.34711" lon="-1.71276">
        <ele>13.038</ele>
      </trkpt>
      <trkpt lat="49.34719" lon="-1.71289">
        <ele>12.596</ele>
      </trkpt>
      <trkpt lat="49.34708" lon="-1.71309">
        <ele>11.937</ele>
      </trkpt>
      <trkpt lat="49.34681" lon="-1.71339">
        <ele>10.312</ele>
      </trkpt>
      <trkpt lat="49.34648" lon="-1.71378">
        <ele>8.129</ele>
      </trkpt>
      <trkpt lat="49.34625" lon="-1.71403">
        <ele>7</ele>
      </trkpt>
      <trkpt lat="49.3462" lon="-1.71411">
        <ele>6.928</ele>
      </trkpt>
      <trkpt lat="49.34611" lon="-1.71447">
        <ele>6.98</ele>
      </trkpt>
      <trkpt lat="49.34625" lon="-1.71576">
        <ele>7.007</ele>
      </trkpt>
      <trkpt lat="49.34658" lon="-1.7156">
        <ele>8.579</ele>
      </trkpt>
      <trkpt lat="49.3468" lon="-1.71555">
        <ele>7.999</ele>
      </trkpt>
      <trkpt lat="49.3474" lon="-1.71519">
        <ele>7</ele>
      </trkpt>
      <trkpt lat="49.34744" lon="-1.71523">
        <ele>7</ele>
      </trkpt>
      <trkpt lat="49.34756" lon="-1.71547">
        <ele>7</ele>
      </trkpt>
      <trkpt lat="49.34722" lon="-1.71599">
        <ele>6.455</ele>
      </trkpt>
      <trkpt lat="49.34688" lon="-1.71669">
        <ele>6.45</ele>
      </trkpt>
      <trkpt lat="49.34675" lon="-1.71716">
        <ele>5.917</ele>
      </trkpt>
      <trkpt lat="49.34675" lon="-1.71753">
        <ele>5.617</ele>
      </trkpt>
      <trkpt lat="49.34672" lon="-1.71797">
        <ele>5.555</ele>
      </trkpt>
      <trkpt lat="49.34663" lon="-1.71837">
        <ele>6.128</ele>
      </trkpt>
      <trkpt lat="49.34616" lon="-1.71972">
        <ele>6.001</ele>
      </trkpt>
      <trkpt lat="49.34516" lon="-1.72198">
        <ele>8.43</ele>
      </trkpt>
      <trkpt lat="49.34497" lon="-1.72212">
        <ele>8.434</ele>
      </trkpt>
      <trkpt lat="49.34481" lon="-1.72195">
        <ele>8.995</ele>
      </trkpt>
      <trkpt lat="49.34257" lon="-1.71956">
        <ele>8</ele>
      </trkpt>
      <trkpt lat="49.3418" lon="-1.7214">
        <ele>8.974</ele>
      </trkpt>
      <trkpt lat="49.34028" lon="-1.7198">
        <ele>9</ele>
      </trkpt>
      <trkpt lat="49.3402" lon="-1.71978">
        <ele>9</ele>
      </trkpt>
      <trkpt lat="49.34012" lon="-1.71981">
        <ele>9</ele>
      </trkpt>
      <trkpt lat="49.33905" lon="-1.7218">
        <ele>9</ele>
      </trkpt>
      <trkpt lat="49.33877" lon="-1.72235">
        <ele>8.565</ele>
      </trkpt>
      <trkpt lat="49.33829" lon="-1.72323">
        <ele>8.524</ele>
      </trkpt>
      <trkpt lat="49.33776" lon="-1.72425">
        <ele>8.67</ele>
      </trkpt>
      <trkpt lat="49.33736" lon="-1.72497">
        <ele>8.047</ele>
      </trkpt>
      <trkpt lat="49.33688" lon="-1.72441">
        <ele>8.243</ele>
      </trkpt>
      <trkpt lat="49.33647" lon="-1.72394">
        <ele>9.567</ele>
      </trkpt>
      <trkpt lat="49.33587" lon="-1.72324">
        <ele>8</ele>
      </trkpt>
      <trkpt lat="49.33554" lon="-1.72286">
        <ele>8.692</ele>
      </trkpt>
      <trkpt lat="49.33475" lon="-1.72191">
        <ele>8</ele>
      </trkpt>
      <trkpt lat="49.33426" lon="-1.72297">
        <ele>7.675</ele>
      </trkpt>
      <trkpt lat="49.33383" lon="-1.72385">
        <ele>7.969</ele>
      </trkpt>
      <trkpt lat="49.33378" lon="-1.72398">
        <ele>7.877</ele>
      </trkpt>
      <trkpt lat="49.33436" lon="-1.72526">
        <ele>7</ele>
      </trkpt>
      <trkpt lat="49.33443" lon="-1.72542">
        <ele>7</ele>
      </trkpt>
    </trkseg>
  </trk>
  <trk>
    <name><![CDATA[cap de la hague]]></name>
    <extensions>
      <line xmlns="http://www.topografix.com/GPX/gpx_style/0/2">
        <color>FFFF00</color>
        <width>4</width>
      </line>
    </extensions>
    <trkseg>
      <trkpt lat="49.71133" lon="-1.89706">
        <ele>10</ele>
        <time>2022-06-18T09:07:42Z</time>
      </trkpt>
      <trkpt lat="49.71183" lon="-1.89755">
        <ele>18</ele>
        <time>2022-06-18T09:08:29Z</time>
      </trkpt>
      <trkpt lat="49.7123" lon="-1.89789">
        <ele>24</ele>
        <time>2022-06-18T09:09:11Z</time>
      </trkpt>
      <trkpt lat="49.71243" lon="-1.89778">
        <ele>22</ele>
        <time>2022-06-18T09:09:23Z</time>
      </trkpt>
      <trkpt lat="49.71284" lon="-1.8978">
        <ele>25</ele>
        <time>2022-06-18T09:09:56Z</time>
      </trkpt>
      <trkpt lat="49.71351" lon="-1.89775">
        <ele>30</ele>
        <time>2022-06-18T09:10:49Z</time>
      </trkpt>
      <trkpt lat="49.71368" lon="-1.89776">
        <ele>32</ele>
        <time>2022-06-18T09:11:03Z</time>
      </trkpt>
      <trkpt lat="49.71371" lon="-1.89779">
        <ele>32</ele>
        <time>2022-06-18T09:11:06Z</time>
      </trkpt>
      <trkpt lat="49.71368" lon="-1.89776">
        <ele>32</ele>
        <time>2022-06-18T09:11:09Z</time>
      </trkpt>
      <trkpt lat="49.71381" lon="-1.89762">
        <ele>31</ele>
        <time>2022-06-18T09:11:21Z</time>
      </trkpt>
      <trkpt lat="49.71362" lon="-1.89716">
        <ele>21</ele>
        <time>2022-06-18T09:11:50Z</time>
      </trkpt>
      <trkpt lat="49.71385" lon="-1.89701">
        <ele>21</ele>
        <time>2022-06-18T09:12:10Z</time>
      </trkpt>
      <trkpt lat="49.7139" lon="-1.89686">
        <ele>19</ele>
        <time>2022-06-18T09:12:18Z</time>
      </trkpt>
      <trkpt lat="49.71433" lon="-1.89665">
        <ele>18</ele>
        <time>2022-06-18T09:12:54Z</time>
      </trkpt>
      <trkpt lat="49.71437" lon="-1.89657">
        <ele>17</ele>
        <time>2022-06-18T09:13:00Z</time>
      </trkpt>
      <trkpt lat="49.71441" lon="-1.89649">
        <ele>16</ele>
        <time>2022-06-18T09:13:05Z</time>
      </trkpt>
      <trkpt lat="49.71465" lon="-1.89637">
        <ele>15</ele>
        <time>2022-06-18T09:13:25Z</time>
      </trkpt>
      <trkpt lat="49.71476" lon="-1.89616">
        <ele>12</ele>
        <time>2022-06-18T09:13:39Z</time>
      </trkpt>
      <trkpt lat="49.71514" lon="-1.89598">
        <ele>10</ele>
        <time>2022-06-18T09:14:11Z</time>
      </trkpt>
      <trkpt lat="49.7153" lon="-1.89599">
        <ele>11</ele>
        <time>2022-06-18T09:14:24Z</time>
      </trkpt>
      <trkpt lat="49.7156" lon="-1.89589">
        <ele>9</ele>
        <time>2022-06-18T09:14:48Z</time>
      </trkpt>
      <trkpt lat="49.71568" lon="-1.89569">
        <ele>7</ele>
        <time>2022-06-18T09:15:01Z</time>
      </trkpt>
      <trkpt lat="49.71577" lon="-1.89567">
        <ele>7</ele>
        <time>2022-06-18T09:15:08Z</time>
      </trkpt>
      <trkpt lat="49.7165" lon="-1.89623">
        <ele>5</ele>
        <time>2022-06-18T09:16:13Z</time>
      </trkpt>
      <trkpt lat="49.71679" lon="-1.89688">
        <ele>6</ele>
        <time>2022-06-18T09:16:54Z</time>
      </trkpt>
      <trkpt lat="49.71678" lon="-1.8976">
        <ele>7</ele>
        <time>2022-06-18T09:17:31Z</time>
      </trkpt>
      <trkpt lat="49.71681" lon="-1.89784">
        <ele>8</ele>
        <time>2022-06-18T09:17:44Z</time>
      </trkpt>
      <trkpt lat="49.71697" lon="-1.89826">
        <ele>8</ele>
        <time>2022-06-18T09:18:09Z</time>
      </trkpt>
      <trkpt lat="49.71714" lon="-1.89835">
        <ele>6</ele>
        <time>2022-06-18T09:18:23Z</time>
      </trkpt>
      <trkpt lat="49.71763" lon="-1.89904">
        <ele>5</ele>
        <time>2022-06-18T09:19:17Z</time>
      </trkpt>
      <trkpt lat="49.71768" lon="-1.89943">
        <ele>7</ele>
        <time>2022-06-18T09:19:37Z</time>
      </trkpt>
      <trkpt lat="49.71826" lon="-1.9001">
        <ele>8</ele>
        <time>2022-06-18T09:20:35Z</time>
      </trkpt>
      <trkpt lat="49.71835" lon="-1.90027">
        <ele>7</ele>
        <time>2022-06-18T09:20:46Z</time>
      </trkpt>
      <trkpt lat="49.71839" lon="-1.90063">
        <ele>8</ele>
        <time>2022-06-18T09:21:05Z</time>
      </trkpt>
      <trkpt lat="49.71842" lon="-1.90151">
        <ele>8</ele>
        <time>2022-06-18T09:21:51Z</time>
      </trkpt>
      <trkpt lat="49.71845" lon="-1.90181">
        <ele>8</ele>
        <time>2022-06-18T09:22:07Z</time>
      </trkpt>
      <trkpt lat="49.7187" lon="-1.9032">
        <ele>6</ele>
        <time>2022-06-18T09:23:21Z</time>
      </trkpt>
      <trkpt lat="49.71873" lon="-1.90323">
        <ele>6</ele>
        <time>2022-06-18T09:23:24Z</time>
      </trkpt>
      <trkpt lat="49.71879" lon="-1.90325">
        <ele>6</ele>
        <time>2022-06-18T09:23:29Z</time>
      </trkpt>
      <trkpt lat="49.71903" lon="-1.90346">
        <ele>5</ele>
        <time>2022-06-18T09:23:51Z</time>
      </trkpt>
      <trkpt lat="49.71951" lon="-1.90406">
        <ele>7</ele>
        <time>2022-06-18T09:24:41Z</time>
      </trkpt>
      <trkpt lat="49.71994" lon="-1.90401">
        <ele>5</ele>
        <time>2022-06-18T09:25:15Z</time>
      </trkpt>
      <trkpt lat="49.72046" lon="-1.90413">
        <ele>4</ele>
        <time>2022-06-18T09:25:57Z</time>
      </trkpt>
      <trkpt lat="49.72056" lon="-1.90428">
        <ele>4</ele>
        <time>2022-06-18T09:26:08Z</time>
      </trkpt>
      <trkpt lat="49.72082" lon="-1.90435">
        <ele>3</ele>
        <time>2022-06-18T09:26:30Z</time>
      </trkpt>
      <trkpt lat="49.72091" lon="-1.90452">
        <ele>3</ele>
        <time>2022-06-18T09:26:41Z</time>
      </trkpt>
      <trkpt lat="49.72101" lon="-1.9054">
        <ele>4</ele>
        <time>2022-06-18T09:27:27Z</time>
      </trkpt>
      <trkpt lat="49.7211" lon="-1.90565">
        <ele>4</ele>
        <time>2022-06-18T09:27:42Z</time>
      </trkpt>
      <trkpt lat="49.72118" lon="-1.90588">
        <ele>4</ele>
        <time>2022-06-18T09:27:56Z</time>
      </trkpt>
      <trkpt lat="49.72125" lon="-1.90595">
        <ele>3</ele>
        <time>2022-06-18T09:28:02Z</time>
      </trkpt>
      <trkpt lat="49.72135" lon="-1.90647">
        <ele>5</ele>
        <time>2022-06-18T09:28:30Z</time>
      </trkpt>
      <trkpt lat="49.7214" lon="-1.90703">
        <ele>5</ele>
        <time>2022-06-18T09:29:00Z</time>
      </trkpt>
      <trkpt lat="49.72136" lon="-1.90757">
        <ele>5</ele>
        <time>2022-06-18T09:29:28Z</time>
      </trkpt>
      <trkpt lat="49.72117" lon="-1.90826">
        <ele>3</ele>
        <time>2022-06-18T09:30:07Z</time>
      </trkpt>
      <trkpt lat="49.72107" lon="-1.90902">
        <ele>3</ele>
        <time>2022-06-18T09:30:47Z</time>
      </trkpt>
      <trkpt lat="49.72106" lon="-1.90941">
        <ele>3</ele>
        <time>2022-06-18T09:31:07Z</time>
      </trkpt>
      <trkpt lat="49.72115" lon="-1.91033">
        <ele>3</ele>
        <time>2022-06-18T09:31:55Z</time>
      </trkpt>
      <trkpt lat="49.72122" lon="-1.91087">
        <ele>3</ele>
        <time>2022-06-18T09:32:24Z</time>
      </trkpt>
      <trkpt lat="49.72133" lon="-1.91132">
        <ele>3</ele>
        <time>2022-06-18T09:32:48Z</time>
      </trkpt>
      <trkpt lat="49.72143" lon="-1.91187">
        <ele>3</ele>
        <time>2022-06-18T09:33:18Z</time>
      </trkpt>
      <trkpt lat="49.72164" lon="-1.91228">
        <ele>2</ele>
        <time>2022-06-18T09:33:45Z</time>
      </trkpt>
      <trkpt lat="49.72173" lon="-1.91239">
        <ele>2</ele>
        <time>2022-06-18T09:33:54Z</time>
      </trkpt>
      <trkpt lat="49.72197" lon="-1.91252">
        <ele>2</ele>
        <time>2022-06-18T09:34:15Z</time>
      </trkpt>
      <trkpt lat="49.72214" lon="-1.91255">
        <ele>2</ele>
        <time>2022-06-18T09:34:28Z</time>
      </trkpt>
      <trkpt lat="49.72232" lon="-1.91264">
        <ele>3</ele>
        <time>2022-06-18T09:34:43Z</time>
      </trkpt>
      <trkpt lat="49.72256" lon="-1.91291">
        <ele>4</ele>
        <time>2022-06-18T09:35:07Z</time>
      </trkpt>
      <trkpt lat="49.72276" lon="-1.91309">
        <ele>5</ele>
        <time>2022-06-18T09:35:26Z</time>
      </trkpt>
      <trkpt lat="49.72303" lon="-1.91333">
        <ele>5</ele>
        <time>2022-06-18T09:35:51Z</time>
      </trkpt>
      <trkpt lat="49.72331" lon="-1.91364">
        <ele>5</ele>
        <time>2022-06-18T09:36:18Z</time>
      </trkpt>
      <trkpt lat="49.72375" lon="-1.91426">
        <ele>3</ele>
        <time>2022-06-18T09:37:06Z</time>
      </trkpt>
      <trkpt lat="49.72403" lon="-1.91534">
        <ele>3</ele>
        <time>2022-06-18T09:38:06Z</time>
      </trkpt>
      <trkpt lat="49.72402" lon="-1.9154">
        <ele>3</ele>
        <time>2022-06-18T09:38:09Z</time>
      </trkpt>
      <trkpt lat="49.72421" lon="-1.91578">
        <ele>4</ele>
        <time>2022-06-18T09:38:34Z</time>
      </trkpt>
      <trkpt lat="49.72445" lon="-1.91611">
        <ele>3</ele>
        <time>2022-06-18T09:39:00Z</time>
      </trkpt>
      <trkpt lat="49.72502" lon="-1.9171">
        <ele>1</ele>
        <time>2022-06-18T09:40:09Z</time>
      </trkpt>
      <trkpt lat="49.72507" lon="-1.91829">
        <ele>2</ele>
        <time>2022-06-18T09:41:10Z</time>
      </trkpt>
      <trkpt lat="49.72522" lon="-1.91923">
        <ele>3</ele>
        <time>2022-06-18T09:42:00Z</time>
      </trkpt>
      <trkpt lat="49.72548" lon="-1.92035">
        <ele>3</ele>
        <time>2022-06-18T09:43:02Z</time>
      </trkpt>
      <trkpt lat="49.72577" lon="-1.92137">
        <ele>2</ele>
        <time>2022-06-18T09:44:00Z</time>
      </trkpt>
      <trkpt lat="49.72605" lon="-1.92182">
        <ele>2</ele>
        <time>2022-06-18T09:44:32Z</time>
      </trkpt>
      <trkpt lat="49.72622" lon="-1.92198">
        <ele>2</ele>
        <time>2022-06-18T09:44:48Z</time>
      </trkpt>
      <trkpt lat="49.72631" lon="-1.92242">
        <ele>3</ele>
        <time>2022-06-18T09:45:12Z</time>
      </trkpt>
      <trkpt lat="49.72638" lon="-1.92284">
        <ele>3</ele>
        <time>2022-06-18T09:45:34Z</time>
      </trkpt>
      <trkpt lat="49.72637" lon="-1.92296">
        <ele>3</ele>
        <time>2022-06-18T09:45:41Z</time>
      </trkpt>
      <trkpt lat="49.72628" lon="-1.92343">
        <ele>4</ele>
        <time>2022-06-18T09:46:06Z</time>
      </trkpt>
      <trkpt lat="49.72628" lon="-1.92442">
        <ele>3</ele>
        <time>2022-06-18T09:46:57Z</time>
      </trkpt>
      <trkpt lat="49.72629" lon="-1.92458">
        <ele>3</ele>
        <time>2022-06-18T09:47:05Z</time>
      </trkpt>
      <trkpt lat="49.72641" lon="-1.92487">
        <ele>2</ele>
        <time>2022-06-18T09:47:23Z</time>
      </trkpt>
      <trkpt lat="49.72651" lon="-1.92522">
        <ele>2</ele>
        <time>2022-06-18T09:47:43Z</time>
      </trkpt>
      <trkpt lat="49.72653" lon="-1.92531">
        <ele>2</ele>
        <time>2022-06-18T09:47:48Z</time>
      </trkpt>
      <trkpt lat="49.72672" lon="-1.92561">
        <ele>2</ele>
        <time>2022-06-18T09:48:10Z</time>
      </trkpt>
      <trkpt lat="49.72682" lon="-1.92582">
        <ele>2</ele>
        <time>2022-06-18T09:48:23Z</time>
      </trkpt>
      <trkpt lat="49.72686" lon="-1.92606">
        <ele>2</ele>
        <time>2022-06-18T09:48:36Z</time>
      </trkpt>
      <trkpt lat="49.72665" lon="-1.92658">
        <ele>3</ele>
        <time>2022-06-18T09:49:08Z</time>
      </trkpt>
      <trkpt lat="49.72644" lon="-1.92737">
        <ele>3</ele>
        <time>2022-06-18T09:49:52Z</time>
      </trkpt>
      <trkpt lat="49.72637" lon="-1.92791">
        <ele>2</ele>
        <time>2022-06-18T09:50:21Z</time>
      </trkpt>
      <trkpt lat="49.72642" lon="-1.92813">
        <ele>1</ele>
        <time>2022-06-18T09:50:33Z</time>
      </trkpt>
      <trkpt lat="49.72634" lon="-1.92843">
        <ele>1</ele>
        <time>2022-06-18T09:50:49Z</time>
      </trkpt>
      <trkpt lat="49.72625" lon="-1.92868">
        <ele>1</ele>
        <time>2022-06-18T09:51:04Z</time>
      </trkpt>
      <trkpt lat="49.72609" lon="-1.92897">
        <ele>2</ele>
        <time>2022-06-18T09:51:24Z</time>
      </trkpt>
      <trkpt lat="49.72595" lon="-1.92932">
        <ele>2</ele>
        <time>2022-06-18T09:51:45Z</time>
      </trkpt>
      <trkpt lat="49.72585" lon="-1.92964">
        <ele>2</ele>
        <time>2022-06-18T09:52:04Z</time>
      </trkpt>
      <trkpt lat="49.72581" lon="-1.92989">
        <ele>2</ele>
        <time>2022-06-18T09:52:17Z</time>
      </trkpt>
      <trkpt lat="49.72579" lon="-1.93008">
        <ele>2</ele>
        <time>2022-06-18T09:52:27Z</time>
      </trkpt>
      <trkpt lat="49.72582" lon="-1.93048">
        <ele>3</ele>
        <time>2022-06-18T09:52:48Z</time>
      </trkpt>
      <trkpt lat="49.72595" lon="-1.93075">
        <ele>2</ele>
        <time>2022-06-18T09:53:05Z</time>
      </trkpt>
      <trkpt lat="49.72604" lon="-1.93083">
        <ele>2</ele>
        <time>2022-06-18T09:53:14Z</time>
      </trkpt>
      <trkpt lat="49.72614" lon="-1.93133">
        <ele>2</ele>
        <time>2022-06-18T09:53:41Z</time>
      </trkpt>
      <trkpt lat="49.72612" lon="-1.93155">
        <ele>3</ele>
        <time>2022-06-18T09:53:52Z</time>
      </trkpt>
      <trkpt lat="49.72606" lon="-1.93166">
        <ele>3</ele>
        <time>2022-06-18T09:54:00Z</time>
      </trkpt>
      <trkpt lat="49.72602" lon="-1.93187">
        <ele>3</ele>
        <time>2022-06-18T09:54:11Z</time>
      </trkpt>
      <trkpt lat="49.72597" lon="-1.93223">
        <ele>3</ele>
        <time>2022-06-18T09:54:30Z</time>
      </trkpt>
      <trkpt lat="49.72602" lon="-1.9329">
        <ele>2</ele>
        <time>2022-06-18T09:55:05Z</time>
      </trkpt>
      <trkpt lat="49.72613" lon="-1.93351">
        <ele>2</ele>
        <time>2022-06-18T09:55:38Z</time>
      </trkpt>
      <trkpt lat="49.72625" lon="-1.93383">
        <ele>2</ele>
        <time>2022-06-18T09:55:57Z</time>
      </trkpt>
      <trkpt lat="49.72638" lon="-1.93405">
        <ele>2</ele>
        <time>2022-06-18T09:56:12Z</time>
      </trkpt>
      <trkpt lat="49.72654" lon="-1.93421">
        <ele>2</ele>
        <time>2022-06-18T09:56:27Z</time>
      </trkpt>
      <trkpt lat="49.72674" lon="-1.93422">
        <ele>2</ele>
        <time>2022-06-18T09:56:43Z</time>
      </trkpt>
      <trkpt lat="49.72679" lon="-1.9342">
        <ele>2</ele>
        <time>2022-06-18T09:56:48Z</time>
      </trkpt>
      <trkpt lat="49.72685" lon="-1.93423">
        <ele>2</ele>
        <time>2022-06-18T09:56:53Z</time>
      </trkpt>
      <trkpt lat="49.72686" lon="-1.93433">
        <ele>2</ele>
        <time>2022-06-18T09:56:58Z</time>
      </trkpt>
      <trkpt lat="49.72677" lon="-1.93453">
        <ele>2</ele>
        <time>2022-06-18T09:57:11Z</time>
      </trkpt>
      <trkpt lat="49.72645" lon="-1.93485">
        <ele>2</ele>
        <time>2022-06-18T09:57:41Z</time>
      </trkpt>
      <trkpt lat="49.72613" lon="-1.93545">
        <ele>3</ele>
        <time>2022-06-18T09:58:21Z</time>
      </trkpt>
      <trkpt lat="49.72606" lon="-1.93572">
        <ele>2</ele>
        <time>2022-06-18T09:58:36Z</time>
      </trkpt>
      <trkpt lat="49.72599" lon="-1.93616">
        <ele>3</ele>
        <time>2022-06-18T09:59:00Z</time>
      </trkpt>
      <trkpt lat="49.726" lon="-1.93663">
        <ele>3</ele>
        <time>2022-06-18T09:59:24Z</time>
      </trkpt>
      <trkpt lat="49.72606" lon="-1.93679">
        <ele>3</ele>
        <time>2022-06-18T09:59:34Z</time>
      </trkpt>
      <trkpt lat="49.72612" lon="-1.93708">
        <ele>3</ele>
        <time>2022-06-18T09:59:49Z</time>
      </trkpt>
      <trkpt lat="49.72612" lon="-1.93813">
        <ele>5</ele>
        <time>2022-06-18T10:00:44Z</time>
      </trkpt>
      <trkpt lat="49.72615" lon="-1.93822">
        <ele>5</ele>
        <time>2022-06-18T10:00:49Z</time>
      </trkpt>
      <trkpt lat="49.72609" lon="-1.93847">
        <ele>5</ele>
        <time>2022-06-18T10:01:03Z</time>
      </trkpt>
      <trkpt lat="49.72609" lon="-1.93851">
        <ele>5</ele>
        <time>2022-06-18T10:01:05Z</time>
      </trkpt>
      <trkpt lat="49.72612" lon="-1.93856">
        <ele>5</ele>
        <time>2022-06-18T10:01:08Z</time>
      </trkpt>
      <trkpt lat="49.72626" lon="-1.93866">
        <ele>4</ele>
        <time>2022-06-18T10:01:21Z</time>
      </trkpt>
      <trkpt lat="49.7263" lon="-1.93876">
        <ele>4</ele>
        <time>2022-06-18T10:01:27Z</time>
      </trkpt>
      <trkpt lat="49.72631" lon="-1.93885">
        <ele>4</ele>
        <time>2022-06-18T10:01:32Z</time>
      </trkpt>
      <trkpt lat="49.72629" lon="-1.93942">
        <ele>3</ele>
        <time>2022-06-18T10:02:01Z</time>
      </trkpt>
      <trkpt lat="49.72631" lon="-1.9397">
        <ele>3</ele>
        <time>2022-06-18T10:02:16Z</time>
      </trkpt>
      <trkpt lat="49.72627" lon="-1.93989">
        <ele>3</ele>
        <time>2022-06-18T10:02:26Z</time>
      </trkpt>
      <trkpt lat="49.72618" lon="-1.94033">
        <ele>3</ele>
        <time>2022-06-18T10:02:50Z</time>
      </trkpt>
      <trkpt lat="49.72602" lon="-1.94065">
        <ele>3</ele>
        <time>2022-06-18T10:03:11Z</time>
      </trkpt>
      <trkpt lat="49.72582" lon="-1.94093">
        <ele>3</ele>
        <time>2022-06-18T10:03:33Z</time>
      </trkpt>
      <trkpt lat="49.72534" lon="-1.94141">
        <ele>3</ele>
        <time>2022-06-18T10:04:18Z</time>
      </trkpt>
      <trkpt lat="49.72525" lon="-1.9415">
        <ele>3</ele>
        <time>2022-06-18T10:04:27Z</time>
      </trkpt>
      <trkpt lat="49.72495" lon="-1.94164">
        <ele>3</ele>
        <time>2022-06-18T10:04:52Z</time>
      </trkpt>
      <trkpt lat="49.72437" lon="-1.94239">
        <ele>3</ele>
        <time>2022-06-18T10:05:52Z</time>
      </trkpt>
      <trkpt lat="49.72428" lon="-1.94242">
        <ele>3</ele>
        <time>2022-06-18T10:06:00Z</time>
      </trkpt>
      <trkpt lat="49.7242" lon="-1.9425">
        <ele>3</ele>
        <time>2022-06-18T10:06:07Z</time>
      </trkpt>
      <trkpt lat="49.72404" lon="-1.94284">
        <ele>2</ele>
        <time>2022-06-18T10:06:29Z</time>
      </trkpt>
      <trkpt lat="49.72387" lon="-1.94309">
        <ele>2</ele>
        <time>2022-06-18T10:06:48Z</time>
      </trkpt>
      <trkpt lat="49.72374" lon="-1.94316">
        <ele>1</ele>
        <time>2022-06-18T10:06:59Z</time>
      </trkpt>
      <trkpt lat="49.72349" lon="-1.94312">
        <ele>2</ele>
        <time>2022-06-18T10:07:19Z</time>
      </trkpt>
      <trkpt lat="49.7233" lon="-1.94314">
        <ele>1</ele>
        <time>2022-06-18T10:07:34Z</time>
      </trkpt>
      <trkpt lat="49.723" lon="-1.94326">
        <ele>2</ele>
        <time>2022-06-18T10:07:59Z</time>
      </trkpt>
      <trkpt lat="49.72275" lon="-1.94341">
        <ele>2</ele>
        <time>2022-06-18T10:08:21Z</time>
      </trkpt>
      <trkpt lat="49.72242" lon="-1.94369">
        <ele>2</ele>
        <time>2022-06-18T10:08:51Z</time>
      </trkpt>
      <trkpt lat="49.72213" lon="-1.94396">
        <ele>2</ele>
        <time>2022-06-18T10:09:18Z</time>
      </trkpt>
      <trkpt lat="49.72157" lon="-1.94435">
        <ele>2</ele>
        <time>2022-06-18T10:10:07Z</time>
      </trkpt>
      <trkpt lat="49.72129" lon="-1.94445">
        <ele>1</ele>
        <time>2022-06-18T10:10:30Z</time>
      </trkpt>
      <trkpt lat="49.72083" lon="-1.94452">
        <ele>2</ele>
        <time>2022-06-18T10:11:07Z</time>
      </trkpt>
      <trkpt lat="49.71945" lon="-1.94429">
        <ele>1</ele>
        <time>2022-06-18T10:12:58Z</time>
      </trkpt>
      <trkpt lat="49.71933" lon="-1.94428">
        <ele>1</ele>
        <time>2022-06-18T10:13:08Z</time>
      </trkpt>
      <trkpt lat="49.71886" lon="-1.9443">
        <ele>1</ele>
        <time>2022-06-18T10:13:46Z</time>
      </trkpt>
      <trkpt lat="49.7185" lon="-1.94442">
        <ele>1</ele>
        <time>2022-06-18T10:14:15Z</time>
      </trkpt>
      <trkpt lat="49.71812" lon="-1.94464">
        <ele>1</ele>
        <time>2022-06-18T10:14:48Z</time>
      </trkpt>
      <trkpt lat="49.71785" lon="-1.94483">
        <ele>2</ele>
        <time>2022-06-18T10:15:11Z</time>
      </trkpt>
      <trkpt lat="49.71726" lon="-1.94534">
        <ele>1</ele>
        <time>2022-06-18T10:16:05Z</time>
      </trkpt>
      <trkpt lat="49.71704" lon="-1.94557">
        <ele>1</ele>
        <time>2022-06-18T10:16:27Z</time>
      </trkpt>
      <trkpt lat="49.71688" lon="-1.9458">
        <ele>2</ele>
        <time>2022-06-18T10:16:44Z</time>
      </trkpt>
      <trkpt lat="49.7168" lon="-1.94602">
        <ele>2</ele>
        <time>2022-06-18T10:16:57Z</time>
      </trkpt>
      <trkpt lat="49.71655" lon="-1.9459">
        <ele>2</ele>
        <time>2022-06-18T10:17:18Z</time>
      </trkpt>
      <trkpt lat="49.71577" lon="-1.9456">
        <ele>2</ele>
        <time>2022-06-18T10:18:23Z</time>
      </trkpt>
      <trkpt lat="49.71558" lon="-1.94552">
        <ele>2</ele>
        <time>2022-06-18T10:18:38Z</time>
      </trkpt>
      <trkpt lat="49.71554" lon="-1.94546">
        <ele>2</ele>
        <time>2022-06-18T10:18:43Z</time>
      </trkpt>
      <trkpt lat="49.7155" lon="-1.94518">
        <ele>2</ele>
        <time>2022-06-18T10:18:58Z</time>
      </trkpt>
      <trkpt lat="49.71541" lon="-1.94487">
        <ele>1</ele>
        <time>2022-06-18T10:19:15Z</time>
      </trkpt>
      <trkpt lat="49.71553" lon="-1.94474">
        <ele>2</ele>
        <time>2022-06-18T10:19:27Z</time>
      </trkpt>
      <trkpt lat="49.71534" lon="-1.94426">
        <ele>1</ele>
        <time>2022-06-18T10:19:56Z</time>
      </trkpt>
      <trkpt lat="49.71521" lon="-1.94397">
        <ele>1</ele>
        <time>2022-06-18T10:20:14Z</time>
      </trkpt>
      <trkpt lat="49.71502" lon="-1.94366">
        <ele>2</ele>
        <time>2022-06-18T10:20:36Z</time>
      </trkpt>
      <trkpt lat="49.71483" lon="-1.94344">
        <ele>2</ele>
        <time>2022-06-18T10:20:55Z</time>
      </trkpt>
      <trkpt lat="49.71463" lon="-1.9433">
        <ele>2</ele>
        <time>2022-06-18T10:21:13Z</time>
      </trkpt>
      <trkpt lat="49.71422" lon="-1.94326">
        <ele>2</ele>
        <time>2022-06-18T10:21:46Z</time>
      </trkpt>
      <trkpt lat="49.71399" lon="-1.94327">
        <ele>3</ele>
        <time>2022-06-18T10:22:04Z</time>
      </trkpt>
      <trkpt lat="49.71371" lon="-1.94333">
        <ele>3</ele>
        <time>2022-06-18T10:22:27Z</time>
      </trkpt>
      <trkpt lat="49.71343" lon="-1.94336">
        <ele>4</ele>
        <time>2022-06-18T10:22:49Z</time>
      </trkpt>
      <trkpt lat="49.71337" lon="-1.94332">
        <ele>4</ele>
        <time>2022-06-18T10:22:55Z</time>
      </trkpt>
      <trkpt lat="49.71335" lon="-1.94326">
        <ele>4</ele>
        <time>2022-06-18T10:22:58Z</time>
      </trkpt>
      <trkpt lat="49.71332" lon="-1.94264">
        <ele>6</ele>
        <time>2022-06-18T10:23:30Z</time>
      </trkpt>
      <trkpt lat="49.7132" lon="-1.94202">
        <ele>8</ele>
        <time>2022-06-18T10:24:04Z</time>
      </trkpt>
      <trkpt lat="49.71308" lon="-1.94208">
        <ele>8</ele>
        <time>2022-06-18T10:24:14Z</time>
      </trkpt>
      <trkpt lat="49.71264" lon="-1.9425">
        <ele>8</ele>
        <time>2022-06-18T10:24:55Z</time>
      </trkpt>
      <trkpt lat="49.71177" lon="-1.9432">
        <ele>6</ele>
        <time>2022-06-18T10:26:14Z</time>
      </trkpt>
      <trkpt lat="49.71145" lon="-1.94337">
        <ele>7</ele>
        <time>2022-06-18T10:26:41Z</time>
      </trkpt>
      <trkpt lat="49.71126" lon="-1.94351">
        <ele>8</ele>
        <time>2022-06-18T10:26:58Z</time>
      </trkpt>
      <trkpt lat="49.71083" lon="-1.94367">
        <ele>10</ele>
        <time>2022-06-18T10:27:33Z</time>
      </trkpt>
      <trkpt lat="49.71061" lon="-1.9438">
        <ele>11</ele>
        <time>2022-06-18T10:27:52Z</time>
      </trkpt>
      <trkpt lat="49.71019" lon="-1.9441">
        <ele>12</ele>
        <time>2022-06-18T10:28:29Z</time>
      </trkpt>
      <trkpt lat="49.70959" lon="-1.94459">
        <ele>15</ele>
        <time>2022-06-18T10:29:23Z</time>
      </trkpt>
      <trkpt lat="49.70938" lon="-1.94475">
        <ele>16</ele>
        <time>2022-06-18T10:29:42Z</time>
      </trkpt>
      <trkpt lat="49.70916" lon="-1.94488">
        <ele>17</ele>
        <time>2022-06-18T10:30:01Z</time>
      </trkpt>
      <trkpt lat="49.70903" lon="-1.945">
        <ele>17</ele>
        <time>2022-06-18T10:30:13Z</time>
      </trkpt>
      <trkpt lat="49.70886" lon="-1.94504">
        <ele>19</ele>
        <time>2022-06-18T10:30:27Z</time>
      </trkpt>
      <trkpt lat="49.7088" lon="-1.94509">
        <ele>19</ele>
        <time>2022-06-18T10:30:32Z</time>
      </trkpt>
      <trkpt lat="49.70876" lon="-1.94521">
        <ele>18</ele>
        <time>2022-06-18T10:30:39Z</time>
      </trkpt>
      <trkpt lat="49.70848" lon="-1.94552">
        <ele>18</ele>
        <time>2022-06-18T10:31:07Z</time>
      </trkpt>
      <trkpt lat="49.70822" lon="-1.94561">
        <ele>20</ele>
        <time>2022-06-18T10:31:28Z</time>
      </trkpt>
      <trkpt lat="49.70786" lon="-1.94555">
        <ele>25</ele>
        <time>2022-06-18T10:31:57Z</time>
      </trkpt>
      <trkpt lat="49.70742" lon="-1.94592">
        <ele>26</ele>
        <time>2022-06-18T10:32:37Z</time>
      </trkpt>
      <trkpt lat="49.70723" lon="-1.94646">
        <ele>18</ele>
        <time>2022-06-18T10:33:09Z</time>
      </trkpt>
      <trkpt lat="49.70669" lon="-1.94669">
        <ele>14</ele>
        <time>2022-06-18T10:33:54Z</time>
      </trkpt>
      <trkpt lat="49.7064" lon="-1.94657">
        <ele>17</ele>
        <time>2022-06-18T10:34:18Z</time>
      </trkpt>
      <trkpt lat="49.70612" lon="-1.94669">
        <ele>15</ele>
        <time>2022-06-18T10:34:41Z</time>
      </trkpt>
      <trkpt lat="49.70599" lon="-1.9467">
        <ele>15</ele>
        <time>2022-06-18T10:34:52Z</time>
      </trkpt>
      <trkpt lat="49.70573" lon="-1.94668">
        <ele>16</ele>
        <time>2022-06-18T10:35:13Z</time>
      </trkpt>
      <trkpt lat="49.70534" lon="-1.94686">
        <ele>12</ele>
        <time>2022-06-18T10:35:45Z</time>
      </trkpt>
      <trkpt lat="49.70518" lon="-1.94681">
        <ele>13</ele>
        <time>2022-06-18T10:35:58Z</time>
      </trkpt>
      <trkpt lat="49.70473" lon="-1.94654">
        <ele>14</ele>
        <time>2022-06-18T10:36:37Z</time>
      </trkpt>
      <trkpt lat="49.70455" lon="-1.94624">
        <ele>17</ele>
        <time>2022-06-18T10:36:58Z</time>
      </trkpt>
      <trkpt lat="49.70416" lon="-1.94541">
        <ele>19</ele>
        <time>2022-06-18T10:37:51Z</time>
      </trkpt>
      <trkpt lat="49.70391" lon="-1.94467">
        <ele>25</ele>
        <time>2022-06-18T10:38:34Z</time>
      </trkpt>
      <trkpt lat="49.70369" lon="-1.94394">
        <ele>35</ele>
        <time>2022-06-18T10:39:16Z</time>
      </trkpt>
      <trkpt lat="49.70332" lon="-1.94364">
        <ele>35</ele>
        <time>2022-06-18T10:39:50Z</time>
      </trkpt>
      <trkpt lat="49.70295" lon="-1.94374">
        <ele>35</ele>
        <time>2022-06-18T10:40:20Z</time>
      </trkpt>
      <trkpt lat="49.70249" lon="-1.94423">
        <ele>22</ele>
        <time>2022-06-18T10:41:04Z</time>
      </trkpt>
      <trkpt lat="49.70217" lon="-1.94451">
        <ele>17</ele>
        <time>2022-06-18T10:41:34Z</time>
      </trkpt>
      <trkpt lat="49.70191" lon="-1.94455">
        <ele>17</ele>
        <time>2022-06-18T10:41:55Z</time>
      </trkpt>
      <trkpt lat="49.70171" lon="-1.94432">
        <ele>24</ele>
        <time>2022-06-18T10:42:15Z</time>
      </trkpt>
      <trkpt lat="49.70147" lon="-1.94398">
        <ele>31</ele>
        <time>2022-06-18T10:42:41Z</time>
      </trkpt>
      <trkpt lat="49.70132" lon="-1.94385">
        <ele>33</ele>
        <time>2022-06-18T10:42:55Z</time>
      </trkpt>
      <trkpt lat="49.70117" lon="-1.94366">
        <ele>37</ele>
        <time>2022-06-18T10:43:10Z</time>
      </trkpt>
      <trkpt lat="49.70108" lon="-1.94364">
        <ele>36</ele>
        <time>2022-06-18T10:43:17Z</time>
      </trkpt>
      <trkpt lat="49.70105" lon="-1.94359">
        <ele>37</ele>
        <time>2022-06-18T10:43:21Z</time>
      </trkpt>
      <trkpt lat="49.70097" lon="-1.9435">
        <ele>38</ele>
        <time>2022-06-18T10:43:29Z</time>
      </trkpt>
      <trkpt lat="49.70088" lon="-1.94343">
        <ele>39</ele>
        <time>2022-06-18T10:43:37Z</time>
      </trkpt>
      <trkpt lat="49.70077" lon="-1.94338">
        <ele>38</ele>
        <time>2022-06-18T10:43:46Z</time>
      </trkpt>
      <trkpt lat="49.7006" lon="-1.94321">
        <ele>38</ele>
        <time>2022-06-18T10:44:02Z</time>
      </trkpt>
      <trkpt lat="49.70052" lon="-1.943">
        <ele>43</ele>
        <time>2022-06-18T10:44:15Z</time>
      </trkpt>
      <trkpt lat="49.70047" lon="-1.9428">
        <ele>47</ele>
        <time>2022-06-18T10:44:26Z</time>
      </trkpt>
      <trkpt lat="49.70042" lon="-1.94256">
        <ele>53</ele>
        <time>2022-06-18T10:44:39Z</time>
      </trkpt>
      <trkpt lat="49.70042" lon="-1.94179">
        <ele>69</ele>
        <time>2022-06-18T10:45:19Z</time>
      </trkpt>
      <trkpt lat="49.70034" lon="-1.94137">
        <ele>73</ele>
        <time>2022-06-18T10:45:42Z</time>
      </trkpt>
      <trkpt lat="49.70012" lon="-1.94078">
        <ele>78</ele>
        <time>2022-06-18T10:46:17Z</time>
      </trkpt>
      <trkpt lat="49.70007" lon="-1.94061">
        <ele>78</ele>
        <time>2022-06-18T10:46:27Z</time>
      </trkpt>
      <trkpt lat="49.70001" lon="-1.94028">
        <ele>79</ele>
        <time>2022-06-18T10:46:44Z</time>
      </trkpt>
      <trkpt lat="49.70003" lon="-1.94024">
        <ele>79</ele>
        <time>2022-06-18T10:46:47Z</time>
      </trkpt>
      <trkpt lat="49.7" lon="-1.93997">
        <ele>80</ele>
        <time>2022-06-18T10:47:01Z</time>
      </trkpt>
      <trkpt lat="49.69994" lon="-1.93963">
        <ele>79</ele>
        <time>2022-06-18T10:47:19Z</time>
      </trkpt>
      <trkpt lat="49.69981" lon="-1.93918">
        <ele>78</ele>
        <time>2022-06-18T10:47:45Z</time>
      </trkpt>
      <trkpt lat="49.6994" lon="-1.93893">
        <ele>78</ele>
        <time>2022-06-18T10:48:20Z</time>
      </trkpt>
      <trkpt lat="49.69927" lon="-1.93892">
        <ele>79</ele>
        <time>2022-06-18T10:48:31Z</time>
      </trkpt>
      <trkpt lat="49.6991" lon="-1.93902">
        <ele>79</ele>
        <time>2022-06-18T10:48:45Z</time>
      </trkpt>
      <trkpt lat="49.69898" lon="-1.93904">
        <ele>78</ele>
        <time>2022-06-18T10:48:55Z</time>
      </trkpt>
      <trkpt lat="49.69887" lon="-1.93913">
        <ele>78</ele>
        <time>2022-06-18T10:49:05Z</time>
      </trkpt>
      <trkpt lat="49.69871" lon="-1.93917">
        <ele>77</ele>
        <time>2022-06-18T10:49:18Z</time>
      </trkpt>
      <trkpt lat="49.69864" lon="-1.93917">
        <ele>76</ele>
        <time>2022-06-18T10:49:23Z</time>
      </trkpt>
      <trkpt lat="49.6985" lon="-1.93912">
        <ele>75</ele>
        <time>2022-06-18T10:49:35Z</time>
      </trkpt>
      <trkpt lat="49.69779" lon="-1.93866">
        <ele>63</ele>
        <time>2022-06-18T10:50:37Z</time>
      </trkpt>
      <trkpt lat="49.69765" lon="-1.9386">
        <ele>60</ele>
        <time>2022-06-18T10:50:48Z</time>
      </trkpt>
      <trkpt lat="49.69755" lon="-1.93852">
        <ele>60</ele>
        <time>2022-06-18T10:50:57Z</time>
      </trkpt>
      <trkpt lat="49.69715" lon="-1.93788">
        <ele>56</ele>
        <time>2022-06-18T10:51:43Z</time>
      </trkpt>
      <trkpt lat="49.69698" lon="-1.9377">
        <ele>53</ele>
        <time>2022-06-18T10:52:00Z</time>
      </trkpt>
      <trkpt lat="49.69676" lon="-1.93733">
        <ele>54</ele>
        <time>2022-06-18T10:52:26Z</time>
      </trkpt>
      <trkpt lat="49.69665" lon="-1.93719">
        <ele>54</ele>
        <time>2022-06-18T10:52:37Z</time>
      </trkpt>
      <trkpt lat="49.69676" lon="-1.93733">
        <ele>54</ele>
        <time>2022-06-18T10:52:49Z</time>
      </trkpt>
      <trkpt lat="49.69698" lon="-1.9377">
        <ele>53</ele>
        <time>2022-06-18T10:53:15Z</time>
      </trkpt>
      <trkpt lat="49.69715" lon="-1.93788">
        <ele>56</ele>
        <time>2022-06-18T10:53:31Z</time>
      </trkpt>
      <trkpt lat="49.69755" lon="-1.93852">
        <ele>60</ele>
        <time>2022-06-18T10:54:17Z</time>
      </trkpt>
      <trkpt lat="49.69765" lon="-1.9386">
        <ele>60</ele>
        <time>2022-06-18T10:54:26Z</time>
      </trkpt>
      <trkpt lat="49.69779" lon="-1.93866">
        <ele>63</ele>
        <time>2022-06-18T10:54:38Z</time>
      </trkpt>
      <trkpt lat="49.69835" lon="-1.93902">
        <ele>74</ele>
        <time>2022-06-18T10:55:26Z</time>
      </trkpt>
      <trkpt lat="49.69836" lon="-1.93893">
        <ele>74</ele>
        <time>2022-06-18T10:55:31Z</time>
      </trkpt>
      <trkpt lat="49.69834" lon="-1.93885">
        <ele>74</ele>
        <time>2022-06-18T10:55:36Z</time>
      </trkpt>
      <trkpt lat="49.69822" lon="-1.93866">
        <ele>72</ele>
        <time>2022-06-18T10:55:49Z</time>
      </trkpt>
      <trkpt lat="49.69814" lon="-1.93846">
        <ele>71</ele>
        <time>2022-06-18T10:56:02Z</time>
      </trkpt>
      <trkpt lat="49.698" lon="-1.93767">
        <ele>74</ele>
        <time>2022-06-18T10:56:44Z</time>
      </trkpt>
      <trkpt lat="49.69789" lon="-1.93717">
        <ele>78</ele>
        <time>2022-06-18T10:57:11Z</time>
      </trkpt>
      <trkpt lat="49.69785" lon="-1.93687">
        <ele>81</ele>
        <time>2022-06-18T10:57:27Z</time>
      </trkpt>
      <trkpt lat="49.69778" lon="-1.93654">
        <ele>84</ele>
        <time>2022-06-18T10:57:45Z</time>
      </trkpt>
      <trkpt lat="49.6976" lon="-1.93541">
        <ele>92</ele>
        <time>2022-06-18T10:58:45Z</time>
      </trkpt>
      <trkpt lat="49.69746" lon="-1.93521">
        <ele>94</ele>
        <time>2022-06-18T10:59:01Z</time>
      </trkpt>
      <trkpt lat="49.69728" lon="-1.93507">
        <ele>95</ele>
        <time>2022-06-18T10:59:17Z</time>
      </trkpt>
      <trkpt lat="49.6969" lon="-1.93494">
        <ele>97</ele>
        <time>2022-06-18T10:59:48Z</time>
      </trkpt>
      <trkpt lat="49.6966" lon="-1.93495">
        <ele>96</ele>
        <time>2022-06-18T11:00:12Z</time>
      </trkpt>
      <trkpt lat="49.6965" lon="-1.93493">
        <ele>95</ele>
        <time>2022-06-18T11:00:20Z</time>
      </trkpt>
      <trkpt lat="49.69635" lon="-1.93486">
        <ele>94</ele>
        <time>2022-06-18T11:00:33Z</time>
      </trkpt>
      <trkpt lat="49.69624" lon="-1.93475">
        <ele>94</ele>
        <time>2022-06-18T11:00:43Z</time>
      </trkpt>
      <trkpt lat="49.69589" lon="-1.9343">
        <ele>98</ele>
        <time>2022-06-18T11:01:20Z</time>
      </trkpt>
      <trkpt lat="49.69557" lon="-1.93405">
        <ele>98</ele>
        <time>2022-06-18T11:01:48Z</time>
      </trkpt>
      <trkpt lat="49.69539" lon="-1.93396">
        <ele>98</ele>
        <time>2022-06-18T11:02:03Z</time>
      </trkpt>
      <trkpt lat="49.69503" lon="-1.93385">
        <ele>97</ele>
        <time>2022-06-18T11:02:33Z</time>
      </trkpt>
      <trkpt lat="49.6949" lon="-1.93383">
        <ele>96</ele>
        <time>2022-06-18T11:02:43Z</time>
      </trkpt>
      <trkpt lat="49.6948" lon="-1.93377">
        <ele>96</ele>
        <time>2022-06-18T11:02:52Z</time>
      </trkpt>
      <trkpt lat="49.69463" lon="-1.93354">
        <ele>99</ele>
        <time>2022-06-18T11:03:10Z</time>
      </trkpt>
      <trkpt lat="49.6944" lon="-1.9333">
        <ele>101</ele>
        <time>2022-06-18T11:03:32Z</time>
      </trkpt>
      <trkpt lat="49.69433" lon="-1.93313">
        <ele>102</ele>
        <time>2022-06-18T11:03:43Z</time>
      </trkpt>
      <trkpt lat="49.69425" lon="-1.933">
        <ele>103</ele>
        <time>2022-06-18T11:03:52Z</time>
      </trkpt>
      <trkpt lat="49.69388" lon="-1.93268">
        <ele>103</ele>
        <time>2022-06-18T11:04:26Z</time>
      </trkpt>
      <trkpt lat="49.69328" lon="-1.93207">
        <ele>101</ele>
        <time>2022-06-18T11:05:23Z</time>
      </trkpt>
      <trkpt lat="49.69295" lon="-1.93198">
        <ele>97</ele>
        <time>2022-06-18T11:05:50Z</time>
      </trkpt>
      <trkpt lat="49.69282" lon="-1.93149">
        <ele>98</ele>
        <time>2022-06-18T11:06:18Z</time>
      </trkpt>
      <trkpt lat="49.6925" lon="-1.93073">
        <ele>96</ele>
        <time>2022-06-18T11:07:05Z</time>
      </trkpt>
      <trkpt lat="49.69236" lon="-1.93046">
        <ele>93</ele>
        <time>2022-06-18T11:07:23Z</time>
      </trkpt>
      <trkpt lat="49.69233" lon="-1.93036">
        <ele>93</ele>
        <time>2022-06-18T11:07:28Z</time>
      </trkpt>
      <trkpt lat="49.69234" lon="-1.93009">
        <ele>93</ele>
        <time>2022-06-18T11:07:42Z</time>
      </trkpt>
      <trkpt lat="49.69243" lon="-1.92972">
        <ele>96</ele>
        <time>2022-06-18T11:08:03Z</time>
      </trkpt>
      <trkpt lat="49.69268" lon="-1.92814">
        <ele>106</ele>
        <time>2022-06-18T11:09:27Z</time>
      </trkpt>
      <trkpt lat="49.6927" lon="-1.92778">
        <ele>108</ele>
        <time>2022-06-18T11:09:46Z</time>
      </trkpt>
      <trkpt lat="49.69264" lon="-1.9273">
        <ele>110</ele>
        <time>2022-06-18T11:10:11Z</time>
      </trkpt>
      <trkpt lat="49.69263" lon="-1.92634">
        <ele>115</ele>
        <time>2022-06-18T11:11:01Z</time>
      </trkpt>
      <trkpt lat="49.69274" lon="-1.9239">
        <ele>122</ele>
        <time>2022-06-18T11:13:07Z</time>
      </trkpt>
      <trkpt lat="49.69285" lon="-1.922">
        <ele>124</ele>
        <time>2022-06-18T11:14:46Z</time>
      </trkpt>
      <trkpt lat="49.69341" lon="-1.91922">
        <ele>128</ele>
        <time>2022-06-18T11:17:17Z</time>
      </trkpt>
      <trkpt lat="49.69355" lon="-1.91854">
        <ele>129</ele>
        <time>2022-06-18T11:17:54Z</time>
      </trkpt>
      <trkpt lat="49.6936" lon="-1.91802">
        <ele>130</ele>
        <time>2022-06-18T11:18:21Z</time>
      </trkpt>
      <trkpt lat="49.69387" lon="-1.91681">
        <ele>128</ele>
        <time>2022-06-18T11:19:28Z</time>
      </trkpt>
      <trkpt lat="49.6943" lon="-1.91688">
        <ele>127</ele>
        <time>2022-06-18T11:20:02Z</time>
      </trkpt>
      <trkpt lat="49.69503" lon="-1.9171">
        <ele>124</ele>
        <time>2022-06-18T11:21:02Z</time>
      </trkpt>
      <trkpt lat="49.69514" lon="-1.91702">
        <ele>122</ele>
        <time>2022-06-18T11:21:11Z</time>
      </trkpt>
      <trkpt lat="49.69516" lon="-1.91701">
        <ele>122</ele>
        <time>2022-06-18T11:21:13Z</time>
      </trkpt>
      <trkpt lat="49.69506" lon="-1.91633">
        <ele>120</ele>
        <time>2022-06-18T11:21:49Z</time>
      </trkpt>
      <trkpt lat="49.69497" lon="-1.91531">
        <ele>116</ele>
        <time>2022-06-18T11:22:43Z</time>
      </trkpt>
      <trkpt lat="49.69471" lon="-1.91272">
        <ele>107</ele>
        <time>2022-06-18T11:24:58Z</time>
      </trkpt>
      <trkpt lat="49.69458" lon="-1.90995">
        <ele>108</ele>
        <time>2022-06-18T11:27:22Z</time>
      </trkpt>
      <trkpt lat="49.69462" lon="-1.9083">
        <ele>109</ele>
        <time>2022-06-18T11:28:48Z</time>
      </trkpt>
      <trkpt lat="49.69452" lon="-1.90653">
        <ele>115</ele>
        <time>2022-06-18T11:30:20Z</time>
      </trkpt>
      <trkpt lat="49.6943" lon="-1.90507">
        <ele>116</ele>
        <time>2022-06-18T11:31:37Z</time>
      </trkpt>
      <trkpt lat="49.69396" lon="-1.90379">
        <ele>113</ele>
        <time>2022-06-18T11:32:49Z</time>
      </trkpt>
      <trkpt lat="49.69407" lon="-1.90376">
        <ele>112</ele>
        <time>2022-06-18T11:32:58Z</time>
      </trkpt>
      <trkpt lat="49.69434" lon="-1.90368">
        <ele>111</ele>
        <time>2022-06-18T11:33:20Z</time>
      </trkpt>
      <trkpt lat="49.69503" lon="-1.90353">
        <ele>110</ele>
        <time>2022-06-18T11:34:16Z</time>
      </trkpt>
      <trkpt lat="49.69538" lon="-1.90351">
        <ele>110</ele>
        <time>2022-06-18T11:34:44Z</time>
      </trkpt>
      <trkpt lat="49.69565" lon="-1.90344">
        <ele>109</ele>
        <time>2022-06-18T11:35:06Z</time>
      </trkpt>
      <trkpt lat="49.69564" lon="-1.90321">
        <ele>109</ele>
        <time>2022-06-18T11:35:18Z</time>
      </trkpt>
      <trkpt lat="49.69561" lon="-1.90244">
        <ele>107</ele>
        <time>2022-06-18T11:35:58Z</time>
      </trkpt>
      <trkpt lat="49.6957" lon="-1.90187">
        <ele>106</ele>
        <time>2022-06-18T11:36:28Z</time>
      </trkpt>
      <trkpt lat="49.69582" lon="-1.9013">
        <ele>105</ele>
        <time>2022-06-18T11:36:59Z</time>
      </trkpt>
      <trkpt lat="49.69591" lon="-1.90071">
        <ele>103</ele>
        <time>2022-06-18T11:37:30Z</time>
      </trkpt>
      <trkpt lat="49.69636" lon="-1.8996">
        <ele>100</ele>
        <time>2022-06-18T11:38:38Z</time>
      </trkpt>
      <trkpt lat="49.6965" lon="-1.89954">
        <ele>99</ele>
        <time>2022-06-18T11:38:50Z</time>
      </trkpt>
      <trkpt lat="49.69653" lon="-1.89948">
        <ele>99</ele>
        <time>2022-06-18T11:38:54Z</time>
      </trkpt>
      <trkpt lat="49.69654" lon="-1.89931">
        <ele>99</ele>
        <time>2022-06-18T11:39:03Z</time>
      </trkpt>
      <trkpt lat="49.69656" lon="-1.89857">
        <ele>102</ele>
        <time>2022-06-18T11:39:41Z</time>
      </trkpt>
      <trkpt lat="49.69662" lon="-1.89825">
        <ele>103</ele>
        <time>2022-06-18T11:39:58Z</time>
      </trkpt>
      <trkpt lat="49.69706" lon="-1.89721">
        <ele>100</ele>
        <time>2022-06-18T11:41:03Z</time>
      </trkpt>
      <trkpt lat="49.69718" lon="-1.8969">
        <ele>99</ele>
        <time>2022-06-18T11:41:21Z</time>
      </trkpt>
      <trkpt lat="49.69726" lon="-1.8966">
        <ele>98</ele>
        <time>2022-06-18T11:41:38Z</time>
      </trkpt>
      <trkpt lat="49.69728" lon="-1.89624">
        <ele>96</ele>
        <time>2022-06-18T11:41:57Z</time>
      </trkpt>
      <trkpt lat="49.69758" lon="-1.89522">
        <ele>90</ele>
        <time>2022-06-18T11:42:55Z</time>
      </trkpt>
      <trkpt lat="49.69758" lon="-1.89434">
        <ele>86</ele>
        <time>2022-06-18T11:43:40Z</time>
      </trkpt>
      <trkpt lat="49.69749" lon="-1.89346">
        <ele>78</ele>
        <time>2022-06-18T11:44:27Z</time>
      </trkpt>
      <trkpt lat="49.69728" lon="-1.89218">
        <ele>66</ele>
        <time>2022-06-18T11:45:35Z</time>
      </trkpt>
      <trkpt lat="49.6972" lon="-1.89177">
        <ele>63</ele>
        <time>2022-06-18T11:45:57Z</time>
      </trkpt>
      <trkpt lat="49.69707" lon="-1.89137">
        <ele>61</ele>
        <time>2022-06-18T11:46:20Z</time>
      </trkpt>
      <trkpt lat="49.6968" lon="-1.89079">
        <ele>61</ele>
        <time>2022-06-18T11:46:57Z</time>
      </trkpt>
      <trkpt lat="49.69679" lon="-1.89069">
        <ele>62</ele>
        <time>2022-06-18T11:47:03Z</time>
      </trkpt>
      <trkpt lat="49.69684" lon="-1.89062">
        <ele>62</ele>
        <time>2022-06-18T11:47:08Z</time>
      </trkpt>
      <trkpt lat="49.69729" lon="-1.89011">
        <ele>60</ele>
        <time>2022-06-18T11:47:53Z</time>
      </trkpt>
      <trkpt lat="49.69761" lon="-1.88915">
        <ele>64</ele>
        <time>2022-06-18T11:48:49Z</time>
      </trkpt>
      <trkpt lat="49.69752" lon="-1.88731">
        <ele>70</ele>
        <time>2022-06-18T11:50:24Z</time>
      </trkpt>
      <trkpt lat="49.69717" lon="-1.88748">
        <ele>73</ele>
        <time>2022-06-18T11:50:54Z</time>
      </trkpt>
      <trkpt lat="49.69716" lon="-1.8874">
        <ele>73</ele>
        <time>2022-06-18T11:50:58Z</time>
      </trkpt>
      <trkpt lat="49.69682" lon="-1.88576">
        <ele>68</ele>
        <time>2022-06-18T11:52:27Z</time>
      </trkpt>
      <trkpt lat="49.69656" lon="-1.88485">
        <ele>65</ele>
        <time>2022-06-18T11:53:18Z</time>
      </trkpt>
      <trkpt lat="49.69641" lon="-1.88477">
        <ele>66</ele>
        <time>2022-06-18T11:53:31Z</time>
      </trkpt>
      <trkpt lat="49.69617" lon="-1.8846">
        <ele>67</ele>
        <time>2022-06-18T11:53:52Z</time>
      </trkpt>
      <trkpt lat="49.69609" lon="-1.88428">
        <ele>67</ele>
        <time>2022-06-18T11:54:10Z</time>
      </trkpt>
      <trkpt lat="49.69584" lon="-1.88434">
        <ele>69</ele>
        <time>2022-06-18T11:54:30Z</time>
      </trkpt>
      <trkpt lat="49.69573" lon="-1.88448">
        <ele>70</ele>
        <time>2022-06-18T11:54:42Z</time>
      </trkpt>
      <trkpt lat="49.69565" lon="-1.88446">
        <ele>70</ele>
        <time>2022-06-18T11:54:48Z</time>
      </trkpt>
      <trkpt lat="49.69555" lon="-1.88452">
        <ele>71</ele>
        <time>2022-06-18T11:54:57Z</time>
      </trkpt>
      <trkpt lat="49.69534" lon="-1.88409">
        <ele>73</ele>
        <time>2022-06-18T11:55:25Z</time>
      </trkpt>
      <trkpt lat="49.69515" lon="-1.88377">
        <ele>77</ele>
        <time>2022-06-18T11:55:47Z</time>
      </trkpt>
      <trkpt lat="49.69489" lon="-1.88357">
        <ele>80</ele>
        <time>2022-06-18T11:56:10Z</time>
      </trkpt>
      <trkpt lat="49.69471" lon="-1.88325">
        <ele>83</ele>
        <time>2022-06-18T11:56:32Z</time>
      </trkpt>
      <trkpt lat="49.69461" lon="-1.88261">
        <ele>88</ele>
        <time>2022-06-18T11:57:07Z</time>
      </trkpt>
      <trkpt lat="49.69458" lon="-1.882">
        <ele>89</ele>
        <time>2022-06-18T11:57:38Z</time>
      </trkpt>
      <trkpt lat="49.69457" lon="-1.88095">
        <ele>90</ele>
        <time>2022-06-18T11:58:33Z</time>
      </trkpt>
      <trkpt lat="49.69485" lon="-1.8809">
        <ele>91</ele>
        <time>2022-06-18T11:58:55Z</time>
      </trkpt>
      <trkpt lat="49.69479" lon="-1.88032">
        <ele>88</ele>
        <time>2022-06-18T11:59:26Z</time>
      </trkpt>
      <trkpt lat="49.69463" lon="-1.8797">
        <ele>85</ele>
        <time>2022-06-18T12:00:00Z</time>
      </trkpt>
      <trkpt lat="49.69458" lon="-1.87939">
        <ele>84</ele>
        <time>2022-06-18T12:00:17Z</time>
      </trkpt>
      <trkpt lat="49.69457" lon="-1.87867">
        <ele>82</ele>
        <time>2022-06-18T12:00:54Z</time>
      </trkpt>
      <trkpt lat="49.6946" lon="-1.87846">
        <ele>81</ele>
        <time>2022-06-18T12:01:05Z</time>
      </trkpt>
      <trkpt lat="49.69458" lon="-1.87815">
        <ele>80</ele>
        <time>2022-06-18T12:01:21Z</time>
      </trkpt>
      <trkpt lat="49.6945" lon="-1.87795">
        <ele>79</ele>
        <time>2022-06-18T12:01:33Z</time>
      </trkpt>
      <trkpt lat="49.69468" lon="-1.87758">
        <ele>78</ele>
        <time>2022-06-18T12:01:57Z</time>
      </trkpt>
      <trkpt lat="49.69473" lon="-1.87742">
        <ele>78</ele>
        <time>2022-06-18T12:02:07Z</time>
      </trkpt>
      <trkpt lat="49.69478" lon="-1.87716">
        <ele>78</ele>
        <time>2022-06-18T12:02:21Z</time>
      </trkpt>
      <trkpt lat="49.69492" lon="-1.8769">
        <ele>78</ele>
        <time>2022-06-18T12:02:38Z</time>
      </trkpt>
      <trkpt lat="49.69488" lon="-1.87656">
        <ele>79</ele>
        <time>2022-06-18T12:02:56Z</time>
      </trkpt>
      <trkpt lat="49.69493" lon="-1.87642">
        <ele>79</ele>
        <time>2022-06-18T12:03:04Z</time>
      </trkpt>
      <trkpt lat="49.69504" lon="-1.87636">
        <ele>79</ele>
        <time>2022-06-18T12:03:14Z</time>
      </trkpt>
      <trkpt lat="49.69524" lon="-1.87634">
        <ele>80</ele>
        <time>2022-06-18T12:03:30Z</time>
      </trkpt>
      <trkpt lat="49.69533" lon="-1.87631">
        <ele>80</ele>
        <time>2022-06-18T12:03:37Z</time>
      </trkpt>
      <trkpt lat="49.69546" lon="-1.87656">
        <ele>79</ele>
        <time>2022-06-18T12:03:54Z</time>
      </trkpt>
      <trkpt lat="49.69557" lon="-1.87674">
        <ele>78</ele>
        <time>2022-06-18T12:04:07Z</time>
      </trkpt>
      <trkpt lat="49.69573" lon="-1.87676">
        <ele>78</ele>
        <time>2022-06-18T12:04:19Z</time>
      </trkpt>
      <trkpt lat="49.69596" lon="-1.87669">
        <ele>77</ele>
        <time>2022-06-18T12:04:38Z</time>
      </trkpt>
      <trkpt lat="49.69627" lon="-1.87667">
        <ele>76</ele>
        <time>2022-06-18T12:05:03Z</time>
      </trkpt>
      <trkpt lat="49.69674" lon="-1.8766">
        <ele>74</ele>
        <time>2022-06-18T12:05:41Z</time>
      </trkpt>
      <trkpt lat="49.69723" lon="-1.87681">
        <ele>73</ele>
        <time>2022-06-18T12:06:22Z</time>
      </trkpt>
      <trkpt lat="49.69755" lon="-1.87669">
        <ele>74</ele>
        <time>2022-06-18T12:06:48Z</time>
      </trkpt>
      <trkpt lat="49.69817" lon="-1.87688">
        <ele>71</ele>
        <time>2022-06-18T12:07:39Z</time>
      </trkpt>
      <trkpt lat="49.69842" lon="-1.87703">
        <ele>69</ele>
        <time>2022-06-18T12:08:00Z</time>
      </trkpt>
      <trkpt lat="49.69868" lon="-1.87682">
        <ele>71</ele>
        <time>2022-06-18T12:08:24Z</time>
      </trkpt>
      <trkpt lat="49.69928" lon="-1.87693">
        <ele>67</ele>
        <time>2022-06-18T12:09:12Z</time>
      </trkpt>
      <trkpt lat="49.69964" lon="-1.87697">
        <ele>63</ele>
        <time>2022-06-18T12:09:41Z</time>
      </trkpt>
      <trkpt lat="49.69993" lon="-1.877">
        <ele>60</ele>
        <time>2022-06-18T12:10:04Z</time>
      </trkpt>
      <trkpt lat="49.70044" lon="-1.87753">
        <ele>44</ele>
        <time>2022-06-18T12:10:53Z</time>
      </trkpt>
      <trkpt lat="49.70107" lon="-1.87735">
        <ele>32</ele>
        <time>2022-06-18T12:11:45Z</time>
      </trkpt>
      <trkpt lat="49.70111" lon="-1.87721">
        <ele>31</ele>
        <time>2022-06-18T12:11:52Z</time>
      </trkpt>
      <trkpt lat="49.7011" lon="-1.87699">
        <ele>32</ele>
        <time>2022-06-18T12:12:04Z</time>
      </trkpt>
      <trkpt lat="49.70116" lon="-1.87646">
        <ele>31</ele>
        <time>2022-06-18T12:12:32Z</time>
      </trkpt>
      <trkpt lat="49.7012" lon="-1.87628">
        <ele>30</ele>
        <time>2022-06-18T12:12:42Z</time>
      </trkpt>
      <trkpt lat="49.70123" lon="-1.87611">
        <ele>29</ele>
        <time>2022-06-18T12:12:51Z</time>
      </trkpt>
      <trkpt lat="49.70138" lon="-1.87605">
        <ele>25</ele>
        <time>2022-06-18T12:13:03Z</time>
      </trkpt>
      <trkpt lat="49.70172" lon="-1.87669">
        <ele>18</ele>
        <time>2022-06-18T12:13:46Z</time>
      </trkpt>
      <trkpt lat="49.70215" lon="-1.87758">
        <ele>12</ele>
        <time>2022-06-18T12:14:44Z</time>
      </trkpt>
      <trkpt lat="49.70234" lon="-1.87787">
        <ele>11</ele>
        <time>2022-06-18T12:15:05Z</time>
      </trkpt>
      <trkpt lat="49.70278" lon="-1.87847">
        <ele>9</ele>
        <time>2022-06-18T12:15:52Z</time>
      </trkpt>
      <trkpt lat="49.70293" lon="-1.87857">
        <ele>9</ele>
        <time>2022-06-18T12:16:05Z</time>
      </trkpt>
      <trkpt lat="49.70295" lon="-1.87893">
        <ele>9</ele>
        <time>2022-06-18T12:16:24Z</time>
      </trkpt>
      <trkpt lat="49.70295" lon="-1.87896">
        <ele>9</ele>
        <time>2022-06-18T12:16:25Z</time>
      </trkpt>
      <trkpt lat="49.70321" lon="-1.87889">
        <ele>8</ele>
        <time>2022-06-18T12:16:46Z</time>
      </trkpt>
      <trkpt lat="49.70356" lon="-1.87885">
        <ele>7</ele>
        <time>2022-06-18T12:17:15Z</time>
      </trkpt>
      <trkpt lat="49.70389" lon="-1.87887">
        <ele>6</ele>
        <time>2022-06-18T12:17:41Z</time>
      </trkpt>
      <trkpt lat="49.70429" lon="-1.87891">
        <ele>5</ele>
        <time>2022-06-18T12:18:13Z</time>
      </trkpt>
      <trkpt lat="49.7048" lon="-1.87911">
        <ele>3</ele>
        <time>2022-06-18T12:18:55Z</time>
      </trkpt>
      <trkpt lat="49.7058" lon="-1.87915">
        <ele>2</ele>
        <time>2022-06-18T12:20:15Z</time>
      </trkpt>
      <trkpt lat="49.70599" lon="-1.87915">
        <ele>2</ele>
        <time>2022-06-18T12:20:30Z</time>
      </trkpt>
      <trkpt lat="49.70593" lon="-1.88">
        <ele>1</ele>
        <time>2022-06-18T12:21:15Z</time>
      </trkpt>
      <trkpt lat="49.7057" lon="-1.88205">
        <ele>2</ele>
        <time>2022-06-18T12:23:02Z</time>
      </trkpt>
      <trkpt lat="49.70564" lon="-1.88299">
        <ele>2</ele>
        <time>2022-06-18T12:23:51Z</time>
      </trkpt>
      <trkpt lat="49.70565" lon="-1.88421">
        <ele>2</ele>
        <time>2022-06-18T12:24:55Z</time>
      </trkpt>
      <trkpt lat="49.70577" lon="-1.88614">
        <ele>1</ele>
        <time>2022-06-18T12:26:35Z</time>
      </trkpt>
      <trkpt lat="49.70612" lon="-1.88828">
        <ele>2</ele>
        <time>2022-06-18T12:28:29Z</time>
      </trkpt>
      <trkpt lat="49.70625" lon="-1.88877">
        <ele>3</ele>
        <time>2022-06-18T12:28:57Z</time>
      </trkpt>
      <trkpt lat="49.70638" lon="-1.88916">
        <ele>3</ele>
        <time>2022-06-18T12:29:19Z</time>
      </trkpt>
      <trkpt lat="49.7065" lon="-1.88944">
        <ele>4</ele>
        <time>2022-06-18T12:29:37Z</time>
      </trkpt>
      <trkpt lat="49.70664" lon="-1.88983">
        <ele>5</ele>
        <time>2022-06-18T12:30:00Z</time>
      </trkpt>
      <trkpt lat="49.70692" lon="-1.89025">
        <ele>6</ele>
        <time>2022-06-18T12:30:31Z</time>
      </trkpt>
      <trkpt lat="49.70722" lon="-1.89077">
        <ele>8</ele>
        <time>2022-06-18T12:31:07Z</time>
      </trkpt>
      <trkpt lat="49.7073" lon="-1.89086">
        <ele>8</ele>
        <time>2022-06-18T12:31:15Z</time>
      </trkpt>
      <trkpt lat="49.70768" lon="-1.89101">
        <ele>9</ele>
        <time>2022-06-18T12:31:47Z</time>
      </trkpt>
      <trkpt lat="49.70809" lon="-1.89109">
        <ele>10</ele>
        <time>2022-06-18T12:32:20Z</time>
      </trkpt>
      <trkpt lat="49.70854" lon="-1.89079">
        <ele>7</ele>
        <time>2022-06-18T12:32:59Z</time>
      </trkpt>
      <trkpt lat="49.70892" lon="-1.89061">
        <ele>5</ele>
        <time>2022-06-18T12:33:31Z</time>
      </trkpt>
      <trkpt lat="49.70901" lon="-1.89064">
        <ele>6</ele>
        <time>2022-06-18T12:33:38Z</time>
      </trkpt>
      <trkpt lat="49.70917" lon="-1.89062">
        <ele>5</ele>
        <time>2022-06-18T12:33:51Z</time>
      </trkpt>
      <trkpt lat="49.70928" lon="-1.89043">
        <ele>4</ele>
        <time>2022-06-18T12:34:04Z</time>
      </trkpt>
      <trkpt lat="49.7094" lon="-1.89044">
        <ele>3</ele>
        <time>2022-06-18T12:34:14Z</time>
      </trkpt>
      <trkpt lat="49.70952" lon="-1.89077">
        <ele>4</ele>
        <time>2022-06-18T12:34:33Z</time>
      </trkpt>
      <trkpt lat="49.70947" lon="-1.89094">
        <ele>5</ele>
        <time>2022-06-18T12:34:43Z</time>
      </trkpt>
      <trkpt lat="49.70934" lon="-1.89135">
        <ele>8</ele>
        <time>2022-06-18T12:35:07Z</time>
      </trkpt>
      <trkpt lat="49.70927" lon="-1.89178">
        <ele>11</ele>
        <time>2022-06-18T12:35:30Z</time>
      </trkpt>
      <trkpt lat="49.70937" lon="-1.89208">
        <ele>11</ele>
        <time>2022-06-18T12:35:47Z</time>
      </trkpt>
      <trkpt lat="49.70934" lon="-1.89235">
        <ele>13</ele>
        <time>2022-06-18T12:36:01Z</time>
      </trkpt>
      <trkpt lat="49.70945" lon="-1.89265">
        <ele>13</ele>
        <time>2022-06-18T12:36:19Z</time>
      </trkpt>
      <trkpt lat="49.70948" lon="-1.89282">
        <ele>13</ele>
        <time>2022-06-18T12:36:28Z</time>
      </trkpt>
      <trkpt lat="49.70953" lon="-1.89345">
        <ele>16</ele>
        <time>2022-06-18T12:37:01Z</time>
      </trkpt>
      <trkpt lat="49.70958" lon="-1.89376">
        <ele>16</ele>
        <time>2022-06-18T12:37:18Z</time>
      </trkpt>
      <trkpt lat="49.70961" lon="-1.89387">
        <ele>16</ele>
        <time>2022-06-18T12:37:24Z</time>
      </trkpt>
      <trkpt lat="49.70998" lon="-1.8947">
        <ele>11</ele>
        <time>2022-06-18T12:38:16Z</time>
      </trkpt>
      <trkpt lat="49.71036" lon="-1.89535">
        <ele>10</ele>
        <time>2022-06-18T12:39:01Z</time>
      </trkpt>
      <trkpt lat="49.71048" lon="-1.8955">
        <ele>9</ele>
        <time>2022-06-18T12:39:14Z</time>
      </trkpt>
      <trkpt lat="49.71066" lon="-1.89576">
        <ele>8</ele>
        <time>2022-06-18T12:39:33Z</time>
      </trkpt>
      <trkpt lat="49.71106" lon="-1.89649">
        <ele>5</ele>
        <time>2022-06-18T12:40:23Z</time>
      </trkpt>
    </trkseg>
  </trk>
  <trk>
    <name><![CDATA[CapDeLaHague15,5]]></name>
    <desc><![CDATA[Total: 15.5km]]></desc>
    <extensions>
      <line xmlns="http://www.topografix.com/GPX/gpx_style/0/2">
        <color>000088</color>
        <width>4</width>
      </line>
    </extensions>
    <trkseg>
      <trkpt lat="49.71183" lon="-1.8975">
        <ele>15.605</ele>
      </trkpt>
      <trkpt lat="49.71183" lon="-1.8975">
        <ele>15.588</ele>
      </trkpt>
      <trkpt lat="49.71218" lon="-1.89779">
        <ele>20.251</ele>
      </trkpt>
      <trkpt lat="49.71229" lon="-1.89785">
        <ele>22.203</ele>
      </trkpt>
      <trkpt lat="49.71266" lon="-1.89782">
        <ele>23.447</ele>
      </trkpt>
      <trkpt lat="49.71312" lon="-1.89777">
        <ele>27.522</ele>
      </trkpt>
      <trkpt lat="49.71355" lon="-1.89773">
        <ele>31.404</ele>
      </trkpt>
      <trkpt lat="49.71366" lon="-1.89777">
        <ele>33.735</ele>
      </trkpt>
      <trkpt lat="49.71369" lon="-1.89775">
        <ele>33.892</ele>
      </trkpt>
      <trkpt lat="49.71369" lon="-1.89774">
        <ele>33.758</ele>
      </trkpt>
      <trkpt lat="49.71382" lon="-1.89761">
        <ele>33.145</ele>
      </trkpt>
      <trkpt lat="49.71365" lon="-1.89713">
        <ele>19.001</ele>
      </trkpt>
      <trkpt lat="49.71382" lon="-1.897">
        <ele>18.984</ele>
      </trkpt>
      <trkpt lat="49.71393" lon="-1.8968">
        <ele>16.692</ele>
      </trkpt>
      <trkpt lat="49.71427" lon="-1.89665">
        <ele>18.74</ele>
      </trkpt>
      <trkpt lat="49.71436" lon="-1.89652">
        <ele>13.653</ele>
      </trkpt>
      <trkpt lat="49.71452" lon="-1.89641">
        <ele>12.825</ele>
      </trkpt>
      <trkpt lat="49.71463" lon="-1.89635">
        <ele>13.899</ele>
      </trkpt>
      <trkpt lat="49.71479" lon="-1.89613">
        <ele>10.257</ele>
      </trkpt>
      <trkpt lat="49.71524" lon="-1.89601">
        <ele>15.046</ele>
      </trkpt>
      <trkpt lat="49.71558" lon="-1.89598">
        <ele>15.075</ele>
      </trkpt>
      <trkpt lat="49.71569" lon="-1.89566">
        <ele>10.513</ele>
      </trkpt>
      <trkpt lat="49.71601" lon="-1.89582">
        <ele>10.185</ele>
      </trkpt>
      <trkpt lat="49.71607" lon="-1.89589">
        <ele>10.216</ele>
      </trkpt>
      <trkpt lat="49.71641" lon="-1.89616">
        <ele>9.783</ele>
      </trkpt>
      <trkpt lat="49.71672" lon="-1.89667">
        <ele>8.524</ele>
      </trkpt>
      <trkpt lat="49.71679" lon="-1.89692">
        <ele>6.925</ele>
      </trkpt>
      <trkpt lat="49.71678" lon="-1.89762">
        <ele>7.803</ele>
      </trkpt>
      <trkpt lat="49.71697" lon="-1.89823">
        <ele>8.482</ele>
      </trkpt>
      <trkpt lat="49.71714" lon="-1.89831">
        <ele>6.286</ele>
      </trkpt>
      <trkpt lat="49.71763" lon="-1.89904">
        <ele>5.879</ele>
      </trkpt>
      <trkpt lat="49.71771" lon="-1.89942">
        <ele>8.163</ele>
      </trkpt>
      <trkpt lat="49.71834" lon="-1.9002">
        <ele>10.312</ele>
      </trkpt>
      <trkpt lat="49.7184" lon="-1.90083">
        <ele>11.102</ele>
      </trkpt>
      <trkpt lat="49.71841" lon="-1.90152">
        <ele>12.129</ele>
      </trkpt>
      <trkpt lat="49.7185" lon="-1.90213">
        <ele>10.232</ele>
      </trkpt>
      <trkpt lat="49.7187" lon="-1.90318">
        <ele>7.357</ele>
      </trkpt>
      <trkpt lat="49.71896" lon="-1.90338">
        <ele>5.952</ele>
      </trkpt>
      <trkpt lat="49.71951" lon="-1.90406">
        <ele>7.847</ele>
      </trkpt>
      <trkpt lat="49.71994" lon="-1.904">
        <ele>6.766</ele>
      </trkpt>
      <trkpt lat="49.72046" lon="-1.90413">
        <ele>5.174</ele>
      </trkpt>
      <trkpt lat="49.72056" lon="-1.90428">
        <ele>5.757</ele>
      </trkpt>
      <trkpt lat="49.72082" lon="-1.90436">
        <ele>5.465</ele>
      </trkpt>
      <trkpt lat="49.72092" lon="-1.90452">
        <ele>5.107</ele>
      </trkpt>
      <trkpt lat="49.72101" lon="-1.90539">
        <ele>4.949</ele>
      </trkpt>
      <trkpt lat="49.72118" lon="-1.90588">
        <ele>5.302</ele>
      </trkpt>
      <trkpt lat="49.72125" lon="-1.90594">
        <ele>5.15</ele>
      </trkpt>
      <trkpt lat="49.72136" lon="-1.90651">
        <ele>8.053</ele>
      </trkpt>
      <trkpt lat="49.72141" lon="-1.90703">
        <ele>8.974</ele>
      </trkpt>
      <trkpt lat="49.72136" lon="-1.90758">
        <ele>7.257</ele>
      </trkpt>
      <trkpt lat="49.72117" lon="-1.90829">
        <ele>5.238</ele>
      </trkpt>
      <trkpt lat="49.72108" lon="-1.909">
        <ele>4.231</ele>
      </trkpt>
      <trkpt lat="49.72106" lon="-1.90941">
        <ele>4.527</ele>
      </trkpt>
      <trkpt lat="49.72116" lon="-1.91033">
        <ele>5.202</ele>
      </trkpt>
      <trkpt lat="49.72123" lon="-1.91085">
        <ele>3.75</ele>
      </trkpt>
      <trkpt lat="49.72134" lon="-1.91134">
        <ele>4.849</ele>
      </trkpt>
      <trkpt lat="49.72143" lon="-1.91187">
        <ele>4.592</ele>
      </trkpt>
      <trkpt lat="49.72165" lon="-1.91229">
        <ele>5</ele>
      </trkpt>
      <trkpt lat="49.72175" lon="-1.9124">
        <ele>4.675</ele>
      </trkpt>
      <trkpt lat="49.72199" lon="-1.91251">
        <ele>4.702</ele>
      </trkpt>
      <trkpt lat="49.72215" lon="-1.91254">
        <ele>3.72</ele>
      </trkpt>
      <trkpt lat="49.72234" lon="-1.91263">
        <ele>4.155</ele>
      </trkpt>
      <trkpt lat="49.72257" lon="-1.91291">
        <ele>6.49</ele>
      </trkpt>
      <trkpt lat="49.72298" lon="-1.91328">
        <ele>7.794</ele>
      </trkpt>
      <trkpt lat="49.72335" lon="-1.91369">
        <ele>8.254</ele>
      </trkpt>
      <trkpt lat="49.72375" lon="-1.91425">
        <ele>5.633</ele>
      </trkpt>
      <trkpt lat="49.72403" lon="-1.91533">
        <ele>4.716</ele>
      </trkpt>
      <trkpt lat="49.72402" lon="-1.9154">
        <ele>5.169</ele>
      </trkpt>
      <trkpt lat="49.7242" lon="-1.91578">
        <ele>5.705</ele>
      </trkpt>
      <trkpt lat="49.72429" lon="-1.91577">
        <ele>4.823</ele>
      </trkpt>
      <trkpt lat="49.72445" lon="-1.91611">
        <ele>5.854</ele>
      </trkpt>
      <trkpt lat="49.72498" lon="-1.91704">
        <ele>5</ele>
      </trkpt>
      <trkpt lat="49.72507" lon="-1.91831">
        <ele>4.212</ele>
      </trkpt>
      <trkpt lat="49.72522" lon="-1.91923">
        <ele>4.374</ele>
      </trkpt>
      <trkpt lat="49.72547" lon="-1.9203">
        <ele>4.364</ele>
      </trkpt>
      <trkpt lat="49.72578" lon="-1.92137">
        <ele>4.096</ele>
      </trkpt>
      <trkpt lat="49.72606" lon="-1.92182">
        <ele>4.926</ele>
      </trkpt>
      <trkpt lat="49.72623" lon="-1.92197">
        <ele>5.303</ele>
      </trkpt>
      <trkpt lat="49.72639" lon="-1.92286">
        <ele>5.73</ele>
      </trkpt>
      <trkpt lat="49.7263" lon="-1.92342">
        <ele>5.469</ele>
      </trkpt>
      <trkpt lat="49.72629" lon="-1.92459">
        <ele>4.849</ele>
      </trkpt>
      <trkpt lat="49.72642" lon="-1.92486">
        <ele>4.606</ele>
      </trkpt>
      <trkpt lat="49.72654" lon="-1.92531">
        <ele>4.048</ele>
      </trkpt>
      <trkpt lat="49.72683" lon="-1.92581">
        <ele>3.985</ele>
      </trkpt>
      <trkpt lat="49.72687" lon="-1.92606">
        <ele>4</ele>
      </trkpt>
      <trkpt lat="49.72666" lon="-1.92657">
        <ele>4</ele>
      </trkpt>
      <trkpt lat="49.72645" lon="-1.92735">
        <ele>3.832</ele>
      </trkpt>
      <trkpt lat="49.72637" lon="-1.9279">
        <ele>4.967</ele>
      </trkpt>
      <trkpt lat="49.72642" lon="-1.92813">
        <ele>4.581</ele>
      </trkpt>
      <trkpt lat="49.72624" lon="-1.92869">
        <ele>4.262</ele>
      </trkpt>
      <trkpt lat="49.72608" lon="-1.92899">
        <ele>4.679</ele>
      </trkpt>
      <trkpt lat="49.72587" lon="-1.9296">
        <ele>4.554</ele>
      </trkpt>
      <trkpt lat="49.7258" lon="-1.93006">
        <ele>4.96</ele>
      </trkpt>
      <trkpt lat="49.72582" lon="-1.93048">
        <ele>5.466</ele>
      </trkpt>
      <trkpt lat="49.72596" lon="-1.93074">
        <ele>5.12</ele>
      </trkpt>
      <trkpt lat="49.72605" lon="-1.93082">
        <ele>5.133</ele>
      </trkpt>
      <trkpt lat="49.72615" lon="-1.93133">
        <ele>5.591</ele>
      </trkpt>
      <trkpt lat="49.72612" lon="-1.93155">
        <ele>5.313</ele>
      </trkpt>
      <trkpt lat="49.72607" lon="-1.93167">
        <ele>4.992</ele>
      </trkpt>
      <trkpt lat="49.72598" lon="-1.93221">
        <ele>3.497</ele>
      </trkpt>
      <trkpt lat="49.72602" lon="-1.9329">
        <ele>3.49</ele>
      </trkpt>
      <trkpt lat="49.72614" lon="-1.93352">
        <ele>4.41</ele>
      </trkpt>
      <trkpt lat="49.72637" lon="-1.93401">
        <ele>3.942</ele>
      </trkpt>
      <trkpt lat="49.72655" lon="-1.9342">
        <ele>4.496</ele>
      </trkpt>
      <trkpt lat="49.72675" lon="-1.93422">
        <ele>4.178</ele>
      </trkpt>
      <trkpt lat="49.72682" lon="-1.93419">
        <ele>4.091</ele>
      </trkpt>
      <trkpt lat="49.72686" lon="-1.93422">
        <ele>4.206</ele>
      </trkpt>
      <trkpt lat="49.72686" lon="-1.93435">
        <ele>4.642</ele>
      </trkpt>
      <trkpt lat="49.72677" lon="-1.93454">
        <ele>4.951</ele>
      </trkpt>
      <trkpt lat="49.72647" lon="-1.93484">
        <ele>5.22</ele>
      </trkpt>
      <trkpt lat="49.72614" lon="-1.93545">
        <ele>4.777</ele>
      </trkpt>
      <trkpt lat="49.72601" lon="-1.93613">
        <ele>4.368</ele>
      </trkpt>
      <trkpt lat="49.72601" lon="-1.93662">
        <ele>4.35</ele>
      </trkpt>
      <trkpt lat="49.72612" lon="-1.93707">
        <ele>5.263</ele>
      </trkpt>
      <trkpt lat="49.72614" lon="-1.9381">
        <ele>6.907</ele>
      </trkpt>
      <trkpt lat="49.72615" lon="-1.93823">
        <ele>6.864</ele>
      </trkpt>
      <trkpt lat="49.72609" lon="-1.93852">
        <ele>7.022</ele>
      </trkpt>
      <trkpt lat="49.72625" lon="-1.93864">
        <ele>6.914</ele>
      </trkpt>
      <trkpt lat="49.72632" lon="-1.93883">
        <ele>5.814</ele>
      </trkpt>
      <trkpt lat="49.7263" lon="-1.93937">
        <ele>5.014</ele>
      </trkpt>
      <trkpt lat="49.72632" lon="-1.9397">
        <ele>5.891</ele>
      </trkpt>
      <trkpt lat="49.72619" lon="-1.94032">
        <ele>5.144</ele>
      </trkpt>
      <trkpt lat="49.72584" lon="-1.9409">
        <ele>5.899</ele>
      </trkpt>
      <trkpt lat="49.72533" lon="-1.94142">
        <ele>5.048</ele>
      </trkpt>
      <trkpt lat="49.72524" lon="-1.94151">
        <ele>4.288</ele>
      </trkpt>
      <trkpt lat="49.72496" lon="-1.94164">
        <ele>5.764</ele>
      </trkpt>
      <trkpt lat="49.72447" lon="-1.94226">
        <ele>5.317</ele>
      </trkpt>
      <trkpt lat="49.72435" lon="-1.94241">
        <ele>4.79</ele>
      </trkpt>
      <trkpt lat="49.7242" lon="-1.94249">
        <ele>4.881</ele>
      </trkpt>
      <trkpt lat="49.72406" lon="-1.94282">
        <ele>4.804</ele>
      </trkpt>
      <trkpt lat="49.72387" lon="-1.94309">
        <ele>4.862</ele>
      </trkpt>
      <trkpt lat="49.72374" lon="-1.94316">
        <ele>4.638</ele>
      </trkpt>
      <trkpt lat="49.72354" lon="-1.94312">
        <ele>4.754</ele>
      </trkpt>
      <trkpt lat="49.72328" lon="-1.94315">
        <ele>4.725</ele>
      </trkpt>
      <trkpt lat="49.72301" lon="-1.94326">
        <ele>5</ele>
      </trkpt>
      <trkpt lat="49.7227" lon="-1.94346">
        <ele>4.676</ele>
      </trkpt>
      <trkpt lat="49.72216" lon="-1.94395">
        <ele>4.888</ele>
      </trkpt>
      <trkpt lat="49.72158" lon="-1.94436">
        <ele>4.907</ele>
      </trkpt>
      <trkpt lat="49.72128" lon="-1.94446">
        <ele>4.928</ele>
      </trkpt>
      <trkpt lat="49.72083" lon="-1.94452">
        <ele>4.742</ele>
      </trkpt>
      <trkpt lat="49.72044" lon="-1.94445">
        <ele>4.917</ele>
      </trkpt>
      <trkpt lat="49.72004" lon="-1.94436">
        <ele>4.392</ele>
      </trkpt>
      <trkpt lat="49.71953" lon="-1.94429">
        <ele>4.143</ele>
      </trkpt>
      <trkpt lat="49.71926" lon="-1.94427">
        <ele>4</ele>
      </trkpt>
      <trkpt lat="49.71885" lon="-1.9443">
        <ele>4.479</ele>
      </trkpt>
      <trkpt lat="49.71849" lon="-1.94444">
        <ele>5.459</ele>
      </trkpt>
      <trkpt lat="49.71828" lon="-1.94454">
        <ele>4.605</ele>
      </trkpt>
      <trkpt lat="49.71776" lon="-1.94489">
        <ele>5.162</ele>
      </trkpt>
      <trkpt lat="49.71753" lon="-1.94511">
        <ele>4.947</ele>
      </trkpt>
      <trkpt lat="49.71718" lon="-1.94544">
        <ele>4.79</ele>
      </trkpt>
      <trkpt lat="49.71692" lon="-1.94574">
        <ele>4.554</ele>
      </trkpt>
      <trkpt lat="49.71681" lon="-1.94601">
        <ele>3.873</ele>
      </trkpt>
      <trkpt lat="49.71674" lon="-1.94642">
        <ele>3.886</ele>
      </trkpt>
      <trkpt lat="49.71671" lon="-1.94668">
        <ele>4.333</ele>
      </trkpt>
      <trkpt lat="49.71679" lon="-1.94703">
        <ele>3.948</ele>
      </trkpt>
      <trkpt lat="49.71697" lon="-1.94745">
        <ele>4.924</ele>
      </trkpt>
      <trkpt lat="49.71685" lon="-1.94759">
        <ele>4.728</ele>
      </trkpt>
      <trkpt lat="49.71665" lon="-1.9477">
        <ele>4.633</ele>
      </trkpt>
      <trkpt lat="49.71647" lon="-1.94767">
        <ele>5.662</ele>
      </trkpt>
      <trkpt lat="49.71637" lon="-1.9478">
        <ele>5.992</ele>
      </trkpt>
      <trkpt lat="49.71629" lon="-1.948">
        <ele>5.57</ele>
      </trkpt>
      <trkpt lat="49.71605" lon="-1.94798">
        <ele>6.286</ele>
      </trkpt>
      <trkpt lat="49.7159" lon="-1.94798">
        <ele>6.268</ele>
      </trkpt>
      <trkpt lat="49.71584" lon="-1.94805">
        <ele>6.027</ele>
      </trkpt>
      <trkpt lat="49.71573" lon="-1.94804">
        <ele>5.698</ele>
      </trkpt>
      <trkpt lat="49.71555" lon="-1.94777">
        <ele>6.008</ele>
      </trkpt>
      <trkpt lat="49.71539" lon="-1.94773">
        <ele>5.458</ele>
      </trkpt>
      <trkpt lat="49.71537" lon="-1.94745">
        <ele>5.777</ele>
      </trkpt>
      <trkpt lat="49.71533" lon="-1.94727">
        <ele>6.027</ele>
      </trkpt>
      <trkpt lat="49.71523" lon="-1.9471">
        <ele>4.42</ele>
      </trkpt>
      <trkpt lat="49.71531" lon="-1.94698">
        <ele>4.552</ele>
      </trkpt>
      <trkpt lat="49.71534" lon="-1.94678">
        <ele>4.661</ele>
      </trkpt>
      <trkpt lat="49.71518" lon="-1.94616">
        <ele>3.972</ele>
      </trkpt>
      <trkpt lat="49.71518" lon="-1.94595">
        <ele>4.12</ele>
      </trkpt>
      <trkpt lat="49.71519" lon="-1.94587">
        <ele>4.302</ele>
      </trkpt>
      <trkpt lat="49.71526" lon="-1.94576">
        <ele>4.337</ele>
      </trkpt>
      <trkpt lat="49.71542" lon="-1.94579">
        <ele>4.754</ele>
      </trkpt>
      <trkpt lat="49.71557" lon="-1.94557">
        <ele>4.039</ele>
      </trkpt>
      <trkpt lat="49.71571" lon="-1.94521">
        <ele>4.11</ele>
      </trkpt>
      <trkpt lat="49.71576" lon="-1.94502">
        <ele>4.229</ele>
      </trkpt>
      <trkpt lat="49.71554" lon="-1.94473">
        <ele>4.885</ele>
      </trkpt>
      <trkpt lat="49.71536" lon="-1.94425">
        <ele>5.314</ele>
      </trkpt>
      <trkpt lat="49.715" lon="-1.94364">
        <ele>5.88</ele>
      </trkpt>
      <trkpt lat="49.7147" lon="-1.94334">
        <ele>5.981</ele>
      </trkpt>
      <trkpt lat="49.71432" lon="-1.94326">
        <ele>6</ele>
      </trkpt>
      <trkpt lat="49.71401" lon="-1.94327">
        <ele>5.7</ele>
      </trkpt>
      <trkpt lat="49.71337" lon="-1.94334">
        <ele>6.841</ele>
      </trkpt>
      <trkpt lat="49.71333" lon="-1.94269">
        <ele>7.998</ele>
      </trkpt>
      <trkpt lat="49.71319" lon="-1.94204">
        <ele>9.999</ele>
      </trkpt>
      <trkpt lat="49.71318" lon="-1.94203">
        <ele>10.074</ele>
      </trkpt>
      <trkpt lat="49.71288" lon="-1.94229">
        <ele>9.478</ele>
      </trkpt>
      <trkpt lat="49.71245" lon="-1.94269">
        <ele>9.439</ele>
      </trkpt>
      <trkpt lat="49.71226" lon="-1.94283">
        <ele>9.676</ele>
      </trkpt>
      <trkpt lat="49.71195" lon="-1.94309">
        <ele>9.734</ele>
      </trkpt>
      <trkpt lat="49.71142" lon="-1.94341">
        <ele>10.612</ele>
      </trkpt>
      <trkpt lat="49.71113" lon="-1.94356">
        <ele>10.945</ele>
      </trkpt>
      <trkpt lat="49.71077" lon="-1.94373">
        <ele>11.358</ele>
      </trkpt>
      <trkpt lat="49.71047" lon="-1.94392">
        <ele>12.196</ele>
      </trkpt>
      <trkpt lat="49.70985" lon="-1.9444">
        <ele>14.24</ele>
      </trkpt>
      <trkpt lat="49.70966" lon="-1.94455">
        <ele>14.983</ele>
      </trkpt>
      <trkpt lat="49.70949" lon="-1.94466">
        <ele>15.247</ele>
      </trkpt>
      <trkpt lat="49.70932" lon="-1.94479">
        <ele>15.787</ele>
      </trkpt>
      <trkpt lat="49.70917" lon="-1.94487">
        <ele>16.45</ele>
      </trkpt>
      <trkpt lat="49.70914" lon="-1.94487">
        <ele>16.564</ele>
      </trkpt>
      <trkpt lat="49.70905" lon="-1.94498">
        <ele>16.492</ele>
      </trkpt>
      <trkpt lat="49.70896" lon="-1.94503">
        <ele>16.636</ele>
      </trkpt>
      <trkpt lat="49.70884" lon="-1.94506">
        <ele>17.226</ele>
      </trkpt>
      <trkpt lat="49.70878" lon="-1.94515">
        <ele>17.868</ele>
      </trkpt>
      <trkpt lat="49.70873" lon="-1.94521">
        <ele>18.695</ele>
      </trkpt>
      <trkpt lat="49.70859" lon="-1.9454">
        <ele>19.419</ele>
      </trkpt>
      <trkpt lat="49.70859" lon="-1.94541">
        <ele>19.163</ele>
      </trkpt>
      <trkpt lat="49.70853" lon="-1.94548">
        <ele>19.005</ele>
      </trkpt>
      <trkpt lat="49.70836" lon="-1.94558">
        <ele>19.201</ele>
      </trkpt>
      <trkpt lat="49.70778" lon="-1.9456">
        <ele>26.167</ele>
      </trkpt>
      <trkpt lat="49.70746" lon="-1.94584">
        <ele>26.053</ele>
      </trkpt>
      <trkpt lat="49.70738" lon="-1.94595">
        <ele>26.595</ele>
      </trkpt>
      <trkpt lat="49.70731" lon="-1.94617">
        <ele>24.583</ele>
      </trkpt>
      <trkpt lat="49.70725" lon="-1.94641">
        <ele>20.838</ele>
      </trkpt>
      <trkpt lat="49.7072" lon="-1.94647">
        <ele>19.824</ele>
      </trkpt>
      <trkpt lat="49.70715" lon="-1.94651">
        <ele>19.032</ele>
      </trkpt>
      <trkpt lat="49.70682" lon="-1.94665">
        <ele>17.51</ele>
      </trkpt>
      <trkpt lat="49.70675" lon="-1.9467">
        <ele>16.584</ele>
      </trkpt>
      <trkpt lat="49.70667" lon="-1.94672">
        <ele>16.449</ele>
      </trkpt>
      <trkpt lat="49.70652" lon="-1.94664">
        <ele>17.989</ele>
      </trkpt>
      <trkpt lat="49.70646" lon="-1.94661">
        <ele>18.557</ele>
      </trkpt>
      <trkpt lat="49.7063" lon="-1.94662">
        <ele>18.098</ele>
      </trkpt>
      <trkpt lat="49.70612" lon="-1.9467">
        <ele>16.844</ele>
      </trkpt>
      <trkpt lat="49.70605" lon="-1.9467">
        <ele>17.034</ele>
      </trkpt>
      <trkpt lat="49.70606" lon="-1.94671">
        <ele>16.664</ele>
      </trkpt>
      <trkpt lat="49.70591" lon="-1.94668">
        <ele>18.15</ele>
      </trkpt>
      <trkpt lat="49.70578" lon="-1.94663">
        <ele>20.446</ele>
      </trkpt>
      <trkpt lat="49.70573" lon="-1.94669">
        <ele>18.906</ele>
      </trkpt>
      <trkpt lat="49.70536" lon="-1.94686">
        <ele>18.184</ele>
      </trkpt>
      <trkpt lat="49.70526" lon="-1.94684">
        <ele>20.318</ele>
      </trkpt>
      <trkpt lat="49.70518" lon="-1.94676">
        <ele>21.567</ele>
      </trkpt>
      <trkpt lat="49.70505" lon="-1.94675">
        <ele>20.397</ele>
      </trkpt>
      <trkpt lat="49.70474" lon="-1.94658">
        <ele>19.919</ele>
      </trkpt>
      <trkpt lat="49.70465" lon="-1.94642">
        <ele>20.927</ele>
      </trkpt>
      <trkpt lat="49.70451" lon="-1.94613">
        <ele>22.507</ele>
      </trkpt>
      <trkpt lat="49.70436" lon="-1.94592">
        <ele>22.032</ele>
      </trkpt>
      <trkpt lat="49.70422" lon="-1.94555">
        <ele>25.452</ele>
      </trkpt>
      <trkpt lat="49.70409" lon="-1.94532">
        <ele>22.269</ele>
      </trkpt>
      <trkpt lat="49.70409" lon="-1.94522">
        <ele>23.952</ele>
      </trkpt>
      <trkpt lat="49.70401" lon="-1.94491">
        <ele>27.489</ele>
      </trkpt>
      <trkpt lat="49.70392" lon="-1.94466">
        <ele>30.85</ele>
      </trkpt>
      <trkpt lat="49.70379" lon="-1.9443">
        <ele>29.499</ele>
      </trkpt>
      <trkpt lat="49.70367" lon="-1.94402">
        <ele>34.429</ele>
      </trkpt>
      <trkpt lat="49.70356" lon="-1.94382">
        <ele>38.08</ele>
      </trkpt>
      <trkpt lat="49.70344" lon="-1.94375">
        <ele>36.403</ele>
      </trkpt>
      <trkpt lat="49.70326" lon="-1.94365">
        <ele>38.576</ele>
      </trkpt>
      <trkpt lat="49.7031" lon="-1.94367">
        <ele>37.419</ele>
      </trkpt>
      <trkpt lat="49.70296" lon="-1.94377">
        <ele>34.135</ele>
      </trkpt>
      <trkpt lat="49.70217" lon="-1.94453">
        <ele>27.495</ele>
      </trkpt>
      <trkpt lat="49.70188" lon="-1.94449">
        <ele>29.975</ele>
      </trkpt>
      <trkpt lat="49.70145" lon="-1.94395">
        <ele>37.66</ele>
      </trkpt>
      <trkpt lat="49.70112" lon="-1.94361">
        <ele>44.894</ele>
      </trkpt>
      <trkpt lat="49.70086" lon="-1.94375">
        <ele>43.173</ele>
      </trkpt>
      <trkpt lat="49.70056" lon="-1.94368">
        <ele>35.816</ele>
      </trkpt>
      <trkpt lat="49.70017" lon="-1.94327">
        <ele>32.602</ele>
      </trkpt>
      <trkpt lat="49.70009" lon="-1.94319">
        <ele>31.638</ele>
      </trkpt>
      <trkpt lat="49.69989" lon="-1.94277">
        <ele>36.402</ele>
      </trkpt>
      <trkpt lat="49.69944" lon="-1.9425">
        <ele>35.886</ele>
      </trkpt>
      <trkpt lat="49.69912" lon="-1.94229">
        <ele>35.797</ele>
      </trkpt>
      <trkpt lat="49.69886" lon="-1.94228">
        <ele>28.408</ele>
      </trkpt>
      <trkpt lat="49.69856" lon="-1.94248">
        <ele>29.082</ele>
      </trkpt>
      <trkpt lat="49.69846" lon="-1.94266">
        <ele>25.464</ele>
      </trkpt>
      <trkpt lat="49.6983" lon="-1.94286">
        <ele>27.275</ele>
      </trkpt>
      <trkpt lat="49.69826" lon="-1.94303">
        <ele>22.981</ele>
      </trkpt>
      <trkpt lat="49.69803" lon="-1.94307">
        <ele>21.347</ele>
      </trkpt>
      <trkpt lat="49.69783" lon="-1.94288">
        <ele>20.377</ele>
      </trkpt>
      <trkpt lat="49.69779" lon="-1.94268">
        <ele>24.072</ele>
      </trkpt>
      <trkpt lat="49.69781" lon="-1.94247">
        <ele>28.774</ele>
      </trkpt>
      <trkpt lat="49.69764" lon="-1.94213">
        <ele>28.511</ele>
      </trkpt>
      <trkpt lat="49.69736" lon="-1.94178">
        <ele>25.229</ele>
      </trkpt>
      <trkpt lat="49.69732" lon="-1.94158">
        <ele>25.474</ele>
      </trkpt>
      <trkpt lat="49.69733" lon="-1.94134">
        <ele>27.653</ele>
      </trkpt>
      <trkpt lat="49.69739" lon="-1.94109">
        <ele>30.52</ele>
      </trkpt>
      <trkpt lat="49.69734" lon="-1.94064">
        <ele>31.439</ele>
      </trkpt>
      <trkpt lat="49.69737" lon="-1.94041">
        <ele>34.536</ele>
      </trkpt>
      <trkpt lat="49.69733" lon="-1.94019">
        <ele>33.317</ele>
      </trkpt>
      <trkpt lat="49.69737" lon="-1.93981">
        <ele>37.45</ele>
      </trkpt>
      <trkpt lat="49.69737" lon="-1.93943">
        <ele>40.97</ele>
      </trkpt>
      <trkpt lat="49.69727" lon="-1.93908">
        <ele>43.383</ele>
      </trkpt>
      <trkpt lat="49.6972" lon="-1.93897">
        <ele>43.301</ele>
      </trkpt>
      <trkpt lat="49.69715" lon="-1.9388">
        <ele>45.55</ele>
      </trkpt>
      <trkpt lat="49.69712" lon="-1.93851">
        <ele>50.026</ele>
      </trkpt>
      <trkpt lat="49.69699" lon="-1.93812">
        <ele>50.026</ele>
      </trkpt>
      <trkpt lat="49.6969" lon="-1.9379">
        <ele>51.189</ele>
      </trkpt>
      <trkpt lat="49.69679" lon="-1.93755">
        <ele>54.884</ele>
      </trkpt>
      <trkpt lat="49.69678" lon="-1.93736">
        <ele>58.272</ele>
      </trkpt>
      <trkpt lat="49.69699" lon="-1.93769">
        <ele>59.556</ele>
      </trkpt>
      <trkpt lat="49.6973" lon="-1.93812">
        <ele>64.187</ele>
      </trkpt>
      <trkpt lat="49.6973" lon="-1.93813">
        <ele>63.773</ele>
      </trkpt>
      <trkpt lat="49.69746" lon="-1.93841">
        <ele>67.26</ele>
      </trkpt>
      <trkpt lat="49.69756" lon="-1.93854">
        <ele>68.853</ele>
      </trkpt>
      <trkpt lat="49.69802" lon="-1.9388">
        <ele>75.378</ele>
      </trkpt>
      <trkpt lat="49.69833" lon="-1.939">
        <ele>80.338</ele>
      </trkpt>
      <trkpt lat="49.69838" lon="-1.93903">
        <ele>80.593</ele>
      </trkpt>
      <trkpt lat="49.69834" lon="-1.93893">
        <ele>80.152</ele>
      </trkpt>
      <trkpt lat="49.6983" lon="-1.93882">
        <ele>79.332</ele>
      </trkpt>
      <trkpt lat="49.69817" lon="-1.93858">
        <ele>78.022</ele>
      </trkpt>
      <trkpt lat="49.69813" lon="-1.93844">
        <ele>78.889</ele>
      </trkpt>
      <trkpt lat="49.69806" lon="-1.93805">
        <ele>81.008</ele>
      </trkpt>
      <trkpt lat="49.69786" lon="-1.9371">
        <ele>87.732</ele>
      </trkpt>
      <trkpt lat="49.69786" lon="-1.93697">
        <ele>88.39</ele>
      </trkpt>
      <trkpt lat="49.6978" lon="-1.93673">
        <ele>90.372</ele>
      </trkpt>
      <trkpt lat="49.69776" lon="-1.9365">
        <ele>91.894</ele>
      </trkpt>
      <trkpt lat="49.6977" lon="-1.93611">
        <ele>93.683</ele>
      </trkpt>
      <trkpt lat="49.69761" lon="-1.93542">
        <ele>96.609</ele>
      </trkpt>
      <trkpt lat="49.69754" lon="-1.93536">
        <ele>97.525</ele>
      </trkpt>
      <trkpt lat="49.6975" lon="-1.93529">
        <ele>98</ele>
      </trkpt>
      <trkpt lat="49.69742" lon="-1.93519">
        <ele>98.864</ele>
      </trkpt>
      <trkpt lat="49.69731" lon="-1.93511">
        <ele>100.052</ele>
      </trkpt>
      <trkpt lat="49.69698" lon="-1.93499">
        <ele>102.811</ele>
      </trkpt>
      <trkpt lat="49.69648" lon="-1.93494">
        <ele>104.834</ele>
      </trkpt>
      <trkpt lat="49.69636" lon="-1.93488">
        <ele>104.925</ele>
      </trkpt>
      <trkpt lat="49.69636" lon="-1.9349">
        <ele>104.602</ele>
      </trkpt>
      <trkpt lat="49.69616" lon="-1.9347">
        <ele>104.688</ele>
      </trkpt>
      <trkpt lat="49.69565" lon="-1.93397">
        <ele>105.419</ele>
      </trkpt>
      <trkpt lat="49.6949" lon="-1.93349">
        <ele>111.354</ele>
      </trkpt>
      <trkpt lat="49.69398" lon="-1.93279">
        <ele>111.181</ele>
      </trkpt>
      <trkpt lat="49.69293" lon="-1.932">
        <ele>102.773</ele>
      </trkpt>
      <trkpt lat="49.69227" lon="-1.93022">
        <ele>97.412</ele>
      </trkpt>
      <trkpt lat="49.69254" lon="-1.92774">
        <ele>108.937</ele>
      </trkpt>
      <trkpt lat="49.69251" lon="-1.92739">
        <ele>112.842</ele>
      </trkpt>
      <trkpt lat="49.69266" lon="-1.9256">
        <ele>120.992</ele>
      </trkpt>
      <trkpt lat="49.69268" lon="-1.9238">
        <ele>123.855</ele>
      </trkpt>
      <trkpt lat="49.69285" lon="-1.92271">
        <ele>126.26</ele>
      </trkpt>
      <trkpt lat="49.69304" lon="-1.91988">
        <ele>128.944</ele>
      </trkpt>
      <trkpt lat="49.69364" lon="-1.91806">
        <ele>133</ele>
      </trkpt>
      <trkpt lat="49.69387" lon="-1.91683">
        <ele>129.588</ele>
      </trkpt>
      <trkpt lat="49.69516" lon="-1.91708">
        <ele>124.041</ele>
      </trkpt>
      <trkpt lat="49.69487" lon="-1.91518">
        <ele>117.584</ele>
      </trkpt>
      <trkpt lat="49.69449" lon="-1.90627">
        <ele>115.262</ele>
      </trkpt>
      <trkpt lat="49.6946" lon="-1.90948">
        <ele>107.454</ele>
      </trkpt>
      <trkpt lat="49.6945" lon="-1.90638">
        <ele>115.586</ele>
      </trkpt>
      <trkpt lat="49.69502" lon="-1.90607">
        <ele>111.069</ele>
      </trkpt>
      <trkpt lat="49.69537" lon="-1.90593">
        <ele>107.988</ele>
      </trkpt>
      <trkpt lat="49.69575" lon="-1.90576">
        <ele>105.6</ele>
      </trkpt>
      <trkpt lat="49.69612" lon="-1.90556">
        <ele>103.984</ele>
      </trkpt>
      <trkpt lat="49.69622" lon="-1.90553">
        <ele>104.092</ele>
      </trkpt>
      <trkpt lat="49.69635" lon="-1.90555">
        <ele>104.02</ele>
      </trkpt>
      <trkpt lat="49.69684" lon="-1.90573">
        <ele>105.368</ele>
      </trkpt>
      <trkpt lat="49.69713" lon="-1.90595">
        <ele>105.916</ele>
      </trkpt>
      <trkpt lat="49.69736" lon="-1.90615">
        <ele>105.859</ele>
      </trkpt>
      <trkpt lat="49.69745" lon="-1.9062">
        <ele>105.885</ele>
      </trkpt>
      <trkpt lat="49.69761" lon="-1.90625">
        <ele>106</ele>
      </trkpt>
      <trkpt lat="49.69812" lon="-1.9064">
        <ele>106.777</ele>
      </trkpt>
      <trkpt lat="49.69846" lon="-1.90646">
        <ele>106.373</ele>
      </trkpt>
      <trkpt lat="49.69861" lon="-1.90645">
        <ele>106.439</ele>
      </trkpt>
      <trkpt lat="49.69893" lon="-1.90645">
        <ele>107.368</ele>
      </trkpt>
      <trkpt lat="49.69911" lon="-1.90645">
        <ele>108.016</ele>
      </trkpt>
      <trkpt lat="49.69935" lon="-1.90645">
        <ele>107.705</ele>
      </trkpt>
      <trkpt lat="49.69965" lon="-1.90636">
        <ele>107.559</ele>
      </trkpt>
      <trkpt lat="49.69982" lon="-1.90632">
        <ele>107.239</ele>
      </trkpt>
      <trkpt lat="49.69992" lon="-1.90634">
        <ele>107.061</ele>
      </trkpt>
      <trkpt lat="49.70009" lon="-1.90647">
        <ele>106.352</ele>
      </trkpt>
      <trkpt lat="49.7003" lon="-1.90668">
        <ele>104.916</ele>
      </trkpt>
      <trkpt lat="49.70052" lon="-1.90692">
        <ele>103.333</ele>
      </trkpt>
      <trkpt lat="49.70073" lon="-1.90718">
        <ele>101.839</ele>
      </trkpt>
      <trkpt lat="49.70085" lon="-1.90741">
        <ele>100.88</ele>
      </trkpt>
      <trkpt lat="49.70095" lon="-1.90762">
        <ele>100.16</ele>
      </trkpt>
      <trkpt lat="49.70106" lon="-1.90778">
        <ele>99.376</ele>
      </trkpt>
      <trkpt lat="49.70117" lon="-1.90786">
        <ele>98.809</ele>
      </trkpt>
      <trkpt lat="49.70142" lon="-1.90798">
        <ele>96.776</ele>
      </trkpt>
      <trkpt lat="49.70183" lon="-1.90818">
        <ele>93.824</ele>
      </trkpt>
      <trkpt lat="49.70181" lon="-1.90824">
        <ele>93.975</ele>
      </trkpt>
      <trkpt lat="49.70183" lon="-1.90818">
        <ele>93.824</ele>
      </trkpt>
      <trkpt lat="49.70208" lon="-1.9084">
        <ele>92.518</ele>
      </trkpt>
      <trkpt lat="49.70225" lon="-1.90852">
        <ele>90.928</ele>
      </trkpt>
      <trkpt lat="49.70253" lon="-1.90857">
        <ele>86.764</ele>
      </trkpt>
      <trkpt lat="49.70296" lon="-1.90857">
        <ele>81.721</ele>
      </trkpt>
      <trkpt lat="49.70314" lon="-1.90857">
        <ele>79.569</ele>
      </trkpt>
      <trkpt lat="49.70328" lon="-1.90861">
        <ele>76.791</ele>
      </trkpt>
      <trkpt lat="49.70362" lon="-1.90877">
        <ele>72.918</ele>
      </trkpt>
      <trkpt lat="49.70392" lon="-1.90883">
        <ele>69.089</ele>
      </trkpt>
      <trkpt lat="49.70402" lon="-1.90885">
        <ele>68.17</ele>
      </trkpt>
      <trkpt lat="49.70429" lon="-1.90891">
        <ele>64.653</ele>
      </trkpt>
      <trkpt lat="49.70455" lon="-1.90884">
        <ele>61.458</ele>
      </trkpt>
      <trkpt lat="49.70489" lon="-1.90864">
        <ele>59.396</ele>
      </trkpt>
      <trkpt lat="49.70522" lon="-1.90843">
        <ele>58.759</ele>
      </trkpt>
      <trkpt lat="49.70532" lon="-1.90838">
        <ele>58.488</ele>
      </trkpt>
      <trkpt lat="49.70539" lon="-1.90836">
        <ele>58.596</ele>
      </trkpt>
      <trkpt lat="49.70538" lon="-1.90828">
        <ele>58.509</ele>
      </trkpt>
      <trkpt lat="49.70533" lon="-1.90817">
        <ele>58.409</ele>
      </trkpt>
      <trkpt lat="49.70481" lon="-1.90711">
        <ele>57.954</ele>
      </trkpt>
      <trkpt lat="49.70476" lon="-1.90684">
        <ele>57.371</ele>
      </trkpt>
      <trkpt lat="49.70475" lon="-1.90665">
        <ele>56.176</ele>
      </trkpt>
      <trkpt lat="49.70479" lon="-1.90649">
        <ele>57.307</ele>
      </trkpt>
      <trkpt lat="49.70489" lon="-1.90625">
        <ele>58.02</ele>
      </trkpt>
      <trkpt lat="49.70513" lon="-1.90561">
        <ele>55.567</ele>
      </trkpt>
      <trkpt lat="49.70519" lon="-1.90545">
        <ele>54.684</ele>
      </trkpt>
      <trkpt lat="49.70524" lon="-1.9055">
        <ele>56.157</ele>
      </trkpt>
      <trkpt lat="49.70519" lon="-1.90545">
        <ele>54.684</ele>
      </trkpt>
      <trkpt lat="49.70558" lon="-1.90456">
        <ele>49.463</ele>
      </trkpt>
      <trkpt lat="49.70582" lon="-1.90416">
        <ele>45.886</ele>
      </trkpt>
      <trkpt lat="49.706" lon="-1.90391">
        <ele>44.102</ele>
      </trkpt>
      <trkpt lat="49.70626" lon="-1.90368">
        <ele>42.758</ele>
      </trkpt>
      <trkpt lat="49.70651" lon="-1.90353">
        <ele>40.289</ele>
      </trkpt>
      <trkpt lat="49.70667" lon="-1.90344">
        <ele>39.143</ele>
      </trkpt>
      <trkpt lat="49.70686" lon="-1.9034">
        <ele>38.386</ele>
      </trkpt>
      <trkpt lat="49.70699" lon="-1.90336">
        <ele>37.604</ele>
      </trkpt>
      <trkpt lat="49.70713" lon="-1.9032">
        <ele>38.235</ele>
      </trkpt>
      <trkpt lat="49.70738" lon="-1.90294">
        <ele>37.115</ele>
      </trkpt>
      <trkpt lat="49.70788" lon="-1.90242">
        <ele>33.094</ele>
      </trkpt>
      <trkpt lat="49.70823" lon="-1.90197">
        <ele>31.095</ele>
      </trkpt>
      <trkpt lat="49.70853" lon="-1.90144">
        <ele>29.353</ele>
      </trkpt>
      <trkpt lat="49.70862" lon="-1.90126">
        <ele>28.37</ele>
      </trkpt>
      <trkpt lat="49.70872" lon="-1.90089">
        <ele>27.916</ele>
      </trkpt>
      <trkpt lat="49.70882" lon="-1.9005">
        <ele>27.838</ele>
      </trkpt>
      <trkpt lat="49.70894" lon="-1.90016">
        <ele>27.688</ele>
      </trkpt>
      <trkpt lat="49.70905" lon="-1.89977">
        <ele>27.028</ele>
      </trkpt>
      <trkpt lat="49.70907" lon="-1.89962">
        <ele>26.996</ele>
      </trkpt>
      <trkpt lat="49.70908" lon="-1.89931">
        <ele>27.033</ele>
      </trkpt>
      <trkpt lat="49.70911" lon="-1.89904">
        <ele>26.317</ele>
      </trkpt>
      <trkpt lat="49.70921" lon="-1.89877">
        <ele>24.064</ele>
      </trkpt>
      <trkpt lat="49.70925" lon="-1.89875">
        <ele>23.2</ele>
      </trkpt>
      <trkpt lat="49.70931" lon="-1.89878">
        <ele>21.904</ele>
      </trkpt>
      <trkpt lat="49.70941" lon="-1.899">
        <ele>20.094</ele>
      </trkpt>
      <trkpt lat="49.70947" lon="-1.89915">
        <ele>20.032</ele>
      </trkpt>
      <trkpt lat="49.70951" lon="-1.89919">
        <ele>20.256</ele>
      </trkpt>
      <trkpt lat="49.70957" lon="-1.89922">
        <ele>20.539</ele>
      </trkpt>
      <trkpt lat="49.70963" lon="-1.89921">
        <ele>20.772</ele>
      </trkpt>
      <trkpt lat="49.7097" lon="-1.89917">
        <ele>20.931</ele>
      </trkpt>
      <trkpt lat="49.70973" lon="-1.89907">
        <ele>21.098</ele>
      </trkpt>
      <trkpt lat="49.70977" lon="-1.89887">
        <ele>21.881</ele>
      </trkpt>
      <trkpt lat="49.70982" lon="-1.89832">
        <ele>18.365</ele>
      </trkpt>
      <trkpt lat="49.70999" lon="-1.89781">
        <ele>14.595</ele>
      </trkpt>
      <trkpt lat="49.71001" lon="-1.89761">
        <ele>12.893</ele>
      </trkpt>
      <trkpt lat="49.71001" lon="-1.89745">
        <ele>11.886</ele>
      </trkpt>
      <trkpt lat="49.71004" lon="-1.89733">
        <ele>11.588</ele>
      </trkpt>
      <trkpt lat="49.71011" lon="-1.89707">
        <ele>11.624</ele>
      </trkpt>
      <trkpt lat="49.71019" lon="-1.89684">
        <ele>11.166</ele>
      </trkpt>
      <trkpt lat="49.71025" lon="-1.89673">
        <ele>9.914</ele>
      </trkpt>
      <trkpt lat="49.71031" lon="-1.89671">
        <ele>9.058</ele>
      </trkpt>
      <trkpt lat="49.71043" lon="-1.89664">
        <ele>8.443</ele>
      </trkpt>
      <trkpt lat="49.71073" lon="-1.89635">
        <ele>7.104</ele>
      </trkpt>
      <trkpt lat="49.71079" lon="-1.89631">
        <ele>7.089</ele>
      </trkpt>
      <trkpt lat="49.71092" lon="-1.89629">
        <ele>5.932</ele>
      </trkpt>
      <trkpt lat="49.71092" lon="-1.89629">
        <ele>5.895</ele>
      </trkpt>
      <trkpt lat="49.71119" lon="-1.89679">
        <ele>8.029</ele>
      </trkpt>
      <trkpt lat="49.71175" lon="-1.89747">
        <ele>15.033</ele>
      </trkpt>
    </trkseg>
  </trk>
  <trk>
    <name><![CDATA[NezDeJobourg17,3]]></name>
    <desc><![CDATA[Total: 17.3km]]></desc>
    <extensions>
      <line xmlns="http://www.topografix.com/GPX/gpx_style/0/2">
        <color>008888</color>
        <width>4</width>
      </line>
    </extensions>
    <trkseg>
      <trkpt lat="49.67747" lon="-1.93863">
        <ele>109.006</ele>
      </trkpt>
      <trkpt lat="49.67736" lon="-1.93906">
        <ele>110.111</ele>
      </trkpt>
      <trkpt lat="49.67707" lon="-1.93985">
        <ele>111.321</ele>
      </trkpt>
      <trkpt lat="49.67693" lon="-1.94044">
        <ele>110.98</ele>
      </trkpt>
      <trkpt lat="49.67677" lon="-1.94148">
        <ele>109.242</ele>
      </trkpt>
      <trkpt lat="49.67672" lon="-1.94228">
        <ele>108.801</ele>
      </trkpt>
      <trkpt lat="49.67668" lon="-1.94332">
        <ele>110.922</ele>
      </trkpt>
      <trkpt lat="49.67662" lon="-1.94342">
        <ele>111.125</ele>
      </trkpt>
      <trkpt lat="49.6766" lon="-1.94397">
        <ele>112.115</ele>
      </trkpt>
      <trkpt lat="49.67658" lon="-1.94416">
        <ele>112.978</ele>
      </trkpt>
      <trkpt lat="49.67643" lon="-1.94437">
        <ele>113</ele>
      </trkpt>
      <trkpt lat="49.67627" lon="-1.94451">
        <ele>110.421</ele>
      </trkpt>
      <trkpt lat="49.67595" lon="-1.94504">
        <ele>103.152</ele>
      </trkpt>
      <trkpt lat="49.67582" lon="-1.9446">
        <ele>98.444</ele>
      </trkpt>
      <trkpt lat="49.67576" lon="-1.94417">
        <ele>92.402</ele>
      </trkpt>
      <trkpt lat="49.67577" lon="-1.94407">
        <ele>91.428</ele>
      </trkpt>
      <trkpt lat="49.6759" lon="-1.9437">
        <ele>92.144</ele>
      </trkpt>
      <trkpt lat="49.67591" lon="-1.9436">
        <ele>91.504</ele>
      </trkpt>
      <trkpt lat="49.67594" lon="-1.94346">
        <ele>94.165</ele>
      </trkpt>
      <trkpt lat="49.67594" lon="-1.94327">
        <ele>96.416</ele>
      </trkpt>
      <trkpt lat="49.67589" lon="-1.94319">
        <ele>95.374</ele>
      </trkpt>
      <trkpt lat="49.67584" lon="-1.94307">
        <ele>95.175</ele>
      </trkpt>
      <trkpt lat="49.67582" lon="-1.94298">
        <ele>93.949</ele>
      </trkpt>
      <trkpt lat="49.6758" lon="-1.94259">
        <ele>91.07</ele>
      </trkpt>
      <trkpt lat="49.67578" lon="-1.94252">
        <ele>90.03</ele>
      </trkpt>
      <trkpt lat="49.67579" lon="-1.94208">
        <ele>86.842</ele>
      </trkpt>
      <trkpt lat="49.67572" lon="-1.94171">
        <ele>81.516</ele>
      </trkpt>
      <trkpt lat="49.67573" lon="-1.94155">
        <ele>82.002</ele>
      </trkpt>
      <trkpt lat="49.67574" lon="-1.94148">
        <ele>82.667</ele>
      </trkpt>
      <trkpt lat="49.67571" lon="-1.94131">
        <ele>80.436</ele>
      </trkpt>
      <trkpt lat="49.67571" lon="-1.94115">
        <ele>80.48</ele>
      </trkpt>
      <trkpt lat="49.67566" lon="-1.94105">
        <ele>76.944</ele>
      </trkpt>
      <trkpt lat="49.67565" lon="-1.94092">
        <ele>75.686</ele>
      </trkpt>
      <trkpt lat="49.67563" lon="-1.94078">
        <ele>73.749</ele>
      </trkpt>
      <trkpt lat="49.67558" lon="-1.94049">
        <ele>67.735</ele>
      </trkpt>
      <trkpt lat="49.67554" lon="-1.94041">
        <ele>65.524</ele>
      </trkpt>
      <trkpt lat="49.67552" lon="-1.94032">
        <ele>64.43</ele>
      </trkpt>
      <trkpt lat="49.67552" lon="-1.9402">
        <ele>66.106</ele>
      </trkpt>
      <trkpt lat="49.67554" lon="-1.94017">
        <ele>67.038</ele>
      </trkpt>
      <trkpt lat="49.67556" lon="-1.94011">
        <ele>68.762</ele>
      </trkpt>
      <trkpt lat="49.67565" lon="-1.94002">
        <ele>72.131</ele>
      </trkpt>
      <trkpt lat="49.67566" lon="-1.93998">
        <ele>73.262</ele>
      </trkpt>
      <trkpt lat="49.67564" lon="-1.93994">
        <ele>74.852</ele>
      </trkpt>
      <trkpt lat="49.67544" lon="-1.93969">
        <ele>84.65</ele>
      </trkpt>
      <trkpt lat="49.67529" lon="-1.93961">
        <ele>87.768</ele>
      </trkpt>
      <trkpt lat="49.67526" lon="-1.93955">
        <ele>88.737</ele>
      </trkpt>
      <trkpt lat="49.67523" lon="-1.93945">
        <ele>90.524</ele>
      </trkpt>
      <trkpt lat="49.67517" lon="-1.9393">
        <ele>91.739</ele>
      </trkpt>
      <trkpt lat="49.6751" lon="-1.93919">
        <ele>92.07</ele>
      </trkpt>
      <trkpt lat="49.67508" lon="-1.93911">
        <ele>93.334</ele>
      </trkpt>
      <trkpt lat="49.67505" lon="-1.939">
        <ele>95.03</ele>
      </trkpt>
      <trkpt lat="49.67501" lon="-1.93892">
        <ele>95.496</ele>
      </trkpt>
      <trkpt lat="49.67488" lon="-1.93878">
        <ele>98.329</ele>
      </trkpt>
      <trkpt lat="49.67483" lon="-1.93876">
        <ele>97.6</ele>
      </trkpt>
      <trkpt lat="49.67477" lon="-1.93878">
        <ele>95.249</ele>
      </trkpt>
      <trkpt lat="49.67475" lon="-1.93874">
        <ele>96.415</ele>
      </trkpt>
      <trkpt lat="49.67465" lon="-1.93867">
        <ele>97.461</ele>
      </trkpt>
      <trkpt lat="49.67452" lon="-1.93856">
        <ele>100.588</ele>
      </trkpt>
      <trkpt lat="49.67434" lon="-1.93848">
        <ele>98.631</ele>
      </trkpt>
      <trkpt lat="49.67425" lon="-1.93835">
        <ele>101.47</ele>
      </trkpt>
      <trkpt lat="49.67417" lon="-1.93833">
        <ele>101.207</ele>
      </trkpt>
      <trkpt lat="49.67412" lon="-1.93827">
        <ele>101.513</ele>
      </trkpt>
      <trkpt lat="49.67398" lon="-1.93817">
        <ele>100.292</ele>
      </trkpt>
      <trkpt lat="49.67394" lon="-1.93815">
        <ele>99.596</ele>
      </trkpt>
      <trkpt lat="49.67388" lon="-1.93802">
        <ele>101.013</ele>
      </trkpt>
      <trkpt lat="49.67384" lon="-1.93786">
        <ele>101.778</ele>
      </trkpt>
      <trkpt lat="49.6738" lon="-1.93778">
        <ele>100.949</ele>
      </trkpt>
      <trkpt lat="49.67379" lon="-1.93766">
        <ele>101.177</ele>
      </trkpt>
      <trkpt lat="49.6738" lon="-1.9375">
        <ele>103.407</ele>
      </trkpt>
      <trkpt lat="49.67377" lon="-1.93743">
        <ele>102.375</ele>
      </trkpt>
      <trkpt lat="49.67377" lon="-1.93716">
        <ele>102.854</ele>
      </trkpt>
      <trkpt lat="49.67378" lon="-1.93706">
        <ele>103.43</ele>
      </trkpt>
      <trkpt lat="49.67377" lon="-1.93694">
        <ele>102.827</ele>
      </trkpt>
      <trkpt lat="49.6738" lon="-1.9368">
        <ele>103.009</ele>
      </trkpt>
      <trkpt lat="49.67382" lon="-1.93671">
        <ele>103.971</ele>
      </trkpt>
      <trkpt lat="49.67383" lon="-1.93641">
        <ele>104.16</ele>
      </trkpt>
      <trkpt lat="49.67381" lon="-1.93635">
        <ele>104.051</ele>
      </trkpt>
      <trkpt lat="49.67375" lon="-1.9362">
        <ele>104.728</ele>
      </trkpt>
      <trkpt lat="49.67368" lon="-1.93609">
        <ele>105.819</ele>
      </trkpt>
      <trkpt lat="49.67363" lon="-1.93597">
        <ele>107.677</ele>
      </trkpt>
      <trkpt lat="49.67345" lon="-1.93569">
        <ele>104.961</ele>
      </trkpt>
      <trkpt lat="49.67334" lon="-1.93553">
        <ele>103.883</ele>
      </trkpt>
      <trkpt lat="49.6733" lon="-1.93545">
        <ele>101.805</ele>
      </trkpt>
      <trkpt lat="49.67328" lon="-1.9352">
        <ele>99.271</ele>
      </trkpt>
      <trkpt lat="49.67334" lon="-1.93504">
        <ele>100.665</ele>
      </trkpt>
      <trkpt lat="49.67336" lon="-1.93487">
        <ele>99.241</ele>
      </trkpt>
      <trkpt lat="49.67338" lon="-1.93475">
        <ele>98.689</ele>
      </trkpt>
      <trkpt lat="49.67337" lon="-1.93467">
        <ele>96.964</ele>
      </trkpt>
      <trkpt lat="49.67347" lon="-1.93439">
        <ele>97.886</ele>
      </trkpt>
      <trkpt lat="49.67353" lon="-1.9342">
        <ele>98.026</ele>
      </trkpt>
      <trkpt lat="49.67356" lon="-1.93404">
        <ele>95.544</ele>
      </trkpt>
      <trkpt lat="49.67358" lon="-1.93397">
        <ele>95.008</ele>
      </trkpt>
      <trkpt lat="49.6736" lon="-1.93384">
        <ele>93.347</ele>
      </trkpt>
      <trkpt lat="49.67362" lon="-1.93367">
        <ele>93.552</ele>
      </trkpt>
      <trkpt lat="49.67361" lon="-1.93352">
        <ele>92.994</ele>
      </trkpt>
      <trkpt lat="49.67364" lon="-1.93329">
        <ele>94.567</ele>
      </trkpt>
      <trkpt lat="49.6736" lon="-1.93307">
        <ele>94.146</ele>
      </trkpt>
      <trkpt lat="49.67359" lon="-1.93301">
        <ele>93.732</ele>
      </trkpt>
      <trkpt lat="49.67358" lon="-1.93288">
        <ele>93.544</ele>
      </trkpt>
      <trkpt lat="49.67356" lon="-1.93284">
        <ele>92.566</ele>
      </trkpt>
      <trkpt lat="49.67353" lon="-1.93265">
        <ele>89.136</ele>
      </trkpt>
      <trkpt lat="49.67354" lon="-1.93258">
        <ele>88.704</ele>
      </trkpt>
      <trkpt lat="49.67352" lon="-1.93251">
        <ele>86.741</ele>
      </trkpt>
      <trkpt lat="49.67354" lon="-1.93237">
        <ele>83.058</ele>
      </trkpt>
      <trkpt lat="49.6737" lon="-1.93209">
        <ele>80.24</ele>
      </trkpt>
      <trkpt lat="49.6737" lon="-1.93203">
        <ele>79.305</ele>
      </trkpt>
      <trkpt lat="49.67366" lon="-1.93192">
        <ele>76.109</ele>
      </trkpt>
      <trkpt lat="49.67361" lon="-1.93186">
        <ele>74.496</ele>
      </trkpt>
      <trkpt lat="49.67356" lon="-1.93184">
        <ele>72.939</ele>
      </trkpt>
      <trkpt lat="49.6735" lon="-1.93172">
        <ele>71.732</ele>
      </trkpt>
      <trkpt lat="49.67345" lon="-1.93167">
        <ele>70.136</ele>
      </trkpt>
      <trkpt lat="49.67343" lon="-1.93162">
        <ele>68.598</ele>
      </trkpt>
      <trkpt lat="49.67342" lon="-1.93156">
        <ele>67.709</ele>
      </trkpt>
      <trkpt lat="49.67344" lon="-1.93145">
        <ele>66.841</ele>
      </trkpt>
      <trkpt lat="49.67341" lon="-1.93131">
        <ele>65.087</ele>
      </trkpt>
      <trkpt lat="49.67334" lon="-1.93112">
        <ele>63.292</ele>
      </trkpt>
      <trkpt lat="49.67331" lon="-1.93111">
        <ele>62.304</ele>
      </trkpt>
      <trkpt lat="49.67325" lon="-1.931">
        <ele>64.012</ele>
      </trkpt>
      <trkpt lat="49.67318" lon="-1.93094">
        <ele>62.999</ele>
      </trkpt>
      <trkpt lat="49.67315" lon="-1.93087">
        <ele>63.009</ele>
      </trkpt>
      <trkpt lat="49.67314" lon="-1.93079">
        <ele>63.812</ele>
      </trkpt>
      <trkpt lat="49.67316" lon="-1.93069">
        <ele>65.853</ele>
      </trkpt>
      <trkpt lat="49.67313" lon="-1.93064">
        <ele>64.79</ele>
      </trkpt>
      <trkpt lat="49.6731" lon="-1.93049">
        <ele>65.516</ele>
      </trkpt>
      <trkpt lat="49.67308" lon="-1.93039">
        <ele>67.26</ele>
      </trkpt>
      <trkpt lat="49.67305" lon="-1.93032">
        <ele>68.329</ele>
      </trkpt>
      <trkpt lat="49.673" lon="-1.93025">
        <ele>68.51</ele>
      </trkpt>
      <trkpt lat="49.67297" lon="-1.93011">
        <ele>72.252</ele>
      </trkpt>
      <trkpt lat="49.67293" lon="-1.92997">
        <ele>75.203</ele>
      </trkpt>
      <trkpt lat="49.67289" lon="-1.92993">
        <ele>75.122</ele>
      </trkpt>
      <trkpt lat="49.67283" lon="-1.92973">
        <ele>78.621</ele>
      </trkpt>
      <trkpt lat="49.67282" lon="-1.92962">
        <ele>78.37</ele>
      </trkpt>
      <trkpt lat="49.67283" lon="-1.92952">
        <ele>78.888</ele>
      </trkpt>
      <trkpt lat="49.67286" lon="-1.92941">
        <ele>80.069</ele>
      </trkpt>
      <trkpt lat="49.67285" lon="-1.92918">
        <ele>78.792</ele>
      </trkpt>
      <trkpt lat="49.67285" lon="-1.92907">
        <ele>77.598</ele>
      </trkpt>
      <trkpt lat="49.67286" lon="-1.92894">
        <ele>76.628</ele>
      </trkpt>
      <trkpt lat="49.67284" lon="-1.92886">
        <ele>75.346</ele>
      </trkpt>
      <trkpt lat="49.6728" lon="-1.92872">
        <ele>74.661</ele>
      </trkpt>
      <trkpt lat="49.67275" lon="-1.92868">
        <ele>73.844</ele>
      </trkpt>
      <trkpt lat="49.67269" lon="-1.92863">
        <ele>73.672</ele>
      </trkpt>
      <trkpt lat="49.67258" lon="-1.92851">
        <ele>75.717</ele>
      </trkpt>
      <trkpt lat="49.67247" lon="-1.92812">
        <ele>85.254</ele>
      </trkpt>
      <trkpt lat="49.67245" lon="-1.928">
        <ele>88.541</ele>
      </trkpt>
      <trkpt lat="49.67233" lon="-1.92793">
        <ele>89.097</ele>
      </trkpt>
      <trkpt lat="49.67217" lon="-1.92784">
        <ele>90.72</ele>
      </trkpt>
      <trkpt lat="49.67212" lon="-1.92778">
        <ele>92.317</ele>
      </trkpt>
      <trkpt lat="49.67202" lon="-1.92766">
        <ele>92.957</ele>
      </trkpt>
      <trkpt lat="49.67193" lon="-1.92761">
        <ele>92.056</ele>
      </trkpt>
      <trkpt lat="49.67171" lon="-1.92745">
        <ele>91.045</ele>
      </trkpt>
      <trkpt lat="49.67165" lon="-1.92736">
        <ele>91.09</ele>
      </trkpt>
      <trkpt lat="49.67156" lon="-1.92731">
        <ele>90.348</ele>
      </trkpt>
      <trkpt lat="49.67107" lon="-1.92706">
        <ele>91.493</ele>
      </trkpt>
      <trkpt lat="49.67092" lon="-1.92701">
        <ele>91.254</ele>
      </trkpt>
      <trkpt lat="49.6708" lon="-1.92698">
        <ele>90.396</ele>
      </trkpt>
      <trkpt lat="49.6707" lon="-1.92693">
        <ele>90.226</ele>
      </trkpt>
      <trkpt lat="49.67058" lon="-1.92691">
        <ele>88.783</ele>
      </trkpt>
      <trkpt lat="49.67051" lon="-1.92689">
        <ele>88.1</ele>
      </trkpt>
      <trkpt lat="49.67027" lon="-1.92689">
        <ele>84.942</ele>
      </trkpt>
      <trkpt lat="49.67023" lon="-1.92693">
        <ele>83.514</ele>
      </trkpt>
      <trkpt lat="49.67015" lon="-1.92717">
        <ele>77.288</ele>
      </trkpt>
      <trkpt lat="49.67011" lon="-1.92718">
        <ele>76.386</ele>
      </trkpt>
      <trkpt lat="49.67006" lon="-1.92723">
        <ele>75.018</ele>
      </trkpt>
      <trkpt lat="49.66994" lon="-1.92743">
        <ele>69.601</ele>
      </trkpt>
      <trkpt lat="49.66982" lon="-1.92768">
        <ele>62.908</ele>
      </trkpt>
      <trkpt lat="49.66967" lon="-1.92796">
        <ele>56.554</ele>
      </trkpt>
      <trkpt lat="49.66962" lon="-1.92804">
        <ele>53.764</ele>
      </trkpt>
      <trkpt lat="49.66957" lon="-1.92802">
        <ele>52.215</ele>
      </trkpt>
      <trkpt lat="49.66953" lon="-1.92799">
        <ele>51.292</ele>
      </trkpt>
      <trkpt lat="49.66948" lon="-1.92771">
        <ele>49.56</ele>
      </trkpt>
      <trkpt lat="49.66944" lon="-1.9275">
        <ele>47.585</ele>
      </trkpt>
      <trkpt lat="49.66939" lon="-1.92729">
        <ele>43.78</ele>
      </trkpt>
      <trkpt lat="49.66937" lon="-1.92716">
        <ele>41.74</ele>
      </trkpt>
      <trkpt lat="49.66936" lon="-1.92703">
        <ele>39.51</ele>
      </trkpt>
      <trkpt lat="49.66937" lon="-1.92671">
        <ele>34.338</ele>
      </trkpt>
      <trkpt lat="49.66936" lon="-1.92662">
        <ele>32.822</ele>
      </trkpt>
      <trkpt lat="49.6694" lon="-1.92625">
        <ele>37.003</ele>
      </trkpt>
      <trkpt lat="49.66937" lon="-1.92618">
        <ele>34.441</ele>
      </trkpt>
      <trkpt lat="49.66935" lon="-1.92604">
        <ele>32.357</ele>
      </trkpt>
      <trkpt lat="49.66934" lon="-1.92587">
        <ele>31.17</ele>
      </trkpt>
      <trkpt lat="49.66929" lon="-1.92574">
        <ele>28.866</ele>
      </trkpt>
      <trkpt lat="49.66929" lon="-1.92552">
        <ele>32.235</ele>
      </trkpt>
      <trkpt lat="49.66929" lon="-1.92537">
        <ele>29.083</ele>
      </trkpt>
      <trkpt lat="49.66929" lon="-1.92531">
        <ele>28.107</ele>
      </trkpt>
      <trkpt lat="49.66934" lon="-1.92522">
        <ele>29.215</ele>
      </trkpt>
      <trkpt lat="49.66938" lon="-1.92513">
        <ele>29.657</ele>
      </trkpt>
      <trkpt lat="49.66938" lon="-1.92507">
        <ele>29.199</ele>
      </trkpt>
      <trkpt lat="49.66931" lon="-1.92479">
        <ele>30.75</ele>
      </trkpt>
      <trkpt lat="49.66927" lon="-1.92462">
        <ele>33.928</ele>
      </trkpt>
      <trkpt lat="49.66921" lon="-1.9246">
        <ele>34.12</ele>
      </trkpt>
      <trkpt lat="49.66906" lon="-1.92438">
        <ele>35.1</ele>
      </trkpt>
      <trkpt lat="49.66906" lon="-1.92434">
        <ele>36.136</ele>
      </trkpt>
      <trkpt lat="49.66901" lon="-1.92387">
        <ele>42.216</ele>
      </trkpt>
      <trkpt lat="49.669" lon="-1.92363">
        <ele>45.232</ele>
      </trkpt>
      <trkpt lat="49.66899" lon="-1.92353">
        <ele>46.679</ele>
      </trkpt>
      <trkpt lat="49.66872" lon="-1.92308">
        <ele>47.462</ele>
      </trkpt>
      <trkpt lat="49.66857" lon="-1.92287">
        <ele>46.545</ele>
      </trkpt>
      <trkpt lat="49.66846" lon="-1.92269">
        <ele>47.742</ele>
      </trkpt>
      <trkpt lat="49.66839" lon="-1.92258">
        <ele>48.041</ele>
      </trkpt>
      <trkpt lat="49.6682" lon="-1.92235">
        <ele>48.486</ele>
      </trkpt>
      <trkpt lat="49.66796" lon="-1.92201">
        <ele>48.352</ele>
      </trkpt>
      <trkpt lat="49.66777" lon="-1.92168">
        <ele>53.037</ele>
      </trkpt>
      <trkpt lat="49.66767" lon="-1.92148">
        <ele>53.133</ele>
      </trkpt>
      <trkpt lat="49.66765" lon="-1.92135">
        <ele>53.851</ele>
      </trkpt>
      <trkpt lat="49.66782" lon="-1.92145">
        <ele>59.701</ele>
      </trkpt>
      <trkpt lat="49.66789" lon="-1.92145">
        <ele>61.406</ele>
      </trkpt>
      <trkpt lat="49.66791" lon="-1.92148">
        <ele>61.475</ele>
      </trkpt>
      <trkpt lat="49.66796" lon="-1.92142">
        <ele>63.513</ele>
      </trkpt>
      <trkpt lat="49.66814" lon="-1.92131">
        <ele>66.015</ele>
      </trkpt>
      <trkpt lat="49.66831" lon="-1.92113">
        <ele>64.099</ele>
      </trkpt>
      <trkpt lat="49.66833" lon="-1.92111">
        <ele>63.942</ele>
      </trkpt>
      <trkpt lat="49.66842" lon="-1.92095">
        <ele>66.887</ele>
      </trkpt>
      <trkpt lat="49.66844" lon="-1.92086">
        <ele>67.139</ele>
      </trkpt>
      <trkpt lat="49.66841" lon="-1.92078">
        <ele>67.938</ele>
      </trkpt>
      <trkpt lat="49.66821" lon="-1.92058">
        <ele>68.544</ele>
      </trkpt>
      <trkpt lat="49.66816" lon="-1.92049">
        <ele>69.032</ele>
      </trkpt>
      <trkpt lat="49.66808" lon="-1.92023">
        <ele>73.776</ele>
      </trkpt>
      <trkpt lat="49.66804" lon="-1.92013">
        <ele>74.982</ele>
      </trkpt>
      <trkpt lat="49.66794" lon="-1.91996">
        <ele>76.15</ele>
      </trkpt>
      <trkpt lat="49.66787" lon="-1.91976">
        <ele>77.95</ele>
      </trkpt>
      <trkpt lat="49.66775" lon="-1.91938">
        <ele>79.781</ele>
      </trkpt>
      <trkpt lat="49.66774" lon="-1.91926">
        <ele>80.924</ele>
      </trkpt>
      <trkpt lat="49.66773" lon="-1.91921">
        <ele>81.074</ele>
      </trkpt>
      <trkpt lat="49.66776" lon="-1.91909">
        <ele>83.914</ele>
      </trkpt>
      <trkpt lat="49.66775" lon="-1.91893">
        <ele>83.073</ele>
      </trkpt>
      <trkpt lat="49.66777" lon="-1.91863">
        <ele>85.671</ele>
      </trkpt>
      <trkpt lat="49.66776" lon="-1.91858">
        <ele>84.861</ele>
      </trkpt>
      <trkpt lat="49.66774" lon="-1.91853">
        <ele>84.208</ele>
      </trkpt>
      <trkpt lat="49.66774" lon="-1.91843">
        <ele>84.788</ele>
      </trkpt>
      <trkpt lat="49.66772" lon="-1.91807">
        <ele>88.292</ele>
      </trkpt>
      <trkpt lat="49.66769" lon="-1.91794">
        <ele>91.018</ele>
      </trkpt>
      <trkpt lat="49.66758" lon="-1.91777">
        <ele>91.54</ele>
      </trkpt>
      <trkpt lat="49.66754" lon="-1.91767">
        <ele>91.288</ele>
      </trkpt>
      <trkpt lat="49.66752" lon="-1.91747">
        <ele>92.789</ele>
      </trkpt>
      <trkpt lat="49.66753" lon="-1.91731">
        <ele>93.283</ele>
      </trkpt>
      <trkpt lat="49.66747" lon="-1.917">
        <ele>91.506</ele>
      </trkpt>
      <trkpt lat="49.66749" lon="-1.9168">
        <ele>92.931</ele>
      </trkpt>
      <trkpt lat="49.6675" lon="-1.91653">
        <ele>92.903</ele>
      </trkpt>
      <trkpt lat="49.66755" lon="-1.91644">
        <ele>95.525</ele>
      </trkpt>
      <trkpt lat="49.66756" lon="-1.91634">
        <ele>96.577</ele>
      </trkpt>
      <trkpt lat="49.66759" lon="-1.91626">
        <ele>98.057</ele>
      </trkpt>
      <trkpt lat="49.66755" lon="-1.91619">
        <ele>97.707</ele>
      </trkpt>
      <trkpt lat="49.66755" lon="-1.91598">
        <ele>100.521</ele>
      </trkpt>
      <trkpt lat="49.66755" lon="-1.91582">
        <ele>102.834</ele>
      </trkpt>
      <trkpt lat="49.66749" lon="-1.91578">
        <ele>103.24</ele>
      </trkpt>
      <trkpt lat="49.66743" lon="-1.9155">
        <ele>104.304</ele>
      </trkpt>
      <trkpt lat="49.66739" lon="-1.91545">
        <ele>104.029</ele>
      </trkpt>
      <trkpt lat="49.66732" lon="-1.91527">
        <ele>105.427</ele>
      </trkpt>
      <trkpt lat="49.66723" lon="-1.91508">
        <ele>107.207</ele>
      </trkpt>
      <trkpt lat="49.66716" lon="-1.91474">
        <ele>109.538</ele>
      </trkpt>
      <trkpt lat="49.66712" lon="-1.91456">
        <ele>110.65</ele>
      </trkpt>
      <trkpt lat="49.66709" lon="-1.91441">
        <ele>112.498</ele>
      </trkpt>
      <trkpt lat="49.66708" lon="-1.91434">
        <ele>113.369</ele>
      </trkpt>
      <trkpt lat="49.66703" lon="-1.91424">
        <ele>113.77</ele>
      </trkpt>
      <trkpt lat="49.66699" lon="-1.91413">
        <ele>114.681</ele>
      </trkpt>
      <trkpt lat="49.66695" lon="-1.91402">
        <ele>113.648</ele>
      </trkpt>
      <trkpt lat="49.66694" lon="-1.91392">
        <ele>112.67</ele>
      </trkpt>
      <trkpt lat="49.66693" lon="-1.91372">
        <ele>112.722</ele>
      </trkpt>
      <trkpt lat="49.6669" lon="-1.91365">
        <ele>111.93</ele>
      </trkpt>
      <trkpt lat="49.66682" lon="-1.9135">
        <ele>109.709</ele>
      </trkpt>
      <trkpt lat="49.6668" lon="-1.91343">
        <ele>109.992</ele>
      </trkpt>
      <trkpt lat="49.66679" lon="-1.91335">
        <ele>110.97</ele>
      </trkpt>
      <trkpt lat="49.6668" lon="-1.9133">
        <ele>111.987</ele>
      </trkpt>
      <trkpt lat="49.66678" lon="-1.91318">
        <ele>112.252</ele>
      </trkpt>
      <trkpt lat="49.6667" lon="-1.9129">
        <ele>112.642</ele>
      </trkpt>
      <trkpt lat="49.66664" lon="-1.91262">
        <ele>113.043</ele>
      </trkpt>
      <trkpt lat="49.66664" lon="-1.91244">
        <ele>113.409</ele>
      </trkpt>
      <trkpt lat="49.66665" lon="-1.91237">
        <ele>113.971</ele>
      </trkpt>
      <trkpt lat="49.66669" lon="-1.91228">
        <ele>114.82</ele>
      </trkpt>
      <trkpt lat="49.66674" lon="-1.9122">
        <ele>115.326</ele>
      </trkpt>
      <trkpt lat="49.6668" lon="-1.91203">
        <ele>114.809</ele>
      </trkpt>
      <trkpt lat="49.66694" lon="-1.9114">
        <ele>115.911</ele>
      </trkpt>
      <trkpt lat="49.66703" lon="-1.91118">
        <ele>113.562</ele>
      </trkpt>
      <trkpt lat="49.66713" lon="-1.911">
        <ele>112.279</ele>
      </trkpt>
      <trkpt lat="49.66716" lon="-1.91089">
        <ele>111.142</ele>
      </trkpt>
      <trkpt lat="49.66716" lon="-1.9108">
        <ele>110.196</ele>
      </trkpt>
      <trkpt lat="49.66714" lon="-1.91064">
        <ele>109.803</ele>
      </trkpt>
      <trkpt lat="49.66711" lon="-1.91054">
        <ele>108.964</ele>
      </trkpt>
      <trkpt lat="49.667" lon="-1.91038">
        <ele>105.314</ele>
      </trkpt>
      <trkpt lat="49.66696" lon="-1.91024">
        <ele>104.602</ele>
      </trkpt>
      <trkpt lat="49.66696" lon="-1.91007">
        <ele>103.739</ele>
      </trkpt>
      <trkpt lat="49.66696" lon="-1.9099">
        <ele>102.065</ele>
      </trkpt>
      <trkpt lat="49.667" lon="-1.90971">
        <ele>100.367</ele>
      </trkpt>
      <trkpt lat="49.66706" lon="-1.90953">
        <ele>99.655</ele>
      </trkpt>
      <trkpt lat="49.66709" lon="-1.90938">
        <ele>97.88</ele>
      </trkpt>
      <trkpt lat="49.66713" lon="-1.90894">
        <ele>93.272</ele>
      </trkpt>
      <trkpt lat="49.6672" lon="-1.90869">
        <ele>91.143</ele>
      </trkpt>
      <trkpt lat="49.66727" lon="-1.90855">
        <ele>89.966</ele>
      </trkpt>
      <trkpt lat="49.66729" lon="-1.90848">
        <ele>88.946</ele>
      </trkpt>
      <trkpt lat="49.66731" lon="-1.90834">
        <ele>86.153</ele>
      </trkpt>
      <trkpt lat="49.6673" lon="-1.9083">
        <ele>85.957</ele>
      </trkpt>
      <trkpt lat="49.66728" lon="-1.90819">
        <ele>84.954</ele>
      </trkpt>
      <trkpt lat="49.66725" lon="-1.90798">
        <ele>84.935</ele>
      </trkpt>
      <trkpt lat="49.66721" lon="-1.90778">
        <ele>85.296</ele>
      </trkpt>
      <trkpt lat="49.66722" lon="-1.90771">
        <ele>84.234</ele>
      </trkpt>
      <trkpt lat="49.66731" lon="-1.90745">
        <ele>82.641</ele>
      </trkpt>
      <trkpt lat="49.66741" lon="-1.90716">
        <ele>79.753</ele>
      </trkpt>
      <trkpt lat="49.66747" lon="-1.90684">
        <ele>75.608</ele>
      </trkpt>
      <trkpt lat="49.66748" lon="-1.90652">
        <ele>71.606</ele>
      </trkpt>
      <trkpt lat="49.66748" lon="-1.9064">
        <ele>69.68</ele>
      </trkpt>
      <trkpt lat="49.6675" lon="-1.90625">
        <ele>69.666</ele>
      </trkpt>
      <trkpt lat="49.66754" lon="-1.90606">
        <ele>69.139</ele>
      </trkpt>
      <trkpt lat="49.66758" lon="-1.90586">
        <ele>68.292</ele>
      </trkpt>
      <trkpt lat="49.66761" lon="-1.90582">
        <ele>67.849</ele>
      </trkpt>
      <trkpt lat="49.66774" lon="-1.90581">
        <ele>67.522</ele>
      </trkpt>
      <trkpt lat="49.66781" lon="-1.90584">
        <ele>68.215</ele>
      </trkpt>
      <trkpt lat="49.66788" lon="-1.90581">
        <ele>67.972</ele>
      </trkpt>
      <trkpt lat="49.66793" lon="-1.90581">
        <ele>68.228</ele>
      </trkpt>
      <trkpt lat="49.66802" lon="-1.90571">
        <ele>68.107</ele>
      </trkpt>
      <trkpt lat="49.66806" lon="-1.90563">
        <ele>68.355</ele>
      </trkpt>
      <trkpt lat="49.66805" lon="-1.90553">
        <ele>68.836</ele>
      </trkpt>
      <trkpt lat="49.66799" lon="-1.90537">
        <ele>72.057</ele>
      </trkpt>
      <trkpt lat="49.66792" lon="-1.90527">
        <ele>71.163</ele>
      </trkpt>
      <trkpt lat="49.6679" lon="-1.90521">
        <ele>71.238</ele>
      </trkpt>
      <trkpt lat="49.6679" lon="-1.90515">
        <ele>72.704</ele>
      </trkpt>
      <trkpt lat="49.66793" lon="-1.905">
        <ele>77.567</ele>
      </trkpt>
      <trkpt lat="49.66802" lon="-1.9048">
        <ele>81.15</ele>
      </trkpt>
      <trkpt lat="49.66805" lon="-1.90471">
        <ele>82.658</ele>
      </trkpt>
      <trkpt lat="49.66805" lon="-1.90458">
        <ele>83.52</ele>
      </trkpt>
      <trkpt lat="49.66806" lon="-1.90434">
        <ele>87.947</ele>
      </trkpt>
      <trkpt lat="49.66801" lon="-1.90426">
        <ele>87.34</ele>
      </trkpt>
      <trkpt lat="49.66795" lon="-1.9041">
        <ele>88.804</ele>
      </trkpt>
      <trkpt lat="49.66794" lon="-1.90399">
        <ele>91.947</ele>
      </trkpt>
      <trkpt lat="49.66788" lon="-1.90389">
        <ele>93.465</ele>
      </trkpt>
      <trkpt lat="49.66772" lon="-1.90381">
        <ele>90.754</ele>
      </trkpt>
      <trkpt lat="49.66765" lon="-1.90371">
        <ele>90.898</ele>
      </trkpt>
      <trkpt lat="49.66757" lon="-1.90353">
        <ele>91.746</ele>
      </trkpt>
      <trkpt lat="49.66742" lon="-1.90305">
        <ele>90.389</ele>
      </trkpt>
      <trkpt lat="49.66738" lon="-1.90276">
        <ele>91.07</ele>
      </trkpt>
      <trkpt lat="49.66717" lon="-1.90248">
        <ele>83.798</ele>
      </trkpt>
      <trkpt lat="49.66714" lon="-1.90241">
        <ele>82.061</ele>
      </trkpt>
      <trkpt lat="49.6671" lon="-1.90235">
        <ele>79.455</ele>
      </trkpt>
      <trkpt lat="49.66703" lon="-1.90227">
        <ele>75.038</ele>
      </trkpt>
      <trkpt lat="49.66698" lon="-1.90191">
        <ele>72.1</ele>
      </trkpt>
      <trkpt lat="49.66699" lon="-1.90163">
        <ele>67.458</ele>
      </trkpt>
      <trkpt lat="49.66703" lon="-1.9015">
        <ele>65.478</ele>
      </trkpt>
      <trkpt lat="49.66705" lon="-1.90136">
        <ele>63.022</ele>
      </trkpt>
      <trkpt lat="49.66704" lon="-1.9013">
        <ele>62.348</ele>
      </trkpt>
      <trkpt lat="49.66701" lon="-1.90124">
        <ele>60.896</ele>
      </trkpt>
      <trkpt lat="49.66696" lon="-1.90109">
        <ele>58.654</ele>
      </trkpt>
      <trkpt lat="49.66689" lon="-1.9009">
        <ele>56.402</ele>
      </trkpt>
      <trkpt lat="49.66682" lon="-1.9008">
        <ele>54.345</ele>
      </trkpt>
      <trkpt lat="49.66677" lon="-1.90064">
        <ele>54.6</ele>
      </trkpt>
      <trkpt lat="49.66673" lon="-1.90046">
        <ele>54.429</ele>
      </trkpt>
      <trkpt lat="49.66688" lon="-1.90044">
        <ele>59.421</ele>
      </trkpt>
      <trkpt lat="49.66697" lon="-1.90025">
        <ele>61.735</ele>
      </trkpt>
      <trkpt lat="49.66709" lon="-1.89989">
        <ele>64.252</ele>
      </trkpt>
      <trkpt lat="49.66718" lon="-1.89943">
        <ele>66.841</ele>
      </trkpt>
      <trkpt lat="49.66718" lon="-1.8994">
        <ele>67</ele>
      </trkpt>
      <trkpt lat="49.66723" lon="-1.89909">
        <ele>69.059</ele>
      </trkpt>
      <trkpt lat="49.66722" lon="-1.89894">
        <ele>68.802</ele>
      </trkpt>
      <trkpt lat="49.66729" lon="-1.89894">
        <ele>69.486</ele>
      </trkpt>
      <trkpt lat="49.66738" lon="-1.89891">
        <ele>69.766</ele>
      </trkpt>
      <trkpt lat="49.6675" lon="-1.89892">
        <ele>70.524</ele>
      </trkpt>
      <trkpt lat="49.66798" lon="-1.89896">
        <ele>73.874</ele>
      </trkpt>
      <trkpt lat="49.66831" lon="-1.89898">
        <ele>78.242</ele>
      </trkpt>
      <trkpt lat="49.66843" lon="-1.89899">
        <ele>78.467</ele>
      </trkpt>
      <trkpt lat="49.66861" lon="-1.89899">
        <ele>78.084</ele>
      </trkpt>
      <trkpt lat="49.66866" lon="-1.89909">
        <ele>78.215</ele>
      </trkpt>
      <trkpt lat="49.66873" lon="-1.89926">
        <ele>79.72</ele>
      </trkpt>
      <trkpt lat="49.66882" lon="-1.89949">
        <ele>81.465</ele>
      </trkpt>
      <trkpt lat="49.669" lon="-1.89995">
        <ele>85.914</ele>
      </trkpt>
      <trkpt lat="49.6692" lon="-1.90048">
        <ele>92.703</ele>
      </trkpt>
      <trkpt lat="49.6693" lon="-1.90077">
        <ele>95.014</ele>
      </trkpt>
      <trkpt lat="49.66935" lon="-1.90088">
        <ele>94.723</ele>
      </trkpt>
      <trkpt lat="49.66945" lon="-1.90108">
        <ele>95.312</ele>
      </trkpt>
      <trkpt lat="49.66954" lon="-1.90132">
        <ele>99.818</ele>
      </trkpt>
      <trkpt lat="49.66968" lon="-1.90155">
        <ele>101.563</ele>
      </trkpt>
      <trkpt lat="49.66974" lon="-1.90159">
        <ele>101.528</ele>
      </trkpt>
      <trkpt lat="49.66985" lon="-1.90164">
        <ele>103.157</ele>
      </trkpt>
      <trkpt lat="49.66994" lon="-1.90169">
        <ele>104.071</ele>
      </trkpt>
      <trkpt lat="49.67005" lon="-1.90178">
        <ele>106.298</ele>
      </trkpt>
      <trkpt lat="49.67022" lon="-1.90192">
        <ele>108.686</ele>
      </trkpt>
      <trkpt lat="49.67034" lon="-1.90207">
        <ele>111.776</ele>
      </trkpt>
      <trkpt lat="49.67047" lon="-1.90217">
        <ele>113.685</ele>
      </trkpt>
      <trkpt lat="49.67075" lon="-1.90258">
        <ele>119.687</ele>
      </trkpt>
      <trkpt lat="49.67081" lon="-1.90267">
        <ele>120.503</ele>
      </trkpt>
      <trkpt lat="49.67089" lon="-1.90285">
        <ele>122.862</ele>
      </trkpt>
      <trkpt lat="49.67101" lon="-1.90312">
        <ele>126.23</ele>
      </trkpt>
      <trkpt lat="49.67102" lon="-1.9032">
        <ele>126.313</ele>
      </trkpt>
      <trkpt lat="49.67098" lon="-1.90338">
        <ele>126.401</ele>
      </trkpt>
      <trkpt lat="49.67099" lon="-1.90345">
        <ele>126.88</ele>
      </trkpt>
      <trkpt lat="49.67103" lon="-1.90366">
        <ele>128.368</ele>
      </trkpt>
      <trkpt lat="49.67113" lon="-1.9041">
        <ele>130.797</ele>
      </trkpt>
      <trkpt lat="49.67118" lon="-1.90433">
        <ele>132.689</ele>
      </trkpt>
      <trkpt lat="49.6713" lon="-1.90459">
        <ele>133.995</ele>
      </trkpt>
      <trkpt lat="49.67137" lon="-1.90475">
        <ele>134.334</ele>
      </trkpt>
      <trkpt lat="49.67145" lon="-1.90492">
        <ele>135.488</ele>
      </trkpt>
      <trkpt lat="49.6717" lon="-1.90541">
        <ele>138.406</ele>
      </trkpt>
      <trkpt lat="49.67187" lon="-1.90574">
        <ele>139.475</ele>
      </trkpt>
      <trkpt lat="49.67193" lon="-1.90586">
        <ele>139.948</ele>
      </trkpt>
      <trkpt lat="49.67209" lon="-1.90619">
        <ele>140.277</ele>
      </trkpt>
      <trkpt lat="49.67215" lon="-1.90632">
        <ele>140.756</ele>
      </trkpt>
      <trkpt lat="49.67222" lon="-1.90647">
        <ele>140.999</ele>
      </trkpt>
      <trkpt lat="49.67229" lon="-1.90663">
        <ele>140.747</ele>
      </trkpt>
      <trkpt lat="49.67232" lon="-1.90669">
        <ele>140.68</ele>
      </trkpt>
      <trkpt lat="49.6724" lon="-1.90686">
        <ele>140.807</ele>
      </trkpt>
      <trkpt lat="49.67243" lon="-1.90699">
        <ele>140.893</ele>
      </trkpt>
      <trkpt lat="49.67246" lon="-1.90725">
        <ele>140.028</ele>
      </trkpt>
      <trkpt lat="49.6725" lon="-1.90754">
        <ele>139.008</ele>
      </trkpt>
      <trkpt lat="49.67253" lon="-1.90771">
        <ele>139.089</ele>
      </trkpt>
      <trkpt lat="49.67253" lon="-1.90787">
        <ele>139.067</ele>
      </trkpt>
      <trkpt lat="49.67253" lon="-1.90804">
        <ele>139.007</ele>
      </trkpt>
      <trkpt lat="49.67258" lon="-1.90814">
        <ele>138.781</ele>
      </trkpt>
      <trkpt lat="49.67261" lon="-1.90821">
        <ele>138.66</ele>
      </trkpt>
      <trkpt lat="49.67268" lon="-1.90834">
        <ele>138.661</ele>
      </trkpt>
      <trkpt lat="49.67264" lon="-1.90847">
        <ele>138.745</ele>
      </trkpt>
      <trkpt lat="49.67258" lon="-1.9087">
        <ele>138.689</ele>
      </trkpt>
      <trkpt lat="49.67255" lon="-1.90889">
        <ele>138.005</ele>
      </trkpt>
      <trkpt lat="49.6725" lon="-1.90918">
        <ele>135.925</ele>
      </trkpt>
      <trkpt lat="49.6725" lon="-1.90928">
        <ele>135.208</ele>
      </trkpt>
      <trkpt lat="49.67251" lon="-1.90932">
        <ele>134.945</ele>
      </trkpt>
      <trkpt lat="49.67252" lon="-1.90943">
        <ele>134.257</ele>
      </trkpt>
      <trkpt lat="49.67254" lon="-1.90957">
        <ele>133.867</ele>
      </trkpt>
      <trkpt lat="49.67257" lon="-1.90975">
        <ele>133.678</ele>
      </trkpt>
      <trkpt lat="49.67263" lon="-1.9099">
        <ele>133.771</ele>
      </trkpt>
      <trkpt lat="49.67265" lon="-1.91001">
        <ele>133.555</ele>
      </trkpt>
      <trkpt lat="49.6727" lon="-1.91006">
        <ele>134.056</ele>
      </trkpt>
      <trkpt lat="49.67283" lon="-1.91027">
        <ele>136.106</ele>
      </trkpt>
      <trkpt lat="49.67278" lon="-1.91031">
        <ele>136.504</ele>
      </trkpt>
      <trkpt lat="49.67234" lon="-1.91065">
        <ele>138.746</ele>
      </trkpt>
      <trkpt lat="49.67224" lon="-1.9107">
        <ele>138.578</ele>
      </trkpt>
      <trkpt lat="49.67203" lon="-1.91076">
        <ele>137.496</ele>
      </trkpt>
      <trkpt lat="49.67159" lon="-1.91087">
        <ele>135.547</ele>
      </trkpt>
      <trkpt lat="49.67141" lon="-1.91091">
        <ele>134.439</ele>
      </trkpt>
      <trkpt lat="49.67133" lon="-1.91094">
        <ele>133.947</ele>
      </trkpt>
      <trkpt lat="49.67113" lon="-1.91101">
        <ele>132.778</ele>
      </trkpt>
      <trkpt lat="49.67109" lon="-1.91101">
        <ele>132.648</ele>
      </trkpt>
      <trkpt lat="49.67103" lon="-1.91101">
        <ele>132.736</ele>
      </trkpt>
      <trkpt lat="49.67095" lon="-1.91098">
        <ele>132.816</ele>
      </trkpt>
      <trkpt lat="49.67093" lon="-1.91106">
        <ele>132.941</ele>
      </trkpt>
      <trkpt lat="49.67095" lon="-1.91117">
        <ele>133</ele>
      </trkpt>
      <trkpt lat="49.67098" lon="-1.9113">
        <ele>133</ele>
      </trkpt>
      <trkpt lat="49.67106" lon="-1.91153">
        <ele>132.912</ele>
      </trkpt>
      <trkpt lat="49.67118" lon="-1.91184">
        <ele>132.783</ele>
      </trkpt>
      <trkpt lat="49.67131" lon="-1.91212">
        <ele>132.98</ele>
      </trkpt>
      <trkpt lat="49.67155" lon="-1.91265">
        <ele>133.861</ele>
      </trkpt>
      <trkpt lat="49.67156" lon="-1.91271">
        <ele>133.788</ele>
      </trkpt>
      <trkpt lat="49.67155" lon="-1.9129">
        <ele>133.593</ele>
      </trkpt>
      <trkpt lat="49.67158" lon="-1.91305">
        <ele>133.68</ele>
      </trkpt>
      <trkpt lat="49.67163" lon="-1.91317">
        <ele>133.469</ele>
      </trkpt>
      <trkpt lat="49.67167" lon="-1.91325">
        <ele>133.324</ele>
      </trkpt>
      <trkpt lat="49.67178" lon="-1.91347">
        <ele>133.108</ele>
      </trkpt>
      <trkpt lat="49.67191" lon="-1.91369">
        <ele>132.874</ele>
      </trkpt>
      <trkpt lat="49.67207" lon="-1.91387">
        <ele>133.072</ele>
      </trkpt>
      <trkpt lat="49.67217" lon="-1.91379">
        <ele>133.578</ele>
      </trkpt>
      <trkpt lat="49.67231" lon="-1.91366">
        <ele>134.719</ele>
      </trkpt>
      <trkpt lat="49.67254" lon="-1.91331">
        <ele>135.865</ele>
      </trkpt>
      <trkpt lat="49.67279" lon="-1.91294">
        <ele>136.433</ele>
      </trkpt>
      <trkpt lat="49.67301" lon="-1.91269">
        <ele>137.326</ele>
      </trkpt>
      <trkpt lat="49.67318" lon="-1.91252">
        <ele>137.912</ele>
      </trkpt>
      <trkpt lat="49.67323" lon="-1.9125">
        <ele>137.987</ele>
      </trkpt>
      <trkpt lat="49.67326" lon="-1.91252">
        <ele>137.938</ele>
      </trkpt>
      <trkpt lat="49.67334" lon="-1.91267">
        <ele>137.412</ele>
      </trkpt>
      <trkpt lat="49.6734" lon="-1.91272">
        <ele>137.438</ele>
      </trkpt>
      <trkpt lat="49.67341" lon="-1.91273">
        <ele>137.451</ele>
      </trkpt>
      <trkpt lat="49.67395" lon="-1.91253">
        <ele>139.721</ele>
      </trkpt>
      <trkpt lat="49.67411" lon="-1.91244">
        <ele>139.353</ele>
      </trkpt>
      <trkpt lat="49.67423" lon="-1.91239">
        <ele>138.836</ele>
      </trkpt>
      <trkpt lat="49.67437" lon="-1.91232">
        <ele>137.717</ele>
      </trkpt>
      <trkpt lat="49.67452" lon="-1.91225">
        <ele>136.726</ele>
      </trkpt>
      <trkpt lat="49.67462" lon="-1.91218">
        <ele>136.546</ele>
      </trkpt>
      <trkpt lat="49.67468" lon="-1.91211">
        <ele>136.633</ele>
      </trkpt>
      <trkpt lat="49.67474" lon="-1.91193">
        <ele>137.076</ele>
      </trkpt>
      <trkpt lat="49.67478" lon="-1.9118">
        <ele>137.212</ele>
      </trkpt>
      <trkpt lat="49.67504" lon="-1.91179">
        <ele>138.128</ele>
      </trkpt>
      <trkpt lat="49.67509" lon="-1.9118">
        <ele>138.324</ele>
      </trkpt>
      <trkpt lat="49.6751" lon="-1.91182">
        <ele>138.367</ele>
      </trkpt>
      <trkpt lat="49.67513" lon="-1.91185">
        <ele>138.473</ele>
      </trkpt>
      <trkpt lat="49.67527" lon="-1.91227">
        <ele>139.136</ele>
      </trkpt>
      <trkpt lat="49.67533" lon="-1.91246">
        <ele>140.078</ele>
      </trkpt>
      <trkpt lat="49.67534" lon="-1.9125">
        <ele>140.203</ele>
      </trkpt>
      <trkpt lat="49.6754" lon="-1.91276">
        <ele>139.495</ele>
      </trkpt>
      <trkpt lat="49.67545" lon="-1.91298">
        <ele>138.465</ele>
      </trkpt>
      <trkpt lat="49.67547" lon="-1.91305">
        <ele>138.029</ele>
      </trkpt>
      <trkpt lat="49.67555" lon="-1.91341">
        <ele>136.014</ele>
      </trkpt>
      <trkpt lat="49.67557" lon="-1.91352">
        <ele>136.139</ele>
      </trkpt>
      <trkpt lat="49.67562" lon="-1.91378">
        <ele>135.468</ele>
      </trkpt>
      <trkpt lat="49.67565" lon="-1.91398">
        <ele>134.353</ele>
      </trkpt>
      <trkpt lat="49.67565" lon="-1.91403">
        <ele>134.146</ele>
      </trkpt>
      <trkpt lat="49.67567" lon="-1.91413">
        <ele>133.742</ele>
      </trkpt>
      <trkpt lat="49.67571" lon="-1.91468">
        <ele>134.139</ele>
      </trkpt>
      <trkpt lat="49.67575" lon="-1.91505">
        <ele>133.252</ele>
      </trkpt>
      <trkpt lat="49.67578" lon="-1.91531">
        <ele>132.595</ele>
      </trkpt>
      <trkpt lat="49.67578" lon="-1.91535">
        <ele>132.322</ele>
      </trkpt>
      <trkpt lat="49.67584" lon="-1.91598">
        <ele>129.507</ele>
      </trkpt>
      <trkpt lat="49.67588" lon="-1.91654">
        <ele>129</ele>
      </trkpt>
      <trkpt lat="49.67591" lon="-1.9167">
        <ele>128.931</ele>
      </trkpt>
      <trkpt lat="49.67595" lon="-1.91688">
        <ele>128.365</ele>
      </trkpt>
      <trkpt lat="49.67599" lon="-1.91711">
        <ele>127.602</ele>
      </trkpt>
      <trkpt lat="49.67599" lon="-1.91729">
        <ele>127.546</ele>
      </trkpt>
      <trkpt lat="49.67619" lon="-1.91731">
        <ele>126.702</ele>
      </trkpt>
      <trkpt lat="49.67632" lon="-1.91735">
        <ele>126.239</ele>
      </trkpt>
      <trkpt lat="49.67641" lon="-1.91741">
        <ele>126.141</ele>
      </trkpt>
      <trkpt lat="49.67652" lon="-1.91752">
        <ele>126.451</ele>
      </trkpt>
      <trkpt lat="49.67665" lon="-1.91774">
        <ele>125.409</ele>
      </trkpt>
      <trkpt lat="49.67667" lon="-1.91781">
        <ele>125.024</ele>
      </trkpt>
      <trkpt lat="49.67669" lon="-1.9179">
        <ele>125.051</ele>
      </trkpt>
      <trkpt lat="49.67669" lon="-1.91803">
        <ele>125.008</ele>
      </trkpt>
      <trkpt lat="49.67669" lon="-1.91818">
        <ele>124.956</ele>
      </trkpt>
      <trkpt lat="49.67671" lon="-1.91829">
        <ele>124.868</ele>
      </trkpt>
      <trkpt lat="49.67678" lon="-1.9184">
        <ele>124.827</ele>
      </trkpt>
      <trkpt lat="49.67692" lon="-1.91854">
        <ele>124.829</ele>
      </trkpt>
      <trkpt lat="49.67702" lon="-1.91858">
        <ele>124.608</ele>
      </trkpt>
      <trkpt lat="49.67711" lon="-1.91861">
        <ele>124.391</ele>
      </trkpt>
      <trkpt lat="49.6775" lon="-1.91863">
        <ele>124.147</ele>
      </trkpt>
      <trkpt lat="49.67761" lon="-1.91865">
        <ele>123.44</ele>
      </trkpt>
      <trkpt lat="49.67783" lon="-1.91881">
        <ele>122.334</ele>
      </trkpt>
      <trkpt lat="49.67782" lon="-1.91891">
        <ele>122.782</ele>
      </trkpt>
      <trkpt lat="49.67784" lon="-1.91929">
        <ele>124.36</ele>
      </trkpt>
      <trkpt lat="49.67785" lon="-1.91953">
        <ele>125.259</ele>
      </trkpt>
      <trkpt lat="49.67785" lon="-1.91967">
        <ele>125.188</ele>
      </trkpt>
      <trkpt lat="49.67786" lon="-1.91976">
        <ele>125.207</ele>
      </trkpt>
      <trkpt lat="49.67787" lon="-1.91995">
        <ele>125.555</ele>
      </trkpt>
      <trkpt lat="49.67786" lon="-1.92035">
        <ele>124.924</ele>
      </trkpt>
      <trkpt lat="49.67785" lon="-1.92041">
        <ele>124.869</ele>
      </trkpt>
      <trkpt lat="49.67786" lon="-1.92059">
        <ele>124.538</ele>
      </trkpt>
      <trkpt lat="49.67789" lon="-1.92108">
        <ele>121.216</ele>
      </trkpt>
      <trkpt lat="49.67792" lon="-1.92132">
        <ele>119.868</ele>
      </trkpt>
      <trkpt lat="49.67792" lon="-1.9214">
        <ele>119.417</ele>
      </trkpt>
      <trkpt lat="49.67793" lon="-1.92154">
        <ele>118.067</ele>
      </trkpt>
      <trkpt lat="49.6779" lon="-1.92189">
        <ele>116.67</ele>
      </trkpt>
      <trkpt lat="49.67851" lon="-1.92161">
        <ele>114.846</ele>
      </trkpt>
      <trkpt lat="49.67859" lon="-1.92159">
        <ele>114.649</ele>
      </trkpt>
      <trkpt lat="49.67891" lon="-1.92157">
        <ele>112.594</ele>
      </trkpt>
      <trkpt lat="49.67908" lon="-1.92154">
        <ele>111.91</ele>
      </trkpt>
      <trkpt lat="49.67937" lon="-1.92139">
        <ele>111.267</ele>
      </trkpt>
      <trkpt lat="49.67979" lon="-1.92123">
        <ele>111.472</ele>
      </trkpt>
      <trkpt lat="49.67999" lon="-1.92119">
        <ele>111.184</ele>
      </trkpt>
      <trkpt lat="49.68008" lon="-1.92121">
        <ele>110.81</ele>
      </trkpt>
      <trkpt lat="49.68016" lon="-1.92125">
        <ele>109.924</ele>
      </trkpt>
      <trkpt lat="49.68051" lon="-1.92146">
        <ele>105.076</ele>
      </trkpt>
      <trkpt lat="49.68073" lon="-1.92151">
        <ele>102.245</ele>
      </trkpt>
      <trkpt lat="49.68084" lon="-1.92147">
        <ele>100.574</ele>
      </trkpt>
      <trkpt lat="49.6815" lon="-1.92069">
        <ele>91.262</ele>
      </trkpt>
      <trkpt lat="49.68164" lon="-1.92041">
        <ele>91.109</ele>
      </trkpt>
      <trkpt lat="49.68205" lon="-1.92">
        <ele>95.387</ele>
      </trkpt>
      <trkpt lat="49.68225" lon="-1.91997">
        <ele>96.113</ele>
      </trkpt>
      <trkpt lat="49.6825" lon="-1.91996">
        <ele>96.286</ele>
      </trkpt>
      <trkpt lat="49.68277" lon="-1.91985">
        <ele>98.092</ele>
      </trkpt>
      <trkpt lat="49.68348" lon="-1.91928">
        <ele>102.213</ele>
      </trkpt>
      <trkpt lat="49.68454" lon="-1.9195">
        <ele>100.568</ele>
      </trkpt>
      <trkpt lat="49.68488" lon="-1.91949">
        <ele>100.497</ele>
      </trkpt>
      <trkpt lat="49.6855" lon="-1.91928">
        <ele>105.172</ele>
      </trkpt>
      <trkpt lat="49.6865" lon="-1.91899">
        <ele>109.701</ele>
      </trkpt>
      <trkpt lat="49.68649" lon="-1.91899">
        <ele>109.816</ele>
      </trkpt>
      <trkpt lat="49.68617" lon="-1.91832">
        <ele>119.03</ele>
      </trkpt>
      <trkpt lat="49.68606" lon="-1.91814">
        <ele>120.344</ele>
      </trkpt>
      <trkpt lat="49.68589" lon="-1.91797">
        <ele>120.536</ele>
      </trkpt>
      <trkpt lat="49.68565" lon="-1.9178">
        <ele>121.76</ele>
      </trkpt>
      <trkpt lat="49.68562" lon="-1.91768">
        <ele>122.704</ele>
      </trkpt>
      <trkpt lat="49.68562" lon="-1.91763">
        <ele>123.064</ele>
      </trkpt>
      <trkpt lat="49.68579" lon="-1.91752">
        <ele>123.856</ele>
      </trkpt>
      <trkpt lat="49.68594" lon="-1.91742">
        <ele>125.905</ele>
      </trkpt>
      <trkpt lat="49.68618" lon="-1.91727">
        <ele>128.699</ele>
      </trkpt>
      <trkpt lat="49.68622" lon="-1.91717">
        <ele>129.376</ele>
      </trkpt>
      <trkpt lat="49.68627" lon="-1.91684">
        <ele>131.376</ele>
      </trkpt>
      <trkpt lat="49.68646" lon="-1.91592">
        <ele>134.432</ele>
      </trkpt>
      <trkpt lat="49.68663" lon="-1.91527">
        <ele>137.164</ele>
      </trkpt>
      <trkpt lat="49.68685" lon="-1.91439">
        <ele>139.345</ele>
      </trkpt>
      <trkpt lat="49.68737" lon="-1.91323">
        <ele>140.974</ele>
      </trkpt>
      <trkpt lat="49.68772" lon="-1.91269">
        <ele>142.208</ele>
      </trkpt>
      <trkpt lat="49.68803" lon="-1.91217">
        <ele>144.171</ele>
      </trkpt>
      <trkpt lat="49.6882" lon="-1.91193">
        <ele>144.48</ele>
      </trkpt>
      <trkpt lat="49.68834" lon="-1.91175">
        <ele>144.007</ele>
      </trkpt>
      <trkpt lat="49.68851" lon="-1.91152">
        <ele>144.192</ele>
      </trkpt>
      <trkpt lat="49.68862" lon="-1.91141">
        <ele>143.97</ele>
      </trkpt>
      <trkpt lat="49.68878" lon="-1.91124">
        <ele>143.066</ele>
      </trkpt>
      <trkpt lat="49.68904" lon="-1.91103">
        <ele>142.292</ele>
      </trkpt>
      <trkpt lat="49.68931" lon="-1.91086">
        <ele>141.922</ele>
      </trkpt>
      <trkpt lat="49.68942" lon="-1.91081">
        <ele>141.092</ele>
      </trkpt>
      <trkpt lat="49.68952" lon="-1.9107">
        <ele>139.976</ele>
      </trkpt>
      <trkpt lat="49.68979" lon="-1.91036">
        <ele>137.584</ele>
      </trkpt>
      <trkpt lat="49.68995" lon="-1.91011">
        <ele>135.865</ele>
      </trkpt>
      <trkpt lat="49.69005" lon="-1.90985">
        <ele>135.166</ele>
      </trkpt>
      <trkpt lat="49.69012" lon="-1.90944">
        <ele>134.129</ele>
      </trkpt>
      <trkpt lat="49.69019" lon="-1.90914">
        <ele>132.852</ele>
      </trkpt>
      <trkpt lat="49.69026" lon="-1.90889">
        <ele>131.196</ele>
      </trkpt>
      <trkpt lat="49.69035" lon="-1.90865">
        <ele>131.376</ele>
      </trkpt>
      <trkpt lat="49.69044" lon="-1.9085">
        <ele>131.232</ele>
      </trkpt>
      <trkpt lat="49.69049" lon="-1.90848">
        <ele>130.944</ele>
      </trkpt>
      <trkpt lat="49.69066" lon="-1.9085">
        <ele>129.648</ele>
      </trkpt>
      <trkpt lat="49.69078" lon="-1.90856">
        <ele>128.568</ele>
      </trkpt>
      <trkpt lat="49.69093" lon="-1.9086">
        <ele>128.04</ele>
      </trkpt>
      <trkpt lat="49.69098" lon="-1.9086">
        <ele>128.04</ele>
      </trkpt>
      <trkpt lat="49.69101" lon="-1.90857">
        <ele>128.148</ele>
      </trkpt>
      <trkpt lat="49.69104" lon="-1.90849">
        <ele>128.436</ele>
      </trkpt>
      <trkpt lat="49.69107" lon="-1.90813">
        <ele>129.217</ele>
      </trkpt>
      <trkpt lat="49.6911" lon="-1.90735">
        <ele>131.04</ele>
      </trkpt>
      <trkpt lat="49.6911" lon="-1.9072">
        <ele>131.12</ele>
      </trkpt>
      <trkpt lat="49.69158" lon="-1.90719">
        <ele>129.428</ele>
      </trkpt>
      <trkpt lat="49.69182" lon="-1.90719">
        <ele>129.052</ele>
      </trkpt>
      <trkpt lat="49.69216" lon="-1.90715">
        <ele>128.224</ele>
      </trkpt>
      <trkpt lat="49.69222" lon="-1.90713">
        <ele>128.008</ele>
      </trkpt>
      <trkpt lat="49.69281" lon="-1.90696">
        <ele>126.718</ele>
      </trkpt>
      <trkpt lat="49.69328" lon="-1.90678">
        <ele>124.784</ele>
      </trkpt>
      <trkpt lat="49.69341" lon="-1.90671">
        <ele>124.335</ele>
      </trkpt>
      <trkpt lat="49.69369" lon="-1.90651">
        <ele>123.684</ele>
      </trkpt>
      <trkpt lat="49.69408" lon="-1.90634">
        <ele>120.358</ele>
      </trkpt>
      <trkpt lat="49.69449" lon="-1.90627">
        <ele>115.212</ele>
      </trkpt>
      <trkpt lat="49.6945" lon="-1.90638">
        <ele>115.586</ele>
      </trkpt>
      <trkpt lat="49.6946" lon="-1.90948">
        <ele>107.454</ele>
      </trkpt>
      <trkpt lat="49.69449" lon="-1.90627">
        <ele>115.262</ele>
      </trkpt>
      <trkpt lat="49.69487" lon="-1.91518">
        <ele>117.584</ele>
      </trkpt>
      <trkpt lat="49.69516" lon="-1.91708">
        <ele>124.041</ele>
      </trkpt>
      <trkpt lat="49.69387" lon="-1.91683">
        <ele>129.588</ele>
      </trkpt>
      <trkpt lat="49.69364" lon="-1.91806">
        <ele>133</ele>
      </trkpt>
      <trkpt lat="49.69304" lon="-1.91988">
        <ele>128.944</ele>
      </trkpt>
      <trkpt lat="49.69285" lon="-1.92271">
        <ele>126.26</ele>
      </trkpt>
      <trkpt lat="49.69268" lon="-1.9238">
        <ele>123.855</ele>
      </trkpt>
      <trkpt lat="49.69266" lon="-1.9256">
        <ele>120.992</ele>
      </trkpt>
      <trkpt lat="49.69251" lon="-1.92739">
        <ele>112.842</ele>
      </trkpt>
      <trkpt lat="49.69254" lon="-1.92774">
        <ele>108.937</ele>
      </trkpt>
      <trkpt lat="49.69227" lon="-1.93022">
        <ele>97.412</ele>
      </trkpt>
      <trkpt lat="49.69293" lon="-1.932">
        <ele>102.773</ele>
      </trkpt>
      <trkpt lat="49.69398" lon="-1.93279">
        <ele>111.181</ele>
      </trkpt>
      <trkpt lat="49.6949" lon="-1.93349">
        <ele>111.354</ele>
      </trkpt>
      <trkpt lat="49.69565" lon="-1.93397">
        <ele>105.419</ele>
      </trkpt>
      <trkpt lat="49.69616" lon="-1.9347">
        <ele>104.688</ele>
      </trkpt>
      <trkpt lat="49.69636" lon="-1.9349">
        <ele>104.602</ele>
      </trkpt>
      <trkpt lat="49.69636" lon="-1.93488">
        <ele>104.925</ele>
      </trkpt>
      <trkpt lat="49.69648" lon="-1.93494">
        <ele>104.834</ele>
      </trkpt>
      <trkpt lat="49.69698" lon="-1.93499">
        <ele>102.811</ele>
      </trkpt>
      <trkpt lat="49.69731" lon="-1.93511">
        <ele>100.052</ele>
      </trkpt>
      <trkpt lat="49.69742" lon="-1.93519">
        <ele>98.864</ele>
      </trkpt>
      <trkpt lat="49.6975" lon="-1.93529">
        <ele>98</ele>
      </trkpt>
      <trkpt lat="49.69754" lon="-1.93536">
        <ele>97.525</ele>
      </trkpt>
      <trkpt lat="49.69761" lon="-1.93542">
        <ele>96.609</ele>
      </trkpt>
      <trkpt lat="49.6977" lon="-1.93611">
        <ele>93.683</ele>
      </trkpt>
      <trkpt lat="49.69776" lon="-1.9365">
        <ele>91.894</ele>
      </trkpt>
      <trkpt lat="49.6978" lon="-1.93673">
        <ele>90.372</ele>
      </trkpt>
      <trkpt lat="49.69786" lon="-1.93697">
        <ele>88.39</ele>
      </trkpt>
      <trkpt lat="49.69786" lon="-1.9371">
        <ele>87.732</ele>
      </trkpt>
      <trkpt lat="49.69806" lon="-1.93805">
        <ele>81.008</ele>
      </trkpt>
      <trkpt lat="49.69813" lon="-1.93844">
        <ele>78.889</ele>
      </trkpt>
      <trkpt lat="49.69817" lon="-1.93858">
        <ele>78.022</ele>
      </trkpt>
      <trkpt lat="49.6983" lon="-1.93882">
        <ele>79.332</ele>
      </trkpt>
      <trkpt lat="49.69834" lon="-1.93893">
        <ele>80.152</ele>
      </trkpt>
      <trkpt lat="49.69838" lon="-1.93903">
        <ele>80.593</ele>
      </trkpt>
      <trkpt lat="49.69833" lon="-1.939">
        <ele>80.338</ele>
      </trkpt>
      <trkpt lat="49.69802" lon="-1.9388">
        <ele>75.378</ele>
      </trkpt>
      <trkpt lat="49.69756" lon="-1.93854">
        <ele>68.853</ele>
      </trkpt>
      <trkpt lat="49.69746" lon="-1.93841">
        <ele>67.26</ele>
      </trkpt>
      <trkpt lat="49.6973" lon="-1.93813">
        <ele>63.773</ele>
      </trkpt>
      <trkpt lat="49.6973" lon="-1.93812">
        <ele>64.187</ele>
      </trkpt>
      <trkpt lat="49.69699" lon="-1.93769">
        <ele>59.556</ele>
      </trkpt>
      <trkpt lat="49.69678" lon="-1.93736">
        <ele>58.272</ele>
      </trkpt>
      <trkpt lat="49.69673" lon="-1.93727">
        <ele>57.789</ele>
      </trkpt>
      <trkpt lat="49.69637" lon="-1.93676">
        <ele>52.842</ele>
      </trkpt>
      <trkpt lat="49.69617" lon="-1.93657">
        <ele>51.844</ele>
      </trkpt>
      <trkpt lat="49.69562" lon="-1.9365">
        <ele>42.2</ele>
      </trkpt>
      <trkpt lat="49.69512" lon="-1.93617">
        <ele>40.412</ele>
      </trkpt>
      <trkpt lat="49.69471" lon="-1.9361">
        <ele>37.378</ele>
      </trkpt>
      <trkpt lat="49.69428" lon="-1.93611">
        <ele>34.129</ele>
      </trkpt>
      <trkpt lat="49.69398" lon="-1.93592">
        <ele>31.731</ele>
      </trkpt>
      <trkpt lat="49.69334" lon="-1.93566">
        <ele>32.238</ele>
      </trkpt>
      <trkpt lat="49.69319" lon="-1.9355">
        <ele>33.084</ele>
      </trkpt>
      <trkpt lat="49.69316" lon="-1.93529">
        <ele>35.007</ele>
      </trkpt>
      <trkpt lat="49.69314" lon="-1.93528">
        <ele>34.812</ele>
      </trkpt>
      <trkpt lat="49.69302" lon="-1.93554">
        <ele>30.901</ele>
      </trkpt>
      <trkpt lat="49.69245" lon="-1.93546">
        <ele>27.736</ele>
      </trkpt>
      <trkpt lat="49.69225" lon="-1.93529">
        <ele>28.07</ele>
      </trkpt>
      <trkpt lat="49.69173" lon="-1.93543">
        <ele>24.049</ele>
      </trkpt>
      <trkpt lat="49.69146" lon="-1.93548">
        <ele>21.408</ele>
      </trkpt>
      <trkpt lat="49.6914" lon="-1.93537">
        <ele>22.108</ele>
      </trkpt>
      <trkpt lat="49.69072" lon="-1.93524">
        <ele>16.295</ele>
      </trkpt>
      <trkpt lat="49.69049" lon="-1.93503">
        <ele>15.054</ele>
      </trkpt>
      <trkpt lat="49.69041" lon="-1.93513">
        <ele>13.739</ele>
      </trkpt>
      <trkpt lat="49.69026" lon="-1.93507">
        <ele>12.823</ele>
      </trkpt>
      <trkpt lat="49.69022" lon="-1.93478">
        <ele>14.219</ele>
      </trkpt>
      <trkpt lat="49.69005" lon="-1.93477">
        <ele>15.443</ele>
      </trkpt>
      <trkpt lat="49.69002" lon="-1.93483">
        <ele>15.479</ele>
      </trkpt>
      <trkpt lat="49.68998" lon="-1.93477">
        <ele>16.228</ele>
      </trkpt>
      <trkpt lat="49.68977" lon="-1.9347">
        <ele>21.78</ele>
      </trkpt>
      <trkpt lat="49.6896" lon="-1.93455">
        <ele>26.395</ele>
      </trkpt>
      <trkpt lat="49.68929" lon="-1.93473">
        <ele>31.286</ele>
      </trkpt>
      <trkpt lat="49.68914" lon="-1.9348">
        <ele>33.162</ele>
      </trkpt>
      <trkpt lat="49.68862" lon="-1.93484">
        <ele>39.457</ele>
      </trkpt>
      <trkpt lat="49.68829" lon="-1.93488">
        <ele>40.355</ele>
      </trkpt>
      <trkpt lat="49.68749" lon="-1.93546">
        <ele>36.578</ele>
      </trkpt>
      <trkpt lat="49.68733" lon="-1.93549">
        <ele>38.421</ele>
      </trkpt>
      <trkpt lat="49.68703" lon="-1.93579">
        <ele>39.866</ele>
      </trkpt>
      <trkpt lat="49.6868" lon="-1.9361">
        <ele>39.449</ele>
      </trkpt>
      <trkpt lat="49.68634" lon="-1.93686">
        <ele>32.659</ele>
      </trkpt>
      <trkpt lat="49.68634" lon="-1.93686">
        <ele>32.675</ele>
      </trkpt>
      <trkpt lat="49.68625" lon="-1.93713">
        <ele>29.662</ele>
      </trkpt>
      <trkpt lat="49.68609" lon="-1.93749">
        <ele>25.484</ele>
      </trkpt>
      <trkpt lat="49.68598" lon="-1.93766">
        <ele>21.575</ele>
      </trkpt>
      <trkpt lat="49.68578" lon="-1.93805">
        <ele>18.907</ele>
      </trkpt>
      <trkpt lat="49.68575" lon="-1.9381">
        <ele>18.528</ele>
      </trkpt>
      <trkpt lat="49.68563" lon="-1.93819">
        <ele>18.059</ele>
      </trkpt>
      <trkpt lat="49.68554" lon="-1.93819">
        <ele>18.58</ele>
      </trkpt>
      <trkpt lat="49.68527" lon="-1.9381">
        <ele>18.698</ele>
      </trkpt>
      <trkpt lat="49.68521" lon="-1.93813">
        <ele>18.726</ele>
      </trkpt>
      <trkpt lat="49.68516" lon="-1.93821">
        <ele>18.831</ele>
      </trkpt>
      <trkpt lat="49.68518" lon="-1.93838">
        <ele>18.016</ele>
      </trkpt>
      <trkpt lat="49.6851" lon="-1.93835">
        <ele>19.109</ele>
      </trkpt>
      <trkpt lat="49.68503" lon="-1.9383">
        <ele>20.38</ele>
      </trkpt>
      <trkpt lat="49.68496" lon="-1.93818">
        <ele>20.844</ele>
      </trkpt>
      <trkpt lat="49.68489" lon="-1.93813">
        <ele>21.573</ele>
      </trkpt>
      <trkpt lat="49.68481" lon="-1.93812">
        <ele>22.786</ele>
      </trkpt>
      <trkpt lat="49.68466" lon="-1.93802">
        <ele>22.377</ele>
      </trkpt>
      <trkpt lat="49.68454" lon="-1.938">
        <ele>23.374</ele>
      </trkpt>
      <trkpt lat="49.68437" lon="-1.93804">
        <ele>24.86</ele>
      </trkpt>
      <trkpt lat="49.68402" lon="-1.93816">
        <ele>29.214</ele>
      </trkpt>
      <trkpt lat="49.68379" lon="-1.9383">
        <ele>31.859</ele>
      </trkpt>
      <trkpt lat="49.68365" lon="-1.9383">
        <ele>33.754</ele>
      </trkpt>
      <trkpt lat="49.68356" lon="-1.93828">
        <ele>35.837</ele>
      </trkpt>
      <trkpt lat="49.68351" lon="-1.93823">
        <ele>36.637</ele>
      </trkpt>
      <trkpt lat="49.68317" lon="-1.93786">
        <ele>41.418</ele>
      </trkpt>
      <trkpt lat="49.683" lon="-1.93777">
        <ele>44.038</ele>
      </trkpt>
      <trkpt lat="49.6829" lon="-1.93776">
        <ele>44.212</ele>
      </trkpt>
      <trkpt lat="49.68284" lon="-1.93783">
        <ele>46.238</ele>
      </trkpt>
      <trkpt lat="49.68276" lon="-1.93798">
        <ele>50.591</ele>
      </trkpt>
      <trkpt lat="49.68261" lon="-1.93823">
        <ele>55.501</ele>
      </trkpt>
      <trkpt lat="49.68222" lon="-1.93856">
        <ele>61.163</ele>
      </trkpt>
      <trkpt lat="49.68201" lon="-1.93865">
        <ele>64.219</ele>
      </trkpt>
      <trkpt lat="49.68173" lon="-1.93871">
        <ele>67.17</ele>
      </trkpt>
      <trkpt lat="49.68152" lon="-1.93885">
        <ele>70.108</ele>
      </trkpt>
      <trkpt lat="49.68146" lon="-1.93906">
        <ele>73.804</ele>
      </trkpt>
      <trkpt lat="49.68144" lon="-1.93925">
        <ele>76.734</ele>
      </trkpt>
      <trkpt lat="49.6814" lon="-1.93935">
        <ele>77.901</ele>
      </trkpt>
      <trkpt lat="49.68133" lon="-1.93946">
        <ele>79.56</ele>
      </trkpt>
      <trkpt lat="49.68107" lon="-1.93964">
        <ele>83.313</ele>
      </trkpt>
      <trkpt lat="49.6808" lon="-1.9399">
        <ele>88.914</ele>
      </trkpt>
      <trkpt lat="49.6806" lon="-1.94014">
        <ele>91.782</ele>
      </trkpt>
      <trkpt lat="49.68044" lon="-1.94034">
        <ele>93.888</ele>
      </trkpt>
      <trkpt lat="49.68026" lon="-1.94062">
        <ele>96.827</ele>
      </trkpt>
      <trkpt lat="49.68017" lon="-1.94073">
        <ele>97.347</ele>
      </trkpt>
      <trkpt lat="49.67998" lon="-1.94105">
        <ele>100.056</ele>
      </trkpt>
      <trkpt lat="49.67984" lon="-1.94128">
        <ele>99.379</ele>
      </trkpt>
      <trkpt lat="49.67979" lon="-1.94142">
        <ele>100.023</ele>
      </trkpt>
      <trkpt lat="49.67973" lon="-1.94172">
        <ele>102.252</ele>
      </trkpt>
      <trkpt lat="49.67969" lon="-1.94183">
        <ele>101.728</ele>
      </trkpt>
      <trkpt lat="49.67953" lon="-1.9421">
        <ele>100.138</ele>
      </trkpt>
      <trkpt lat="49.67935" lon="-1.94245">
        <ele>100.799</ele>
      </trkpt>
      <trkpt lat="49.67921" lon="-1.94263">
        <ele>101.615</ele>
      </trkpt>
      <trkpt lat="49.67892" lon="-1.94293">
        <ele>103.167</ele>
      </trkpt>
      <trkpt lat="49.67859" lon="-1.94317">
        <ele>104.152</ele>
      </trkpt>
      <trkpt lat="49.67823" lon="-1.94341">
        <ele>107.116</ele>
      </trkpt>
      <trkpt lat="49.67801" lon="-1.9436">
        <ele>109.315</ele>
      </trkpt>
      <trkpt lat="49.67777" lon="-1.94374">
        <ele>110.085</ele>
      </trkpt>
      <trkpt lat="49.67748" lon="-1.9439">
        <ele>110.032</ele>
      </trkpt>
      <trkpt lat="49.67716" lon="-1.944">
        <ele>110.69</ele>
      </trkpt>
      <trkpt lat="49.67672" lon="-1.94469">
        <ele>112.254</ele>
      </trkpt>
      <trkpt lat="49.67677" lon="-1.94516">
        <ele>108.04</ele>
      </trkpt>
      <trkpt lat="49.67673" lon="-1.94525">
        <ele>107.932</ele>
      </trkpt>
      <trkpt lat="49.67664" lon="-1.94531">
        <ele>107.262</ele>
      </trkpt>
      <trkpt lat="49.67664" lon="-1.9453">
        <ele>107.763</ele>
      </trkpt>
      <trkpt lat="49.67634" lon="-1.94521">
        <ele>107.666</ele>
      </trkpt>
      <trkpt lat="49.67595" lon="-1.94504">
        <ele>103.152</ele>
      </trkpt>
      <trkpt lat="49.67629" lon="-1.94454">
        <ele>110.724</ele>
      </trkpt>
      <trkpt lat="49.67644" lon="-1.9444">
        <ele>113</ele>
      </trkpt>
      <trkpt lat="49.6766" lon="-1.94419">
        <ele>113</ele>
      </trkpt>
      <trkpt lat="49.67664" lon="-1.94397">
        <ele>112.215</ele>
      </trkpt>
      <trkpt lat="49.67664" lon="-1.94345">
        <ele>111.057</ele>
      </trkpt>
      <trkpt lat="49.6767" lon="-1.94334">
        <ele>110.882</ele>
      </trkpt>
      <trkpt lat="49.67679" lon="-1.94149">
        <ele>109.09</ele>
      </trkpt>
      <trkpt lat="49.67695" lon="-1.94045">
        <ele>110.723</ele>
      </trkpt>
      <trkpt lat="49.6771" lon="-1.93987">
        <ele>111.17</ele>
      </trkpt>
      <trkpt lat="49.67738" lon="-1.93909">
        <ele>110.04</ele>
      </trkpt>
      <trkpt lat="49.67752" lon="-1.93873">
        <ele>109</ele>
      </trkpt>
    </trkseg>
  </trk>
  <trk>
    <name><![CDATA[NezDeJobourg14,8]]></name>
    <desc><![CDATA[Total: 14.8km]]></desc>
    <extensions>
      <line xmlns="http://www.topografix.com/GPX/gpx_style/0/2">
        <color>880088</color>
        <width>4</width>
      </line>
    </extensions>
    <trkseg>
      <trkpt lat="49.67747" lon="-1.93863">
        <ele>109.006</ele>
      </trkpt>
      <trkpt lat="49.67736" lon="-1.93906">
        <ele>110.111</ele>
      </trkpt>
      <trkpt lat="49.67707" lon="-1.93985">
        <ele>111.321</ele>
      </trkpt>
      <trkpt lat="49.67693" lon="-1.94044">
        <ele>110.98</ele>
      </trkpt>
      <trkpt lat="49.67677" lon="-1.94148">
        <ele>109.242</ele>
      </trkpt>
      <trkpt lat="49.67672" lon="-1.94228">
        <ele>108.801</ele>
      </trkpt>
      <trkpt lat="49.67668" lon="-1.94332">
        <ele>110.922</ele>
      </trkpt>
      <trkpt lat="49.67662" lon="-1.94342">
        <ele>111.125</ele>
      </trkpt>
      <trkpt lat="49.6766" lon="-1.94397">
        <ele>112.115</ele>
      </trkpt>
      <trkpt lat="49.67658" lon="-1.94416">
        <ele>112.978</ele>
      </trkpt>
      <trkpt lat="49.67643" lon="-1.94437">
        <ele>113</ele>
      </trkpt>
      <trkpt lat="49.67627" lon="-1.94451">
        <ele>110.421</ele>
      </trkpt>
      <trkpt lat="49.67595" lon="-1.94504">
        <ele>103.152</ele>
      </trkpt>
      <trkpt lat="49.67582" lon="-1.9446">
        <ele>98.444</ele>
      </trkpt>
      <trkpt lat="49.67576" lon="-1.94417">
        <ele>92.402</ele>
      </trkpt>
      <trkpt lat="49.67577" lon="-1.94407">
        <ele>91.428</ele>
      </trkpt>
      <trkpt lat="49.6759" lon="-1.9437">
        <ele>92.144</ele>
      </trkpt>
      <trkpt lat="49.67591" lon="-1.9436">
        <ele>91.504</ele>
      </trkpt>
      <trkpt lat="49.67594" lon="-1.94346">
        <ele>94.165</ele>
      </trkpt>
      <trkpt lat="49.67594" lon="-1.94327">
        <ele>96.416</ele>
      </trkpt>
      <trkpt lat="49.67589" lon="-1.94319">
        <ele>95.374</ele>
      </trkpt>
      <trkpt lat="49.67584" lon="-1.94307">
        <ele>95.175</ele>
      </trkpt>
      <trkpt lat="49.67582" lon="-1.94298">
        <ele>93.949</ele>
      </trkpt>
      <trkpt lat="49.6758" lon="-1.94259">
        <ele>91.07</ele>
      </trkpt>
      <trkpt lat="49.67578" lon="-1.94252">
        <ele>90.03</ele>
      </trkpt>
      <trkpt lat="49.67579" lon="-1.94208">
        <ele>86.842</ele>
      </trkpt>
      <trkpt lat="49.67572" lon="-1.94171">
        <ele>81.516</ele>
      </trkpt>
      <trkpt lat="49.67573" lon="-1.94155">
        <ele>82.002</ele>
      </trkpt>
      <trkpt lat="49.67574" lon="-1.94148">
        <ele>82.667</ele>
      </trkpt>
      <trkpt lat="49.67571" lon="-1.94131">
        <ele>80.436</ele>
      </trkpt>
      <trkpt lat="49.67571" lon="-1.94115">
        <ele>80.48</ele>
      </trkpt>
      <trkpt lat="49.67566" lon="-1.94105">
        <ele>76.944</ele>
      </trkpt>
      <trkpt lat="49.67565" lon="-1.94092">
        <ele>75.686</ele>
      </trkpt>
      <trkpt lat="49.67563" lon="-1.94078">
        <ele>73.749</ele>
      </trkpt>
      <trkpt lat="49.67558" lon="-1.94049">
        <ele>67.735</ele>
      </trkpt>
      <trkpt lat="49.67554" lon="-1.94041">
        <ele>65.524</ele>
      </trkpt>
      <trkpt lat="49.67552" lon="-1.94032">
        <ele>64.43</ele>
      </trkpt>
      <trkpt lat="49.67552" lon="-1.9402">
        <ele>66.106</ele>
      </trkpt>
      <trkpt lat="49.67554" lon="-1.94017">
        <ele>67.038</ele>
      </trkpt>
      <trkpt lat="49.67556" lon="-1.94011">
        <ele>68.762</ele>
      </trkpt>
      <trkpt lat="49.67565" lon="-1.94002">
        <ele>72.131</ele>
      </trkpt>
      <trkpt lat="49.67566" lon="-1.93998">
        <ele>73.262</ele>
      </trkpt>
      <trkpt lat="49.67564" lon="-1.93994">
        <ele>74.852</ele>
      </trkpt>
      <trkpt lat="49.67544" lon="-1.93969">
        <ele>84.65</ele>
      </trkpt>
      <trkpt lat="49.67529" lon="-1.93961">
        <ele>87.768</ele>
      </trkpt>
      <trkpt lat="49.67526" lon="-1.93955">
        <ele>88.737</ele>
      </trkpt>
      <trkpt lat="49.67523" lon="-1.93945">
        <ele>90.524</ele>
      </trkpt>
      <trkpt lat="49.67517" lon="-1.9393">
        <ele>91.739</ele>
      </trkpt>
      <trkpt lat="49.6751" lon="-1.93919">
        <ele>92.07</ele>
      </trkpt>
      <trkpt lat="49.67508" lon="-1.93911">
        <ele>93.334</ele>
      </trkpt>
      <trkpt lat="49.67505" lon="-1.939">
        <ele>95.03</ele>
      </trkpt>
      <trkpt lat="49.67501" lon="-1.93892">
        <ele>95.496</ele>
      </trkpt>
      <trkpt lat="49.67488" lon="-1.93878">
        <ele>98.329</ele>
      </trkpt>
      <trkpt lat="49.67483" lon="-1.93876">
        <ele>97.6</ele>
      </trkpt>
      <trkpt lat="49.67477" lon="-1.93878">
        <ele>95.249</ele>
      </trkpt>
      <trkpt lat="49.67475" lon="-1.93874">
        <ele>96.415</ele>
      </trkpt>
      <trkpt lat="49.67465" lon="-1.93867">
        <ele>97.461</ele>
      </trkpt>
      <trkpt lat="49.67452" lon="-1.93856">
        <ele>100.588</ele>
      </trkpt>
      <trkpt lat="49.67434" lon="-1.93848">
        <ele>98.631</ele>
      </trkpt>
      <trkpt lat="49.67425" lon="-1.93835">
        <ele>101.47</ele>
      </trkpt>
      <trkpt lat="49.67417" lon="-1.93833">
        <ele>101.207</ele>
      </trkpt>
      <trkpt lat="49.67412" lon="-1.93827">
        <ele>101.513</ele>
      </trkpt>
      <trkpt lat="49.67398" lon="-1.93817">
        <ele>100.292</ele>
      </trkpt>
      <trkpt lat="49.67394" lon="-1.93815">
        <ele>99.596</ele>
      </trkpt>
      <trkpt lat="49.67388" lon="-1.93802">
        <ele>101.013</ele>
      </trkpt>
      <trkpt lat="49.67384" lon="-1.93786">
        <ele>101.778</ele>
      </trkpt>
      <trkpt lat="49.6738" lon="-1.93778">
        <ele>100.949</ele>
      </trkpt>
      <trkpt lat="49.67379" lon="-1.93766">
        <ele>101.177</ele>
      </trkpt>
      <trkpt lat="49.6738" lon="-1.9375">
        <ele>103.407</ele>
      </trkpt>
      <trkpt lat="49.67377" lon="-1.93743">
        <ele>102.375</ele>
      </trkpt>
      <trkpt lat="49.67377" lon="-1.93716">
        <ele>102.854</ele>
      </trkpt>
      <trkpt lat="49.67378" lon="-1.93706">
        <ele>103.43</ele>
      </trkpt>
      <trkpt lat="49.67377" lon="-1.93694">
        <ele>102.827</ele>
      </trkpt>
      <trkpt lat="49.6738" lon="-1.9368">
        <ele>103.009</ele>
      </trkpt>
      <trkpt lat="49.67382" lon="-1.93671">
        <ele>103.971</ele>
      </trkpt>
      <trkpt lat="49.67383" lon="-1.93641">
        <ele>104.16</ele>
      </trkpt>
      <trkpt lat="49.67381" lon="-1.93635">
        <ele>104.051</ele>
      </trkpt>
      <trkpt lat="49.67375" lon="-1.9362">
        <ele>104.728</ele>
      </trkpt>
      <trkpt lat="49.67368" lon="-1.93609">
        <ele>105.819</ele>
      </trkpt>
      <trkpt lat="49.67363" lon="-1.93597">
        <ele>107.677</ele>
      </trkpt>
      <trkpt lat="49.67345" lon="-1.93569">
        <ele>104.961</ele>
      </trkpt>
      <trkpt lat="49.67334" lon="-1.93553">
        <ele>103.883</ele>
      </trkpt>
      <trkpt lat="49.6733" lon="-1.93545">
        <ele>101.805</ele>
      </trkpt>
      <trkpt lat="49.67328" lon="-1.9352">
        <ele>99.271</ele>
      </trkpt>
      <trkpt lat="49.67334" lon="-1.93504">
        <ele>100.665</ele>
      </trkpt>
      <trkpt lat="49.67336" lon="-1.93487">
        <ele>99.241</ele>
      </trkpt>
      <trkpt lat="49.67338" lon="-1.93475">
        <ele>98.689</ele>
      </trkpt>
      <trkpt lat="49.67337" lon="-1.93467">
        <ele>96.964</ele>
      </trkpt>
      <trkpt lat="49.67347" lon="-1.93439">
        <ele>97.886</ele>
      </trkpt>
      <trkpt lat="49.67353" lon="-1.9342">
        <ele>98.026</ele>
      </trkpt>
      <trkpt lat="49.67356" lon="-1.93404">
        <ele>95.544</ele>
      </trkpt>
      <trkpt lat="49.67358" lon="-1.93397">
        <ele>95.008</ele>
      </trkpt>
      <trkpt lat="49.6736" lon="-1.93384">
        <ele>93.347</ele>
      </trkpt>
      <trkpt lat="49.67362" lon="-1.93367">
        <ele>93.552</ele>
      </trkpt>
      <trkpt lat="49.67361" lon="-1.93352">
        <ele>92.994</ele>
      </trkpt>
      <trkpt lat="49.67364" lon="-1.93329">
        <ele>94.567</ele>
      </trkpt>
      <trkpt lat="49.6736" lon="-1.93307">
        <ele>94.146</ele>
      </trkpt>
      <trkpt lat="49.67359" lon="-1.93301">
        <ele>93.732</ele>
      </trkpt>
      <trkpt lat="49.67358" lon="-1.93288">
        <ele>93.544</ele>
      </trkpt>
      <trkpt lat="49.67356" lon="-1.93284">
        <ele>92.566</ele>
      </trkpt>
      <trkpt lat="49.67353" lon="-1.93265">
        <ele>89.136</ele>
      </trkpt>
      <trkpt lat="49.67354" lon="-1.93258">
        <ele>88.704</ele>
      </trkpt>
      <trkpt lat="49.67352" lon="-1.93251">
        <ele>86.741</ele>
      </trkpt>
      <trkpt lat="49.67354" lon="-1.93237">
        <ele>83.058</ele>
      </trkpt>
      <trkpt lat="49.6737" lon="-1.93209">
        <ele>80.24</ele>
      </trkpt>
      <trkpt lat="49.6737" lon="-1.93203">
        <ele>79.305</ele>
      </trkpt>
      <trkpt lat="49.67366" lon="-1.93192">
        <ele>76.109</ele>
      </trkpt>
      <trkpt lat="49.67361" lon="-1.93186">
        <ele>74.496</ele>
      </trkpt>
      <trkpt lat="49.67356" lon="-1.93184">
        <ele>72.939</ele>
      </trkpt>
      <trkpt lat="49.6735" lon="-1.93172">
        <ele>71.732</ele>
      </trkpt>
      <trkpt lat="49.67345" lon="-1.93167">
        <ele>70.136</ele>
      </trkpt>
      <trkpt lat="49.67343" lon="-1.93162">
        <ele>68.598</ele>
      </trkpt>
      <trkpt lat="49.67342" lon="-1.93156">
        <ele>67.709</ele>
      </trkpt>
      <trkpt lat="49.67344" lon="-1.93145">
        <ele>66.841</ele>
      </trkpt>
      <trkpt lat="49.67341" lon="-1.93131">
        <ele>65.087</ele>
      </trkpt>
      <trkpt lat="49.67334" lon="-1.93112">
        <ele>63.292</ele>
      </trkpt>
      <trkpt lat="49.67331" lon="-1.93111">
        <ele>62.304</ele>
      </trkpt>
      <trkpt lat="49.67325" lon="-1.931">
        <ele>64.012</ele>
      </trkpt>
      <trkpt lat="49.67318" lon="-1.93094">
        <ele>62.999</ele>
      </trkpt>
      <trkpt lat="49.67315" lon="-1.93087">
        <ele>63.009</ele>
      </trkpt>
      <trkpt lat="49.67314" lon="-1.93079">
        <ele>63.812</ele>
      </trkpt>
      <trkpt lat="49.67316" lon="-1.93069">
        <ele>65.853</ele>
      </trkpt>
      <trkpt lat="49.67313" lon="-1.93064">
        <ele>64.79</ele>
      </trkpt>
      <trkpt lat="49.6731" lon="-1.93049">
        <ele>65.516</ele>
      </trkpt>
      <trkpt lat="49.67308" lon="-1.93039">
        <ele>67.26</ele>
      </trkpt>
      <trkpt lat="49.67305" lon="-1.93032">
        <ele>68.329</ele>
      </trkpt>
      <trkpt lat="49.673" lon="-1.93025">
        <ele>68.51</ele>
      </trkpt>
      <trkpt lat="49.67297" lon="-1.93011">
        <ele>72.252</ele>
      </trkpt>
      <trkpt lat="49.67293" lon="-1.92997">
        <ele>75.203</ele>
      </trkpt>
      <trkpt lat="49.67289" lon="-1.92993">
        <ele>75.122</ele>
      </trkpt>
      <trkpt lat="49.67283" lon="-1.92973">
        <ele>78.621</ele>
      </trkpt>
      <trkpt lat="49.67282" lon="-1.92962">
        <ele>78.37</ele>
      </trkpt>
      <trkpt lat="49.67283" lon="-1.92952">
        <ele>78.888</ele>
      </trkpt>
      <trkpt lat="49.67286" lon="-1.92941">
        <ele>80.069</ele>
      </trkpt>
      <trkpt lat="49.67285" lon="-1.92918">
        <ele>78.792</ele>
      </trkpt>
      <trkpt lat="49.67285" lon="-1.92907">
        <ele>77.598</ele>
      </trkpt>
      <trkpt lat="49.67286" lon="-1.92894">
        <ele>76.628</ele>
      </trkpt>
      <trkpt lat="49.67284" lon="-1.92886">
        <ele>75.346</ele>
      </trkpt>
      <trkpt lat="49.6728" lon="-1.92872">
        <ele>74.661</ele>
      </trkpt>
      <trkpt lat="49.67275" lon="-1.92868">
        <ele>73.844</ele>
      </trkpt>
      <trkpt lat="49.67269" lon="-1.92863">
        <ele>73.672</ele>
      </trkpt>
      <trkpt lat="49.67258" lon="-1.92851">
        <ele>75.717</ele>
      </trkpt>
      <trkpt lat="49.67247" lon="-1.92812">
        <ele>85.254</ele>
      </trkpt>
      <trkpt lat="49.67245" lon="-1.928">
        <ele>88.541</ele>
      </trkpt>
      <trkpt lat="49.67233" lon="-1.92793">
        <ele>89.097</ele>
      </trkpt>
      <trkpt lat="49.67217" lon="-1.92784">
        <ele>90.72</ele>
      </trkpt>
      <trkpt lat="49.67212" lon="-1.92778">
        <ele>92.317</ele>
      </trkpt>
      <trkpt lat="49.67202" lon="-1.92766">
        <ele>92.957</ele>
      </trkpt>
      <trkpt lat="49.67193" lon="-1.92761">
        <ele>92.056</ele>
      </trkpt>
      <trkpt lat="49.67171" lon="-1.92745">
        <ele>91.045</ele>
      </trkpt>
      <trkpt lat="49.67165" lon="-1.92736">
        <ele>91.09</ele>
      </trkpt>
      <trkpt lat="49.67156" lon="-1.92731">
        <ele>90.348</ele>
      </trkpt>
      <trkpt lat="49.67107" lon="-1.92706">
        <ele>91.493</ele>
      </trkpt>
      <trkpt lat="49.67092" lon="-1.92701">
        <ele>91.254</ele>
      </trkpt>
      <trkpt lat="49.6708" lon="-1.92698">
        <ele>90.396</ele>
      </trkpt>
      <trkpt lat="49.6707" lon="-1.92693">
        <ele>90.226</ele>
      </trkpt>
      <trkpt lat="49.67058" lon="-1.92691">
        <ele>88.783</ele>
      </trkpt>
      <trkpt lat="49.67051" lon="-1.92689">
        <ele>88.1</ele>
      </trkpt>
      <trkpt lat="49.67027" lon="-1.92689">
        <ele>84.942</ele>
      </trkpt>
      <trkpt lat="49.67023" lon="-1.92693">
        <ele>83.514</ele>
      </trkpt>
      <trkpt lat="49.67015" lon="-1.92717">
        <ele>77.288</ele>
      </trkpt>
      <trkpt lat="49.67011" lon="-1.92718">
        <ele>76.386</ele>
      </trkpt>
      <trkpt lat="49.67006" lon="-1.92723">
        <ele>75.018</ele>
      </trkpt>
      <trkpt lat="49.66994" lon="-1.92743">
        <ele>69.601</ele>
      </trkpt>
      <trkpt lat="49.66982" lon="-1.92768">
        <ele>62.908</ele>
      </trkpt>
      <trkpt lat="49.66967" lon="-1.92796">
        <ele>56.554</ele>
      </trkpt>
      <trkpt lat="49.66962" lon="-1.92804">
        <ele>53.764</ele>
      </trkpt>
      <trkpt lat="49.66957" lon="-1.92802">
        <ele>52.215</ele>
      </trkpt>
      <trkpt lat="49.66953" lon="-1.92799">
        <ele>51.292</ele>
      </trkpt>
      <trkpt lat="49.66948" lon="-1.92771">
        <ele>49.56</ele>
      </trkpt>
      <trkpt lat="49.66944" lon="-1.9275">
        <ele>47.585</ele>
      </trkpt>
      <trkpt lat="49.66939" lon="-1.92729">
        <ele>43.78</ele>
      </trkpt>
      <trkpt lat="49.66937" lon="-1.92716">
        <ele>41.74</ele>
      </trkpt>
      <trkpt lat="49.66936" lon="-1.92703">
        <ele>39.51</ele>
      </trkpt>
      <trkpt lat="49.66937" lon="-1.92671">
        <ele>34.338</ele>
      </trkpt>
      <trkpt lat="49.66936" lon="-1.92662">
        <ele>32.822</ele>
      </trkpt>
      <trkpt lat="49.6694" lon="-1.92625">
        <ele>37.003</ele>
      </trkpt>
      <trkpt lat="49.66937" lon="-1.92618">
        <ele>34.441</ele>
      </trkpt>
      <trkpt lat="49.66935" lon="-1.92604">
        <ele>32.357</ele>
      </trkpt>
      <trkpt lat="49.66934" lon="-1.92587">
        <ele>31.17</ele>
      </trkpt>
      <trkpt lat="49.66929" lon="-1.92574">
        <ele>28.866</ele>
      </trkpt>
      <trkpt lat="49.66929" lon="-1.92552">
        <ele>32.235</ele>
      </trkpt>
      <trkpt lat="49.66929" lon="-1.92537">
        <ele>29.083</ele>
      </trkpt>
      <trkpt lat="49.66929" lon="-1.92531">
        <ele>28.107</ele>
      </trkpt>
      <trkpt lat="49.66934" lon="-1.92522">
        <ele>29.215</ele>
      </trkpt>
      <trkpt lat="49.66938" lon="-1.92513">
        <ele>29.657</ele>
      </trkpt>
      <trkpt lat="49.66938" lon="-1.92507">
        <ele>29.199</ele>
      </trkpt>
      <trkpt lat="49.66931" lon="-1.92479">
        <ele>30.75</ele>
      </trkpt>
      <trkpt lat="49.66927" lon="-1.92462">
        <ele>33.928</ele>
      </trkpt>
      <trkpt lat="49.66921" lon="-1.9246">
        <ele>34.12</ele>
      </trkpt>
      <trkpt lat="49.66906" lon="-1.92438">
        <ele>35.1</ele>
      </trkpt>
      <trkpt lat="49.66906" lon="-1.92434">
        <ele>36.136</ele>
      </trkpt>
      <trkpt lat="49.66901" lon="-1.92387">
        <ele>42.216</ele>
      </trkpt>
      <trkpt lat="49.669" lon="-1.92363">
        <ele>45.232</ele>
      </trkpt>
      <trkpt lat="49.66899" lon="-1.92353">
        <ele>46.679</ele>
      </trkpt>
      <trkpt lat="49.66872" lon="-1.92308">
        <ele>47.462</ele>
      </trkpt>
      <trkpt lat="49.66857" lon="-1.92287">
        <ele>46.545</ele>
      </trkpt>
      <trkpt lat="49.66846" lon="-1.92269">
        <ele>47.742</ele>
      </trkpt>
      <trkpt lat="49.66839" lon="-1.92258">
        <ele>48.041</ele>
      </trkpt>
      <trkpt lat="49.6682" lon="-1.92235">
        <ele>48.486</ele>
      </trkpt>
      <trkpt lat="49.66796" lon="-1.92201">
        <ele>48.352</ele>
      </trkpt>
      <trkpt lat="49.66777" lon="-1.92168">
        <ele>53.037</ele>
      </trkpt>
      <trkpt lat="49.66767" lon="-1.92148">
        <ele>53.133</ele>
      </trkpt>
      <trkpt lat="49.66765" lon="-1.92135">
        <ele>53.851</ele>
      </trkpt>
      <trkpt lat="49.66782" lon="-1.92145">
        <ele>59.701</ele>
      </trkpt>
      <trkpt lat="49.66789" lon="-1.92145">
        <ele>61.406</ele>
      </trkpt>
      <trkpt lat="49.66791" lon="-1.92148">
        <ele>61.475</ele>
      </trkpt>
      <trkpt lat="49.66796" lon="-1.92142">
        <ele>63.513</ele>
      </trkpt>
      <trkpt lat="49.66814" lon="-1.92131">
        <ele>66.015</ele>
      </trkpt>
      <trkpt lat="49.66831" lon="-1.92113">
        <ele>64.099</ele>
      </trkpt>
      <trkpt lat="49.66833" lon="-1.92111">
        <ele>63.942</ele>
      </trkpt>
      <trkpt lat="49.66842" lon="-1.92095">
        <ele>66.887</ele>
      </trkpt>
      <trkpt lat="49.66844" lon="-1.92086">
        <ele>67.139</ele>
      </trkpt>
      <trkpt lat="49.66841" lon="-1.92078">
        <ele>67.938</ele>
      </trkpt>
      <trkpt lat="49.66821" lon="-1.92058">
        <ele>68.544</ele>
      </trkpt>
      <trkpt lat="49.66816" lon="-1.92049">
        <ele>69.032</ele>
      </trkpt>
      <trkpt lat="49.66808" lon="-1.92023">
        <ele>73.776</ele>
      </trkpt>
      <trkpt lat="49.66804" lon="-1.92013">
        <ele>74.982</ele>
      </trkpt>
      <trkpt lat="49.66794" lon="-1.91996">
        <ele>76.15</ele>
      </trkpt>
      <trkpt lat="49.66787" lon="-1.91976">
        <ele>77.95</ele>
      </trkpt>
      <trkpt lat="49.66775" lon="-1.91938">
        <ele>79.781</ele>
      </trkpt>
      <trkpt lat="49.66774" lon="-1.91926">
        <ele>80.924</ele>
      </trkpt>
      <trkpt lat="49.66773" lon="-1.91921">
        <ele>81.074</ele>
      </trkpt>
      <trkpt lat="49.66776" lon="-1.91909">
        <ele>83.914</ele>
      </trkpt>
      <trkpt lat="49.66775" lon="-1.91893">
        <ele>83.073</ele>
      </trkpt>
      <trkpt lat="49.66777" lon="-1.91863">
        <ele>85.671</ele>
      </trkpt>
      <trkpt lat="49.66776" lon="-1.91858">
        <ele>84.861</ele>
      </trkpt>
      <trkpt lat="49.66774" lon="-1.91853">
        <ele>84.208</ele>
      </trkpt>
      <trkpt lat="49.66774" lon="-1.91843">
        <ele>84.788</ele>
      </trkpt>
      <trkpt lat="49.66772" lon="-1.91807">
        <ele>88.292</ele>
      </trkpt>
      <trkpt lat="49.66769" lon="-1.91794">
        <ele>91.018</ele>
      </trkpt>
      <trkpt lat="49.66758" lon="-1.91777">
        <ele>91.54</ele>
      </trkpt>
      <trkpt lat="49.66754" lon="-1.91767">
        <ele>91.288</ele>
      </trkpt>
      <trkpt lat="49.66752" lon="-1.91747">
        <ele>92.789</ele>
      </trkpt>
      <trkpt lat="49.66753" lon="-1.91731">
        <ele>93.283</ele>
      </trkpt>
      <trkpt lat="49.66747" lon="-1.917">
        <ele>91.506</ele>
      </trkpt>
      <trkpt lat="49.66749" lon="-1.9168">
        <ele>92.931</ele>
      </trkpt>
      <trkpt lat="49.6675" lon="-1.91653">
        <ele>92.903</ele>
      </trkpt>
      <trkpt lat="49.66755" lon="-1.91644">
        <ele>95.525</ele>
      </trkpt>
      <trkpt lat="49.66756" lon="-1.91634">
        <ele>96.577</ele>
      </trkpt>
      <trkpt lat="49.66759" lon="-1.91626">
        <ele>98.057</ele>
      </trkpt>
      <trkpt lat="49.66755" lon="-1.91619">
        <ele>97.707</ele>
      </trkpt>
      <trkpt lat="49.66755" lon="-1.91598">
        <ele>100.521</ele>
      </trkpt>
      <trkpt lat="49.66755" lon="-1.91582">
        <ele>102.834</ele>
      </trkpt>
      <trkpt lat="49.66749" lon="-1.91578">
        <ele>103.24</ele>
      </trkpt>
      <trkpt lat="49.66743" lon="-1.9155">
        <ele>104.304</ele>
      </trkpt>
      <trkpt lat="49.66739" lon="-1.91545">
        <ele>104.029</ele>
      </trkpt>
      <trkpt lat="49.66732" lon="-1.91527">
        <ele>105.427</ele>
      </trkpt>
      <trkpt lat="49.66723" lon="-1.91508">
        <ele>107.207</ele>
      </trkpt>
      <trkpt lat="49.66716" lon="-1.91474">
        <ele>109.538</ele>
      </trkpt>
      <trkpt lat="49.66712" lon="-1.91456">
        <ele>110.65</ele>
      </trkpt>
      <trkpt lat="49.66709" lon="-1.91441">
        <ele>112.498</ele>
      </trkpt>
      <trkpt lat="49.66708" lon="-1.91434">
        <ele>113.369</ele>
      </trkpt>
      <trkpt lat="49.66703" lon="-1.91424">
        <ele>113.77</ele>
      </trkpt>
      <trkpt lat="49.66699" lon="-1.91413">
        <ele>114.681</ele>
      </trkpt>
      <trkpt lat="49.66695" lon="-1.91402">
        <ele>113.648</ele>
      </trkpt>
      <trkpt lat="49.66694" lon="-1.91392">
        <ele>112.67</ele>
      </trkpt>
      <trkpt lat="49.66693" lon="-1.91372">
        <ele>112.722</ele>
      </trkpt>
      <trkpt lat="49.6669" lon="-1.91365">
        <ele>111.93</ele>
      </trkpt>
      <trkpt lat="49.66682" lon="-1.9135">
        <ele>109.709</ele>
      </trkpt>
      <trkpt lat="49.6668" lon="-1.91343">
        <ele>109.992</ele>
      </trkpt>
      <trkpt lat="49.66679" lon="-1.91335">
        <ele>110.97</ele>
      </trkpt>
      <trkpt lat="49.6668" lon="-1.9133">
        <ele>111.987</ele>
      </trkpt>
      <trkpt lat="49.66678" lon="-1.91318">
        <ele>112.252</ele>
      </trkpt>
      <trkpt lat="49.6667" lon="-1.9129">
        <ele>112.642</ele>
      </trkpt>
      <trkpt lat="49.66664" lon="-1.91262">
        <ele>113.043</ele>
      </trkpt>
      <trkpt lat="49.66664" lon="-1.91244">
        <ele>113.409</ele>
      </trkpt>
      <trkpt lat="49.66665" lon="-1.91237">
        <ele>113.971</ele>
      </trkpt>
      <trkpt lat="49.66669" lon="-1.91228">
        <ele>114.82</ele>
      </trkpt>
      <trkpt lat="49.66674" lon="-1.9122">
        <ele>115.326</ele>
      </trkpt>
      <trkpt lat="49.6668" lon="-1.91203">
        <ele>114.809</ele>
      </trkpt>
      <trkpt lat="49.66694" lon="-1.9114">
        <ele>115.911</ele>
      </trkpt>
      <trkpt lat="49.66703" lon="-1.91118">
        <ele>113.562</ele>
      </trkpt>
      <trkpt lat="49.66713" lon="-1.911">
        <ele>112.279</ele>
      </trkpt>
      <trkpt lat="49.66716" lon="-1.91089">
        <ele>111.142</ele>
      </trkpt>
      <trkpt lat="49.66716" lon="-1.9108">
        <ele>110.196</ele>
      </trkpt>
      <trkpt lat="49.66714" lon="-1.91064">
        <ele>109.803</ele>
      </trkpt>
      <trkpt lat="49.66711" lon="-1.91054">
        <ele>108.964</ele>
      </trkpt>
      <trkpt lat="49.667" lon="-1.91038">
        <ele>105.314</ele>
      </trkpt>
      <trkpt lat="49.66696" lon="-1.91024">
        <ele>104.602</ele>
      </trkpt>
      <trkpt lat="49.66696" lon="-1.91007">
        <ele>103.739</ele>
      </trkpt>
      <trkpt lat="49.66696" lon="-1.9099">
        <ele>102.065</ele>
      </trkpt>
      <trkpt lat="49.667" lon="-1.90971">
        <ele>100.367</ele>
      </trkpt>
      <trkpt lat="49.66706" lon="-1.90953">
        <ele>99.655</ele>
      </trkpt>
      <trkpt lat="49.66709" lon="-1.90938">
        <ele>97.88</ele>
      </trkpt>
      <trkpt lat="49.66713" lon="-1.90894">
        <ele>93.272</ele>
      </trkpt>
      <trkpt lat="49.6672" lon="-1.90869">
        <ele>91.143</ele>
      </trkpt>
      <trkpt lat="49.66727" lon="-1.90855">
        <ele>89.966</ele>
      </trkpt>
      <trkpt lat="49.66729" lon="-1.90848">
        <ele>88.946</ele>
      </trkpt>
      <trkpt lat="49.66731" lon="-1.90834">
        <ele>86.153</ele>
      </trkpt>
      <trkpt lat="49.6673" lon="-1.9083">
        <ele>85.957</ele>
      </trkpt>
      <trkpt lat="49.66728" lon="-1.90819">
        <ele>84.954</ele>
      </trkpt>
      <trkpt lat="49.66725" lon="-1.90798">
        <ele>84.935</ele>
      </trkpt>
      <trkpt lat="49.66721" lon="-1.90778">
        <ele>85.296</ele>
      </trkpt>
      <trkpt lat="49.66722" lon="-1.90771">
        <ele>84.234</ele>
      </trkpt>
      <trkpt lat="49.66731" lon="-1.90745">
        <ele>82.641</ele>
      </trkpt>
      <trkpt lat="49.66741" lon="-1.90716">
        <ele>79.753</ele>
      </trkpt>
      <trkpt lat="49.66747" lon="-1.90684">
        <ele>75.608</ele>
      </trkpt>
      <trkpt lat="49.66748" lon="-1.90652">
        <ele>71.606</ele>
      </trkpt>
      <trkpt lat="49.66748" lon="-1.9064">
        <ele>69.68</ele>
      </trkpt>
      <trkpt lat="49.6675" lon="-1.90625">
        <ele>69.666</ele>
      </trkpt>
      <trkpt lat="49.66754" lon="-1.90606">
        <ele>69.139</ele>
      </trkpt>
      <trkpt lat="49.66758" lon="-1.90586">
        <ele>68.292</ele>
      </trkpt>
      <trkpt lat="49.66761" lon="-1.90582">
        <ele>67.849</ele>
      </trkpt>
      <trkpt lat="49.66774" lon="-1.90581">
        <ele>67.522</ele>
      </trkpt>
      <trkpt lat="49.66781" lon="-1.90584">
        <ele>68.215</ele>
      </trkpt>
      <trkpt lat="49.66788" lon="-1.90581">
        <ele>67.972</ele>
      </trkpt>
      <trkpt lat="49.66793" lon="-1.90581">
        <ele>68.228</ele>
      </trkpt>
      <trkpt lat="49.66802" lon="-1.90571">
        <ele>68.107</ele>
      </trkpt>
      <trkpt lat="49.66806" lon="-1.90563">
        <ele>68.355</ele>
      </trkpt>
      <trkpt lat="49.66805" lon="-1.90553">
        <ele>68.836</ele>
      </trkpt>
      <trkpt lat="49.66799" lon="-1.90537">
        <ele>72.057</ele>
      </trkpt>
      <trkpt lat="49.66792" lon="-1.90527">
        <ele>71.163</ele>
      </trkpt>
      <trkpt lat="49.6679" lon="-1.90521">
        <ele>71.238</ele>
      </trkpt>
      <trkpt lat="49.6679" lon="-1.90515">
        <ele>72.704</ele>
      </trkpt>
      <trkpt lat="49.66793" lon="-1.905">
        <ele>77.567</ele>
      </trkpt>
      <trkpt lat="49.66802" lon="-1.9048">
        <ele>81.15</ele>
      </trkpt>
      <trkpt lat="49.66805" lon="-1.90471">
        <ele>82.658</ele>
      </trkpt>
      <trkpt lat="49.66805" lon="-1.90458">
        <ele>83.52</ele>
      </trkpt>
      <trkpt lat="49.66806" lon="-1.90434">
        <ele>87.947</ele>
      </trkpt>
      <trkpt lat="49.66801" lon="-1.90426">
        <ele>87.34</ele>
      </trkpt>
      <trkpt lat="49.66795" lon="-1.9041">
        <ele>88.804</ele>
      </trkpt>
      <trkpt lat="49.66794" lon="-1.90399">
        <ele>91.947</ele>
      </trkpt>
      <trkpt lat="49.66788" lon="-1.90389">
        <ele>93.465</ele>
      </trkpt>
      <trkpt lat="49.66772" lon="-1.90381">
        <ele>90.754</ele>
      </trkpt>
      <trkpt lat="49.66765" lon="-1.90371">
        <ele>90.898</ele>
      </trkpt>
      <trkpt lat="49.66757" lon="-1.90353">
        <ele>91.746</ele>
      </trkpt>
      <trkpt lat="49.66742" lon="-1.90305">
        <ele>90.389</ele>
      </trkpt>
      <trkpt lat="49.66738" lon="-1.90276">
        <ele>91.07</ele>
      </trkpt>
      <trkpt lat="49.66717" lon="-1.90248">
        <ele>83.798</ele>
      </trkpt>
      <trkpt lat="49.66714" lon="-1.90241">
        <ele>82.061</ele>
      </trkpt>
      <trkpt lat="49.6671" lon="-1.90235">
        <ele>79.455</ele>
      </trkpt>
      <trkpt lat="49.66703" lon="-1.90227">
        <ele>75.038</ele>
      </trkpt>
      <trkpt lat="49.66698" lon="-1.90191">
        <ele>72.1</ele>
      </trkpt>
      <trkpt lat="49.66699" lon="-1.90163">
        <ele>67.458</ele>
      </trkpt>
      <trkpt lat="49.66703" lon="-1.9015">
        <ele>65.478</ele>
      </trkpt>
      <trkpt lat="49.66705" lon="-1.90136">
        <ele>63.022</ele>
      </trkpt>
      <trkpt lat="49.66704" lon="-1.9013">
        <ele>62.348</ele>
      </trkpt>
      <trkpt lat="49.66701" lon="-1.90124">
        <ele>60.896</ele>
      </trkpt>
      <trkpt lat="49.66696" lon="-1.90109">
        <ele>58.654</ele>
      </trkpt>
      <trkpt lat="49.66689" lon="-1.9009">
        <ele>56.402</ele>
      </trkpt>
      <trkpt lat="49.66682" lon="-1.9008">
        <ele>54.345</ele>
      </trkpt>
      <trkpt lat="49.66677" lon="-1.90064">
        <ele>54.6</ele>
      </trkpt>
      <trkpt lat="49.66673" lon="-1.90046">
        <ele>54.429</ele>
      </trkpt>
      <trkpt lat="49.66688" lon="-1.90044">
        <ele>59.421</ele>
      </trkpt>
      <trkpt lat="49.66697" lon="-1.90025">
        <ele>61.735</ele>
      </trkpt>
      <trkpt lat="49.66709" lon="-1.89989">
        <ele>64.252</ele>
      </trkpt>
      <trkpt lat="49.66718" lon="-1.89943">
        <ele>66.841</ele>
      </trkpt>
      <trkpt lat="49.66718" lon="-1.8994">
        <ele>67</ele>
      </trkpt>
      <trkpt lat="49.66723" lon="-1.89909">
        <ele>69.059</ele>
      </trkpt>
      <trkpt lat="49.66722" lon="-1.89894">
        <ele>68.802</ele>
      </trkpt>
      <trkpt lat="49.66729" lon="-1.89894">
        <ele>69.486</ele>
      </trkpt>
      <trkpt lat="49.66738" lon="-1.89891">
        <ele>69.766</ele>
      </trkpt>
      <trkpt lat="49.6675" lon="-1.89892">
        <ele>70.524</ele>
      </trkpt>
      <trkpt lat="49.66798" lon="-1.89896">
        <ele>73.874</ele>
      </trkpt>
      <trkpt lat="49.66831" lon="-1.89898">
        <ele>78.242</ele>
      </trkpt>
      <trkpt lat="49.66843" lon="-1.89899">
        <ele>78.467</ele>
      </trkpt>
      <trkpt lat="49.66861" lon="-1.89899">
        <ele>78.084</ele>
      </trkpt>
      <trkpt lat="49.66866" lon="-1.89909">
        <ele>78.215</ele>
      </trkpt>
      <trkpt lat="49.66873" lon="-1.89926">
        <ele>79.72</ele>
      </trkpt>
      <trkpt lat="49.66882" lon="-1.89949">
        <ele>81.465</ele>
      </trkpt>
      <trkpt lat="49.669" lon="-1.89995">
        <ele>85.914</ele>
      </trkpt>
      <trkpt lat="49.6692" lon="-1.90048">
        <ele>92.703</ele>
      </trkpt>
      <trkpt lat="49.6693" lon="-1.90077">
        <ele>95.014</ele>
      </trkpt>
      <trkpt lat="49.66935" lon="-1.90088">
        <ele>94.723</ele>
      </trkpt>
      <trkpt lat="49.66945" lon="-1.90108">
        <ele>95.312</ele>
      </trkpt>
      <trkpt lat="49.66954" lon="-1.90132">
        <ele>99.818</ele>
      </trkpt>
      <trkpt lat="49.66968" lon="-1.90155">
        <ele>101.563</ele>
      </trkpt>
      <trkpt lat="49.66974" lon="-1.90159">
        <ele>101.528</ele>
      </trkpt>
      <trkpt lat="49.66985" lon="-1.90164">
        <ele>103.157</ele>
      </trkpt>
      <trkpt lat="49.66994" lon="-1.90169">
        <ele>104.071</ele>
      </trkpt>
      <trkpt lat="49.67005" lon="-1.90178">
        <ele>106.298</ele>
      </trkpt>
      <trkpt lat="49.67022" lon="-1.90192">
        <ele>108.686</ele>
      </trkpt>
      <trkpt lat="49.67034" lon="-1.90207">
        <ele>111.776</ele>
      </trkpt>
      <trkpt lat="49.67047" lon="-1.90217">
        <ele>113.685</ele>
      </trkpt>
      <trkpt lat="49.67075" lon="-1.90258">
        <ele>119.687</ele>
      </trkpt>
      <trkpt lat="49.67081" lon="-1.90267">
        <ele>120.503</ele>
      </trkpt>
      <trkpt lat="49.67089" lon="-1.90285">
        <ele>122.862</ele>
      </trkpt>
      <trkpt lat="49.67101" lon="-1.90312">
        <ele>126.23</ele>
      </trkpt>
      <trkpt lat="49.67102" lon="-1.9032">
        <ele>126.313</ele>
      </trkpt>
      <trkpt lat="49.67098" lon="-1.90338">
        <ele>126.401</ele>
      </trkpt>
      <trkpt lat="49.67099" lon="-1.90345">
        <ele>126.88</ele>
      </trkpt>
      <trkpt lat="49.67103" lon="-1.90366">
        <ele>128.368</ele>
      </trkpt>
      <trkpt lat="49.67113" lon="-1.9041">
        <ele>130.797</ele>
      </trkpt>
      <trkpt lat="49.67118" lon="-1.90433">
        <ele>132.689</ele>
      </trkpt>
      <trkpt lat="49.6713" lon="-1.90459">
        <ele>133.995</ele>
      </trkpt>
      <trkpt lat="49.67137" lon="-1.90475">
        <ele>134.334</ele>
      </trkpt>
      <trkpt lat="49.67145" lon="-1.90492">
        <ele>135.488</ele>
      </trkpt>
      <trkpt lat="49.6717" lon="-1.90541">
        <ele>138.406</ele>
      </trkpt>
      <trkpt lat="49.67187" lon="-1.90574">
        <ele>139.475</ele>
      </trkpt>
      <trkpt lat="49.67193" lon="-1.90586">
        <ele>139.948</ele>
      </trkpt>
      <trkpt lat="49.67209" lon="-1.90619">
        <ele>140.277</ele>
      </trkpt>
      <trkpt lat="49.67215" lon="-1.90632">
        <ele>140.756</ele>
      </trkpt>
      <trkpt lat="49.67222" lon="-1.90647">
        <ele>140.999</ele>
      </trkpt>
      <trkpt lat="49.67229" lon="-1.90663">
        <ele>140.747</ele>
      </trkpt>
      <trkpt lat="49.67232" lon="-1.90669">
        <ele>140.68</ele>
      </trkpt>
      <trkpt lat="49.6724" lon="-1.90686">
        <ele>140.807</ele>
      </trkpt>
      <trkpt lat="49.67243" lon="-1.90699">
        <ele>140.893</ele>
      </trkpt>
      <trkpt lat="49.67246" lon="-1.90725">
        <ele>140.028</ele>
      </trkpt>
      <trkpt lat="49.6725" lon="-1.90754">
        <ele>139.008</ele>
      </trkpt>
      <trkpt lat="49.67253" lon="-1.90771">
        <ele>139.089</ele>
      </trkpt>
      <trkpt lat="49.67253" lon="-1.90787">
        <ele>139.067</ele>
      </trkpt>
      <trkpt lat="49.67253" lon="-1.90804">
        <ele>139.007</ele>
      </trkpt>
      <trkpt lat="49.67258" lon="-1.90814">
        <ele>138.781</ele>
      </trkpt>
      <trkpt lat="49.67261" lon="-1.90821">
        <ele>138.66</ele>
      </trkpt>
      <trkpt lat="49.67268" lon="-1.90834">
        <ele>138.661</ele>
      </trkpt>
      <trkpt lat="49.67264" lon="-1.90847">
        <ele>138.745</ele>
      </trkpt>
      <trkpt lat="49.67258" lon="-1.9087">
        <ele>138.689</ele>
      </trkpt>
      <trkpt lat="49.67255" lon="-1.90889">
        <ele>138.005</ele>
      </trkpt>
      <trkpt lat="49.6725" lon="-1.90918">
        <ele>135.925</ele>
      </trkpt>
      <trkpt lat="49.6725" lon="-1.90928">
        <ele>135.208</ele>
      </trkpt>
      <trkpt lat="49.67251" lon="-1.90932">
        <ele>134.945</ele>
      </trkpt>
      <trkpt lat="49.67252" lon="-1.90943">
        <ele>134.257</ele>
      </trkpt>
      <trkpt lat="49.67254" lon="-1.90957">
        <ele>133.867</ele>
      </trkpt>
      <trkpt lat="49.67257" lon="-1.90975">
        <ele>133.678</ele>
      </trkpt>
      <trkpt lat="49.67263" lon="-1.9099">
        <ele>133.771</ele>
      </trkpt>
      <trkpt lat="49.67265" lon="-1.91001">
        <ele>133.555</ele>
      </trkpt>
      <trkpt lat="49.6727" lon="-1.91006">
        <ele>134.056</ele>
      </trkpt>
      <trkpt lat="49.67283" lon="-1.91027">
        <ele>136.106</ele>
      </trkpt>
      <trkpt lat="49.67278" lon="-1.91031">
        <ele>136.504</ele>
      </trkpt>
      <trkpt lat="49.67234" lon="-1.91065">
        <ele>138.746</ele>
      </trkpt>
      <trkpt lat="49.67224" lon="-1.9107">
        <ele>138.578</ele>
      </trkpt>
      <trkpt lat="49.67203" lon="-1.91076">
        <ele>137.496</ele>
      </trkpt>
      <trkpt lat="49.67159" lon="-1.91087">
        <ele>135.547</ele>
      </trkpt>
      <trkpt lat="49.67141" lon="-1.91091">
        <ele>134.439</ele>
      </trkpt>
      <trkpt lat="49.67133" lon="-1.91094">
        <ele>133.947</ele>
      </trkpt>
      <trkpt lat="49.67113" lon="-1.91101">
        <ele>132.778</ele>
      </trkpt>
      <trkpt lat="49.67109" lon="-1.91101">
        <ele>132.648</ele>
      </trkpt>
      <trkpt lat="49.67103" lon="-1.91101">
        <ele>132.736</ele>
      </trkpt>
      <trkpt lat="49.67095" lon="-1.91098">
        <ele>132.816</ele>
      </trkpt>
      <trkpt lat="49.67093" lon="-1.91106">
        <ele>132.941</ele>
      </trkpt>
      <trkpt lat="49.67095" lon="-1.91117">
        <ele>133</ele>
      </trkpt>
      <trkpt lat="49.67098" lon="-1.9113">
        <ele>133</ele>
      </trkpt>
      <trkpt lat="49.67106" lon="-1.91153">
        <ele>132.912</ele>
      </trkpt>
      <trkpt lat="49.67118" lon="-1.91184">
        <ele>132.783</ele>
      </trkpt>
      <trkpt lat="49.67131" lon="-1.91212">
        <ele>132.98</ele>
      </trkpt>
      <trkpt lat="49.67155" lon="-1.91265">
        <ele>133.861</ele>
      </trkpt>
      <trkpt lat="49.67156" lon="-1.91271">
        <ele>133.788</ele>
      </trkpt>
      <trkpt lat="49.67155" lon="-1.9129">
        <ele>133.593</ele>
      </trkpt>
      <trkpt lat="49.67158" lon="-1.91305">
        <ele>133.68</ele>
      </trkpt>
      <trkpt lat="49.67163" lon="-1.91317">
        <ele>133.469</ele>
      </trkpt>
      <trkpt lat="49.67167" lon="-1.91325">
        <ele>133.324</ele>
      </trkpt>
      <trkpt lat="49.67178" lon="-1.91347">
        <ele>133.108</ele>
      </trkpt>
      <trkpt lat="49.67191" lon="-1.91369">
        <ele>132.874</ele>
      </trkpt>
      <trkpt lat="49.67207" lon="-1.91387">
        <ele>133.072</ele>
      </trkpt>
      <trkpt lat="49.67217" lon="-1.91379">
        <ele>133.578</ele>
      </trkpt>
      <trkpt lat="49.67231" lon="-1.91366">
        <ele>134.719</ele>
      </trkpt>
      <trkpt lat="49.67254" lon="-1.91331">
        <ele>135.865</ele>
      </trkpt>
      <trkpt lat="49.67279" lon="-1.91294">
        <ele>136.433</ele>
      </trkpt>
      <trkpt lat="49.67301" lon="-1.91269">
        <ele>137.326</ele>
      </trkpt>
      <trkpt lat="49.67318" lon="-1.91252">
        <ele>137.912</ele>
      </trkpt>
      <trkpt lat="49.67323" lon="-1.9125">
        <ele>137.987</ele>
      </trkpt>
      <trkpt lat="49.67326" lon="-1.91252">
        <ele>137.938</ele>
      </trkpt>
      <trkpt lat="49.67334" lon="-1.91267">
        <ele>137.412</ele>
      </trkpt>
      <trkpt lat="49.6734" lon="-1.91272">
        <ele>137.438</ele>
      </trkpt>
      <trkpt lat="49.67341" lon="-1.91273">
        <ele>137.451</ele>
      </trkpt>
      <trkpt lat="49.67395" lon="-1.91253">
        <ele>139.721</ele>
      </trkpt>
      <trkpt lat="49.67411" lon="-1.91244">
        <ele>139.353</ele>
      </trkpt>
      <trkpt lat="49.67423" lon="-1.91239">
        <ele>138.836</ele>
      </trkpt>
      <trkpt lat="49.67437" lon="-1.91232">
        <ele>137.717</ele>
      </trkpt>
      <trkpt lat="49.67452" lon="-1.91225">
        <ele>136.726</ele>
      </trkpt>
      <trkpt lat="49.67462" lon="-1.91218">
        <ele>136.546</ele>
      </trkpt>
      <trkpt lat="49.67468" lon="-1.91211">
        <ele>136.633</ele>
      </trkpt>
      <trkpt lat="49.67474" lon="-1.91193">
        <ele>137.076</ele>
      </trkpt>
      <trkpt lat="49.67478" lon="-1.9118">
        <ele>137.212</ele>
      </trkpt>
      <trkpt lat="49.67504" lon="-1.91179">
        <ele>138.128</ele>
      </trkpt>
      <trkpt lat="49.67509" lon="-1.9118">
        <ele>138.324</ele>
      </trkpt>
      <trkpt lat="49.6751" lon="-1.91182">
        <ele>138.367</ele>
      </trkpt>
      <trkpt lat="49.67513" lon="-1.91185">
        <ele>138.473</ele>
      </trkpt>
      <trkpt lat="49.67527" lon="-1.91227">
        <ele>139.136</ele>
      </trkpt>
      <trkpt lat="49.67533" lon="-1.91246">
        <ele>140.078</ele>
      </trkpt>
      <trkpt lat="49.67534" lon="-1.9125">
        <ele>140.203</ele>
      </trkpt>
      <trkpt lat="49.6754" lon="-1.91276">
        <ele>139.495</ele>
      </trkpt>
      <trkpt lat="49.67545" lon="-1.91298">
        <ele>138.465</ele>
      </trkpt>
      <trkpt lat="49.67547" lon="-1.91305">
        <ele>138.029</ele>
      </trkpt>
      <trkpt lat="49.67555" lon="-1.91341">
        <ele>136.014</ele>
      </trkpt>
      <trkpt lat="49.67557" lon="-1.91352">
        <ele>136.139</ele>
      </trkpt>
      <trkpt lat="49.67562" lon="-1.91378">
        <ele>135.468</ele>
      </trkpt>
      <trkpt lat="49.67565" lon="-1.91398">
        <ele>134.353</ele>
      </trkpt>
      <trkpt lat="49.67565" lon="-1.91403">
        <ele>134.146</ele>
      </trkpt>
      <trkpt lat="49.67567" lon="-1.91413">
        <ele>133.742</ele>
      </trkpt>
      <trkpt lat="49.67571" lon="-1.91468">
        <ele>134.139</ele>
      </trkpt>
      <trkpt lat="49.67575" lon="-1.91505">
        <ele>133.252</ele>
      </trkpt>
      <trkpt lat="49.67578" lon="-1.91531">
        <ele>132.595</ele>
      </trkpt>
      <trkpt lat="49.67578" lon="-1.91535">
        <ele>132.322</ele>
      </trkpt>
      <trkpt lat="49.67584" lon="-1.91598">
        <ele>129.507</ele>
      </trkpt>
      <trkpt lat="49.67588" lon="-1.91654">
        <ele>129</ele>
      </trkpt>
      <trkpt lat="49.67591" lon="-1.9167">
        <ele>128.931</ele>
      </trkpt>
      <trkpt lat="49.67595" lon="-1.91688">
        <ele>128.365</ele>
      </trkpt>
      <trkpt lat="49.67599" lon="-1.91711">
        <ele>127.602</ele>
      </trkpt>
      <trkpt lat="49.67599" lon="-1.91729">
        <ele>127.546</ele>
      </trkpt>
      <trkpt lat="49.67619" lon="-1.91731">
        <ele>126.702</ele>
      </trkpt>
      <trkpt lat="49.67632" lon="-1.91735">
        <ele>126.239</ele>
      </trkpt>
      <trkpt lat="49.67641" lon="-1.91741">
        <ele>126.141</ele>
      </trkpt>
      <trkpt lat="49.67652" lon="-1.91752">
        <ele>126.451</ele>
      </trkpt>
      <trkpt lat="49.67665" lon="-1.91774">
        <ele>125.409</ele>
      </trkpt>
      <trkpt lat="49.67667" lon="-1.91781">
        <ele>125.024</ele>
      </trkpt>
      <trkpt lat="49.67669" lon="-1.9179">
        <ele>125.051</ele>
      </trkpt>
      <trkpt lat="49.67669" lon="-1.91803">
        <ele>125.008</ele>
      </trkpt>
      <trkpt lat="49.67669" lon="-1.91818">
        <ele>124.956</ele>
      </trkpt>
      <trkpt lat="49.67671" lon="-1.91829">
        <ele>124.868</ele>
      </trkpt>
      <trkpt lat="49.67678" lon="-1.9184">
        <ele>124.827</ele>
      </trkpt>
      <trkpt lat="49.67692" lon="-1.91854">
        <ele>124.829</ele>
      </trkpt>
      <trkpt lat="49.67702" lon="-1.91858">
        <ele>124.608</ele>
      </trkpt>
      <trkpt lat="49.67711" lon="-1.91861">
        <ele>124.391</ele>
      </trkpt>
      <trkpt lat="49.6775" lon="-1.91863">
        <ele>124.147</ele>
      </trkpt>
      <trkpt lat="49.67761" lon="-1.91865">
        <ele>123.44</ele>
      </trkpt>
      <trkpt lat="49.67783" lon="-1.91881">
        <ele>122.334</ele>
      </trkpt>
      <trkpt lat="49.67782" lon="-1.91891">
        <ele>122.782</ele>
      </trkpt>
      <trkpt lat="49.67784" lon="-1.91929">
        <ele>124.36</ele>
      </trkpt>
      <trkpt lat="49.67785" lon="-1.91953">
        <ele>125.259</ele>
      </trkpt>
      <trkpt lat="49.67785" lon="-1.91967">
        <ele>125.188</ele>
      </trkpt>
      <trkpt lat="49.67786" lon="-1.91976">
        <ele>125.207</ele>
      </trkpt>
      <trkpt lat="49.67787" lon="-1.91995">
        <ele>125.555</ele>
      </trkpt>
      <trkpt lat="49.67786" lon="-1.92035">
        <ele>124.924</ele>
      </trkpt>
      <trkpt lat="49.67785" lon="-1.92041">
        <ele>124.869</ele>
      </trkpt>
      <trkpt lat="49.67786" lon="-1.92059">
        <ele>124.538</ele>
      </trkpt>
      <trkpt lat="49.67789" lon="-1.92108">
        <ele>121.216</ele>
      </trkpt>
      <trkpt lat="49.67792" lon="-1.92132">
        <ele>119.868</ele>
      </trkpt>
      <trkpt lat="49.67792" lon="-1.9214">
        <ele>119.417</ele>
      </trkpt>
      <trkpt lat="49.67793" lon="-1.92154">
        <ele>118.067</ele>
      </trkpt>
      <trkpt lat="49.6779" lon="-1.92189">
        <ele>116.67</ele>
      </trkpt>
      <trkpt lat="49.67851" lon="-1.92161">
        <ele>114.846</ele>
      </trkpt>
      <trkpt lat="49.67859" lon="-1.92159">
        <ele>114.649</ele>
      </trkpt>
      <trkpt lat="49.67891" lon="-1.92157">
        <ele>112.594</ele>
      </trkpt>
      <trkpt lat="49.67908" lon="-1.92154">
        <ele>111.91</ele>
      </trkpt>
      <trkpt lat="49.67937" lon="-1.92139">
        <ele>111.267</ele>
      </trkpt>
      <trkpt lat="49.67979" lon="-1.92123">
        <ele>111.472</ele>
      </trkpt>
      <trkpt lat="49.67999" lon="-1.92119">
        <ele>111.184</ele>
      </trkpt>
      <trkpt lat="49.68008" lon="-1.92121">
        <ele>110.81</ele>
      </trkpt>
      <trkpt lat="49.68016" lon="-1.92125">
        <ele>109.924</ele>
      </trkpt>
      <trkpt lat="49.68051" lon="-1.92146">
        <ele>105.076</ele>
      </trkpt>
      <trkpt lat="49.68073" lon="-1.92151">
        <ele>102.245</ele>
      </trkpt>
      <trkpt lat="49.68084" lon="-1.92147">
        <ele>100.574</ele>
      </trkpt>
      <trkpt lat="49.6815" lon="-1.92069">
        <ele>91.262</ele>
      </trkpt>
      <trkpt lat="49.68164" lon="-1.92041">
        <ele>91.109</ele>
      </trkpt>
      <trkpt lat="49.68205" lon="-1.92">
        <ele>95.387</ele>
      </trkpt>
      <trkpt lat="49.68225" lon="-1.91997">
        <ele>96.113</ele>
      </trkpt>
      <trkpt lat="49.6825" lon="-1.91996">
        <ele>96.286</ele>
      </trkpt>
      <trkpt lat="49.68277" lon="-1.91985">
        <ele>98.092</ele>
      </trkpt>
      <trkpt lat="49.68348" lon="-1.91928">
        <ele>102.213</ele>
      </trkpt>
      <trkpt lat="49.68454" lon="-1.9195">
        <ele>100.568</ele>
      </trkpt>
      <trkpt lat="49.68488" lon="-1.91949">
        <ele>100.497</ele>
      </trkpt>
      <trkpt lat="49.6855" lon="-1.91928">
        <ele>105.172</ele>
      </trkpt>
      <trkpt lat="49.6865" lon="-1.91899">
        <ele>109.701</ele>
      </trkpt>
      <trkpt lat="49.68649" lon="-1.91899">
        <ele>109.8</ele>
      </trkpt>
      <trkpt lat="49.68697" lon="-1.91919">
        <ele>103.6</ele>
      </trkpt>
      <trkpt lat="49.68715" lon="-1.91921">
        <ele>102.4</ele>
      </trkpt>
      <trkpt lat="49.68752" lon="-1.91916">
        <ele>101</ele>
      </trkpt>
      <trkpt lat="49.68771" lon="-1.919">
        <ele>101.6</ele>
      </trkpt>
      <trkpt lat="49.68788" lon="-1.91891">
        <ele>102.6</ele>
      </trkpt>
      <trkpt lat="49.68798" lon="-1.91892">
        <ele>103.3</ele>
      </trkpt>
      <trkpt lat="49.68809" lon="-1.91897">
        <ele>103.6</ele>
      </trkpt>
      <trkpt lat="49.68832" lon="-1.91914">
        <ele>104</ele>
      </trkpt>
      <trkpt lat="49.68848" lon="-1.91926">
        <ele>104.5</ele>
      </trkpt>
      <trkpt lat="49.68863" lon="-1.91934">
        <ele>104.8</ele>
      </trkpt>
      <trkpt lat="49.68871" lon="-1.91942">
        <ele>104.5</ele>
      </trkpt>
      <trkpt lat="49.68894" lon="-1.91975">
        <ele>102.6</ele>
      </trkpt>
      <trkpt lat="49.6894" lon="-1.92039">
        <ele>100</ele>
      </trkpt>
      <trkpt lat="49.68981" lon="-1.92078">
        <ele>98.7</ele>
      </trkpt>
      <trkpt lat="49.69009" lon="-1.92106">
        <ele>98</ele>
      </trkpt>
      <trkpt lat="49.69025" lon="-1.92126">
        <ele>97.7</ele>
      </trkpt>
      <trkpt lat="49.69043" lon="-1.92161">
        <ele>97.5</ele>
      </trkpt>
      <trkpt lat="49.69057" lon="-1.922">
        <ele>98.2</ele>
      </trkpt>
      <trkpt lat="49.69073" lon="-1.92244">
        <ele>99</ele>
      </trkpt>
      <trkpt lat="49.69085" lon="-1.92259">
        <ele>100.1</ele>
      </trkpt>
      <trkpt lat="49.69088" lon="-1.92262">
        <ele>100.7</ele>
      </trkpt>
      <trkpt lat="49.69096" lon="-1.92282">
        <ele>102.1</ele>
      </trkpt>
      <trkpt lat="49.6911" lon="-1.92393">
        <ele>102.7</ele>
      </trkpt>
      <trkpt lat="49.69113" lon="-1.92416">
        <ele>102.6</ele>
      </trkpt>
      <trkpt lat="49.69273" lon="-1.92383">
        <ele>124</ele>
      </trkpt>
      <trkpt lat="49.69265" lon="-1.92617">
        <ele>118.9</ele>
      </trkpt>
      <trkpt lat="49.69251" lon="-1.92739">
        <ele>112.842</ele>
      </trkpt>
      <trkpt lat="49.69254" lon="-1.92774">
        <ele>108.937</ele>
      </trkpt>
      <trkpt lat="49.69227" lon="-1.93022">
        <ele>97.412</ele>
      </trkpt>
      <trkpt lat="49.69293" lon="-1.932">
        <ele>102.773</ele>
      </trkpt>
      <trkpt lat="49.69398" lon="-1.93279">
        <ele>111.181</ele>
      </trkpt>
      <trkpt lat="49.6949" lon="-1.93349">
        <ele>111.354</ele>
      </trkpt>
      <trkpt lat="49.69565" lon="-1.93397">
        <ele>105.419</ele>
      </trkpt>
      <trkpt lat="49.69616" lon="-1.9347">
        <ele>104.688</ele>
      </trkpt>
      <trkpt lat="49.69636" lon="-1.9349">
        <ele>104.602</ele>
      </trkpt>
      <trkpt lat="49.69636" lon="-1.93488">
        <ele>104.925</ele>
      </trkpt>
      <trkpt lat="49.69648" lon="-1.93494">
        <ele>104.834</ele>
      </trkpt>
      <trkpt lat="49.69698" lon="-1.93499">
        <ele>102.811</ele>
      </trkpt>
      <trkpt lat="49.69731" lon="-1.93511">
        <ele>100.052</ele>
      </trkpt>
      <trkpt lat="49.69742" lon="-1.93519">
        <ele>98.864</ele>
      </trkpt>
      <trkpt lat="49.6975" lon="-1.93529">
        <ele>98</ele>
      </trkpt>
      <trkpt lat="49.69754" lon="-1.93536">
        <ele>97.525</ele>
      </trkpt>
      <trkpt lat="49.69761" lon="-1.93542">
        <ele>96.609</ele>
      </trkpt>
      <trkpt lat="49.6977" lon="-1.93611">
        <ele>93.683</ele>
      </trkpt>
      <trkpt lat="49.69776" lon="-1.9365">
        <ele>91.894</ele>
      </trkpt>
      <trkpt lat="49.6978" lon="-1.93673">
        <ele>90.372</ele>
      </trkpt>
      <trkpt lat="49.69786" lon="-1.93697">
        <ele>88.39</ele>
      </trkpt>
      <trkpt lat="49.69786" lon="-1.9371">
        <ele>87.732</ele>
      </trkpt>
      <trkpt lat="49.69806" lon="-1.93805">
        <ele>81.008</ele>
      </trkpt>
      <trkpt lat="49.69813" lon="-1.93844">
        <ele>78.889</ele>
      </trkpt>
      <trkpt lat="49.69817" lon="-1.93858">
        <ele>78.022</ele>
      </trkpt>
      <trkpt lat="49.6983" lon="-1.93882">
        <ele>79.332</ele>
      </trkpt>
      <trkpt lat="49.69834" lon="-1.93893">
        <ele>80.152</ele>
      </trkpt>
      <trkpt lat="49.69838" lon="-1.93903">
        <ele>80.593</ele>
      </trkpt>
      <trkpt lat="49.69833" lon="-1.939">
        <ele>80.338</ele>
      </trkpt>
      <trkpt lat="49.69802" lon="-1.9388">
        <ele>75.378</ele>
      </trkpt>
      <trkpt lat="49.69756" lon="-1.93854">
        <ele>68.853</ele>
      </trkpt>
      <trkpt lat="49.69746" lon="-1.93841">
        <ele>67.26</ele>
      </trkpt>
      <trkpt lat="49.6973" lon="-1.93813">
        <ele>63.773</ele>
      </trkpt>
      <trkpt lat="49.6973" lon="-1.93812">
        <ele>64.187</ele>
      </trkpt>
      <trkpt lat="49.69699" lon="-1.93769">
        <ele>59.556</ele>
      </trkpt>
      <trkpt lat="49.69678" lon="-1.93736">
        <ele>58.272</ele>
      </trkpt>
      <trkpt lat="49.69673" lon="-1.93727">
        <ele>57.789</ele>
      </trkpt>
      <trkpt lat="49.69637" lon="-1.93676">
        <ele>52.842</ele>
      </trkpt>
      <trkpt lat="49.69617" lon="-1.93657">
        <ele>51.844</ele>
      </trkpt>
      <trkpt lat="49.69562" lon="-1.9365">
        <ele>42.2</ele>
      </trkpt>
      <trkpt lat="49.69512" lon="-1.93617">
        <ele>40.412</ele>
      </trkpt>
      <trkpt lat="49.69471" lon="-1.9361">
        <ele>37.378</ele>
      </trkpt>
      <trkpt lat="49.69428" lon="-1.93611">
        <ele>34.129</ele>
      </trkpt>
      <trkpt lat="49.69398" lon="-1.93592">
        <ele>31.731</ele>
      </trkpt>
      <trkpt lat="49.69334" lon="-1.93566">
        <ele>32.238</ele>
      </trkpt>
      <trkpt lat="49.69319" lon="-1.9355">
        <ele>33.084</ele>
      </trkpt>
      <trkpt lat="49.69316" lon="-1.93529">
        <ele>35.007</ele>
      </trkpt>
      <trkpt lat="49.69314" lon="-1.93528">
        <ele>34.812</ele>
      </trkpt>
      <trkpt lat="49.69302" lon="-1.93554">
        <ele>30.901</ele>
      </trkpt>
      <trkpt lat="49.69245" lon="-1.93546">
        <ele>27.736</ele>
      </trkpt>
      <trkpt lat="49.69225" lon="-1.93529">
        <ele>28.07</ele>
      </trkpt>
      <trkpt lat="49.69173" lon="-1.93543">
        <ele>24.049</ele>
      </trkpt>
      <trkpt lat="49.69146" lon="-1.93548">
        <ele>21.408</ele>
      </trkpt>
      <trkpt lat="49.6914" lon="-1.93537">
        <ele>22.108</ele>
      </trkpt>
      <trkpt lat="49.69072" lon="-1.93524">
        <ele>16.295</ele>
      </trkpt>
      <trkpt lat="49.69049" lon="-1.93503">
        <ele>15.054</ele>
      </trkpt>
      <trkpt lat="49.69041" lon="-1.93513">
        <ele>13.739</ele>
      </trkpt>
      <trkpt lat="49.69026" lon="-1.93507">
        <ele>12.823</ele>
      </trkpt>
      <trkpt lat="49.69022" lon="-1.93478">
        <ele>14.219</ele>
      </trkpt>
      <trkpt lat="49.69005" lon="-1.93477">
        <ele>15.443</ele>
      </trkpt>
      <trkpt lat="49.69002" lon="-1.93483">
        <ele>15.479</ele>
      </trkpt>
      <trkpt lat="49.68998" lon="-1.93477">
        <ele>16.228</ele>
      </trkpt>
      <trkpt lat="49.68977" lon="-1.9347">
        <ele>21.78</ele>
      </trkpt>
      <trkpt lat="49.6896" lon="-1.93455">
        <ele>26.395</ele>
      </trkpt>
      <trkpt lat="49.68929" lon="-1.93473">
        <ele>31.286</ele>
      </trkpt>
      <trkpt lat="49.68914" lon="-1.9348">
        <ele>33.162</ele>
      </trkpt>
      <trkpt lat="49.68862" lon="-1.93484">
        <ele>39.457</ele>
      </trkpt>
      <trkpt lat="49.68829" lon="-1.93488">
        <ele>40.355</ele>
      </trkpt>
      <trkpt lat="49.68749" lon="-1.93546">
        <ele>36.578</ele>
      </trkpt>
      <trkpt lat="49.68733" lon="-1.93549">
        <ele>38.421</ele>
      </trkpt>
      <trkpt lat="49.68703" lon="-1.93579">
        <ele>39.866</ele>
      </trkpt>
      <trkpt lat="49.6868" lon="-1.9361">
        <ele>39.449</ele>
      </trkpt>
      <trkpt lat="49.68634" lon="-1.93686">
        <ele>32.659</ele>
      </trkpt>
      <trkpt lat="49.68634" lon="-1.93686">
        <ele>32.675</ele>
      </trkpt>
      <trkpt lat="49.68625" lon="-1.93713">
        <ele>29.662</ele>
      </trkpt>
      <trkpt lat="49.68609" lon="-1.93749">
        <ele>25.484</ele>
      </trkpt>
      <trkpt lat="49.68598" lon="-1.93766">
        <ele>21.575</ele>
      </trkpt>
      <trkpt lat="49.68578" lon="-1.93805">
        <ele>18.907</ele>
      </trkpt>
      <trkpt lat="49.68575" lon="-1.9381">
        <ele>18.528</ele>
      </trkpt>
      <trkpt lat="49.68563" lon="-1.93819">
        <ele>18.059</ele>
      </trkpt>
      <trkpt lat="49.68554" lon="-1.93819">
        <ele>18.58</ele>
      </trkpt>
      <trkpt lat="49.68527" lon="-1.9381">
        <ele>18.698</ele>
      </trkpt>
      <trkpt lat="49.68521" lon="-1.93813">
        <ele>18.726</ele>
      </trkpt>
      <trkpt lat="49.68516" lon="-1.93821">
        <ele>18.831</ele>
      </trkpt>
      <trkpt lat="49.68518" lon="-1.93838">
        <ele>18.016</ele>
      </trkpt>
      <trkpt lat="49.6851" lon="-1.93835">
        <ele>19.109</ele>
      </trkpt>
      <trkpt lat="49.68503" lon="-1.9383">
        <ele>20.38</ele>
      </trkpt>
      <trkpt lat="49.68496" lon="-1.93818">
        <ele>20.844</ele>
      </trkpt>
      <trkpt lat="49.68489" lon="-1.93813">
        <ele>21.573</ele>
      </trkpt>
      <trkpt lat="49.68481" lon="-1.93812">
        <ele>22.786</ele>
      </trkpt>
      <trkpt lat="49.68466" lon="-1.93802">
        <ele>22.377</ele>
      </trkpt>
      <trkpt lat="49.68454" lon="-1.938">
        <ele>23.374</ele>
      </trkpt>
      <trkpt lat="49.68437" lon="-1.93804">
        <ele>24.86</ele>
      </trkpt>
      <trkpt lat="49.68402" lon="-1.93816">
        <ele>29.214</ele>
      </trkpt>
      <trkpt lat="49.68379" lon="-1.9383">
        <ele>31.859</ele>
      </trkpt>
      <trkpt lat="49.68365" lon="-1.9383">
        <ele>33.754</ele>
      </trkpt>
      <trkpt lat="49.68356" lon="-1.93828">
        <ele>35.837</ele>
      </trkpt>
      <trkpt lat="49.68351" lon="-1.93823">
        <ele>36.637</ele>
      </trkpt>
      <trkpt lat="49.68317" lon="-1.93786">
        <ele>41.418</ele>
      </trkpt>
      <trkpt lat="49.683" lon="-1.93777">
        <ele>44.038</ele>
      </trkpt>
      <trkpt lat="49.6829" lon="-1.93776">
        <ele>44.212</ele>
      </trkpt>
      <trkpt lat="49.68284" lon="-1.93783">
        <ele>46.238</ele>
      </trkpt>
      <trkpt lat="49.68276" lon="-1.93798">
        <ele>50.591</ele>
      </trkpt>
      <trkpt lat="49.68261" lon="-1.93823">
        <ele>55.501</ele>
      </trkpt>
      <trkpt lat="49.68222" lon="-1.93856">
        <ele>61.163</ele>
      </trkpt>
      <trkpt lat="49.68201" lon="-1.93865">
        <ele>64.219</ele>
      </trkpt>
      <trkpt lat="49.68173" lon="-1.93871">
        <ele>67.17</ele>
      </trkpt>
      <trkpt lat="49.68152" lon="-1.93885">
        <ele>70.108</ele>
      </trkpt>
      <trkpt lat="49.68146" lon="-1.93906">
        <ele>73.804</ele>
      </trkpt>
      <trkpt lat="49.68144" lon="-1.93925">
        <ele>76.734</ele>
      </trkpt>
      <trkpt lat="49.6814" lon="-1.93935">
        <ele>77.901</ele>
      </trkpt>
      <trkpt lat="49.68133" lon="-1.93946">
        <ele>79.56</ele>
      </trkpt>
      <trkpt lat="49.68107" lon="-1.93964">
        <ele>83.313</ele>
      </trkpt>
      <trkpt lat="49.6808" lon="-1.9399">
        <ele>88.914</ele>
      </trkpt>
      <trkpt lat="49.6806" lon="-1.94014">
        <ele>91.782</ele>
      </trkpt>
      <trkpt lat="49.68044" lon="-1.94034">
        <ele>93.888</ele>
      </trkpt>
      <trkpt lat="49.68026" lon="-1.94062">
        <ele>96.827</ele>
      </trkpt>
      <trkpt lat="49.68017" lon="-1.94073">
        <ele>97.347</ele>
      </trkpt>
      <trkpt lat="49.67998" lon="-1.94105">
        <ele>100.056</ele>
      </trkpt>
      <trkpt lat="49.67984" lon="-1.94128">
        <ele>99.379</ele>
      </trkpt>
      <trkpt lat="49.67979" lon="-1.94142">
        <ele>100.023</ele>
      </trkpt>
      <trkpt lat="49.67973" lon="-1.94172">
        <ele>102.252</ele>
      </trkpt>
      <trkpt lat="49.67969" lon="-1.94183">
        <ele>101.728</ele>
      </trkpt>
      <trkpt lat="49.67953" lon="-1.9421">
        <ele>100.138</ele>
      </trkpt>
      <trkpt lat="49.67935" lon="-1.94245">
        <ele>100.799</ele>
      </trkpt>
      <trkpt lat="49.67921" lon="-1.94263">
        <ele>101.615</ele>
      </trkpt>
      <trkpt lat="49.67892" lon="-1.94293">
        <ele>103.167</ele>
      </trkpt>
      <trkpt lat="49.67859" lon="-1.94317">
        <ele>104.152</ele>
      </trkpt>
      <trkpt lat="49.67823" lon="-1.94341">
        <ele>107.116</ele>
      </trkpt>
      <trkpt lat="49.67801" lon="-1.9436">
        <ele>109.315</ele>
      </trkpt>
      <trkpt lat="49.67777" lon="-1.94374">
        <ele>110.085</ele>
      </trkpt>
      <trkpt lat="49.67748" lon="-1.9439">
        <ele>110.032</ele>
      </trkpt>
      <trkpt lat="49.67716" lon="-1.944">
        <ele>110.69</ele>
      </trkpt>
      <trkpt lat="49.67672" lon="-1.94469">
        <ele>112.254</ele>
      </trkpt>
      <trkpt lat="49.67677" lon="-1.94516">
        <ele>108.04</ele>
      </trkpt>
      <trkpt lat="49.67673" lon="-1.94525">
        <ele>107.932</ele>
      </trkpt>
      <trkpt lat="49.67664" lon="-1.94531">
        <ele>107.262</ele>
      </trkpt>
      <trkpt lat="49.67664" lon="-1.9453">
        <ele>107.763</ele>
      </trkpt>
      <trkpt lat="49.67634" lon="-1.94521">
        <ele>107.666</ele>
      </trkpt>
      <trkpt lat="49.67595" lon="-1.94504">
        <ele>103.152</ele>
      </trkpt>
      <trkpt lat="49.67629" lon="-1.94454">
        <ele>110.724</ele>
      </trkpt>
      <trkpt lat="49.67644" lon="-1.9444">
        <ele>113</ele>
      </trkpt>
      <trkpt lat="49.6766" lon="-1.94419">
        <ele>113</ele>
      </trkpt>
      <trkpt lat="49.67664" lon="-1.94397">
        <ele>112.215</ele>
      </trkpt>
      <trkpt lat="49.67664" lon="-1.94345">
        <ele>111.057</ele>
      </trkpt>
      <trkpt lat="49.6767" lon="-1.94334">
        <ele>110.882</ele>
      </trkpt>
      <trkpt lat="49.67679" lon="-1.94149">
        <ele>109.09</ele>
      </trkpt>
      <trkpt lat="49.67695" lon="-1.94045">
        <ele>110.723</ele>
      </trkpt>
      <trkpt lat="49.6771" lon="-1.93987">
        <ele>111.17</ele>
      </trkpt>
      <trkpt lat="49.67738" lon="-1.93909">
        <ele>110.04</ele>
      </trkpt>
      <trkpt lat="49.67752" lon="-1.93873">
        <ele>109</ele>
      </trkpt>
    </trkseg>
  </trk>
  <trk>
    <name><![CDATA[Saint Marcouf 17,1]]></name>
    <extensions>
      <line xmlns="http://www.topografix.com/GPX/gpx_style/0/2">
        <color>1e00ff</color>
        <width>6</width>
      </line>
    </extensions>
    <trkseg>
      <trkpt lat="49.47248" lon="-1.2905">
        <ele>23</ele>
        <time>2022-06-18T09:24:19Z</time>
      </trkpt>
      <trkpt lat="49.47285" lon="-1.28956">
        <ele>19</ele>
        <time>2022-06-18T09:25:54Z</time>
      </trkpt>
      <trkpt lat="49.47304" lon="-1.28952">
        <ele>18</ele>
        <time>2022-06-18T09:26:20Z</time>
      </trkpt>
      <trkpt lat="49.4732" lon="-1.28958">
        <ele>17</ele>
        <time>2022-06-18T09:26:42Z</time>
      </trkpt>
      <trkpt lat="49.47335" lon="-1.28954">
        <ele>16</ele>
        <time>2022-06-18T09:27:02Z</time>
      </trkpt>
      <trkpt lat="49.47357" lon="-1.28922">
        <ele>14</ele>
        <time>2022-06-18T09:27:43Z</time>
      </trkpt>
      <trkpt lat="49.47369" lon="-1.2892">
        <ele>13</ele>
        <time>2022-06-18T09:27:59Z</time>
      </trkpt>
      <trkpt lat="49.47379" lon="-1.28927">
        <ele>12</ele>
        <time>2022-06-18T09:28:13Z</time>
      </trkpt>
      <trkpt lat="49.47414" lon="-1.2896">
        <ele>11</ele>
        <time>2022-06-18T09:29:08Z</time>
      </trkpt>
      <trkpt lat="49.47441" lon="-1.28994">
        <ele>11</ele>
        <time>2022-06-18T09:29:55Z</time>
      </trkpt>
      <trkpt lat="49.47479" lon="-1.2902">
        <ele>11</ele>
        <time>2022-06-18T09:30:50Z</time>
      </trkpt>
      <trkpt lat="49.475" lon="-1.2903">
        <ele>11</ele>
        <time>2022-06-18T09:31:20Z</time>
      </trkpt>
      <trkpt lat="49.47522" lon="-1.29027">
        <ele>11</ele>
        <time>2022-06-18T09:31:49Z</time>
      </trkpt>
      <trkpt lat="49.47568" lon="-1.28999">
        <ele>8</ele>
        <time>2022-06-18T09:32:55Z</time>
      </trkpt>
      <trkpt lat="49.47609" lon="-1.28983">
        <ele>7</ele>
        <time>2022-06-18T09:33:51Z</time>
      </trkpt>
      <trkpt lat="49.47631" lon="-1.28984">
        <ele>7</ele>
        <time>2022-06-18T09:34:21Z</time>
      </trkpt>
      <trkpt lat="49.47651" lon="-1.28982">
        <ele>7</ele>
        <time>2022-06-18T09:34:48Z</time>
      </trkpt>
      <trkpt lat="49.47677" lon="-1.28977">
        <ele>6</ele>
        <time>2022-06-18T09:35:23Z</time>
      </trkpt>
      <trkpt lat="49.47721" lon="-1.28981">
        <ele>5</ele>
        <time>2022-06-18T09:36:21Z</time>
      </trkpt>
      <trkpt lat="49.4774" lon="-1.28987">
        <ele>5</ele>
        <time>2022-06-18T09:36:47Z</time>
      </trkpt>
      <trkpt lat="49.47764" lon="-1.28992">
        <ele>5</ele>
        <time>2022-06-18T09:37:20Z</time>
      </trkpt>
      <trkpt lat="49.47779" lon="-1.28998">
        <ele>5</ele>
        <time>2022-06-18T09:37:40Z</time>
      </trkpt>
      <trkpt lat="49.47798" lon="-1.29002">
        <ele>4</ele>
        <time>2022-06-18T09:38:06Z</time>
      </trkpt>
      <trkpt lat="49.47813" lon="-1.29007">
        <ele>4</ele>
        <time>2022-06-18T09:38:26Z</time>
      </trkpt>
      <trkpt lat="49.47836" lon="-1.29018">
        <ele>4</ele>
        <time>2022-06-18T09:38:58Z</time>
      </trkpt>
      <trkpt lat="49.47873" lon="-1.29025">
        <ele>4</ele>
        <time>2022-06-18T09:39:48Z</time>
      </trkpt>
      <trkpt lat="49.47877" lon="-1.29023">
        <ele>4</ele>
        <time>2022-06-18T09:39:54Z</time>
      </trkpt>
      <trkpt lat="49.47895" lon="-1.29026">
        <ele>4</ele>
        <time>2022-06-18T09:40:18Z</time>
      </trkpt>
      <trkpt lat="49.47972" lon="-1.29077">
        <ele>4</ele>
        <time>2022-06-18T09:42:10Z</time>
      </trkpt>
      <trkpt lat="49.47989" lon="-1.29093">
        <ele>4</ele>
        <time>2022-06-18T09:42:36Z</time>
      </trkpt>
      <trkpt lat="49.48041" lon="-1.2915">
        <ele>5</ele>
        <time>2022-06-18T09:44:02Z</time>
      </trkpt>
      <trkpt lat="49.48044" lon="-1.2916">
        <ele>5</ele>
        <time>2022-06-18T09:44:11Z</time>
      </trkpt>
      <trkpt lat="49.48074" lon="-1.29169">
        <ele>5</ele>
        <time>2022-06-18T09:44:52Z</time>
      </trkpt>
      <trkpt lat="49.48075" lon="-1.29172">
        <ele>5</ele>
        <time>2022-06-18T09:44:55Z</time>
      </trkpt>
      <trkpt lat="49.48072" lon="-1.29192">
        <ele>5</ele>
        <time>2022-06-18T09:45:13Z</time>
      </trkpt>
      <trkpt lat="49.48042" lon="-1.29277">
        <ele>7</ele>
        <time>2022-06-18T09:46:37Z</time>
      </trkpt>
      <trkpt lat="49.47974" lon="-1.29449">
        <ele>20</ele>
        <time>2022-06-18T09:49:31Z</time>
      </trkpt>
      <trkpt lat="49.47937" lon="-1.29527">
        <ele>24</ele>
        <time>2022-06-18T09:50:55Z</time>
      </trkpt>
      <trkpt lat="49.47962" lon="-1.29551">
        <ele>24</ele>
        <time>2022-06-18T09:51:34Z</time>
      </trkpt>
      <trkpt lat="49.47974" lon="-1.29557">
        <ele>24</ele>
        <time>2022-06-18T09:51:51Z</time>
      </trkpt>
      <trkpt lat="49.47993" lon="-1.29573">
        <ele>24</ele>
        <time>2022-06-18T09:52:20Z</time>
      </trkpt>
      <trkpt lat="49.48009" lon="-1.29589">
        <ele>24</ele>
        <time>2022-06-18T09:52:45Z</time>
      </trkpt>
      <trkpt lat="49.4803" lon="-1.29605">
        <ele>23</ele>
        <time>2022-06-18T09:53:17Z</time>
      </trkpt>
      <trkpt lat="49.48077" lon="-1.29637">
        <ele>22</ele>
        <time>2022-06-18T09:54:25Z</time>
      </trkpt>
      <trkpt lat="49.48092" lon="-1.29649">
        <ele>21</ele>
        <time>2022-06-18T09:54:48Z</time>
      </trkpt>
      <trkpt lat="49.48151" lon="-1.29687">
        <ele>15</ele>
        <time>2022-06-18T09:56:13Z</time>
      </trkpt>
      <trkpt lat="49.48238" lon="-1.29735">
        <ele>12</ele>
        <time>2022-06-18T09:58:16Z</time>
      </trkpt>
      <trkpt lat="49.48271" lon="-1.29721">
        <ele>11</ele>
        <time>2022-06-18T09:59:02Z</time>
      </trkpt>
      <trkpt lat="49.48286" lon="-1.29728">
        <ele>11</ele>
        <time>2022-06-18T09:59:23Z</time>
      </trkpt>
      <trkpt lat="49.48312" lon="-1.29756">
        <ele>12</ele>
        <time>2022-06-18T10:00:05Z</time>
      </trkpt>
      <trkpt lat="49.48337" lon="-1.29778">
        <ele>13</ele>
        <time>2022-06-18T10:00:44Z</time>
      </trkpt>
      <trkpt lat="49.48356" lon="-1.29801">
        <ele>14</ele>
        <time>2022-06-18T10:01:16Z</time>
      </trkpt>
      <trkpt lat="49.4838" lon="-1.29821">
        <ele>15</ele>
        <time>2022-06-18T10:01:52Z</time>
      </trkpt>
      <trkpt lat="49.48422" lon="-1.29852">
        <ele>16</ele>
        <time>2022-06-18T10:02:55Z</time>
      </trkpt>
      <trkpt lat="49.48436" lon="-1.29879">
        <ele>17</ele>
        <time>2022-06-18T10:03:25Z</time>
      </trkpt>
      <trkpt lat="49.48452" lon="-1.29905">
        <ele>17</ele>
        <time>2022-06-18T10:03:56Z</time>
      </trkpt>
      <trkpt lat="49.48466" lon="-1.2994">
        <ele>18</ele>
        <time>2022-06-18T10:04:31Z</time>
      </trkpt>
      <trkpt lat="49.48474" lon="-1.29955">
        <ele>18</ele>
        <time>2022-06-18T10:04:48Z</time>
      </trkpt>
      <trkpt lat="49.4849" lon="-1.29981">
        <ele>18</ele>
        <time>2022-06-18T10:05:19Z</time>
      </trkpt>
      <trkpt lat="49.48499" lon="-1.30007">
        <ele>19</ele>
        <time>2022-06-18T10:05:45Z</time>
      </trkpt>
      <trkpt lat="49.48501" lon="-1.30033">
        <ele>20</ele>
        <time>2022-06-18T10:06:07Z</time>
      </trkpt>
      <trkpt lat="49.48545" lon="-1.30097">
        <ele>21</ele>
        <time>2022-06-18T10:07:28Z</time>
      </trkpt>
      <trkpt lat="49.48622" lon="-1.3019">
        <ele>23</ele>
        <time>2022-06-18T10:09:39Z</time>
      </trkpt>
      <trkpt lat="49.48624" lon="-1.30196">
        <ele>23</ele>
        <time>2022-06-18T10:09:45Z</time>
      </trkpt>
      <trkpt lat="49.4862" lon="-1.30219">
        <ele>24</ele>
        <time>2022-06-18T10:10:05Z</time>
      </trkpt>
      <trkpt lat="49.48612" lon="-1.30249">
        <ele>25</ele>
        <time>2022-06-18T10:10:33Z</time>
      </trkpt>
      <trkpt lat="49.48603" lon="-1.30273">
        <ele>25</ele>
        <time>2022-06-18T10:10:57Z</time>
      </trkpt>
      <trkpt lat="49.48579" lon="-1.30322">
        <ele>27</ele>
        <time>2022-06-18T10:11:51Z</time>
      </trkpt>
      <trkpt lat="49.48562" lon="-1.30361">
        <ele>27</ele>
        <time>2022-06-18T10:12:31Z</time>
      </trkpt>
      <trkpt lat="49.48567" lon="-1.30378">
        <ele>27</ele>
        <time>2022-06-18T10:12:47Z</time>
      </trkpt>
      <trkpt lat="49.48584" lon="-1.30398">
        <ele>27</ele>
        <time>2022-06-18T10:13:16Z</time>
      </trkpt>
      <trkpt lat="49.48664" lon="-1.30449">
        <ele>26</ele>
        <time>2022-06-18T10:15:12Z</time>
      </trkpt>
      <trkpt lat="49.48698" lon="-1.3048">
        <ele>26</ele>
        <time>2022-06-18T10:16:04Z</time>
      </trkpt>
      <trkpt lat="49.48754" lon="-1.30545">
        <ele>25</ele>
        <time>2022-06-18T10:17:38Z</time>
      </trkpt>
      <trkpt lat="49.48773" lon="-1.30579">
        <ele>26</ele>
        <time>2022-06-18T10:18:17Z</time>
      </trkpt>
      <trkpt lat="49.4879" lon="-1.30629">
        <ele>26</ele>
        <time>2022-06-18T10:19:06Z</time>
      </trkpt>
      <trkpt lat="49.48815" lon="-1.30715">
        <ele>26</ele>
        <time>2022-06-18T10:20:27Z</time>
      </trkpt>
      <trkpt lat="49.48841" lon="-1.30791">
        <ele>27</ele>
        <time>2022-06-18T10:21:42Z</time>
      </trkpt>
      <trkpt lat="49.48859" lon="-1.30853">
        <ele>27</ele>
        <time>2022-06-18T10:22:41Z</time>
      </trkpt>
      <trkpt lat="49.48876" lon="-1.30968">
        <ele>26</ele>
        <time>2022-06-18T10:24:23Z</time>
      </trkpt>
      <trkpt lat="49.48884" lon="-1.31007">
        <ele>26</ele>
        <time>2022-06-18T10:24:58Z</time>
      </trkpt>
      <trkpt lat="49.489" lon="-1.31069">
        <ele>25</ele>
        <time>2022-06-18T10:25:56Z</time>
      </trkpt>
      <trkpt lat="49.48904" lon="-1.31076">
        <ele>25</ele>
        <time>2022-06-18T10:26:04Z</time>
      </trkpt>
      <trkpt lat="49.48925" lon="-1.31102">
        <ele>25</ele>
        <time>2022-06-18T10:26:40Z</time>
      </trkpt>
      <trkpt lat="49.48941" lon="-1.31119">
        <ele>26</ele>
        <time>2022-06-18T10:27:06Z</time>
      </trkpt>
      <trkpt lat="49.48959" lon="-1.31142">
        <ele>26</ele>
        <time>2022-06-18T10:27:37Z</time>
      </trkpt>
      <trkpt lat="49.48965" lon="-1.31176">
        <ele>26</ele>
        <time>2022-06-18T10:28:08Z</time>
      </trkpt>
      <trkpt lat="49.48961" lon="-1.31204">
        <ele>26</ele>
        <time>2022-06-18T10:28:33Z</time>
      </trkpt>
      <trkpt lat="49.48939" lon="-1.31318">
        <ele>27</ele>
        <time>2022-06-18T10:30:16Z</time>
      </trkpt>
      <trkpt lat="49.4896" lon="-1.31334">
        <ele>26</ele>
        <time>2022-06-18T10:30:47Z</time>
      </trkpt>
      <trkpt lat="49.48981" lon="-1.31354">
        <ele>26</ele>
        <time>2022-06-18T10:31:20Z</time>
      </trkpt>
      <trkpt lat="49.48988" lon="-1.31364">
        <ele>26</ele>
        <time>2022-06-18T10:31:33Z</time>
      </trkpt>
      <trkpt lat="49.49003" lon="-1.31402">
        <ele>27</ele>
        <time>2022-06-18T10:32:11Z</time>
      </trkpt>
      <trkpt lat="49.49006" lon="-1.31405">
        <ele>27</ele>
        <time>2022-06-18T10:32:16Z</time>
      </trkpt>
      <trkpt lat="49.4902" lon="-1.31504">
        <ele>26</ele>
        <time>2022-06-18T10:33:44Z</time>
      </trkpt>
      <trkpt lat="49.49032" lon="-1.31533">
        <ele>27</ele>
        <time>2022-06-18T10:34:14Z</time>
      </trkpt>
      <trkpt lat="49.49056" lon="-1.31609">
        <ele>28</ele>
        <time>2022-06-18T10:35:27Z</time>
      </trkpt>
      <trkpt lat="49.49066" lon="-1.31635">
        <ele>28</ele>
        <time>2022-06-18T10:35:53Z</time>
      </trkpt>
      <trkpt lat="49.49079" lon="-1.3166">
        <ele>29</ele>
        <time>2022-06-18T10:36:21Z</time>
      </trkpt>
      <trkpt lat="49.49093" lon="-1.31696">
        <ele>29</ele>
        <time>2022-06-18T10:36:57Z</time>
      </trkpt>
      <trkpt lat="49.49096" lon="-1.3172">
        <ele>29</ele>
        <time>2022-06-18T10:37:19Z</time>
      </trkpt>
      <trkpt lat="49.49103" lon="-1.31736">
        <ele>28</ele>
        <time>2022-06-18T10:37:35Z</time>
      </trkpt>
      <trkpt lat="49.49103" lon="-1.31743">
        <ele>28</ele>
        <time>2022-06-18T10:37:41Z</time>
      </trkpt>
      <trkpt lat="49.49091" lon="-1.31756">
        <ele>28</ele>
        <time>2022-06-18T10:38:01Z</time>
      </trkpt>
      <trkpt lat="49.49069" lon="-1.3177">
        <ele>28</ele>
        <time>2022-06-18T10:38:33Z</time>
      </trkpt>
      <trkpt lat="49.49065" lon="-1.31776">
        <ele>28</ele>
        <time>2022-06-18T10:38:40Z</time>
      </trkpt>
      <trkpt lat="49.49069" lon="-1.31797">
        <ele>28</ele>
        <time>2022-06-18T10:38:59Z</time>
      </trkpt>
      <trkpt lat="49.49096" lon="-1.3184">
        <ele>28</ele>
        <time>2022-06-18T10:39:51Z</time>
      </trkpt>
      <trkpt lat="49.49106" lon="-1.31863">
        <ele>28</ele>
        <time>2022-06-18T10:40:15Z</time>
      </trkpt>
      <trkpt lat="49.49123" lon="-1.3189">
        <ele>28</ele>
        <time>2022-06-18T10:40:48Z</time>
      </trkpt>
      <trkpt lat="49.492" lon="-1.32036">
        <ele>28</ele>
        <time>2022-06-18T10:43:31Z</time>
      </trkpt>
      <trkpt lat="49.49218" lon="-1.32062">
        <ele>28</ele>
        <time>2022-06-18T10:44:04Z</time>
      </trkpt>
      <trkpt lat="49.49222" lon="-1.3209">
        <ele>28</ele>
        <time>2022-06-18T10:44:28Z</time>
      </trkpt>
      <trkpt lat="49.49231" lon="-1.32126">
        <ele>29</ele>
        <time>2022-06-18T10:45:02Z</time>
      </trkpt>
      <trkpt lat="49.49239" lon="-1.3218">
        <ele>30</ele>
        <time>2022-06-18T10:45:50Z</time>
      </trkpt>
      <trkpt lat="49.49246" lon="-1.32206">
        <ele>30</ele>
        <time>2022-06-18T10:46:14Z</time>
      </trkpt>
      <trkpt lat="49.49283" lon="-1.32334">
        <ele>32</ele>
        <time>2022-06-18T10:48:16Z</time>
      </trkpt>
      <trkpt lat="49.49295" lon="-1.32363">
        <ele>33</ele>
        <time>2022-06-18T10:48:45Z</time>
      </trkpt>
      <trkpt lat="49.49322" lon="-1.3245">
        <ele>34</ele>
        <time>2022-06-18T10:50:09Z</time>
      </trkpt>
      <trkpt lat="49.49336" lon="-1.32487">
        <ele>35</ele>
        <time>2022-06-18T10:50:46Z</time>
      </trkpt>
      <trkpt lat="49.49347" lon="-1.32524">
        <ele>36</ele>
        <time>2022-06-18T10:51:21Z</time>
      </trkpt>
      <trkpt lat="49.49357" lon="-1.32549">
        <ele>36</ele>
        <time>2022-06-18T10:51:47Z</time>
      </trkpt>
      <trkpt lat="49.49363" lon="-1.32569">
        <ele>36</ele>
        <time>2022-06-18T10:52:06Z</time>
      </trkpt>
      <trkpt lat="49.4937" lon="-1.32601">
        <ele>36</ele>
        <time>2022-06-18T10:52:35Z</time>
      </trkpt>
      <trkpt lat="49.49378" lon="-1.32626">
        <ele>37</ele>
        <time>2022-06-18T10:52:59Z</time>
      </trkpt>
      <trkpt lat="49.49385" lon="-1.32655">
        <ele>37</ele>
        <time>2022-06-18T10:53:26Z</time>
      </trkpt>
      <trkpt lat="49.49399" lon="-1.32727">
        <ele>38</ele>
        <time>2022-06-18T10:54:31Z</time>
      </trkpt>
      <trkpt lat="49.49426" lon="-1.32734">
        <ele>39</ele>
        <time>2022-06-18T10:55:08Z</time>
      </trkpt>
      <trkpt lat="49.49439" lon="-1.32796">
        <ele>39</ele>
        <time>2022-06-18T10:56:04Z</time>
      </trkpt>
      <trkpt lat="49.49451" lon="-1.32881">
        <ele>39</ele>
        <time>2022-06-18T10:57:20Z</time>
      </trkpt>
      <trkpt lat="49.49466" lon="-1.32914">
        <ele>38</ele>
        <time>2022-06-18T10:57:55Z</time>
      </trkpt>
      <trkpt lat="49.49471" lon="-1.32953">
        <ele>37</ele>
        <time>2022-06-18T10:58:29Z</time>
      </trkpt>
      <trkpt lat="49.49482" lon="-1.33006">
        <ele>37</ele>
        <time>2022-06-18T10:59:17Z</time>
      </trkpt>
      <trkpt lat="49.49483" lon="-1.33047">
        <ele>36</ele>
        <time>2022-06-18T10:59:53Z</time>
      </trkpt>
      <trkpt lat="49.4948" lon="-1.33083">
        <ele>35</ele>
        <time>2022-06-18T11:00:24Z</time>
      </trkpt>
      <trkpt lat="49.49475" lon="-1.33114">
        <ele>34</ele>
        <time>2022-06-18T11:00:52Z</time>
      </trkpt>
      <trkpt lat="49.49458" lon="-1.33133">
        <ele>33</ele>
        <time>2022-06-18T11:01:20Z</time>
      </trkpt>
      <trkpt lat="49.4944" lon="-1.33137">
        <ele>33</ele>
        <time>2022-06-18T11:01:44Z</time>
      </trkpt>
      <trkpt lat="49.49427" lon="-1.33138">
        <ele>33</ele>
        <time>2022-06-18T11:02:02Z</time>
      </trkpt>
      <trkpt lat="49.49388" lon="-1.33149">
        <ele>32</ele>
        <time>2022-06-18T11:02:55Z</time>
      </trkpt>
      <trkpt lat="49.49367" lon="-1.33156">
        <ele>32</ele>
        <time>2022-06-18T11:03:23Z</time>
      </trkpt>
      <trkpt lat="49.49317" lon="-1.33178">
        <ele>30</ele>
        <time>2022-06-18T11:04:33Z</time>
      </trkpt>
      <trkpt lat="49.49254" lon="-1.33203">
        <ele>30</ele>
        <time>2022-06-18T11:06:00Z</time>
      </trkpt>
      <trkpt lat="49.49229" lon="-1.3321">
        <ele>30</ele>
        <time>2022-06-18T11:06:33Z</time>
      </trkpt>
      <trkpt lat="49.49203" lon="-1.33215">
        <ele>30</ele>
        <time>2022-06-18T11:07:08Z</time>
      </trkpt>
      <trkpt lat="49.49179" lon="-1.33219">
        <ele>30</ele>
        <time>2022-06-18T11:07:41Z</time>
      </trkpt>
      <trkpt lat="49.49152" lon="-1.33221">
        <ele>30</ele>
        <time>2022-06-18T11:08:17Z</time>
      </trkpt>
      <trkpt lat="49.49077" lon="-1.33206">
        <ele>29</ele>
        <time>2022-06-18T11:09:58Z</time>
      </trkpt>
      <trkpt lat="49.49073" lon="-1.33207">
        <ele>29</ele>
        <time>2022-06-18T11:10:03Z</time>
      </trkpt>
      <trkpt lat="49.4906" lon="-1.33241">
        <ele>28</ele>
        <time>2022-06-18T11:10:37Z</time>
      </trkpt>
      <trkpt lat="49.49045" lon="-1.33256">
        <ele>28</ele>
        <time>2022-06-18T11:11:01Z</time>
      </trkpt>
      <trkpt lat="49.49033" lon="-1.33279">
        <ele>27</ele>
        <time>2022-06-18T11:11:27Z</time>
      </trkpt>
      <trkpt lat="49.49025" lon="-1.33317">
        <ele>26</ele>
        <time>2022-06-18T11:12:01Z</time>
      </trkpt>
      <trkpt lat="49.48987" lon="-1.33307">
        <ele>25</ele>
        <time>2022-06-18T11:12:53Z</time>
      </trkpt>
      <trkpt lat="49.48998" lon="-1.33228">
        <ele>26</ele>
        <time>2022-06-18T11:14:03Z</time>
      </trkpt>
      <trkpt lat="49.48873" lon="-1.33162">
        <ele>22</ele>
        <time>2022-06-18T11:16:59Z</time>
      </trkpt>
      <trkpt lat="49.48852" lon="-1.33148">
        <ele>21</ele>
        <time>2022-06-18T11:17:30Z</time>
      </trkpt>
      <trkpt lat="49.48847" lon="-1.33143">
        <ele>21</ele>
        <time>2022-06-18T11:17:38Z</time>
      </trkpt>
      <trkpt lat="49.48755" lon="-1.33091">
        <ele>22</ele>
        <time>2022-06-18T11:19:48Z</time>
      </trkpt>
      <trkpt lat="49.48722" lon="-1.33138">
        <ele>25</ele>
        <time>2022-06-18T11:20:48Z</time>
      </trkpt>
      <trkpt lat="49.48683" lon="-1.33175">
        <ele>27</ele>
        <time>2022-06-18T11:21:50Z</time>
      </trkpt>
      <trkpt lat="49.48663" lon="-1.3319">
        <ele>29</ele>
        <time>2022-06-18T11:22:19Z</time>
      </trkpt>
      <trkpt lat="49.48574" lon="-1.33244">
        <ele>30</ele>
        <time>2022-06-18T11:24:27Z</time>
      </trkpt>
      <trkpt lat="49.48555" lon="-1.33263">
        <ele>30</ele>
        <time>2022-06-18T11:24:57Z</time>
      </trkpt>
      <trkpt lat="49.48532" lon="-1.33278">
        <ele>30</ele>
        <time>2022-06-18T11:25:30Z</time>
      </trkpt>
      <trkpt lat="49.48523" lon="-1.33282">
        <ele>30</ele>
        <time>2022-06-18T11:25:43Z</time>
      </trkpt>
      <trkpt lat="49.48408" lon="-1.33352">
        <ele>29</ele>
        <time>2022-06-18T11:28:28Z</time>
      </trkpt>
      <trkpt lat="49.48387" lon="-1.3337">
        <ele>28</ele>
        <time>2022-06-18T11:29:00Z</time>
      </trkpt>
      <trkpt lat="49.48248" lon="-1.33506">
        <ele>25</ele>
        <time>2022-06-18T11:32:40Z</time>
      </trkpt>
      <trkpt lat="49.48182" lon="-1.33583">
        <ele>24</ele>
        <time>2022-06-18T11:34:30Z</time>
      </trkpt>
      <trkpt lat="49.48172" lon="-1.33601">
        <ele>23</ele>
        <time>2022-06-18T11:34:51Z</time>
      </trkpt>
      <trkpt lat="49.48154" lon="-1.33625">
        <ele>23</ele>
        <time>2022-06-18T11:35:23Z</time>
      </trkpt>
      <trkpt lat="49.48144" lon="-1.33643">
        <ele>23</ele>
        <time>2022-06-18T11:35:43Z</time>
      </trkpt>
      <trkpt lat="49.48078" lon="-1.33788">
        <ele>22</ele>
        <time>2022-06-18T11:38:17Z</time>
      </trkpt>
      <trkpt lat="49.48052" lon="-1.3383">
        <ele>23</ele>
        <time>2022-06-18T11:39:07Z</time>
      </trkpt>
      <trkpt lat="49.48028" lon="-1.33833">
        <ele>22</ele>
        <time>2022-06-18T11:39:39Z</time>
      </trkpt>
      <trkpt lat="49.48012" lon="-1.33848">
        <ele>22</ele>
        <time>2022-06-18T11:40:04Z</time>
      </trkpt>
      <trkpt lat="49.4798" lon="-1.33894">
        <ele>21</ele>
        <time>2022-06-18T11:41:03Z</time>
      </trkpt>
      <trkpt lat="49.47924" lon="-1.34022">
        <ele>17</ele>
        <time>2022-06-18T11:43:16Z</time>
      </trkpt>
      <trkpt lat="49.47885" lon="-1.34093">
        <ele>18</ele>
        <time>2022-06-18T11:44:37Z</time>
      </trkpt>
      <trkpt lat="49.4788" lon="-1.34153">
        <ele>19</ele>
        <time>2022-06-18T11:45:29Z</time>
      </trkpt>
      <trkpt lat="49.47869" lon="-1.34176">
        <ele>19</ele>
        <time>2022-06-18T11:45:54Z</time>
      </trkpt>
      <trkpt lat="49.47862" lon="-1.34155">
        <ele>19</ele>
        <time>2022-06-18T11:46:15Z</time>
      </trkpt>
      <trkpt lat="49.47824" lon="-1.34115">
        <ele>20</ele>
        <time>2022-06-18T11:47:16Z</time>
      </trkpt>
      <trkpt lat="49.47824" lon="-1.34112">
        <ele>20</ele>
        <time>2022-06-18T11:47:19Z</time>
      </trkpt>
      <trkpt lat="49.47814" lon="-1.3409">
        <ele>21</ele>
        <time>2022-06-18T11:47:42Z</time>
      </trkpt>
      <trkpt lat="49.47767" lon="-1.33961">
        <ele>24</ele>
        <time>2022-06-18T11:49:50Z</time>
      </trkpt>
      <trkpt lat="49.47757" lon="-1.33928">
        <ele>25</ele>
        <time>2022-06-18T11:50:22Z</time>
      </trkpt>
      <trkpt lat="49.47747" lon="-1.33884">
        <ele>25</ele>
        <time>2022-06-18T11:51:02Z</time>
      </trkpt>
      <trkpt lat="49.47749" lon="-1.33839">
        <ele>25</ele>
        <time>2022-06-18T11:51:41Z</time>
      </trkpt>
      <trkpt lat="49.4776" lon="-1.3372">
        <ele>26</ele>
        <time>2022-06-18T11:53:26Z</time>
      </trkpt>
      <trkpt lat="49.47761" lon="-1.33672">
        <ele>26</ele>
        <time>2022-06-18T11:54:07Z</time>
      </trkpt>
      <trkpt lat="49.4776" lon="-1.33635">
        <ele>27</ele>
        <time>2022-06-18T11:54:39Z</time>
      </trkpt>
      <trkpt lat="49.47754" lon="-1.33543">
        <ele>28</ele>
        <time>2022-06-18T11:55:59Z</time>
      </trkpt>
      <trkpt lat="49.47741" lon="-1.33396">
        <ele>28</ele>
        <time>2022-06-18T11:58:08Z</time>
      </trkpt>
      <trkpt lat="49.4774" lon="-1.33371">
        <ele>28</ele>
        <time>2022-06-18T11:58:30Z</time>
      </trkpt>
      <trkpt lat="49.47728" lon="-1.33302">
        <ele>27</ele>
        <time>2022-06-18T11:59:32Z</time>
      </trkpt>
      <trkpt lat="49.47719" lon="-1.33277">
        <ele>27</ele>
        <time>2022-06-18T11:59:57Z</time>
      </trkpt>
      <trkpt lat="49.47684" lon="-1.33198">
        <ele>27</ele>
        <time>2022-06-18T12:01:19Z</time>
      </trkpt>
      <trkpt lat="49.47673" lon="-1.33165">
        <ele>27</ele>
        <time>2022-06-18T12:01:52Z</time>
      </trkpt>
      <trkpt lat="49.4766" lon="-1.33139">
        <ele>27</ele>
        <time>2022-06-18T12:02:20Z</time>
      </trkpt>
      <trkpt lat="49.47635" lon="-1.33123">
        <ele>27</ele>
        <time>2022-06-18T12:02:56Z</time>
      </trkpt>
      <trkpt lat="49.47608" lon="-1.33112">
        <ele>27</ele>
        <time>2022-06-18T12:03:33Z</time>
      </trkpt>
      <trkpt lat="49.47588" lon="-1.33101">
        <ele>27</ele>
        <time>2022-06-18T12:04:02Z</time>
      </trkpt>
      <trkpt lat="49.47568" lon="-1.33096">
        <ele>27</ele>
        <time>2022-06-18T12:04:29Z</time>
      </trkpt>
      <trkpt lat="49.4753" lon="-1.33075">
        <ele>26</ele>
        <time>2022-06-18T12:05:23Z</time>
      </trkpt>
      <trkpt lat="49.47473" lon="-1.33048">
        <ele>25</ele>
        <time>2022-06-18T12:06:42Z</time>
      </trkpt>
      <trkpt lat="49.47446" lon="-1.33033">
        <ele>25</ele>
        <time>2022-06-18T12:07:21Z</time>
      </trkpt>
      <trkpt lat="49.47398" lon="-1.32998">
        <ele>24</ele>
        <time>2022-06-18T12:08:31Z</time>
      </trkpt>
      <trkpt lat="49.47374" lon="-1.32976">
        <ele>23</ele>
        <time>2022-06-18T12:09:09Z</time>
      </trkpt>
      <trkpt lat="49.47368" lon="-1.32966">
        <ele>23</ele>
        <time>2022-06-18T12:09:21Z</time>
      </trkpt>
      <trkpt lat="49.47363" lon="-1.32905">
        <ele>22</ele>
        <time>2022-06-18T12:10:14Z</time>
      </trkpt>
      <trkpt lat="49.47364" lon="-1.32857">
        <ele>22</ele>
        <time>2022-06-18T12:10:56Z</time>
      </trkpt>
      <trkpt lat="49.47358" lon="-1.32678">
        <ele>22</ele>
        <time>2022-06-18T12:13:31Z</time>
      </trkpt>
      <trkpt lat="49.47359" lon="-1.32612">
        <ele>23</ele>
        <time>2022-06-18T12:14:28Z</time>
      </trkpt>
      <trkpt lat="49.47356" lon="-1.32526">
        <ele>23</ele>
        <time>2022-06-18T12:15:43Z</time>
      </trkpt>
      <trkpt lat="49.47348" lon="-1.32427">
        <ele>23</ele>
        <time>2022-06-18T12:17:09Z</time>
      </trkpt>
      <trkpt lat="49.47342" lon="-1.32375">
        <ele>22</ele>
        <time>2022-06-18T12:17:55Z</time>
      </trkpt>
      <trkpt lat="49.47341" lon="-1.32338">
        <ele>22</ele>
        <time>2022-06-18T12:18:27Z</time>
      </trkpt>
      <trkpt lat="49.47337" lon="-1.32308">
        <ele>22</ele>
        <time>2022-06-18T12:18:54Z</time>
      </trkpt>
      <trkpt lat="49.47338" lon="-1.3228">
        <ele>22</ele>
        <time>2022-06-18T12:19:18Z</time>
      </trkpt>
      <trkpt lat="49.47332" lon="-1.32224">
        <ele>22</ele>
        <time>2022-06-18T12:20:07Z</time>
      </trkpt>
      <trkpt lat="49.4733" lon="-1.32189">
        <ele>21</ele>
        <time>2022-06-18T12:20:38Z</time>
      </trkpt>
      <trkpt lat="49.47308" lon="-1.31996">
        <ele>21</ele>
        <time>2022-06-18T12:23:28Z</time>
      </trkpt>
      <trkpt lat="49.47303" lon="-1.31936">
        <ele>21</ele>
        <time>2022-06-18T12:24:20Z</time>
      </trkpt>
      <trkpt lat="49.4729" lon="-1.31836">
        <ele>22</ele>
        <time>2022-06-18T12:25:49Z</time>
      </trkpt>
      <trkpt lat="49.47283" lon="-1.31797">
        <ele>21</ele>
        <time>2022-06-18T12:26:24Z</time>
      </trkpt>
      <trkpt lat="49.47275" lon="-1.31772">
        <ele>21</ele>
        <time>2022-06-18T12:26:48Z</time>
      </trkpt>
      <trkpt lat="49.47261" lon="-1.31708">
        <ele>20</ele>
        <time>2022-06-18T12:27:46Z</time>
      </trkpt>
      <trkpt lat="49.47239" lon="-1.31634">
        <ele>20</ele>
        <time>2022-06-18T12:28:57Z</time>
      </trkpt>
      <trkpt lat="49.47225" lon="-1.31578">
        <ele>19</ele>
        <time>2022-06-18T12:29:49Z</time>
      </trkpt>
      <trkpt lat="49.4722" lon="-1.31535">
        <ele>18</ele>
        <time>2022-06-18T12:30:27Z</time>
      </trkpt>
      <trkpt lat="49.47219" lon="-1.31495">
        <ele>17</ele>
        <time>2022-06-18T12:31:02Z</time>
      </trkpt>
      <trkpt lat="49.4722" lon="-1.31476">
        <ele>17</ele>
        <time>2022-06-18T12:31:18Z</time>
      </trkpt>
      <trkpt lat="49.47229" lon="-1.31441">
        <ele>17</ele>
        <time>2022-06-18T12:31:51Z</time>
      </trkpt>
      <trkpt lat="49.47254" lon="-1.31404">
        <ele>17</ele>
        <time>2022-06-18T12:32:37Z</time>
      </trkpt>
      <trkpt lat="49.47262" lon="-1.31374">
        <ele>17</ele>
        <time>2022-06-18T12:33:05Z</time>
      </trkpt>
      <trkpt lat="49.47263" lon="-1.31347">
        <ele>16</ele>
        <time>2022-06-18T12:33:29Z</time>
      </trkpt>
      <trkpt lat="49.47215" lon="-1.31169">
        <ele>18</ele>
        <time>2022-06-18T12:36:16Z</time>
      </trkpt>
      <trkpt lat="49.47206" lon="-1.31127">
        <ele>18</ele>
        <time>2022-06-18T12:36:54Z</time>
      </trkpt>
      <trkpt lat="49.47202" lon="-1.31052">
        <ele>18</ele>
        <time>2022-06-18T12:37:59Z</time>
      </trkpt>
      <trkpt lat="49.47201" lon="-1.30939">
        <ele>19</ele>
        <time>2022-06-18T12:39:37Z</time>
      </trkpt>
      <trkpt lat="49.47198" lon="-1.30906">
        <ele>19</ele>
        <time>2022-06-18T12:40:06Z</time>
      </trkpt>
      <trkpt lat="49.47198" lon="-1.30844">
        <ele>19</ele>
        <time>2022-06-18T12:41:00Z</time>
      </trkpt>
      <trkpt lat="49.47196" lon="-1.30828">
        <ele>19</ele>
        <time>2022-06-18T12:41:14Z</time>
      </trkpt>
      <trkpt lat="49.47175" lon="-1.30815">
        <ele>18</ele>
        <time>2022-06-18T12:41:44Z</time>
      </trkpt>
      <trkpt lat="49.47155" lon="-1.30806">
        <ele>18</ele>
        <time>2022-06-18T12:42:12Z</time>
      </trkpt>
      <trkpt lat="49.47066" lon="-1.30759">
        <ele>20</ele>
        <time>2022-06-18T12:44:18Z</time>
      </trkpt>
      <trkpt lat="49.47049" lon="-1.30761">
        <ele>20</ele>
        <time>2022-06-18T12:44:41Z</time>
      </trkpt>
      <trkpt lat="49.47023" lon="-1.30774">
        <ele>20</ele>
        <time>2022-06-18T12:45:17Z</time>
      </trkpt>
      <trkpt lat="49.46997" lon="-1.30777">
        <ele>20</ele>
        <time>2022-06-18T12:45:52Z</time>
      </trkpt>
      <trkpt lat="49.4697" lon="-1.30778">
        <ele>20</ele>
        <time>2022-06-18T12:46:28Z</time>
      </trkpt>
      <trkpt lat="49.46868" lon="-1.30773">
        <ele>22</ele>
        <time>2022-06-18T12:48:44Z</time>
      </trkpt>
      <trkpt lat="49.46822" lon="-1.30767">
        <ele>23</ele>
        <time>2022-06-18T12:49:46Z</time>
      </trkpt>
      <trkpt lat="49.46796" lon="-1.3076">
        <ele>23</ele>
        <time>2022-06-18T12:50:21Z</time>
      </trkpt>
      <trkpt lat="49.46767" lon="-1.30744">
        <ele>23</ele>
        <time>2022-06-18T12:51:02Z</time>
      </trkpt>
      <trkpt lat="49.46618" lon="-1.30617">
        <ele>26</ele>
        <time>2022-06-18T12:54:49Z</time>
      </trkpt>
      <trkpt lat="49.46484" lon="-1.30491">
        <ele>28</ele>
        <time>2022-06-18T12:58:19Z</time>
      </trkpt>
      <trkpt lat="49.46357" lon="-1.30339">
        <ele>31</ele>
        <time>2022-06-18T13:01:54Z</time>
      </trkpt>
      <trkpt lat="49.46348" lon="-1.30332">
        <ele>31</ele>
        <time>2022-06-18T13:02:07Z</time>
      </trkpt>
      <trkpt lat="49.46344" lon="-1.30324">
        <ele>31</ele>
        <time>2022-06-18T13:02:16Z</time>
      </trkpt>
      <trkpt lat="49.46321" lon="-1.30308">
        <ele>31</ele>
        <time>2022-06-18T13:02:49Z</time>
      </trkpt>
      <trkpt lat="49.4615" lon="-1.30101">
        <ele>30</ele>
        <time>2022-06-18T13:07:40Z</time>
      </trkpt>
      <trkpt lat="49.46035" lon="-1.29969">
        <ele>30</ele>
        <time>2022-06-18T13:10:51Z</time>
      </trkpt>
      <trkpt lat="49.45975" lon="-1.29873">
        <ele>30</ele>
        <time>2022-06-18T13:12:47Z</time>
      </trkpt>
      <trkpt lat="49.45941" lon="-1.29808">
        <ele>30</ele>
        <time>2022-06-18T13:13:59Z</time>
      </trkpt>
      <trkpt lat="49.45921" lon="-1.29775">
        <ele>29</ele>
        <time>2022-06-18T13:14:38Z</time>
      </trkpt>
      <trkpt lat="49.459" lon="-1.29733">
        <ele>29</ele>
        <time>2022-06-18T13:15:24Z</time>
      </trkpt>
      <trkpt lat="49.45882" lon="-1.29688">
        <ele>28</ele>
        <time>2022-06-18T13:16:10Z</time>
      </trkpt>
      <trkpt lat="49.45852" lon="-1.29582">
        <ele>28</ele>
        <time>2022-06-18T13:17:50Z</time>
      </trkpt>
      <trkpt lat="49.45795" lon="-1.29394">
        <ele>29</ele>
        <time>2022-06-18T13:20:50Z</time>
      </trkpt>
      <trkpt lat="49.45785" lon="-1.29355">
        <ele>29</ele>
        <time>2022-06-18T13:21:27Z</time>
      </trkpt>
      <trkpt lat="49.45766" lon="-1.29293">
        <ele>29</ele>
        <time>2022-06-18T13:22:26Z</time>
      </trkpt>
      <trkpt lat="49.45757" lon="-1.29259">
        <ele>28</ele>
        <time>2022-06-18T13:22:58Z</time>
      </trkpt>
      <trkpt lat="49.45757" lon="-1.29251">
        <ele>28</ele>
        <time>2022-06-18T13:23:05Z</time>
      </trkpt>
      <trkpt lat="49.45748" lon="-1.29221">
        <ele>28</ele>
        <time>2022-06-18T13:23:34Z</time>
      </trkpt>
      <trkpt lat="49.45706" lon="-1.29139">
        <ele>28</ele>
        <time>2022-06-18T13:25:04Z</time>
      </trkpt>
      <trkpt lat="49.45703" lon="-1.29128">
        <ele>28</ele>
        <time>2022-06-18T13:25:14Z</time>
      </trkpt>
      <trkpt lat="49.45703" lon="-1.29125">
        <ele>28</ele>
        <time>2022-06-18T13:25:17Z</time>
      </trkpt>
      <trkpt lat="49.45723" lon="-1.29089">
        <ele>28</ele>
        <time>2022-06-18T13:25:58Z</time>
      </trkpt>
      <trkpt lat="49.45766" lon="-1.29">
        <ele>28</ele>
        <time>2022-06-18T13:27:34Z</time>
      </trkpt>
      <trkpt lat="49.45802" lon="-1.28944">
        <ele>28</ele>
        <time>2022-06-18T13:28:43Z</time>
      </trkpt>
      <trkpt lat="49.45827" lon="-1.28886">
        <ele>27</ele>
        <time>2022-06-18T13:29:43Z</time>
      </trkpt>
      <trkpt lat="49.45929" lon="-1.28725">
        <ele>26</ele>
        <time>2022-06-18T13:32:58Z</time>
      </trkpt>
      <trkpt lat="49.46007" lon="-1.28606">
        <ele>24</ele>
        <time>2022-06-18T13:35:25Z</time>
      </trkpt>
      <trkpt lat="49.46026" lon="-1.28573">
        <ele>24</ele>
        <time>2022-06-18T13:36:03Z</time>
      </trkpt>
      <trkpt lat="49.4603" lon="-1.28571">
        <ele>24</ele>
        <time>2022-06-18T13:36:08Z</time>
      </trkpt>
      <trkpt lat="49.4604" lon="-1.28586">
        <ele>24</ele>
        <time>2022-06-18T13:36:27Z</time>
      </trkpt>
      <trkpt lat="49.4606" lon="-1.28627">
        <ele>23</ele>
        <time>2022-06-18T13:37:12Z</time>
      </trkpt>
      <trkpt lat="49.46085" lon="-1.28672">
        <ele>23</ele>
        <time>2022-06-18T13:38:03Z</time>
      </trkpt>
      <trkpt lat="49.4611" lon="-1.28704">
        <ele>21</ele>
        <time>2022-06-18T13:38:46Z</time>
      </trkpt>
      <trkpt lat="49.46134" lon="-1.28728">
        <ele>20</ele>
        <time>2022-06-18T13:39:24Z</time>
      </trkpt>
      <trkpt lat="49.46173" lon="-1.28793">
        <ele>19</ele>
        <time>2022-06-18T13:40:41Z</time>
      </trkpt>
      <trkpt lat="49.46192" lon="-1.28816">
        <ele>19</ele>
        <time>2022-06-18T13:41:13Z</time>
      </trkpt>
      <trkpt lat="49.46222" lon="-1.28863">
        <ele>19</ele>
        <time>2022-06-18T13:42:11Z</time>
      </trkpt>
      <trkpt lat="49.46238" lon="-1.2889">
        <ele>19</ele>
        <time>2022-06-18T13:42:42Z</time>
      </trkpt>
      <trkpt lat="49.46238" lon="-1.28894">
        <ele>19</ele>
        <time>2022-06-18T13:42:46Z</time>
      </trkpt>
      <trkpt lat="49.46243" lon="-1.28904">
        <ele>20</ele>
        <time>2022-06-18T13:42:57Z</time>
      </trkpt>
      <trkpt lat="49.46258" lon="-1.28929">
        <ele>19</ele>
        <time>2022-06-18T13:43:26Z</time>
      </trkpt>
      <trkpt lat="49.46266" lon="-1.28938">
        <ele>19</ele>
        <time>2022-06-18T13:43:39Z</time>
      </trkpt>
      <trkpt lat="49.46281" lon="-1.28934">
        <ele>18</ele>
        <time>2022-06-18T13:44:00Z</time>
      </trkpt>
      <trkpt lat="49.46303" lon="-1.28903">
        <ele>17</ele>
        <time>2022-06-18T13:44:40Z</time>
      </trkpt>
      <trkpt lat="49.46335" lon="-1.28849">
        <ele>15</ele>
        <time>2022-06-18T13:45:43Z</time>
      </trkpt>
      <trkpt lat="49.46344" lon="-1.2883">
        <ele>14</ele>
        <time>2022-06-18T13:46:03Z</time>
      </trkpt>
      <trkpt lat="49.46381" lon="-1.28781">
        <ele>11</ele>
        <time>2022-06-18T13:47:09Z</time>
      </trkpt>
      <trkpt lat="49.46461" lon="-1.28658">
        <ele>8</ele>
        <time>2022-06-18T13:49:39Z</time>
      </trkpt>
      <trkpt lat="49.46473" lon="-1.28635">
        <ele>7</ele>
        <time>2022-06-18T13:50:05Z</time>
      </trkpt>
      <trkpt lat="49.46507" lon="-1.28581">
        <ele>6</ele>
        <time>2022-06-18T13:51:10Z</time>
      </trkpt>
      <trkpt lat="49.46514" lon="-1.28565">
        <ele>6</ele>
        <time>2022-06-18T13:51:27Z</time>
      </trkpt>
      <trkpt lat="49.46528" lon="-1.28544">
        <ele>6</ele>
        <time>2022-06-18T13:51:53Z</time>
      </trkpt>
      <trkpt lat="49.46552" lon="-1.28501">
        <ele>6</ele>
        <time>2022-06-18T13:52:42Z</time>
      </trkpt>
      <trkpt lat="49.46569" lon="-1.28476">
        <ele>6</ele>
        <time>2022-06-18T13:53:14Z</time>
      </trkpt>
      <trkpt lat="49.46606" lon="-1.28414">
        <ele>6</ele>
        <time>2022-06-18T13:54:27Z</time>
      </trkpt>
      <trkpt lat="49.46612" lon="-1.28397">
        <ele>6</ele>
        <time>2022-06-18T13:54:43Z</time>
      </trkpt>
      <trkpt lat="49.46646" lon="-1.2841">
        <ele>6</ele>
        <time>2022-06-18T13:55:30Z</time>
      </trkpt>
      <trkpt lat="49.46671" lon="-1.28364">
        <ele>5</ele>
        <time>2022-06-18T13:56:22Z</time>
      </trkpt>
      <trkpt lat="49.46681" lon="-1.28331">
        <ele>4</ele>
        <time>2022-06-18T13:56:54Z</time>
      </trkpt>
      <trkpt lat="49.46703" lon="-1.2828">
        <ele>5</ele>
        <time>2022-06-18T13:57:47Z</time>
      </trkpt>
      <trkpt lat="49.46729" lon="-1.28239">
        <ele>4</ele>
        <time>2022-06-18T13:58:36Z</time>
      </trkpt>
      <trkpt lat="49.46764" lon="-1.28207">
        <ele>4</ele>
        <time>2022-06-18T13:59:31Z</time>
      </trkpt>
      <trkpt lat="49.4677" lon="-1.28192">
        <ele>4</ele>
        <time>2022-06-18T13:59:46Z</time>
      </trkpt>
      <trkpt lat="49.46787" lon="-1.28166">
        <ele>4</ele>
        <time>2022-06-18T14:00:18Z</time>
      </trkpt>
      <trkpt lat="49.46843" lon="-1.28101">
        <ele>1</ele>
        <time>2022-06-18T14:01:52Z</time>
      </trkpt>
      <trkpt lat="49.46879" lon="-1.28048">
        <ele>2</ele>
        <time>2022-06-18T14:02:58Z</time>
      </trkpt>
      <trkpt lat="49.46893" lon="-1.28021">
        <ele>2</ele>
        <time>2022-06-18T14:03:28Z</time>
      </trkpt>
      <trkpt lat="49.46906" lon="-1.27991">
        <ele>3</ele>
        <time>2022-06-18T14:03:59Z</time>
      </trkpt>
      <trkpt lat="49.46919" lon="-1.2795">
        <ele>3</ele>
        <time>2022-06-18T14:04:39Z</time>
      </trkpt>
      <trkpt lat="49.46927" lon="-1.27918">
        <ele>3</ele>
        <time>2022-06-18T14:05:09Z</time>
      </trkpt>
      <trkpt lat="49.46944" lon="-1.27819">
        <ele>2</ele>
        <time>2022-06-18T14:06:37Z</time>
      </trkpt>
      <trkpt lat="49.46953" lon="-1.27795">
        <ele>2</ele>
        <time>2022-06-18T14:07:01Z</time>
      </trkpt>
      <trkpt lat="49.46972" lon="-1.27766">
        <ele>1</ele>
        <time>2022-06-18T14:07:37Z</time>
      </trkpt>
      <trkpt lat="49.46999" lon="-1.2769">
        <ele>1</ele>
        <time>2022-06-18T14:08:52Z</time>
      </trkpt>
      <trkpt lat="49.47024" lon="-1.27635">
        <ele>1</ele>
        <time>2022-06-18T14:09:51Z</time>
      </trkpt>
      <trkpt lat="49.47045" lon="-1.27606">
        <ele>2</ele>
        <time>2022-06-18T14:10:28Z</time>
      </trkpt>
      <trkpt lat="49.47102" lon="-1.2755">
        <ele>2</ele>
        <time>2022-06-18T14:11:58Z</time>
      </trkpt>
      <trkpt lat="49.47119" lon="-1.27531">
        <ele>2</ele>
        <time>2022-06-18T14:12:26Z</time>
      </trkpt>
      <trkpt lat="49.47145" lon="-1.27482">
        <ele>2</ele>
        <time>2022-06-18T14:13:21Z</time>
      </trkpt>
      <trkpt lat="49.47149" lon="-1.27477">
        <ele>2</ele>
        <time>2022-06-18T14:13:28Z</time>
      </trkpt>
      <trkpt lat="49.47164" lon="-1.27462">
        <ele>2</ele>
        <time>2022-06-18T14:13:52Z</time>
      </trkpt>
      <trkpt lat="49.47179" lon="-1.27453">
        <ele>1</ele>
        <time>2022-06-18T14:14:14Z</time>
      </trkpt>
      <trkpt lat="49.47184" lon="-1.27459">
        <ele>1</ele>
        <time>2022-06-18T14:14:22Z</time>
      </trkpt>
      <trkpt lat="49.47182" lon="-1.27458">
        <ele>1</ele>
        <time>2022-06-18T14:14:25Z</time>
      </trkpt>
      <trkpt lat="49.47183" lon="-1.27457">
        <ele>1</ele>
        <time>2022-06-18T14:14:26Z</time>
      </trkpt>
      <trkpt lat="49.47184" lon="-1.27459">
        <ele>1</ele>
        <time>2022-06-18T14:14:29Z</time>
      </trkpt>
      <trkpt lat="49.47183" lon="-1.2746">
        <ele>1</ele>
        <time>2022-06-18T14:14:30Z</time>
      </trkpt>
      <trkpt lat="49.47181" lon="-1.27453">
        <ele>1</ele>
        <time>2022-06-18T14:14:37Z</time>
      </trkpt>
      <trkpt lat="49.4722" lon="-1.27421">
        <ele>1</ele>
        <time>2022-06-18T14:15:36Z</time>
      </trkpt>
      <trkpt lat="49.47245" lon="-1.27396">
        <ele>1</ele>
        <time>2022-06-18T14:16:16Z</time>
      </trkpt>
      <trkpt lat="49.47259" lon="-1.27359">
        <ele>2.4</ele>
        <time>2022-06-18T14:16:53Z</time>
      </trkpt>
      <trkpt lat="49.47284" lon="-1.27303">
        <ele>3</ele>
        <time>2022-06-18T14:17:52Z</time>
      </trkpt>
      <trkpt lat="49.47296" lon="-1.27283">
        <ele>3</ele>
        <time>2022-06-18T14:18:15Z</time>
      </trkpt>
      <trkpt lat="49.47321" lon="-1.27253">
        <ele>2.1</ele>
        <time>2022-06-18T14:18:58Z</time>
      </trkpt>
      <trkpt lat="49.47329" lon="-1.27237">
        <ele>2</ele>
        <time>2022-06-18T14:19:15Z</time>
      </trkpt>
      <trkpt lat="49.47331" lon="-1.27237">
        <ele>2</ele>
        <time>2022-06-18T14:19:18Z</time>
      </trkpt>
      <trkpt lat="49.47352" lon="-1.27114">
        <ele>1</ele>
        <time>2022-06-18T14:21:08Z</time>
      </trkpt>
      <trkpt lat="49.4736" lon="-1.27077">
        <ele>1</ele>
        <time>2022-06-18T14:21:42Z</time>
      </trkpt>
      <trkpt lat="49.47412" lon="-1.26956">
        <ele>2</ele>
        <time>2022-06-18T14:23:48Z</time>
      </trkpt>
      <trkpt lat="49.47425" lon="-1.26919">
        <ele>2</ele>
        <time>2022-06-18T14:24:24Z</time>
      </trkpt>
      <trkpt lat="49.47433" lon="-1.26875">
        <ele>1</ele>
        <time>2022-06-18T14:25:04Z</time>
      </trkpt>
      <trkpt lat="49.47434" lon="-1.26844">
        <ele>1</ele>
        <time>2022-06-18T14:25:31Z</time>
      </trkpt>
      <trkpt lat="49.4744" lon="-1.26809">
        <ele>1</ele>
        <time>2022-06-18T14:26:02Z</time>
      </trkpt>
      <trkpt lat="49.47457" lon="-1.26785">
        <ele>2.5</ele>
        <time>2022-06-18T14:26:33Z</time>
      </trkpt>
      <trkpt lat="49.47479" lon="-1.26775">
        <ele>1</ele>
        <time>2022-06-18T14:27:03Z</time>
      </trkpt>
      <trkpt lat="49.47483" lon="-1.26807">
        <ele>1</ele>
        <time>2022-06-18T14:27:32Z</time>
      </trkpt>
      <trkpt lat="49.47475" lon="-1.26894">
        <ele>1</ele>
        <time>2022-06-18T14:28:48Z</time>
      </trkpt>
      <trkpt lat="49.47478" lon="-1.26922">
        <ele>1</ele>
        <time>2022-06-18T14:29:12Z</time>
      </trkpt>
      <trkpt lat="49.47493" lon="-1.2699">
        <ele>2</ele>
        <time>2022-06-18T14:30:15Z</time>
      </trkpt>
      <trkpt lat="49.47509" lon="-1.2704">
        <ele>1</ele>
        <time>2022-06-18T14:31:03Z</time>
      </trkpt>
      <trkpt lat="49.47514" lon="-1.27084">
        <ele>1</ele>
        <time>2022-06-18T14:31:42Z</time>
      </trkpt>
      <trkpt lat="49.4751" lon="-1.27121">
        <ele>1</ele>
        <time>2022-06-18T14:32:14Z</time>
      </trkpt>
      <trkpt lat="49.47481" lon="-1.27243">
        <ele>1</ele>
        <time>2022-06-18T14:34:07Z</time>
      </trkpt>
      <trkpt lat="49.47475" lon="-1.27292">
        <ele>2</ele>
        <time>2022-06-18T14:34:50Z</time>
      </trkpt>
      <trkpt lat="49.47472" lon="-1.27339">
        <ele>2</ele>
        <time>2022-06-18T14:35:31Z</time>
      </trkpt>
      <trkpt lat="49.47464" lon="-1.27392">
        <ele>2</ele>
        <time>2022-06-18T14:36:18Z</time>
      </trkpt>
      <trkpt lat="49.47453" lon="-1.27432">
        <ele>2</ele>
        <time>2022-06-18T14:36:56Z</time>
      </trkpt>
      <trkpt lat="49.47436" lon="-1.27483">
        <ele>2</ele>
        <time>2022-06-18T14:37:46Z</time>
      </trkpt>
      <trkpt lat="49.47428" lon="-1.27514">
        <ele>2</ele>
        <time>2022-06-18T14:38:15Z</time>
      </trkpt>
      <trkpt lat="49.47409" lon="-1.27555">
        <ele>2</ele>
        <time>2022-06-18T14:38:58Z</time>
      </trkpt>
      <trkpt lat="49.47387" lon="-1.27594">
        <ele>1</ele>
        <time>2022-06-18T14:39:43Z</time>
      </trkpt>
      <trkpt lat="49.47372" lon="-1.27629">
        <ele>1</ele>
        <time>2022-06-18T14:40:19Z</time>
      </trkpt>
      <trkpt lat="49.47365" lon="-1.27667">
        <ele>1</ele>
        <time>2022-06-18T14:40:54Z</time>
      </trkpt>
      <trkpt lat="49.47366" lon="-1.27697">
        <ele>1</ele>
        <time>2022-06-18T14:41:20Z</time>
      </trkpt>
      <trkpt lat="49.47373" lon="-1.27728">
        <ele>2</ele>
        <time>2022-06-18T14:41:48Z</time>
      </trkpt>
      <trkpt lat="49.47372" lon="-1.27743">
        <ele>2</ele>
        <time>2022-06-18T14:42:01Z</time>
      </trkpt>
      <trkpt lat="49.47348" lon="-1.27812">
        <ele>3</ele>
        <time>2022-06-18T14:43:09Z</time>
      </trkpt>
      <trkpt lat="49.47337" lon="-1.27829">
        <ele>3</ele>
        <time>2022-06-18T14:43:30Z</time>
      </trkpt>
      <trkpt lat="49.4733" lon="-1.27866">
        <ele>3</ele>
        <time>2022-06-18T14:44:03Z</time>
      </trkpt>
      <trkpt lat="49.47329" lon="-1.27899">
        <ele>4</ele>
        <time>2022-06-18T14:44:32Z</time>
      </trkpt>
      <trkpt lat="49.47322" lon="-1.27933">
        <ele>3</ele>
        <time>2022-06-18T14:45:03Z</time>
      </trkpt>
      <trkpt lat="49.47316" lon="-1.27975">
        <ele>3</ele>
        <time>2022-06-18T14:45:40Z</time>
      </trkpt>
      <trkpt lat="49.47308" lon="-1.28002">
        <ele>2</ele>
        <time>2022-06-18T14:46:06Z</time>
      </trkpt>
      <trkpt lat="49.47295" lon="-1.28032">
        <ele>2</ele>
        <time>2022-06-18T14:46:37Z</time>
      </trkpt>
      <trkpt lat="49.47294" lon="-1.28039">
        <ele>2</ele>
        <time>2022-06-18T14:46:43Z</time>
      </trkpt>
      <trkpt lat="49.47278" lon="-1.28081">
        <ele>3</ele>
        <time>2022-06-18T14:47:26Z</time>
      </trkpt>
      <trkpt lat="49.47277" lon="-1.28111">
        <ele>3</ele>
        <time>2022-06-18T14:47:52Z</time>
      </trkpt>
      <trkpt lat="49.47281" lon="-1.28134">
        <ele>4</ele>
        <time>2022-06-18T14:48:12Z</time>
      </trkpt>
      <trkpt lat="49.4728" lon="-1.2817">
        <ele>4</ele>
        <time>2022-06-18T14:48:44Z</time>
      </trkpt>
      <trkpt lat="49.47275" lon="-1.28204">
        <ele>4</ele>
        <time>2022-06-18T14:49:14Z</time>
      </trkpt>
      <trkpt lat="49.47227" lon="-1.28305">
        <ele>4</ele>
        <time>2022-06-18T14:51:02Z</time>
      </trkpt>
      <trkpt lat="49.47208" lon="-1.2834">
        <ele>4</ele>
        <time>2022-06-18T14:51:42Z</time>
      </trkpt>
      <trkpt lat="49.47179" lon="-1.2841">
        <ele>4</ele>
        <time>2022-06-18T14:52:54Z</time>
      </trkpt>
      <trkpt lat="49.47158" lon="-1.28445">
        <ele>4</ele>
        <time>2022-06-18T14:53:35Z</time>
      </trkpt>
      <trkpt lat="49.4713" lon="-1.28497">
        <ele>5</ele>
        <time>2022-06-18T14:54:34Z</time>
      </trkpt>
      <trkpt lat="49.47115" lon="-1.28538">
        <ele>7</ele>
        <time>2022-06-18T14:55:14Z</time>
      </trkpt>
      <trkpt lat="49.47111" lon="-1.28568">
        <ele>8</ele>
        <time>2022-06-18T14:55:41Z</time>
      </trkpt>
      <trkpt lat="49.47111" lon="-1.28608">
        <ele>9</ele>
        <time>2022-06-18T14:56:16Z</time>
      </trkpt>
      <trkpt lat="49.47103" lon="-1.2865">
        <ele>11</ele>
        <time>2022-06-18T14:56:54Z</time>
      </trkpt>
      <trkpt lat="49.47072" lon="-1.28711">
        <ele>14</ele>
        <time>2022-06-18T14:58:01Z</time>
      </trkpt>
      <trkpt lat="49.47061" lon="-1.28755">
        <ele>16</ele>
        <time>2022-06-18T14:58:42Z</time>
      </trkpt>
      <trkpt lat="49.47064" lon="-1.2877">
        <ele>16</ele>
        <time>2022-06-18T14:58:55Z</time>
      </trkpt>
      <trkpt lat="49.47072" lon="-1.2878">
        <ele>17</ele>
        <time>2022-06-18T14:59:09Z</time>
      </trkpt>
      <trkpt lat="49.4709" lon="-1.28794">
        <ele>17</ele>
        <time>2022-06-18T14:59:36Z</time>
      </trkpt>
      <trkpt lat="49.47104" lon="-1.2881">
        <ele>17</ele>
        <time>2022-06-18T14:59:59Z</time>
      </trkpt>
      <trkpt lat="49.47108" lon="-1.2881">
        <ele>17</ele>
        <time>2022-06-18T15:00:05Z</time>
      </trkpt>
      <trkpt lat="49.47149" lon="-1.28835">
        <ele>17</ele>
        <time>2022-06-18T15:01:03Z</time>
      </trkpt>
      <trkpt lat="49.47237" lon="-1.28896">
        <ele>18</ele>
        <time>2022-06-18T15:03:12Z</time>
      </trkpt>
      <trkpt lat="49.47269" lon="-1.2894">
        <ele>19</ele>
        <time>2022-06-18T15:04:10Z</time>
      </trkpt>
      <trkpt lat="49.4728" lon="-1.2896">
        <ele>19</ele>
        <time>2022-06-18T15:04:32Z</time>
      </trkpt>
      <trkpt lat="49.47247" lon="-1.29056">
        <ele>23</ele>
        <time>2022-06-18T15:06:06Z</time>
      </trkpt>
    </trkseg>
  </trk>
  <trk>
    <name><![CDATA[14917490-Vauville 18]]></name>
    <extensions>
      <line xmlns="http://www.topografix.com/GPX/gpx_style/0/2">
        <color>00FFFF</color>
        <width>4</width>
      </line>
    </extensions>
    <trkseg>
      <trkpt lat="49.63499" lon="-1.8503">
        <ele>6</ele>
        <time>2022-06-17T15:37:36Z</time>
      </trkpt>
      <trkpt lat="49.63501" lon="-1.85049">
        <ele>6</ele>
        <time>2022-06-17T15:37:53Z</time>
      </trkpt>
      <trkpt lat="49.63516" lon="-1.8505">
        <ele>6</ele>
        <time>2022-06-17T15:38:13Z</time>
      </trkpt>
      <trkpt lat="49.6353" lon="-1.85065">
        <ele>6</ele>
        <time>2022-06-17T15:38:35Z</time>
      </trkpt>
      <trkpt lat="49.63581" lon="-1.85087">
        <ele>7</ele>
        <time>2022-06-17T15:39:46Z</time>
      </trkpt>
      <trkpt lat="49.63598" lon="-1.85125">
        <ele>5</ele>
        <time>2022-06-17T15:40:26Z</time>
      </trkpt>
      <trkpt lat="49.63628" lon="-1.85155">
        <ele>4</ele>
        <time>2022-06-17T15:41:14Z</time>
      </trkpt>
      <trkpt lat="49.63655" lon="-1.85164">
        <ele>5</ele>
        <time>2022-06-17T15:41:51Z</time>
      </trkpt>
      <trkpt lat="49.6368" lon="-1.85162">
        <ele>5</ele>
        <time>2022-06-17T15:42:24Z</time>
      </trkpt>
      <trkpt lat="49.63708" lon="-1.85153">
        <ele>5</ele>
        <time>2022-06-17T15:43:02Z</time>
      </trkpt>
      <trkpt lat="49.63719" lon="-1.8516">
        <ele>5</ele>
        <time>2022-06-17T15:43:18Z</time>
      </trkpt>
      <trkpt lat="49.63749" lon="-1.85202">
        <ele>4</ele>
        <time>2022-06-17T15:44:12Z</time>
      </trkpt>
      <trkpt lat="49.63823" lon="-1.85246">
        <ele>6</ele>
        <time>2022-06-17T15:45:58Z</time>
      </trkpt>
      <trkpt lat="49.63834" lon="-1.85256">
        <ele>6</ele>
        <time>2022-06-17T15:46:15Z</time>
      </trkpt>
      <trkpt lat="49.63854" lon="-1.85265">
        <ele>6</ele>
        <time>2022-06-17T15:46:43Z</time>
      </trkpt>
      <trkpt lat="49.63912" lon="-1.85297">
        <ele>6</ele>
        <time>2022-06-17T15:48:05Z</time>
      </trkpt>
      <trkpt lat="49.63929" lon="-1.85305">
        <ele>6</ele>
        <time>2022-06-17T15:48:29Z</time>
      </trkpt>
      <trkpt lat="49.63935" lon="-1.85307">
        <ele>6</ele>
        <time>2022-06-17T15:48:37Z</time>
      </trkpt>
      <trkpt lat="49.64" lon="-1.85342">
        <ele>6</ele>
        <time>2022-06-17T15:50:09Z</time>
      </trkpt>
      <trkpt lat="49.64016" lon="-1.85344">
        <ele>6</ele>
        <time>2022-06-17T15:50:30Z</time>
      </trkpt>
      <trkpt lat="49.6415" lon="-1.85423">
        <ele>6</ele>
        <time>2022-06-17T15:53:41Z</time>
      </trkpt>
      <trkpt lat="49.6417" lon="-1.85428">
        <ele>6</ele>
        <time>2022-06-17T15:54:09Z</time>
      </trkpt>
      <trkpt lat="49.64248" lon="-1.85469">
        <ele>7</ele>
        <time>2022-06-17T15:55:58Z</time>
      </trkpt>
      <trkpt lat="49.64249" lon="-1.85474">
        <ele>7</ele>
        <time>2022-06-17T15:56:03Z</time>
      </trkpt>
      <trkpt lat="49.64253" lon="-1.85474">
        <ele>7</ele>
        <time>2022-06-17T15:56:08Z</time>
      </trkpt>
      <trkpt lat="49.64264" lon="-1.8548">
        <ele>7</ele>
        <time>2022-06-17T15:56:24Z</time>
      </trkpt>
      <trkpt lat="49.64291" lon="-1.85423">
        <ele>12</ele>
        <time>2022-06-17T15:57:25Z</time>
      </trkpt>
      <trkpt lat="49.64305" lon="-1.85372">
        <ele>14</ele>
        <time>2022-06-17T15:58:13Z</time>
      </trkpt>
      <trkpt lat="49.64398" lon="-1.8527">
        <ele>21</ele>
        <time>2022-06-17T16:00:45Z</time>
      </trkpt>
      <trkpt lat="49.64413" lon="-1.85298">
        <ele>21</ele>
        <time>2022-06-17T16:01:16Z</time>
      </trkpt>
      <trkpt lat="49.64449" lon="-1.85375">
        <ele>24</ele>
        <time>2022-06-17T16:02:38Z</time>
      </trkpt>
      <trkpt lat="49.64471" lon="-1.8545">
        <ele>24</ele>
        <time>2022-06-17T16:03:50Z</time>
      </trkpt>
      <trkpt lat="49.64503" lon="-1.85519">
        <ele>23</ele>
        <time>2022-06-17T16:05:03Z</time>
      </trkpt>
      <trkpt lat="49.64575" lon="-1.85615">
        <ele>23</ele>
        <time>2022-06-17T16:07:10Z</time>
      </trkpt>
      <trkpt lat="49.64639" lon="-1.85685">
        <ele>26</ele>
        <time>2022-06-17T16:08:55Z</time>
      </trkpt>
      <trkpt lat="49.64661" lon="-1.85698">
        <ele>28</ele>
        <time>2022-06-17T16:09:26Z</time>
      </trkpt>
      <trkpt lat="49.64706" lon="-1.85728">
        <ele>29</ele>
        <time>2022-06-17T16:10:31Z</time>
      </trkpt>
      <trkpt lat="49.64753" lon="-1.85769">
        <ele>25</ele>
        <time>2022-06-17T16:11:43Z</time>
      </trkpt>
      <trkpt lat="49.64758" lon="-1.85768">
        <ele>27</ele>
        <time>2022-06-17T16:11:50Z</time>
      </trkpt>
      <trkpt lat="49.64776" lon="-1.85784">
        <ele>27</ele>
        <time>2022-06-17T16:12:18Z</time>
      </trkpt>
      <trkpt lat="49.64783" lon="-1.85784">
        <ele>28</ele>
        <time>2022-06-17T16:12:27Z</time>
      </trkpt>
      <trkpt lat="49.64799" lon="-1.85793">
        <ele>29</ele>
        <time>2022-06-17T16:12:50Z</time>
      </trkpt>
      <trkpt lat="49.64805" lon="-1.85794">
        <ele>31</ele>
        <time>2022-06-17T16:12:58Z</time>
      </trkpt>
      <trkpt lat="49.64837" lon="-1.85807">
        <ele>34</ele>
        <time>2022-06-17T16:13:42Z</time>
      </trkpt>
      <trkpt lat="49.64876" lon="-1.85815">
        <ele>43</ele>
        <time>2022-06-17T16:14:35Z</time>
      </trkpt>
      <trkpt lat="49.64912" lon="-1.8582">
        <ele>52</ele>
        <time>2022-06-17T16:15:23Z</time>
      </trkpt>
      <trkpt lat="49.64981" lon="-1.85894">
        <ele>53</ele>
        <time>2022-06-17T16:17:15Z</time>
      </trkpt>
      <trkpt lat="49.65013" lon="-1.85924">
        <ele>55</ele>
        <time>2022-06-17T16:18:05Z</time>
      </trkpt>
      <trkpt lat="49.6504" lon="-1.85953">
        <ele>54</ele>
        <time>2022-06-17T16:18:49Z</time>
      </trkpt>
      <trkpt lat="49.65083" lon="-1.86081">
        <ele>32</ele>
        <time>2022-06-17T16:20:53Z</time>
      </trkpt>
      <trkpt lat="49.65122" lon="-1.86147">
        <ele>31</ele>
        <time>2022-06-17T16:22:11Z</time>
      </trkpt>
      <trkpt lat="49.65142" lon="-1.86191">
        <ele>31</ele>
        <time>2022-06-17T16:22:57Z</time>
      </trkpt>
      <trkpt lat="49.6517" lon="-1.86284">
        <ele>27</ele>
        <time>2022-06-17T16:24:26Z</time>
      </trkpt>
      <trkpt lat="49.652" lon="-1.86349">
        <ele>23</ele>
        <time>2022-06-17T16:25:35Z</time>
      </trkpt>
      <trkpt lat="49.65229" lon="-1.86407">
        <ele>23</ele>
        <time>2022-06-17T16:26:38Z</time>
      </trkpt>
      <trkpt lat="49.65259" lon="-1.86444">
        <ele>25</ele>
        <time>2022-06-17T16:27:29Z</time>
      </trkpt>
      <trkpt lat="49.65264" lon="-1.86454">
        <ele>25</ele>
        <time>2022-06-17T16:27:40Z</time>
      </trkpt>
      <trkpt lat="49.65271" lon="-1.86485">
        <ele>23</ele>
        <time>2022-06-17T16:28:08Z</time>
      </trkpt>
      <trkpt lat="49.65298" lon="-1.86514">
        <ele>24</ele>
        <time>2022-06-17T16:28:52Z</time>
      </trkpt>
      <trkpt lat="49.65336" lon="-1.86564">
        <ele>22</ele>
        <time>2022-06-17T16:29:59Z</time>
      </trkpt>
      <trkpt lat="49.65361" lon="-1.86593">
        <ele>22</ele>
        <time>2022-06-17T16:30:41Z</time>
      </trkpt>
      <trkpt lat="49.65396" lon="-1.86614">
        <ele>27</ele>
        <time>2022-06-17T16:31:31Z</time>
      </trkpt>
      <trkpt lat="49.6541" lon="-1.86617">
        <ele>30</ele>
        <time>2022-06-17T16:31:50Z</time>
      </trkpt>
      <trkpt lat="49.65432" lon="-1.86656">
        <ele>29</ele>
        <time>2022-06-17T16:32:34Z</time>
      </trkpt>
      <trkpt lat="49.65445" lon="-1.86672">
        <ele>30</ele>
        <time>2022-06-17T16:32:57Z</time>
      </trkpt>
      <trkpt lat="49.65461" lon="-1.86682">
        <ele>34</ele>
        <time>2022-06-17T16:33:20Z</time>
      </trkpt>
      <trkpt lat="49.65483" lon="-1.86674">
        <ele>42</ele>
        <time>2022-06-17T16:33:50Z</time>
      </trkpt>
      <trkpt lat="49.65494" lon="-1.86687">
        <ele>43</ele>
        <time>2022-06-17T16:34:08Z</time>
      </trkpt>
      <trkpt lat="49.6552" lon="-1.86769">
        <ele>37</ele>
        <time>2022-06-17T16:35:27Z</time>
      </trkpt>
      <trkpt lat="49.65576" lon="-1.86868">
        <ele>39</ele>
        <time>2022-06-17T16:37:21Z</time>
      </trkpt>
      <trkpt lat="49.65615" lon="-1.86946">
        <ele>34</ele>
        <time>2022-06-17T16:38:46Z</time>
      </trkpt>
      <trkpt lat="49.65633" lon="-1.86959">
        <ele>38</ele>
        <time>2022-06-17T16:39:12Z</time>
      </trkpt>
      <trkpt lat="49.65642" lon="-1.86977">
        <ele>38</ele>
        <time>2022-06-17T16:39:32Z</time>
      </trkpt>
      <trkpt lat="49.65638" lon="-1.87011">
        <ele>30</ele>
        <time>2022-06-17T16:40:02Z</time>
      </trkpt>
      <trkpt lat="49.6564" lon="-1.87026">
        <ele>28</ele>
        <time>2022-06-17T16:40:15Z</time>
      </trkpt>
      <trkpt lat="49.65729" lon="-1.87137">
        <ele>28</ele>
        <time>2022-06-17T16:42:48Z</time>
      </trkpt>
      <trkpt lat="49.65747" lon="-1.87178">
        <ele>25</ele>
        <time>2022-06-17T16:43:30Z</time>
      </trkpt>
      <trkpt lat="49.65762" lon="-1.87193">
        <ele>25</ele>
        <time>2022-06-17T16:43:54Z</time>
      </trkpt>
      <trkpt lat="49.65809" lon="-1.87185">
        <ele>33</ele>
        <time>2022-06-17T16:44:57Z</time>
      </trkpt>
      <trkpt lat="49.65823" lon="-1.87185">
        <ele>35</ele>
        <time>2022-06-17T16:45:16Z</time>
      </trkpt>
      <trkpt lat="49.65845" lon="-1.87203">
        <ele>38</ele>
        <time>2022-06-17T16:45:49Z</time>
      </trkpt>
      <trkpt lat="49.65847" lon="-1.87199">
        <ele>39</ele>
        <time>2022-06-17T16:45:54Z</time>
      </trkpt>
      <trkpt lat="49.65825" lon="-1.87182">
        <ele>36</ele>
        <time>2022-06-17T16:46:27Z</time>
      </trkpt>
      <trkpt lat="49.6581" lon="-1.87182">
        <ele>34</ele>
        <time>2022-06-17T16:46:47Z</time>
      </trkpt>
      <trkpt lat="49.65762" lon="-1.8719">
        <ele>25</ele>
        <time>2022-06-17T16:47:51Z</time>
      </trkpt>
      <trkpt lat="49.65749" lon="-1.87176">
        <ele>25</ele>
        <time>2022-06-17T16:48:12Z</time>
      </trkpt>
      <trkpt lat="49.6573" lon="-1.87134">
        <ele>29</ele>
        <time>2022-06-17T16:48:56Z</time>
      </trkpt>
      <trkpt lat="49.65642" lon="-1.87024">
        <ele>29</ele>
        <time>2022-06-17T16:51:27Z</time>
      </trkpt>
      <trkpt lat="49.65641" lon="-1.87011">
        <ele>31</ele>
        <time>2022-06-17T16:51:39Z</time>
      </trkpt>
      <trkpt lat="49.65644" lon="-1.86976">
        <ele>38</ele>
        <time>2022-06-17T16:52:09Z</time>
      </trkpt>
      <trkpt lat="49.65635" lon="-1.86957">
        <ele>39</ele>
        <time>2022-06-17T16:52:30Z</time>
      </trkpt>
      <trkpt lat="49.65617" lon="-1.86944">
        <ele>36</ele>
        <time>2022-06-17T16:52:56Z</time>
      </trkpt>
      <trkpt lat="49.65577" lon="-1.86866">
        <ele>40</ele>
        <time>2022-06-17T16:54:22Z</time>
      </trkpt>
      <trkpt lat="49.65522" lon="-1.86768">
        <ele>38</ele>
        <time>2022-06-17T16:56:14Z</time>
      </trkpt>
      <trkpt lat="49.65496" lon="-1.86685">
        <ele>44</ele>
        <time>2022-06-17T16:57:34Z</time>
      </trkpt>
      <trkpt lat="49.65484" lon="-1.86671">
        <ele>43</ele>
        <time>2022-06-17T16:57:54Z</time>
      </trkpt>
      <trkpt lat="49.65462" lon="-1.86678">
        <ele>35</ele>
        <time>2022-06-17T16:58:24Z</time>
      </trkpt>
      <trkpt lat="49.65447" lon="-1.8667">
        <ele>31</ele>
        <time>2022-06-17T16:58:45Z</time>
      </trkpt>
      <trkpt lat="49.65434" lon="-1.86654">
        <ele>30</ele>
        <time>2022-06-17T16:59:07Z</time>
      </trkpt>
      <trkpt lat="49.65412" lon="-1.86614">
        <ele>31</ele>
        <time>2022-06-17T16:59:53Z</time>
      </trkpt>
      <trkpt lat="49.65397" lon="-1.86611">
        <ele>28</ele>
        <time>2022-06-17T17:00:13Z</time>
      </trkpt>
      <trkpt lat="49.65362" lon="-1.8659">
        <ele>23</ele>
        <time>2022-06-17T17:01:03Z</time>
      </trkpt>
      <trkpt lat="49.65338" lon="-1.86562">
        <ele>22</ele>
        <time>2022-06-17T17:01:43Z</time>
      </trkpt>
      <trkpt lat="49.653" lon="-1.86511">
        <ele>25</ele>
        <time>2022-06-17T17:02:50Z</time>
      </trkpt>
      <trkpt lat="49.65273" lon="-1.86483">
        <ele>24</ele>
        <time>2022-06-17T17:03:34Z</time>
      </trkpt>
      <trkpt lat="49.65267" lon="-1.86453">
        <ele>26</ele>
        <time>2022-06-17T17:04:01Z</time>
      </trkpt>
      <trkpt lat="49.65261" lon="-1.86441">
        <ele>26</ele>
        <time>2022-06-17T17:04:14Z</time>
      </trkpt>
      <trkpt lat="49.65265" lon="-1.86434">
        <ele>27</ele>
        <time>2022-06-17T17:04:22Z</time>
      </trkpt>
      <trkpt lat="49.6527" lon="-1.86401">
        <ele>32</ele>
        <time>2022-06-17T17:04:51Z</time>
      </trkpt>
      <trkpt lat="49.65269" lon="-1.86367">
        <ele>35</ele>
        <time>2022-06-17T17:05:21Z</time>
      </trkpt>
      <trkpt lat="49.65258" lon="-1.86356">
        <ele>34</ele>
        <time>2022-06-17T17:05:38Z</time>
      </trkpt>
      <trkpt lat="49.65245" lon="-1.86334">
        <ele>34</ele>
        <time>2022-06-17T17:06:04Z</time>
      </trkpt>
      <trkpt lat="49.65234" lon="-1.86321">
        <ele>33</ele>
        <time>2022-06-17T17:06:22Z</time>
      </trkpt>
      <trkpt lat="49.65224" lon="-1.86272">
        <ele>37</ele>
        <time>2022-06-17T17:07:07Z</time>
      </trkpt>
      <trkpt lat="49.65202" lon="-1.86199">
        <ele>42</ele>
        <time>2022-06-17T17:08:16Z</time>
      </trkpt>
      <trkpt lat="49.65195" lon="-1.86155">
        <ele>46</ele>
        <time>2022-06-17T17:08:55Z</time>
      </trkpt>
      <trkpt lat="49.65194" lon="-1.86128">
        <ele>49</ele>
        <time>2022-06-17T17:09:19Z</time>
      </trkpt>
      <trkpt lat="49.65221" lon="-1.86035">
        <ele>61</ele>
        <time>2022-06-17T17:10:47Z</time>
      </trkpt>
      <trkpt lat="49.65251" lon="-1.8597">
        <ele>66</ele>
        <time>2022-06-17T17:11:56Z</time>
      </trkpt>
      <trkpt lat="49.65264" lon="-1.85916">
        <ele>75</ele>
        <time>2022-06-17T17:12:45Z</time>
      </trkpt>
      <trkpt lat="49.65267" lon="-1.85882">
        <ele>80</ele>
        <time>2022-06-17T17:13:15Z</time>
      </trkpt>
      <trkpt lat="49.65266" lon="-1.85844">
        <ele>85</ele>
        <time>2022-06-17T17:13:48Z</time>
      </trkpt>
      <trkpt lat="49.65233" lon="-1.85758">
        <ele>99</ele>
        <time>2022-06-17T17:15:14Z</time>
      </trkpt>
      <trkpt lat="49.65229" lon="-1.85739">
        <ele>102</ele>
        <time>2022-06-17T17:15:32Z</time>
      </trkpt>
      <trkpt lat="49.65228" lon="-1.85707">
        <ele>107</ele>
        <time>2022-06-17T17:15:59Z</time>
      </trkpt>
      <trkpt lat="49.65251" lon="-1.85597">
        <ele>119</ele>
        <time>2022-06-17T17:17:39Z</time>
      </trkpt>
      <trkpt lat="49.65256" lon="-1.85595">
        <ele>120</ele>
        <time>2022-06-17T17:17:46Z</time>
      </trkpt>
      <trkpt lat="49.65284" lon="-1.85598">
        <ele>120</ele>
        <time>2022-06-17T17:18:24Z</time>
      </trkpt>
      <trkpt lat="49.65302" lon="-1.85598">
        <ele>121</ele>
        <time>2022-06-17T17:18:48Z</time>
      </trkpt>
      <trkpt lat="49.65316" lon="-1.85595">
        <ele>121</ele>
        <time>2022-06-17T17:19:06Z</time>
      </trkpt>
      <trkpt lat="49.65325" lon="-1.8559">
        <ele>122</ele>
        <time>2022-06-17T17:19:19Z</time>
      </trkpt>
      <trkpt lat="49.65329" lon="-1.85586">
        <ele>123</ele>
        <time>2022-06-17T17:19:26Z</time>
      </trkpt>
      <trkpt lat="49.65335" lon="-1.85566">
        <ele>125</ele>
        <time>2022-06-17T17:19:45Z</time>
      </trkpt>
      <trkpt lat="49.65337" lon="-1.85522">
        <ele>129</ele>
        <time>2022-06-17T17:20:23Z</time>
      </trkpt>
      <trkpt lat="49.65337" lon="-1.85466">
        <ele>133</ele>
        <time>2022-06-17T17:21:11Z</time>
      </trkpt>
      <trkpt lat="49.65331" lon="-1.85426">
        <ele>135</ele>
        <time>2022-06-17T17:21:47Z</time>
      </trkpt>
      <trkpt lat="49.65333" lon="-1.85403">
        <ele>136</ele>
        <time>2022-06-17T17:22:07Z</time>
      </trkpt>
      <trkpt lat="49.65325" lon="-1.8539">
        <ele>137</ele>
        <time>2022-06-17T17:22:22Z</time>
      </trkpt>
      <trkpt lat="49.65245" lon="-1.85413">
        <ele>133</ele>
        <time>2022-06-17T17:24:11Z</time>
      </trkpt>
      <trkpt lat="49.65188" lon="-1.85409">
        <ele>132</ele>
        <time>2022-06-17T17:25:27Z</time>
      </trkpt>
      <trkpt lat="49.65144" lon="-1.85433">
        <ele>131</ele>
        <time>2022-06-17T17:26:29Z</time>
      </trkpt>
      <trkpt lat="49.65087" lon="-1.85425">
        <ele>128</ele>
        <time>2022-06-17T17:27:45Z</time>
      </trkpt>
      <trkpt lat="49.65084" lon="-1.85429">
        <ele>128</ele>
        <time>2022-06-17T17:27:51Z</time>
      </trkpt>
      <trkpt lat="49.65061" lon="-1.85438">
        <ele>128</ele>
        <time>2022-06-17T17:28:22Z</time>
      </trkpt>
      <trkpt lat="49.65014" lon="-1.85439">
        <ele>126</ele>
        <time>2022-06-17T17:29:25Z</time>
      </trkpt>
      <trkpt lat="49.64979" lon="-1.85409">
        <ele>124</ele>
        <time>2022-06-17T17:30:19Z</time>
      </trkpt>
      <trkpt lat="49.64966" lon="-1.85387">
        <ele>123</ele>
        <time>2022-06-17T17:30:44Z</time>
      </trkpt>
      <trkpt lat="49.64963" lon="-1.8536">
        <ele>123</ele>
        <time>2022-06-17T17:31:08Z</time>
      </trkpt>
      <trkpt lat="49.64966" lon="-1.85345">
        <ele>122</ele>
        <time>2022-06-17T17:31:22Z</time>
      </trkpt>
      <trkpt lat="49.64985" lon="-1.85324">
        <ele>122</ele>
        <time>2022-06-17T17:31:53Z</time>
      </trkpt>
      <trkpt lat="49.64993" lon="-1.85304">
        <ele>120</ele>
        <time>2022-06-17T17:32:13Z</time>
      </trkpt>
      <trkpt lat="49.64994" lon="-1.85263">
        <ele>117</ele>
        <time>2022-06-17T17:32:48Z</time>
      </trkpt>
      <trkpt lat="49.64997" lon="-1.85241">
        <ele>114</ele>
        <time>2022-06-17T17:33:08Z</time>
      </trkpt>
      <trkpt lat="49.65005" lon="-1.85228">
        <ele>113</ele>
        <time>2022-06-17T17:33:23Z</time>
      </trkpt>
      <trkpt lat="49.65012" lon="-1.85224">
        <ele>113</ele>
        <time>2022-06-17T17:33:33Z</time>
      </trkpt>
      <trkpt lat="49.6502" lon="-1.85227">
        <ele>114</ele>
        <time>2022-06-17T17:33:44Z</time>
      </trkpt>
      <trkpt lat="49.65023" lon="-1.85231">
        <ele>114</ele>
        <time>2022-06-17T17:33:50Z</time>
      </trkpt>
      <trkpt lat="49.65038" lon="-1.85234">
        <ele>116</ele>
        <time>2022-06-17T17:34:10Z</time>
      </trkpt>
      <trkpt lat="49.65036" lon="-1.85212">
        <ele>113</ele>
        <time>2022-06-17T17:34:29Z</time>
      </trkpt>
      <trkpt lat="49.65026" lon="-1.85176">
        <ele>107</ele>
        <time>2022-06-17T17:35:03Z</time>
      </trkpt>
      <trkpt lat="49.65026" lon="-1.85177">
        <ele>107</ele>
        <time>2022-06-17T17:35:04Z</time>
      </trkpt>
      <trkpt lat="49.64977" lon="-1.85147">
        <ele>97</ele>
        <time>2022-06-17T17:36:14Z</time>
      </trkpt>
      <trkpt lat="49.64961" lon="-1.85141">
        <ele>94</ele>
        <time>2022-06-17T17:36:36Z</time>
      </trkpt>
      <trkpt lat="49.64925" lon="-1.85133">
        <ele>89</ele>
        <time>2022-06-17T17:37:25Z</time>
      </trkpt>
      <trkpt lat="49.64898" lon="-1.85129">
        <ele>84</ele>
        <time>2022-06-17T17:38:01Z</time>
      </trkpt>
      <trkpt lat="49.64817" lon="-1.85134">
        <ele>73</ele>
        <time>2022-06-17T17:39:49Z</time>
      </trkpt>
      <trkpt lat="49.64729" lon="-1.85148">
        <ele>62</ele>
        <time>2022-06-17T17:41:47Z</time>
      </trkpt>
      <trkpt lat="49.64717" lon="-1.85147">
        <ele>61</ele>
        <time>2022-06-17T17:42:03Z</time>
      </trkpt>
      <trkpt lat="49.6471" lon="-1.85144">
        <ele>60</ele>
        <time>2022-06-17T17:42:13Z</time>
      </trkpt>
      <trkpt lat="49.64705" lon="-1.8514">
        <ele>58</ele>
        <time>2022-06-17T17:42:20Z</time>
      </trkpt>
      <trkpt lat="49.6467" lon="-1.85096">
        <ele>46</ele>
        <time>2022-06-17T17:43:20Z</time>
      </trkpt>
      <trkpt lat="49.6465" lon="-1.85086">
        <ele>43</ele>
        <time>2022-06-17T17:43:48Z</time>
      </trkpt>
      <trkpt lat="49.64654" lon="-1.85068">
        <ele>42</ele>
        <time>2022-06-17T17:44:05Z</time>
      </trkpt>
      <trkpt lat="49.64634" lon="-1.85061">
        <ele>40</ele>
        <time>2022-06-17T17:44:32Z</time>
      </trkpt>
      <trkpt lat="49.64641" lon="-1.84987">
        <ele>40</ele>
        <time>2022-06-17T17:45:37Z</time>
      </trkpt>
      <trkpt lat="49.6465" lon="-1.84955">
        <ele>46</ele>
        <time>2022-06-17T17:46:07Z</time>
      </trkpt>
      <trkpt lat="49.64668" lon="-1.84951">
        <ele>48</ele>
        <time>2022-06-17T17:46:31Z</time>
      </trkpt>
      <trkpt lat="49.64639" lon="-1.84918">
        <ele>51</ele>
        <time>2022-06-17T17:47:19Z</time>
      </trkpt>
      <trkpt lat="49.64609" lon="-1.84904">
        <ele>51</ele>
        <time>2022-06-17T17:48:01Z</time>
      </trkpt>
      <trkpt lat="49.6458" lon="-1.84886">
        <ele>53</ele>
        <time>2022-06-17T17:48:43Z</time>
      </trkpt>
      <trkpt lat="49.64533" lon="-1.84888">
        <ele>54</ele>
        <time>2022-06-17T17:49:46Z</time>
      </trkpt>
      <trkpt lat="49.64507" lon="-1.849">
        <ele>53</ele>
        <time>2022-06-17T17:50:22Z</time>
      </trkpt>
      <trkpt lat="49.64444" lon="-1.84894">
        <ele>50</ele>
        <time>2022-06-17T17:51:46Z</time>
      </trkpt>
      <trkpt lat="49.64424" lon="-1.84908">
        <ele>46</ele>
        <time>2022-06-17T17:52:15Z</time>
      </trkpt>
      <trkpt lat="49.64381" lon="-1.84896">
        <ele>46</ele>
        <time>2022-06-17T17:53:14Z</time>
      </trkpt>
      <trkpt lat="49.64373" lon="-1.849">
        <ele>46</ele>
        <time>2022-06-17T17:53:25Z</time>
      </trkpt>
      <trkpt lat="49.64367" lon="-1.84944">
        <ele>40</ele>
        <time>2022-06-17T17:54:04Z</time>
      </trkpt>
      <trkpt lat="49.64369" lon="-1.84945">
        <ele>40</ele>
        <time>2022-06-17T17:54:07Z</time>
      </trkpt>
      <trkpt lat="49.64366" lon="-1.84956">
        <ele>39</ele>
        <time>2022-06-17T17:54:17Z</time>
      </trkpt>
      <trkpt lat="49.64358" lon="-1.84962">
        <ele>38</ele>
        <time>2022-06-17T17:54:29Z</time>
      </trkpt>
      <trkpt lat="49.6434" lon="-1.84965">
        <ele>38</ele>
        <time>2022-06-17T17:54:53Z</time>
      </trkpt>
      <trkpt lat="49.64335" lon="-1.84973">
        <ele>37</ele>
        <time>2022-06-17T17:55:03Z</time>
      </trkpt>
      <trkpt lat="49.64289" lon="-1.8511">
        <ele>23</ele>
        <time>2022-06-17T17:57:16Z</time>
      </trkpt>
      <trkpt lat="49.6427" lon="-1.85092">
        <ele>22</ele>
        <time>2022-06-17T17:57:46Z</time>
      </trkpt>
      <trkpt lat="49.6421" lon="-1.85025">
        <ele>22</ele>
        <time>2022-06-17T17:59:24Z</time>
      </trkpt>
      <trkpt lat="49.64097" lon="-1.8491">
        <ele>23</ele>
        <time>2022-06-17T18:02:25Z</time>
      </trkpt>
      <trkpt lat="49.64025" lon="-1.84831">
        <ele>25</ele>
        <time>2022-06-17T18:04:23Z</time>
      </trkpt>
      <trkpt lat="49.63991" lon="-1.84812">
        <ele>24</ele>
        <time>2022-06-17T18:05:11Z</time>
      </trkpt>
      <trkpt lat="49.63905" lon="-1.84789">
        <ele>24</ele>
        <time>2022-06-17T18:07:08Z</time>
      </trkpt>
      <trkpt lat="49.63886" lon="-1.84787">
        <ele>23</ele>
        <time>2022-06-17T18:07:33Z</time>
      </trkpt>
      <trkpt lat="49.63808" lon="-1.84787">
        <ele>19</ele>
        <time>2022-06-17T18:09:17Z</time>
      </trkpt>
      <trkpt lat="49.6376" lon="-1.84783">
        <ele>17</ele>
        <time>2022-06-17T18:10:21Z</time>
      </trkpt>
      <trkpt lat="49.63752" lon="-1.84781">
        <ele>17</ele>
        <time>2022-06-17T18:10:32Z</time>
      </trkpt>
      <trkpt lat="49.63739" lon="-1.8477">
        <ele>17</ele>
        <time>2022-06-17T18:10:52Z</time>
      </trkpt>
      <trkpt lat="49.63661" lon="-1.84617">
        <ele>18</ele>
        <time>2022-06-17T18:13:40Z</time>
      </trkpt>
      <trkpt lat="49.63679" lon="-1.84572">
        <ele>20</ele>
        <time>2022-06-17T18:14:26Z</time>
      </trkpt>
      <trkpt lat="49.63622" lon="-1.84516">
        <ele>21</ele>
        <time>2022-06-17T18:15:56Z</time>
      </trkpt>
      <trkpt lat="49.63582" lon="-1.84457">
        <ele>24</ele>
        <time>2022-06-17T18:17:10Z</time>
      </trkpt>
      <trkpt lat="49.63677" lon="-1.84544">
        <ele>20</ele>
        <time>2022-06-17T18:19:37Z</time>
      </trkpt>
      <trkpt lat="49.63717" lon="-1.84306">
        <ele>30</ele>
        <time>2022-06-17T18:23:10Z</time>
      </trkpt>
      <trkpt lat="49.63833" lon="-1.83249">
        <ele>45</ele>
        <time>2022-06-17T18:38:36Z</time>
      </trkpt>
      <trkpt lat="49.63647" lon="-1.83028">
        <ele>66</ele>
        <time>2022-06-17T18:43:49Z</time>
      </trkpt>
      <trkpt lat="49.63589" lon="-1.83127">
        <ele>82</ele>
        <time>2022-06-17T18:45:45Z</time>
      </trkpt>
      <trkpt lat="49.63543" lon="-1.83214">
        <ele>97</ele>
        <time>2022-06-17T18:47:22Z</time>
      </trkpt>
      <trkpt lat="49.63429" lon="-1.83127">
        <ele>115</ele>
        <time>2022-06-17T18:50:12Z</time>
      </trkpt>
      <trkpt lat="49.63508" lon="-1.83282">
        <ele>107</ele>
        <time>2022-06-17T18:53:02Z</time>
      </trkpt>
      <trkpt lat="49.63546" lon="-1.83343">
        <ele>104</ele>
        <time>2022-06-17T18:54:15Z</time>
      </trkpt>
      <trkpt lat="49.6357" lon="-1.83506">
        <ele>98</ele>
        <time>2022-06-17T18:56:40Z</time>
      </trkpt>
      <trkpt lat="49.63562" lon="-1.83687">
        <ele>96</ele>
        <time>2022-06-17T18:59:16Z</time>
      </trkpt>
      <trkpt lat="49.63587" lon="-1.83787">
        <ele>93</ele>
        <time>2022-06-17T19:00:49Z</time>
      </trkpt>
      <trkpt lat="49.6362" lon="-1.83998">
        <ele>78</ele>
        <time>2022-06-17T19:03:57Z</time>
      </trkpt>
      <trkpt lat="49.63612" lon="-1.84085">
        <ele>70</ele>
        <time>2022-06-17T19:05:13Z</time>
      </trkpt>
      <trkpt lat="49.63594" lon="-1.84129">
        <ele>66</ele>
        <time>2022-06-17T19:05:58Z</time>
      </trkpt>
      <trkpt lat="49.63513" lon="-1.84091">
        <ele>60</ele>
        <time>2022-06-17T19:07:51Z</time>
      </trkpt>
      <trkpt lat="49.63323" lon="-1.83907">
        <ele>57</ele>
        <time>2022-06-17T19:12:50Z</time>
      </trkpt>
      <trkpt lat="49.63375" lon="-1.84065">
        <ele>50</ele>
        <time>2022-06-17T19:15:23Z</time>
      </trkpt>
      <trkpt lat="49.63372" lon="-1.84075">
        <ele>50</ele>
        <time>2022-06-17T19:15:33Z</time>
      </trkpt>
      <trkpt lat="49.63376" lon="-1.84183">
        <ele>47</ele>
        <time>2022-06-17T19:17:06Z</time>
      </trkpt>
      <trkpt lat="49.63345" lon="-1.84112">
        <ele>54</ele>
        <time>2022-06-17T19:18:20Z</time>
      </trkpt>
      <trkpt lat="49.63264" lon="-1.83964">
        <ele>72</ele>
        <time>2022-06-17T19:21:08Z</time>
      </trkpt>
      <trkpt lat="49.63237" lon="-1.83924">
        <ele>76</ele>
        <time>2022-06-17T19:21:58Z</time>
      </trkpt>
      <trkpt lat="49.63187" lon="-1.83868">
        <ele>86</ele>
        <time>2022-06-17T19:23:20Z</time>
      </trkpt>
      <trkpt lat="49.63171" lon="-1.83829">
        <ele>88</ele>
        <time>2022-06-17T19:24:00Z</time>
      </trkpt>
      <trkpt lat="49.63086" lon="-1.83707">
        <ele>102</ele>
        <time>2022-06-17T19:26:35Z</time>
      </trkpt>
      <trkpt lat="49.63007" lon="-1.83561">
        <ele>111</ele>
        <time>2022-06-17T19:29:19Z</time>
      </trkpt>
      <trkpt lat="49.62974" lon="-1.8352">
        <ele>115</ele>
        <time>2022-06-17T19:30:16Z</time>
      </trkpt>
      <trkpt lat="49.62937" lon="-1.83513">
        <ele>121</ele>
        <time>2022-06-17T19:31:05Z</time>
      </trkpt>
      <trkpt lat="49.62906" lon="-1.8351">
        <ele>126</ele>
        <time>2022-06-17T19:31:47Z</time>
      </trkpt>
      <trkpt lat="49.62805" lon="-1.83522">
        <ele>129</ele>
        <time>2022-06-17T19:34:02Z</time>
      </trkpt>
      <trkpt lat="49.6277" lon="-1.83549">
        <ele>128</ele>
        <time>2022-06-17T19:34:54Z</time>
      </trkpt>
      <trkpt lat="49.6276" lon="-1.83548">
        <ele>128</ele>
        <time>2022-06-17T19:35:08Z</time>
      </trkpt>
      <trkpt lat="49.62726" lon="-1.83507">
        <ele>127</ele>
        <time>2022-06-17T19:36:05Z</time>
      </trkpt>
      <trkpt lat="49.62711" lon="-1.83485">
        <ele>127</ele>
        <time>2022-06-17T19:36:33Z</time>
      </trkpt>
      <trkpt lat="49.62675" lon="-1.83416">
        <ele>127</ele>
        <time>2022-06-17T19:37:49Z</time>
      </trkpt>
      <trkpt lat="49.62651" lon="-1.83388">
        <ele>128</ele>
        <time>2022-06-17T19:38:30Z</time>
      </trkpt>
      <trkpt lat="49.62593" lon="-1.83309">
        <ele>129</ele>
        <time>2022-06-17T19:40:13Z</time>
      </trkpt>
      <trkpt lat="49.62547" lon="-1.83398">
        <ele>123</ele>
        <time>2022-06-17T19:41:51Z</time>
      </trkpt>
      <trkpt lat="49.62522" lon="-1.83423">
        <ele>120</ele>
        <time>2022-06-17T19:42:31Z</time>
      </trkpt>
      <trkpt lat="49.62438" lon="-1.83451">
        <ele>115</ele>
        <time>2022-06-17T19:44:26Z</time>
      </trkpt>
      <trkpt lat="49.62399" lon="-1.83452">
        <ele>114</ele>
        <time>2022-06-17T19:45:18Z</time>
      </trkpt>
      <trkpt lat="49.62349" lon="-1.83367">
        <ele>118</ele>
        <time>2022-06-17T19:46:57Z</time>
      </trkpt>
      <trkpt lat="49.62327" lon="-1.83342">
        <ele>119</ele>
        <time>2022-06-17T19:47:33Z</time>
      </trkpt>
      <trkpt lat="49.62141" lon="-1.83201">
        <ele>123</ele>
        <time>2022-06-17T19:52:10Z</time>
      </trkpt>
      <trkpt lat="49.62198" lon="-1.8307">
        <ele>129</ele>
        <time>2022-06-17T19:54:26Z</time>
      </trkpt>
      <trkpt lat="49.62162" lon="-1.83028">
        <ele>129</ele>
        <time>2022-06-17T19:55:27Z</time>
      </trkpt>
      <trkpt lat="49.62123" lon="-1.82994">
        <ele>129</ele>
        <time>2022-06-17T19:56:26Z</time>
      </trkpt>
      <trkpt lat="49.62097" lon="-1.82959">
        <ele>129</ele>
        <time>2022-06-17T19:57:12Z</time>
      </trkpt>
      <trkpt lat="49.62068" lon="-1.82911">
        <ele>129</ele>
        <time>2022-06-17T19:58:09Z</time>
      </trkpt>
      <trkpt lat="49.62065" lon="-1.829">
        <ele>130</ele>
        <time>2022-06-17T19:58:19Z</time>
      </trkpt>
      <trkpt lat="49.6205" lon="-1.82875">
        <ele>129</ele>
        <time>2022-06-17T19:58:49Z</time>
      </trkpt>
      <trkpt lat="49.61958" lon="-1.82856">
        <ele>125</ele>
        <time>2022-06-17T20:00:53Z</time>
      </trkpt>
      <trkpt lat="49.61912" lon="-1.82845">
        <ele>122</ele>
        <time>2022-06-17T20:01:55Z</time>
      </trkpt>
      <trkpt lat="49.61888" lon="-1.82834">
        <ele>121</ele>
        <time>2022-06-17T20:02:28Z</time>
      </trkpt>
      <trkpt lat="49.61867" lon="-1.82828">
        <ele>121</ele>
        <time>2022-06-17T20:02:57Z</time>
      </trkpt>
      <trkpt lat="49.6185" lon="-1.82881">
        <ele>120</ele>
        <time>2022-06-17T20:03:48Z</time>
      </trkpt>
      <trkpt lat="49.61835" lon="-1.8289">
        <ele>119</ele>
        <time>2022-06-17T20:04:09Z</time>
      </trkpt>
      <trkpt lat="49.61818" lon="-1.82977">
        <ele>117</ele>
        <time>2022-06-17T20:05:28Z</time>
      </trkpt>
      <trkpt lat="49.61817" lon="-1.83012">
        <ele>115</ele>
        <time>2022-06-17T20:05:58Z</time>
      </trkpt>
      <trkpt lat="49.61828" lon="-1.8306">
        <ele>111</ele>
        <time>2022-06-17T20:06:42Z</time>
      </trkpt>
      <trkpt lat="49.61842" lon="-1.83102">
        <ele>108</ele>
        <time>2022-06-17T20:07:23Z</time>
      </trkpt>
      <trkpt lat="49.61867" lon="-1.83151">
        <ele>107</ele>
        <time>2022-06-17T20:08:17Z</time>
      </trkpt>
      <trkpt lat="49.61873" lon="-1.83184">
        <ele>105</ele>
        <time>2022-06-17T20:08:47Z</time>
      </trkpt>
      <trkpt lat="49.61874" lon="-1.83228">
        <ele>104</ele>
        <time>2022-06-17T20:09:25Z</time>
      </trkpt>
      <trkpt lat="49.61867" lon="-1.83327">
        <ele>101</ele>
        <time>2022-06-17T20:10:51Z</time>
      </trkpt>
      <trkpt lat="49.61858" lon="-1.834">
        <ele>96</ele>
        <time>2022-06-17T20:11:55Z</time>
      </trkpt>
      <trkpt lat="49.61857" lon="-1.83429">
        <ele>92</ele>
        <time>2022-06-17T20:12:20Z</time>
      </trkpt>
      <trkpt lat="49.61867" lon="-1.83461">
        <ele>88</ele>
        <time>2022-06-17T20:12:51Z</time>
      </trkpt>
      <trkpt lat="49.61883" lon="-1.83494">
        <ele>84</ele>
        <time>2022-06-17T20:13:27Z</time>
      </trkpt>
      <trkpt lat="49.61901" lon="-1.83514">
        <ele>82</ele>
        <time>2022-06-17T20:13:56Z</time>
      </trkpt>
      <trkpt lat="49.61902" lon="-1.83513">
        <ele>82</ele>
        <time>2022-06-17T20:13:58Z</time>
      </trkpt>
      <trkpt lat="49.61964" lon="-1.83541">
        <ele>80</ele>
        <time>2022-06-17T20:15:24Z</time>
      </trkpt>
      <trkpt lat="49.62014" lon="-1.83576">
        <ele>73</ele>
        <time>2022-06-17T20:16:37Z</time>
      </trkpt>
      <trkpt lat="49.62048" lon="-1.83594">
        <ele>68</ele>
        <time>2022-06-17T20:17:25Z</time>
      </trkpt>
      <trkpt lat="49.62067" lon="-1.83594">
        <ele>68</ele>
        <time>2022-06-17T20:17:51Z</time>
      </trkpt>
      <trkpt lat="49.62088" lon="-1.83584">
        <ele>70</ele>
        <time>2022-06-17T20:18:20Z</time>
      </trkpt>
      <trkpt lat="49.62095" lon="-1.83585">
        <ele>71</ele>
        <time>2022-06-17T20:18:29Z</time>
      </trkpt>
      <trkpt lat="49.62101" lon="-1.83589">
        <ele>70</ele>
        <time>2022-06-17T20:18:38Z</time>
      </trkpt>
      <trkpt lat="49.62117" lon="-1.83622">
        <ele>65</ele>
        <time>2022-06-17T20:19:14Z</time>
      </trkpt>
      <trkpt lat="49.6213" lon="-1.83638">
        <ele>63</ele>
        <time>2022-06-17T20:19:36Z</time>
      </trkpt>
      <trkpt lat="49.62179" lon="-1.83684">
        <ele>56</ele>
        <time>2022-06-17T20:20:52Z</time>
      </trkpt>
      <trkpt lat="49.62193" lon="-1.8369">
        <ele>55</ele>
        <time>2022-06-17T20:21:12Z</time>
      </trkpt>
      <trkpt lat="49.62219" lon="-1.83697">
        <ele>54</ele>
        <time>2022-06-17T20:21:47Z</time>
      </trkpt>
      <trkpt lat="49.62218" lon="-1.83706">
        <ele>52</ele>
        <time>2022-06-17T20:21:55Z</time>
      </trkpt>
      <trkpt lat="49.62211" lon="-1.83707">
        <ele>52</ele>
        <time>2022-06-17T20:22:04Z</time>
      </trkpt>
      <trkpt lat="49.62177" lon="-1.83703">
        <ele>52</ele>
        <time>2022-06-17T20:22:50Z</time>
      </trkpt>
      <trkpt lat="49.6208" lon="-1.83671">
        <ele>54</ele>
        <time>2022-06-17T20:25:02Z</time>
      </trkpt>
      <trkpt lat="49.62039" lon="-1.83677">
        <ele>51</ele>
        <time>2022-06-17T20:25:57Z</time>
      </trkpt>
      <trkpt lat="49.61953" lon="-1.83647">
        <ele>52</ele>
        <time>2022-06-17T20:27:55Z</time>
      </trkpt>
      <trkpt lat="49.61867" lon="-1.83634">
        <ele>46</ele>
        <time>2022-06-17T20:29:50Z</time>
      </trkpt>
      <trkpt lat="49.61811" lon="-1.83616">
        <ele>44</ele>
        <time>2022-06-17T20:31:06Z</time>
      </trkpt>
      <trkpt lat="49.61764" lon="-1.8361">
        <ele>40</ele>
        <time>2022-06-17T20:32:09Z</time>
      </trkpt>
      <trkpt lat="49.61725" lon="-1.83627">
        <ele>34</ele>
        <time>2022-06-17T20:33:03Z</time>
      </trkpt>
      <trkpt lat="49.61721" lon="-1.83686">
        <ele>24</ele>
        <time>2022-06-17T20:33:55Z</time>
      </trkpt>
      <trkpt lat="49.61706" lon="-1.83704">
        <ele>22</ele>
        <time>2022-06-17T20:34:20Z</time>
      </trkpt>
      <trkpt lat="49.61701" lon="-1.83732">
        <ele>19</ele>
        <time>2022-06-17T20:34:45Z</time>
      </trkpt>
      <trkpt lat="49.6169" lon="-1.83751">
        <ele>18</ele>
        <time>2022-06-17T20:35:07Z</time>
      </trkpt>
      <trkpt lat="49.61684" lon="-1.83771">
        <ele>17</ele>
        <time>2022-06-17T20:35:26Z</time>
      </trkpt>
      <trkpt lat="49.61681" lon="-1.83794">
        <ele>16</ele>
        <time>2022-06-17T20:35:46Z</time>
      </trkpt>
      <trkpt lat="49.61661" lon="-1.83833">
        <ele>15</ele>
        <time>2022-06-17T20:36:29Z</time>
      </trkpt>
      <trkpt lat="49.61636" lon="-1.83903">
        <ele>14</ele>
        <time>2022-06-17T20:37:39Z</time>
      </trkpt>
      <trkpt lat="49.6162" lon="-1.83974">
        <ele>11</ele>
        <time>2022-06-17T20:38:44Z</time>
      </trkpt>
      <trkpt lat="49.61591" lon="-1.84066">
        <ele>9</ele>
        <time>2022-06-17T20:40:12Z</time>
      </trkpt>
      <trkpt lat="49.61576" lon="-1.84108">
        <ele>9</ele>
        <time>2022-06-17T20:40:53Z</time>
      </trkpt>
      <trkpt lat="49.61559" lon="-1.8412">
        <ele>9</ele>
        <time>2022-06-17T20:41:18Z</time>
      </trkpt>
      <trkpt lat="49.61548" lon="-1.84143">
        <ele>9</ele>
        <time>2022-06-17T20:41:43Z</time>
      </trkpt>
      <trkpt lat="49.61544" lon="-1.84174">
        <ele>8</ele>
        <time>2022-06-17T20:42:10Z</time>
      </trkpt>
      <trkpt lat="49.61525" lon="-1.84235">
        <ele>6</ele>
        <time>2022-06-17T20:43:09Z</time>
      </trkpt>
      <trkpt lat="49.61502" lon="-1.84259">
        <ele>5</ele>
        <time>2022-06-17T20:43:46Z</time>
      </trkpt>
      <trkpt lat="49.6146" lon="-1.84377">
        <ele>5</ele>
        <time>2022-06-17T20:45:42Z</time>
      </trkpt>
      <trkpt lat="49.61539" lon="-1.84396">
        <ele>8</ele>
        <time>2022-06-17T20:47:29Z</time>
      </trkpt>
      <trkpt lat="49.61553" lon="-1.84405">
        <ele>8</ele>
        <time>2022-06-17T20:47:49Z</time>
      </trkpt>
      <trkpt lat="49.61576" lon="-1.84407">
        <ele>10</ele>
        <time>2022-06-17T20:48:20Z</time>
      </trkpt>
      <trkpt lat="49.61611" lon="-1.84405">
        <ele>10</ele>
        <time>2022-06-17T20:49:07Z</time>
      </trkpt>
      <trkpt lat="49.61619" lon="-1.84405">
        <ele>9</ele>
        <time>2022-06-17T20:49:18Z</time>
      </trkpt>
      <trkpt lat="49.61631" lon="-1.84395">
        <ele>9</ele>
        <time>2022-06-17T20:49:36Z</time>
      </trkpt>
      <trkpt lat="49.61652" lon="-1.84382">
        <ele>9</ele>
        <time>2022-06-17T20:50:06Z</time>
      </trkpt>
      <trkpt lat="49.61657" lon="-1.84376">
        <ele>9</ele>
        <time>2022-06-17T20:50:14Z</time>
      </trkpt>
      <trkpt lat="49.61661" lon="-1.84332">
        <ele>8</ele>
        <time>2022-06-17T20:50:53Z</time>
      </trkpt>
      <trkpt lat="49.61674" lon="-1.84272">
        <ele>6</ele>
        <time>2022-06-17T20:51:47Z</time>
      </trkpt>
      <trkpt lat="49.61676" lon="-1.84251">
        <ele>6</ele>
        <time>2022-06-17T20:52:06Z</time>
      </trkpt>
      <trkpt lat="49.61681" lon="-1.84254">
        <ele>6</ele>
        <time>2022-06-17T20:52:13Z</time>
      </trkpt>
      <trkpt lat="49.61708" lon="-1.84235">
        <ele>5</ele>
        <time>2022-06-17T20:52:53Z</time>
      </trkpt>
      <trkpt lat="49.61751" lon="-1.84223">
        <ele>4</ele>
        <time>2022-06-17T20:53:51Z</time>
      </trkpt>
      <trkpt lat="49.61766" lon="-1.84213">
        <ele>4</ele>
        <time>2022-06-17T20:54:13Z</time>
      </trkpt>
      <trkpt lat="49.61807" lon="-1.84235">
        <ele>4</ele>
        <time>2022-06-17T20:55:11Z</time>
      </trkpt>
      <trkpt lat="49.61845" lon="-1.84263">
        <ele>4</ele>
        <time>2022-06-17T20:56:07Z</time>
      </trkpt>
      <trkpt lat="49.61912" lon="-1.84319">
        <ele>4</ele>
        <time>2022-06-17T20:57:49Z</time>
      </trkpt>
      <trkpt lat="49.6192" lon="-1.84341">
        <ele>4</ele>
        <time>2022-06-17T20:58:10Z</time>
      </trkpt>
      <trkpt lat="49.61949" lon="-1.84354">
        <ele>5</ele>
        <time>2022-06-17T20:58:51Z</time>
      </trkpt>
      <trkpt lat="49.62005" lon="-1.84359">
        <ele>4</ele>
        <time>2022-06-17T21:00:05Z</time>
      </trkpt>
      <trkpt lat="49.62043" lon="-1.84359">
        <ele>4</ele>
        <time>2022-06-17T21:00:56Z</time>
      </trkpt>
      <trkpt lat="49.62082" lon="-1.84378">
        <ele>4</ele>
        <time>2022-06-17T21:01:51Z</time>
      </trkpt>
      <trkpt lat="49.62101" lon="-1.84403">
        <ele>4</ele>
        <time>2022-06-17T21:02:24Z</time>
      </trkpt>
      <trkpt lat="49.62131" lon="-1.84414">
        <ele>4</ele>
        <time>2022-06-17T21:03:05Z</time>
      </trkpt>
      <trkpt lat="49.622" lon="-1.8442">
        <ele>4</ele>
        <time>2022-06-17T21:04:37Z</time>
      </trkpt>
      <trkpt lat="49.6222" lon="-1.84415">
        <ele>4</ele>
        <time>2022-06-17T21:05:04Z</time>
      </trkpt>
      <trkpt lat="49.62236" lon="-1.84408">
        <ele>4</ele>
        <time>2022-06-17T21:05:27Z</time>
      </trkpt>
      <trkpt lat="49.62272" lon="-1.84427">
        <ele>4</ele>
        <time>2022-06-17T21:06:17Z</time>
      </trkpt>
      <trkpt lat="49.62285" lon="-1.84444">
        <ele>4</ele>
        <time>2022-06-17T21:06:40Z</time>
      </trkpt>
      <trkpt lat="49.62306" lon="-1.84457">
        <ele>4</ele>
        <time>2022-06-17T21:07:10Z</time>
      </trkpt>
      <trkpt lat="49.6233" lon="-1.84487">
        <ele>5</ele>
        <time>2022-06-17T21:07:52Z</time>
      </trkpt>
      <trkpt lat="49.62342" lon="-1.84516">
        <ele>5</ele>
        <time>2022-06-17T21:08:21Z</time>
      </trkpt>
      <trkpt lat="49.62391" lon="-1.84533">
        <ele>5</ele>
        <time>2022-06-17T21:09:28Z</time>
      </trkpt>
      <trkpt lat="49.62427" lon="-1.84543">
        <ele>5</ele>
        <time>2022-06-17T21:10:17Z</time>
      </trkpt>
      <trkpt lat="49.62442" lon="-1.84543">
        <ele>5</ele>
        <time>2022-06-17T21:10:37Z</time>
      </trkpt>
      <trkpt lat="49.62465" lon="-1.84555">
        <ele>6</ele>
        <time>2022-06-17T21:11:10Z</time>
      </trkpt>
      <trkpt lat="49.62487" lon="-1.8456">
        <ele>6</ele>
        <time>2022-06-17T21:11:39Z</time>
      </trkpt>
      <trkpt lat="49.62501" lon="-1.84571">
        <ele>6</ele>
        <time>2022-06-17T21:12:00Z</time>
      </trkpt>
      <trkpt lat="49.62518" lon="-1.84577">
        <ele>6</ele>
        <time>2022-06-17T21:12:23Z</time>
      </trkpt>
      <trkpt lat="49.6254" lon="-1.846">
        <ele>6</ele>
        <time>2022-06-17T21:12:59Z</time>
      </trkpt>
      <trkpt lat="49.62583" lon="-1.84605">
        <ele>6</ele>
        <time>2022-06-17T21:13:56Z</time>
      </trkpt>
      <trkpt lat="49.62594" lon="-1.8461">
        <ele>6</ele>
        <time>2022-06-17T21:14:12Z</time>
      </trkpt>
      <trkpt lat="49.62629" lon="-1.84631">
        <ele>5</ele>
        <time>2022-06-17T21:15:02Z</time>
      </trkpt>
      <trkpt lat="49.62661" lon="-1.84662">
        <ele>5</ele>
        <time>2022-06-17T21:15:52Z</time>
      </trkpt>
      <trkpt lat="49.62671" lon="-1.84677">
        <ele>5</ele>
        <time>2022-06-17T21:16:11Z</time>
      </trkpt>
      <trkpt lat="49.62691" lon="-1.84688">
        <ele>5</ele>
        <time>2022-06-17T21:16:39Z</time>
      </trkpt>
      <trkpt lat="49.62739" lon="-1.84704">
        <ele>5</ele>
        <time>2022-06-17T21:17:45Z</time>
      </trkpt>
      <trkpt lat="49.62773" lon="-1.84713">
        <ele>5</ele>
        <time>2022-06-17T21:18:31Z</time>
      </trkpt>
      <trkpt lat="49.62789" lon="-1.8472">
        <ele>5</ele>
        <time>2022-06-17T21:18:53Z</time>
      </trkpt>
      <trkpt lat="49.62816" lon="-1.84718">
        <ele>5</ele>
        <time>2022-06-17T21:19:29Z</time>
      </trkpt>
      <trkpt lat="49.62853" lon="-1.84707">
        <ele>4</ele>
        <time>2022-06-17T21:20:19Z</time>
      </trkpt>
      <trkpt lat="49.62875" lon="-1.84715">
        <ele>5</ele>
        <time>2022-06-17T21:20:50Z</time>
      </trkpt>
      <trkpt lat="49.62899" lon="-1.84734">
        <ele>5</ele>
        <time>2022-06-17T21:21:26Z</time>
      </trkpt>
      <trkpt lat="49.62924" lon="-1.84758">
        <ele>5</ele>
        <time>2022-06-17T21:22:05Z</time>
      </trkpt>
      <trkpt lat="49.6294" lon="-1.84789">
        <ele>5</ele>
        <time>2022-06-17T21:22:39Z</time>
      </trkpt>
      <trkpt lat="49.62952" lon="-1.84796">
        <ele>5</ele>
        <time>2022-06-17T21:22:56Z</time>
      </trkpt>
      <trkpt lat="49.62973" lon="-1.84804">
        <ele>5</ele>
        <time>2022-06-17T21:23:25Z</time>
      </trkpt>
      <trkpt lat="49.63013" lon="-1.84811">
        <ele>5</ele>
        <time>2022-06-17T21:24:19Z</time>
      </trkpt>
      <trkpt lat="49.63046" lon="-1.84823">
        <ele>4</ele>
        <time>2022-06-17T21:25:04Z</time>
      </trkpt>
      <trkpt lat="49.63062" lon="-1.84831">
        <ele>4</ele>
        <time>2022-06-17T21:25:26Z</time>
      </trkpt>
      <trkpt lat="49.63088" lon="-1.84853">
        <ele>4</ele>
        <time>2022-06-17T21:26:06Z</time>
      </trkpt>
      <trkpt lat="49.63108" lon="-1.8486">
        <ele>4</ele>
        <time>2022-06-17T21:26:33Z</time>
      </trkpt>
      <trkpt lat="49.63147" lon="-1.84862">
        <ele>5</ele>
        <time>2022-06-17T21:27:25Z</time>
      </trkpt>
      <trkpt lat="49.63182" lon="-1.84874">
        <ele>5</ele>
        <time>2022-06-17T21:28:13Z</time>
      </trkpt>
      <trkpt lat="49.63233" lon="-1.84909">
        <ele>6</ele>
        <time>2022-06-17T21:29:28Z</time>
      </trkpt>
      <trkpt lat="49.63278" lon="-1.84928">
        <ele>6</ele>
        <time>2022-06-17T21:30:30Z</time>
      </trkpt>
      <trkpt lat="49.63343" lon="-1.84938">
        <ele>7</ele>
        <time>2022-06-17T21:31:57Z</time>
      </trkpt>
      <trkpt lat="49.63485" lon="-1.85013">
        <ele>7</ele>
        <time>2022-06-17T21:35:17Z</time>
      </trkpt>
      <trkpt lat="49.6349" lon="-1.84987">
        <ele>7</ele>
        <time>2022-06-17T21:35:41Z</time>
      </trkpt>
    </trkseg>
  </trk>
  <trk>
    <name><![CDATA[Vauville16,6]]></name>
    <desc><![CDATA[Total: 16.6km]]></desc>
    <extensions>
      <line xmlns="http://www.topografix.com/GPX/gpx_style/0/2">
        <color>FF00FF</color>
        <width>4</width>
      </line>
    </extensions>
    <trkseg>
      <trkpt lat="49.63748" lon="-1.84646">
        <ele>23.753</ele>
      </trkpt>
      <trkpt lat="49.63748" lon="-1.84647">
        <ele>23.763</ele>
      </trkpt>
      <trkpt lat="49.63724" lon="-1.84651">
        <ele>20.784</ele>
      </trkpt>
      <trkpt lat="49.63729" lon="-1.84698">
        <ele>19.092</ele>
      </trkpt>
      <trkpt lat="49.63731" lon="-1.8474">
        <ele>18.176</ele>
      </trkpt>
      <trkpt lat="49.63731" lon="-1.84755">
        <ele>17.588</ele>
      </trkpt>
      <trkpt lat="49.63719" lon="-1.8473">
        <ele>16.768</ele>
      </trkpt>
      <trkpt lat="49.63706" lon="-1.84703">
        <ele>16.524</ele>
      </trkpt>
      <trkpt lat="49.63695" lon="-1.84682">
        <ele>16.058</ele>
      </trkpt>
      <trkpt lat="49.63675" lon="-1.84648">
        <ele>16.672</ele>
      </trkpt>
      <trkpt lat="49.6365" lon="-1.84659">
        <ele>16.276</ele>
      </trkpt>
      <trkpt lat="49.63641" lon="-1.8466">
        <ele>16.24</ele>
      </trkpt>
      <trkpt lat="49.63623" lon="-1.84658">
        <ele>16.884</ele>
      </trkpt>
      <trkpt lat="49.63586" lon="-1.84651">
        <ele>17.564</ele>
      </trkpt>
      <trkpt lat="49.6357" lon="-1.84645">
        <ele>18.366</ele>
      </trkpt>
      <trkpt lat="49.63553" lon="-1.84642">
        <ele>19.071</ele>
      </trkpt>
      <trkpt lat="49.63534" lon="-1.84643">
        <ele>19.546</ele>
      </trkpt>
      <trkpt lat="49.6353" lon="-1.84661">
        <ele>18.455</ele>
      </trkpt>
      <trkpt lat="49.6352" lon="-1.84765">
        <ele>14.46</ele>
      </trkpt>
      <trkpt lat="49.63501" lon="-1.84928">
        <ele>11.036</ele>
      </trkpt>
      <trkpt lat="49.63492" lon="-1.84999">
        <ele>10.722</ele>
      </trkpt>
      <trkpt lat="49.63491" lon="-1.85014">
        <ele>10.69</ele>
      </trkpt>
      <trkpt lat="49.63492" lon="-1.85029">
        <ele>10.712</ele>
      </trkpt>
      <trkpt lat="49.63501" lon="-1.85049">
        <ele>11</ele>
      </trkpt>
      <trkpt lat="49.63516" lon="-1.8505">
        <ele>11</ele>
      </trkpt>
      <trkpt lat="49.6353" lon="-1.85065">
        <ele>10.967</ele>
      </trkpt>
      <trkpt lat="49.63581" lon="-1.85087">
        <ele>9.861</ele>
      </trkpt>
      <trkpt lat="49.63598" lon="-1.85125">
        <ele>9.528</ele>
      </trkpt>
      <trkpt lat="49.63628" lon="-1.85155">
        <ele>9.167</ele>
      </trkpt>
      <trkpt lat="49.63655" lon="-1.85164">
        <ele>9.627</ele>
      </trkpt>
      <trkpt lat="49.6368" lon="-1.85163">
        <ele>9.125</ele>
      </trkpt>
      <trkpt lat="49.63708" lon="-1.85153">
        <ele>8.001</ele>
      </trkpt>
      <trkpt lat="49.63719" lon="-1.8516">
        <ele>7.806</ele>
      </trkpt>
      <trkpt lat="49.63749" lon="-1.85202">
        <ele>8.899</ele>
      </trkpt>
      <trkpt lat="49.63764" lon="-1.85212">
        <ele>8.813</ele>
      </trkpt>
      <trkpt lat="49.63823" lon="-1.85246">
        <ele>9</ele>
      </trkpt>
      <trkpt lat="49.63834" lon="-1.85256">
        <ele>8.578</ele>
      </trkpt>
      <trkpt lat="49.63854" lon="-1.85265">
        <ele>8.71</ele>
      </trkpt>
      <trkpt lat="49.63879" lon="-1.85279">
        <ele>8.909</ele>
      </trkpt>
      <trkpt lat="49.63912" lon="-1.85297">
        <ele>9.028</ele>
      </trkpt>
      <trkpt lat="49.63929" lon="-1.85306">
        <ele>9.445</ele>
      </trkpt>
      <trkpt lat="49.63935" lon="-1.85307">
        <ele>9.514</ele>
      </trkpt>
      <trkpt lat="49.63953" lon="-1.85317">
        <ele>8.874</ele>
      </trkpt>
      <trkpt lat="49.63982" lon="-1.85333">
        <ele>9</ele>
      </trkpt>
      <trkpt lat="49.64" lon="-1.85342">
        <ele>8.357</ele>
      </trkpt>
      <trkpt lat="49.64016" lon="-1.85344">
        <ele>8.663</ele>
      </trkpt>
      <trkpt lat="49.64078" lon="-1.85381">
        <ele>9.044</ele>
      </trkpt>
      <trkpt lat="49.6411" lon="-1.854">
        <ele>9.363</ele>
      </trkpt>
      <trkpt lat="49.6415" lon="-1.85424">
        <ele>9.872</ele>
      </trkpt>
      <trkpt lat="49.6417" lon="-1.85428">
        <ele>10.769</ele>
      </trkpt>
      <trkpt lat="49.64217" lon="-1.85453">
        <ele>12.136</ele>
      </trkpt>
      <trkpt lat="49.64248" lon="-1.85469">
        <ele>11.315</ele>
      </trkpt>
      <trkpt lat="49.64249" lon="-1.85474">
        <ele>10.624</ele>
      </trkpt>
      <trkpt lat="49.64253" lon="-1.85474">
        <ele>10.839</ele>
      </trkpt>
      <trkpt lat="49.64264" lon="-1.8548">
        <ele>10.809</ele>
      </trkpt>
      <trkpt lat="49.64291" lon="-1.85423">
        <ele>15.146</ele>
      </trkpt>
      <trkpt lat="49.64305" lon="-1.85372">
        <ele>15.015</ele>
      </trkpt>
      <trkpt lat="49.64329" lon="-1.85345">
        <ele>17.406</ele>
      </trkpt>
      <trkpt lat="49.64398" lon="-1.8527">
        <ele>21.62</ele>
      </trkpt>
      <trkpt lat="49.64413" lon="-1.85299">
        <ele>23.475</ele>
      </trkpt>
      <trkpt lat="49.64449" lon="-1.85375">
        <ele>25.42</ele>
      </trkpt>
      <trkpt lat="49.64471" lon="-1.8545">
        <ele>25.717</ele>
      </trkpt>
      <trkpt lat="49.64503" lon="-1.8552">
        <ele>26.849</ele>
      </trkpt>
      <trkpt lat="49.6452" lon="-1.85544">
        <ele>27.598</ele>
      </trkpt>
      <trkpt lat="49.64575" lon="-1.85615">
        <ele>28.852</ele>
      </trkpt>
      <trkpt lat="49.64612" lon="-1.85655">
        <ele>29.936</ele>
      </trkpt>
      <trkpt lat="49.64639" lon="-1.85685">
        <ele>30.036</ele>
      </trkpt>
      <trkpt lat="49.64661" lon="-1.85698">
        <ele>31.725</ele>
      </trkpt>
      <trkpt lat="49.64706" lon="-1.85728">
        <ele>34.692</ele>
      </trkpt>
      <trkpt lat="49.64729" lon="-1.85749">
        <ele>36.309</ele>
      </trkpt>
      <trkpt lat="49.64753" lon="-1.85769">
        <ele>38.393</ele>
      </trkpt>
      <trkpt lat="49.64758" lon="-1.85768">
        <ele>39.554</ele>
      </trkpt>
      <trkpt lat="49.64776" lon="-1.85784">
        <ele>38.162</ele>
      </trkpt>
      <trkpt lat="49.64783" lon="-1.85784">
        <ele>39.708</ele>
      </trkpt>
      <trkpt lat="49.64799" lon="-1.85793">
        <ele>40.18</ele>
      </trkpt>
      <trkpt lat="49.64805" lon="-1.85794">
        <ele>41.909</ele>
      </trkpt>
      <trkpt lat="49.64837" lon="-1.85807">
        <ele>45.818</ele>
      </trkpt>
      <trkpt lat="49.64858" lon="-1.85812">
        <ele>46.883</ele>
      </trkpt>
      <trkpt lat="49.64876" lon="-1.85815">
        <ele>49.9</ele>
      </trkpt>
      <trkpt lat="49.64912" lon="-1.8582">
        <ele>59.447</ele>
      </trkpt>
      <trkpt lat="49.64981" lon="-1.85894">
        <ele>59.968</ele>
      </trkpt>
      <trkpt lat="49.65013" lon="-1.85924">
        <ele>60.511</ele>
      </trkpt>
      <trkpt lat="49.6504" lon="-1.85954">
        <ele>60.603</ele>
      </trkpt>
      <trkpt lat="49.65067" lon="-1.86032">
        <ele>49.751</ele>
      </trkpt>
      <trkpt lat="49.65083" lon="-1.86082">
        <ele>45.048</ele>
      </trkpt>
      <trkpt lat="49.65122" lon="-1.86147">
        <ele>42.308</ele>
      </trkpt>
      <trkpt lat="49.65142" lon="-1.86191">
        <ele>41.393</ele>
      </trkpt>
      <trkpt lat="49.6517" lon="-1.86284">
        <ele>35.632</ele>
      </trkpt>
      <trkpt lat="49.652" lon="-1.86349">
        <ele>34.731</ele>
      </trkpt>
      <trkpt lat="49.65229" lon="-1.86407">
        <ele>31.066</ele>
      </trkpt>
      <trkpt lat="49.65259" lon="-1.86444">
        <ele>28.125</ele>
      </trkpt>
      <trkpt lat="49.65264" lon="-1.86454">
        <ele>28.36</ele>
      </trkpt>
      <trkpt lat="49.65271" lon="-1.86485">
        <ele>28.395</ele>
      </trkpt>
      <trkpt lat="49.65298" lon="-1.86514">
        <ele>30.555</ele>
      </trkpt>
      <trkpt lat="49.65336" lon="-1.86564">
        <ele>32.09</ele>
      </trkpt>
      <trkpt lat="49.65361" lon="-1.86593">
        <ele>31.973</ele>
      </trkpt>
      <trkpt lat="49.65396" lon="-1.86614">
        <ele>35.934</ele>
      </trkpt>
      <trkpt lat="49.6541" lon="-1.86617">
        <ele>38.187</ele>
      </trkpt>
      <trkpt lat="49.65432" lon="-1.86657">
        <ele>35.927</ele>
      </trkpt>
      <trkpt lat="49.65445" lon="-1.86672">
        <ele>40.635</ele>
      </trkpt>
      <trkpt lat="49.65461" lon="-1.86682">
        <ele>40.666</ele>
      </trkpt>
      <trkpt lat="49.65483" lon="-1.86674">
        <ele>45.764</ele>
      </trkpt>
      <trkpt lat="49.65494" lon="-1.86687">
        <ele>47.09</ele>
      </trkpt>
      <trkpt lat="49.6552" lon="-1.8677">
        <ele>47.393</ele>
      </trkpt>
      <trkpt lat="49.65576" lon="-1.86868">
        <ele>45.546</ele>
      </trkpt>
      <trkpt lat="49.65615" lon="-1.86946">
        <ele>43.469</ele>
      </trkpt>
      <trkpt lat="49.65633" lon="-1.86959">
        <ele>45.404</ele>
      </trkpt>
      <trkpt lat="49.65642" lon="-1.86977">
        <ele>46.259</ele>
      </trkpt>
      <trkpt lat="49.65638" lon="-1.87011">
        <ele>43.155</ele>
      </trkpt>
      <trkpt lat="49.6564" lon="-1.87026">
        <ele>43.179</ele>
      </trkpt>
      <trkpt lat="49.65729" lon="-1.87137">
        <ele>42.688</ele>
      </trkpt>
      <trkpt lat="49.65747" lon="-1.87178">
        <ele>38.806</ele>
      </trkpt>
      <trkpt lat="49.65762" lon="-1.87193">
        <ele>38.275</ele>
      </trkpt>
      <trkpt lat="49.65809" lon="-1.87185">
        <ele>35.702</ele>
      </trkpt>
      <trkpt lat="49.65823" lon="-1.87185">
        <ele>35.687</ele>
      </trkpt>
      <trkpt lat="49.65845" lon="-1.87203">
        <ele>35.036</ele>
      </trkpt>
      <trkpt lat="49.65847" lon="-1.87199">
        <ele>35.055</ele>
      </trkpt>
      <trkpt lat="49.65825" lon="-1.87182">
        <ele>35.882</ele>
      </trkpt>
      <trkpt lat="49.6581" lon="-1.87182">
        <ele>35.896</ele>
      </trkpt>
      <trkpt lat="49.65762" lon="-1.8719">
        <ele>38.516</ele>
      </trkpt>
      <trkpt lat="49.65749" lon="-1.87176">
        <ele>39.835</ele>
      </trkpt>
      <trkpt lat="49.6573" lon="-1.87135">
        <ele>43.056</ele>
      </trkpt>
      <trkpt lat="49.65642" lon="-1.87024">
        <ele>43.572</ele>
      </trkpt>
      <trkpt lat="49.65641" lon="-1.87011">
        <ele>43.9</ele>
      </trkpt>
      <trkpt lat="49.65644" lon="-1.86977">
        <ele>46.768</ele>
      </trkpt>
      <trkpt lat="49.65635" lon="-1.86957">
        <ele>46.714</ele>
      </trkpt>
      <trkpt lat="49.65617" lon="-1.86944">
        <ele>44.849</ele>
      </trkpt>
      <trkpt lat="49.65577" lon="-1.86866">
        <ele>46.041</ele>
      </trkpt>
      <trkpt lat="49.65522" lon="-1.86768">
        <ele>48.235</ele>
      </trkpt>
      <trkpt lat="49.65496" lon="-1.86685">
        <ele>47.99</ele>
      </trkpt>
      <trkpt lat="49.65484" lon="-1.86671">
        <ele>46.708</ele>
      </trkpt>
      <trkpt lat="49.65462" lon="-1.86678">
        <ele>41.264</ele>
      </trkpt>
      <trkpt lat="49.65447" lon="-1.8667">
        <ele>41.008</ele>
      </trkpt>
      <trkpt lat="49.65434" lon="-1.86654">
        <ele>37.211</ele>
      </trkpt>
      <trkpt lat="49.65412" lon="-1.86614">
        <ele>39.439</ele>
      </trkpt>
      <trkpt lat="49.65397" lon="-1.86611">
        <ele>37.468</ele>
      </trkpt>
      <trkpt lat="49.65362" lon="-1.8659">
        <ele>33.542</ele>
      </trkpt>
      <trkpt lat="49.65338" lon="-1.86562">
        <ele>32.712</ele>
      </trkpt>
      <trkpt lat="49.653" lon="-1.86511">
        <ele>30.864</ele>
      </trkpt>
      <trkpt lat="49.65273" lon="-1.86483">
        <ele>28.722</ele>
      </trkpt>
      <trkpt lat="49.65267" lon="-1.86453">
        <ele>28.693</ele>
      </trkpt>
      <trkpt lat="49.65261" lon="-1.86441">
        <ele>28.703</ele>
      </trkpt>
      <trkpt lat="49.65265" lon="-1.86434">
        <ele>30.175</ele>
      </trkpt>
      <trkpt lat="49.6527" lon="-1.86402">
        <ele>34.084</ele>
      </trkpt>
      <trkpt lat="49.65269" lon="-1.86367">
        <ele>35.397</ele>
      </trkpt>
      <trkpt lat="49.65258" lon="-1.86356">
        <ele>36.001</ele>
      </trkpt>
      <trkpt lat="49.65245" lon="-1.86334">
        <ele>38.17</ele>
      </trkpt>
      <trkpt lat="49.65234" lon="-1.86321">
        <ele>41.649</ele>
      </trkpt>
      <trkpt lat="49.65224" lon="-1.86272">
        <ele>44.601</ele>
      </trkpt>
      <trkpt lat="49.65202" lon="-1.86199">
        <ele>49.65</ele>
      </trkpt>
      <trkpt lat="49.65195" lon="-1.86155">
        <ele>51.38</ele>
      </trkpt>
      <trkpt lat="49.65194" lon="-1.86128">
        <ele>53.253</ele>
      </trkpt>
      <trkpt lat="49.65221" lon="-1.86035">
        <ele>59.497</ele>
      </trkpt>
      <trkpt lat="49.65221" lon="-1.86036">
        <ele>59.393</ele>
      </trkpt>
      <trkpt lat="49.65235" lon="-1.86007">
        <ele>62.943</ele>
      </trkpt>
      <trkpt lat="49.65251" lon="-1.8597">
        <ele>65.515</ele>
      </trkpt>
      <trkpt lat="49.65264" lon="-1.85916">
        <ele>74.588</ele>
      </trkpt>
      <trkpt lat="49.65267" lon="-1.85882">
        <ele>79.272</ele>
      </trkpt>
      <trkpt lat="49.65267" lon="-1.85858">
        <ele>82.026</ele>
      </trkpt>
      <trkpt lat="49.65266" lon="-1.85844">
        <ele>83.424</ele>
      </trkpt>
      <trkpt lat="49.65253" lon="-1.85808">
        <ele>87.46</ele>
      </trkpt>
      <trkpt lat="49.65233" lon="-1.85758">
        <ele>96.778</ele>
      </trkpt>
      <trkpt lat="49.65229" lon="-1.85739">
        <ele>99.695</ele>
      </trkpt>
      <trkpt lat="49.65228" lon="-1.85707">
        <ele>104.948</ele>
      </trkpt>
      <trkpt lat="49.65233" lon="-1.85682">
        <ele>109.107</ele>
      </trkpt>
      <trkpt lat="49.65243" lon="-1.85635">
        <ele>113.359</ele>
      </trkpt>
      <trkpt lat="49.65251" lon="-1.85597">
        <ele>116.247</ele>
      </trkpt>
      <trkpt lat="49.65256" lon="-1.85595">
        <ele>117.581</ele>
      </trkpt>
      <trkpt lat="49.65266" lon="-1.85596">
        <ele>119.581</ele>
      </trkpt>
      <trkpt lat="49.65284" lon="-1.85598">
        <ele>122.616</ele>
      </trkpt>
      <trkpt lat="49.65302" lon="-1.85598">
        <ele>124.56</ele>
      </trkpt>
      <trkpt lat="49.65316" lon="-1.85595">
        <ele>125.536</ele>
      </trkpt>
      <trkpt lat="49.65325" lon="-1.8559">
        <ele>126.22</ele>
      </trkpt>
      <trkpt lat="49.65329" lon="-1.85586">
        <ele>126.652</ele>
      </trkpt>
      <trkpt lat="49.65332" lon="-1.85579">
        <ele>127.413</ele>
      </trkpt>
      <trkpt lat="49.65335" lon="-1.85566">
        <ele>128.955</ele>
      </trkpt>
      <trkpt lat="49.65337" lon="-1.85522">
        <ele>131.68</ele>
      </trkpt>
      <trkpt lat="49.65337" lon="-1.85488">
        <ele>134.128</ele>
      </trkpt>
      <trkpt lat="49.65337" lon="-1.85466">
        <ele>135.682</ele>
      </trkpt>
      <trkpt lat="49.65332" lon="-1.85438">
        <ele>137.195</ele>
      </trkpt>
      <trkpt lat="49.65331" lon="-1.85426">
        <ele>137.636</ele>
      </trkpt>
      <trkpt lat="49.65333" lon="-1.85403">
        <ele>138.978</ele>
      </trkpt>
      <trkpt lat="49.65325" lon="-1.8539">
        <ele>139.603</ele>
      </trkpt>
      <trkpt lat="49.65245" lon="-1.85413">
        <ele>135.948</ele>
      </trkpt>
      <trkpt lat="49.65188" lon="-1.85409">
        <ele>134.938</ele>
      </trkpt>
      <trkpt lat="49.65144" lon="-1.85433">
        <ele>134.198</ele>
      </trkpt>
      <trkpt lat="49.65087" lon="-1.85425">
        <ele>132.439</ele>
      </trkpt>
      <trkpt lat="49.65084" lon="-1.85429">
        <ele>132.468</ele>
      </trkpt>
      <trkpt lat="49.65061" lon="-1.85438">
        <ele>131.975</ele>
      </trkpt>
      <trkpt lat="49.65014" lon="-1.85439">
        <ele>129.915</ele>
      </trkpt>
      <trkpt lat="49.64996" lon="-1.85424">
        <ele>128.856</ele>
      </trkpt>
      <trkpt lat="49.64979" lon="-1.85409">
        <ele>128.174</ele>
      </trkpt>
      <trkpt lat="49.64966" lon="-1.85387">
        <ele>127.78</ele>
      </trkpt>
      <trkpt lat="49.64963" lon="-1.8536">
        <ele>127.634</ele>
      </trkpt>
      <trkpt lat="49.64966" lon="-1.85345">
        <ele>127.325</ele>
      </trkpt>
      <trkpt lat="49.64985" lon="-1.85324">
        <ele>125.882</ele>
      </trkpt>
      <trkpt lat="49.64993" lon="-1.85304">
        <ele>124.191</ele>
      </trkpt>
      <trkpt lat="49.64994" lon="-1.85263">
        <ele>120.861</ele>
      </trkpt>
      <trkpt lat="49.64997" lon="-1.85241">
        <ele>117.877</ele>
      </trkpt>
      <trkpt lat="49.65005" lon="-1.85229">
        <ele>115.385</ele>
      </trkpt>
      <trkpt lat="49.65012" lon="-1.85224">
        <ele>114.009</ele>
      </trkpt>
      <trkpt lat="49.6502" lon="-1.85227">
        <ele>113.625</ele>
      </trkpt>
      <trkpt lat="49.65023" lon="-1.85232">
        <ele>114.09</ele>
      </trkpt>
      <trkpt lat="49.65038" lon="-1.85234">
        <ele>114.517</ele>
      </trkpt>
      <trkpt lat="49.65036" lon="-1.85212">
        <ele>110.164</ele>
      </trkpt>
      <trkpt lat="49.65026" lon="-1.85176">
        <ele>100.392</ele>
      </trkpt>
      <trkpt lat="49.65026" lon="-1.85177">
        <ele>100.756</ele>
      </trkpt>
      <trkpt lat="49.64984" lon="-1.85151">
        <ele>97.706</ele>
      </trkpt>
      <trkpt lat="49.64977" lon="-1.85147">
        <ele>97.184</ele>
      </trkpt>
      <trkpt lat="49.64961" lon="-1.85141">
        <ele>95.653</ele>
      </trkpt>
      <trkpt lat="49.64925" lon="-1.85133">
        <ele>92.116</ele>
      </trkpt>
      <trkpt lat="49.64898" lon="-1.85129">
        <ele>87.581</ele>
      </trkpt>
      <trkpt lat="49.64853" lon="-1.85132">
        <ele>79.869</ele>
      </trkpt>
      <trkpt lat="49.64817" lon="-1.85134">
        <ele>72.343</ele>
      </trkpt>
      <trkpt lat="49.64784" lon="-1.85139">
        <ele>67.149</ele>
      </trkpt>
      <trkpt lat="49.64729" lon="-1.85148">
        <ele>58.52</ele>
      </trkpt>
      <trkpt lat="49.64717" lon="-1.85147">
        <ele>57.313</ele>
      </trkpt>
      <trkpt lat="49.6471" lon="-1.85144">
        <ele>56.275</ele>
      </trkpt>
      <trkpt lat="49.64705" lon="-1.8514">
        <ele>54.774</ele>
      </trkpt>
      <trkpt lat="49.64682" lon="-1.8511">
        <ele>47.7</ele>
      </trkpt>
      <trkpt lat="49.6467" lon="-1.85096">
        <ele>45.627</ele>
      </trkpt>
      <trkpt lat="49.64659" lon="-1.8509">
        <ele>44.639</ele>
      </trkpt>
      <trkpt lat="49.6465" lon="-1.85086">
        <ele>43.749</ele>
      </trkpt>
      <trkpt lat="49.64654" lon="-1.85068">
        <ele>40.792</ele>
      </trkpt>
      <trkpt lat="49.64634" lon="-1.85061">
        <ele>39.432</ele>
      </trkpt>
      <trkpt lat="49.64636" lon="-1.85042">
        <ele>37.769</ele>
      </trkpt>
      <trkpt lat="49.64641" lon="-1.84987">
        <ele>38.943</ele>
      </trkpt>
      <trkpt lat="49.6465" lon="-1.84955">
        <ele>43.062</ele>
      </trkpt>
      <trkpt lat="49.64668" lon="-1.84951">
        <ele>46.243</ele>
      </trkpt>
      <trkpt lat="49.64639" lon="-1.84918">
        <ele>48.649</ele>
      </trkpt>
      <trkpt lat="49.64609" lon="-1.84904">
        <ele>50.341</ele>
      </trkpt>
      <trkpt lat="49.6458" lon="-1.84886">
        <ele>51.468</ele>
      </trkpt>
      <trkpt lat="49.64533" lon="-1.84888">
        <ele>54.284</ele>
      </trkpt>
      <trkpt lat="49.64507" lon="-1.84901">
        <ele>55.65</ele>
      </trkpt>
      <trkpt lat="49.64444" lon="-1.84894">
        <ele>51.706</ele>
      </trkpt>
      <trkpt lat="49.64424" lon="-1.84908">
        <ele>46.842</ele>
      </trkpt>
      <trkpt lat="49.64381" lon="-1.84896">
        <ele>45.49</ele>
      </trkpt>
      <trkpt lat="49.64373" lon="-1.849">
        <ele>46.133</ele>
      </trkpt>
      <trkpt lat="49.64367" lon="-1.84944">
        <ele>42.6</ele>
      </trkpt>
      <trkpt lat="49.64369" lon="-1.84945">
        <ele>42.358</ele>
      </trkpt>
      <trkpt lat="49.64366" lon="-1.84956">
        <ele>41.057</ele>
      </trkpt>
      <trkpt lat="49.64358" lon="-1.84962">
        <ele>40.36</ele>
      </trkpt>
      <trkpt lat="49.6434" lon="-1.84965">
        <ele>39.28</ele>
      </trkpt>
      <trkpt lat="49.64335" lon="-1.84973">
        <ele>37.978</ele>
      </trkpt>
      <trkpt lat="49.6432" lon="-1.85016">
        <ele>32.888</ele>
      </trkpt>
      <trkpt lat="49.64304" lon="-1.85063">
        <ele>26.687</ele>
      </trkpt>
      <trkpt lat="49.64289" lon="-1.8511">
        <ele>23.64</ele>
      </trkpt>
      <trkpt lat="49.6427" lon="-1.85092">
        <ele>22.583</ele>
      </trkpt>
      <trkpt lat="49.6421" lon="-1.85025">
        <ele>22.772</ele>
      </trkpt>
      <trkpt lat="49.6416" lon="-1.84974">
        <ele>22.696</ele>
      </trkpt>
      <trkpt lat="49.64097" lon="-1.8491">
        <ele>24.464</ele>
      </trkpt>
      <trkpt lat="49.64025" lon="-1.84831">
        <ele>24.06</ele>
      </trkpt>
      <trkpt lat="49.63991" lon="-1.84812">
        <ele>24.017</ele>
      </trkpt>
      <trkpt lat="49.63905" lon="-1.84789">
        <ele>25.522</ele>
      </trkpt>
      <trkpt lat="49.63886" lon="-1.84787">
        <ele>24.564</ele>
      </trkpt>
      <trkpt lat="49.63808" lon="-1.84787">
        <ele>20.571</ele>
      </trkpt>
      <trkpt lat="49.6376" lon="-1.84783">
        <ele>17.864</ele>
      </trkpt>
      <trkpt lat="49.63752" lon="-1.84781">
        <ele>17.732</ele>
      </trkpt>
      <trkpt lat="49.63744" lon="-1.84775">
        <ele>17.552</ele>
      </trkpt>
      <trkpt lat="49.63739" lon="-1.8477">
        <ele>17.372</ele>
      </trkpt>
      <trkpt lat="49.63731" lon="-1.84755">
        <ele>17.588</ele>
      </trkpt>
      <trkpt lat="49.63696" lon="-1.84686">
        <ele>16.146</ele>
      </trkpt>
      <trkpt lat="49.63671" lon="-1.8464">
        <ele>16.96</ele>
      </trkpt>
      <trkpt lat="49.63663" lon="-1.84624">
        <ele>17.071</ele>
      </trkpt>
      <trkpt lat="49.63641" lon="-1.84595">
        <ele>18.504</ele>
      </trkpt>
      <trkpt lat="49.6363" lon="-1.84578">
        <ele>19.512</ele>
      </trkpt>
      <trkpt lat="49.63626" lon="-1.84565">
        <ele>20.124</ele>
      </trkpt>
      <trkpt lat="49.63627" lon="-1.84538">
        <ele>20.428</ele>
      </trkpt>
      <trkpt lat="49.63631" lon="-1.84518">
        <ele>20.636</ele>
      </trkpt>
      <trkpt lat="49.6362" lon="-1.84495">
        <ele>21.68</ele>
      </trkpt>
      <trkpt lat="49.63601" lon="-1.84468">
        <ele>22.825</ele>
      </trkpt>
      <trkpt lat="49.63579" lon="-1.84445">
        <ele>24</ele>
      </trkpt>
      <trkpt lat="49.63552" lon="-1.84412">
        <ele>26.296</ele>
      </trkpt>
      <trkpt lat="49.63532" lon="-1.84383">
        <ele>28.06</ele>
      </trkpt>
      <trkpt lat="49.63515" lon="-1.84347">
        <ele>29</ele>
      </trkpt>
      <trkpt lat="49.63489" lon="-1.84278">
        <ele>31.99</ele>
      </trkpt>
      <trkpt lat="49.63443" lon="-1.84166">
        <ele>35.282</ele>
      </trkpt>
      <trkpt lat="49.63418" lon="-1.84116">
        <ele>38.19</ele>
      </trkpt>
      <trkpt lat="49.63395" lon="-1.84084">
        <ele>40.046</ele>
      </trkpt>
      <trkpt lat="49.63375" lon="-1.84066">
        <ele>43.745</ele>
      </trkpt>
      <trkpt lat="49.63372" lon="-1.84075">
        <ele>44.597</ele>
      </trkpt>
      <trkpt lat="49.63376" lon="-1.84152">
        <ele>49.965</ele>
      </trkpt>
      <trkpt lat="49.63376" lon="-1.84183">
        <ele>51.566</ele>
      </trkpt>
      <trkpt lat="49.63345" lon="-1.84112">
        <ele>57.6</ele>
      </trkpt>
      <trkpt lat="49.63264" lon="-1.83964">
        <ele>73.211</ele>
      </trkpt>
      <trkpt lat="49.63237" lon="-1.83924">
        <ele>78.312</ele>
      </trkpt>
      <trkpt lat="49.63187" lon="-1.83868">
        <ele>86.976</ele>
      </trkpt>
      <trkpt lat="49.63171" lon="-1.83829">
        <ele>88.075</ele>
      </trkpt>
      <trkpt lat="49.63086" lon="-1.83707">
        <ele>103.762</ele>
      </trkpt>
      <trkpt lat="49.63037" lon="-1.83617">
        <ele>110.878</ele>
      </trkpt>
      <trkpt lat="49.63007" lon="-1.83562">
        <ele>116.712</ele>
      </trkpt>
      <trkpt lat="49.62974" lon="-1.8352">
        <ele>121.594</ele>
      </trkpt>
      <trkpt lat="49.62937" lon="-1.83513">
        <ele>126.338</ele>
      </trkpt>
      <trkpt lat="49.62906" lon="-1.8351">
        <ele>129.397</ele>
      </trkpt>
      <trkpt lat="49.62805" lon="-1.83522">
        <ele>132.993</ele>
      </trkpt>
      <trkpt lat="49.6277" lon="-1.8355">
        <ele>132</ele>
      </trkpt>
      <trkpt lat="49.6276" lon="-1.83548">
        <ele>132</ele>
      </trkpt>
      <trkpt lat="49.62726" lon="-1.83507">
        <ele>132</ele>
      </trkpt>
      <trkpt lat="49.62711" lon="-1.83485">
        <ele>131.607</ele>
      </trkpt>
      <trkpt lat="49.62675" lon="-1.83416">
        <ele>130.578</ele>
      </trkpt>
      <trkpt lat="49.62651" lon="-1.83388">
        <ele>129.408</ele>
      </trkpt>
      <trkpt lat="49.62593" lon="-1.83309">
        <ele>131.171</ele>
      </trkpt>
      <trkpt lat="49.62547" lon="-1.83398">
        <ele>125.41</ele>
      </trkpt>
      <trkpt lat="49.62522" lon="-1.83423">
        <ele>124.71</ele>
      </trkpt>
      <trkpt lat="49.62438" lon="-1.83451">
        <ele>121.064</ele>
      </trkpt>
      <trkpt lat="49.62399" lon="-1.83452">
        <ele>119.032</ele>
      </trkpt>
      <trkpt lat="49.62349" lon="-1.83367">
        <ele>123.056</ele>
      </trkpt>
      <trkpt lat="49.62327" lon="-1.83342">
        <ele>124.026</ele>
      </trkpt>
      <trkpt lat="49.62191" lon="-1.8324">
        <ele>124.247</ele>
      </trkpt>
      <trkpt lat="49.62141" lon="-1.83201">
        <ele>124.805</ele>
      </trkpt>
      <trkpt lat="49.62198" lon="-1.8307">
        <ele>131.626</ele>
      </trkpt>
      <trkpt lat="49.62162" lon="-1.83028">
        <ele>131.813</ele>
      </trkpt>
      <trkpt lat="49.62123" lon="-1.82994">
        <ele>131.538</ele>
      </trkpt>
      <trkpt lat="49.62097" lon="-1.82959">
        <ele>130.972</ele>
      </trkpt>
      <trkpt lat="49.62068" lon="-1.82911">
        <ele>130.674</ele>
      </trkpt>
      <trkpt lat="49.62065" lon="-1.829">
        <ele>130.962</ele>
      </trkpt>
      <trkpt lat="49.6205" lon="-1.82875">
        <ele>130.8</ele>
      </trkpt>
      <trkpt lat="49.61958" lon="-1.82856">
        <ele>127.64</ele>
      </trkpt>
      <trkpt lat="49.61912" lon="-1.82845">
        <ele>126.329</ele>
      </trkpt>
      <trkpt lat="49.61888" lon="-1.82834">
        <ele>124.968</ele>
      </trkpt>
      <trkpt lat="49.61867" lon="-1.82829">
        <ele>124.232</ele>
      </trkpt>
      <trkpt lat="49.6185" lon="-1.82881">
        <ele>123</ele>
      </trkpt>
      <trkpt lat="49.61835" lon="-1.8289">
        <ele>122.953</ele>
      </trkpt>
      <trkpt lat="49.61818" lon="-1.82977">
        <ele>118.824</ele>
      </trkpt>
      <trkpt lat="49.61817" lon="-1.83012">
        <ele>117.326</ele>
      </trkpt>
      <trkpt lat="49.61828" lon="-1.8306">
        <ele>113.702</ele>
      </trkpt>
      <trkpt lat="49.61842" lon="-1.83102">
        <ele>110.034</ele>
      </trkpt>
      <trkpt lat="49.61867" lon="-1.83151">
        <ele>108.752</ele>
      </trkpt>
      <trkpt lat="49.61873" lon="-1.83184">
        <ele>107.937</ele>
      </trkpt>
      <trkpt lat="49.61874" lon="-1.83228">
        <ele>107.729</ele>
      </trkpt>
      <trkpt lat="49.61867" lon="-1.83327">
        <ele>105.278</ele>
      </trkpt>
      <trkpt lat="49.61858" lon="-1.834">
        <ele>101.163</ele>
      </trkpt>
      <trkpt lat="49.61857" lon="-1.83429">
        <ele>97.932</ele>
      </trkpt>
      <trkpt lat="49.61867" lon="-1.83461">
        <ele>94.751</ele>
      </trkpt>
      <trkpt lat="49.61883" lon="-1.83494">
        <ele>92.11</ele>
      </trkpt>
      <trkpt lat="49.61901" lon="-1.83514">
        <ele>91.2</ele>
      </trkpt>
      <trkpt lat="49.61902" lon="-1.83513">
        <ele>91.345</ele>
      </trkpt>
      <trkpt lat="49.61931" lon="-1.83526">
        <ele>89.419</ele>
      </trkpt>
      <trkpt lat="49.61964" lon="-1.83541">
        <ele>86.372</ele>
      </trkpt>
      <trkpt lat="49.62014" lon="-1.83576">
        <ele>81.584</ele>
      </trkpt>
      <trkpt lat="49.62048" lon="-1.83594">
        <ele>76.799</ele>
      </trkpt>
      <trkpt lat="49.62067" lon="-1.83594">
        <ele>74.562</ele>
      </trkpt>
      <trkpt lat="49.62088" lon="-1.83584">
        <ele>72.924</ele>
      </trkpt>
      <trkpt lat="49.62095" lon="-1.83585">
        <ele>72.795</ele>
      </trkpt>
      <trkpt lat="49.62101" lon="-1.83589">
        <ele>72.258</ele>
      </trkpt>
      <trkpt lat="49.62111" lon="-1.83611">
        <ele>69.02</ele>
      </trkpt>
      <trkpt lat="49.62117" lon="-1.83622">
        <ele>67.934</ele>
      </trkpt>
      <trkpt lat="49.6213" lon="-1.83638">
        <ele>66.244</ele>
      </trkpt>
      <trkpt lat="49.62167" lon="-1.83674">
        <ele>62.164</ele>
      </trkpt>
      <trkpt lat="49.62179" lon="-1.83684">
        <ele>60.076</ele>
      </trkpt>
      <trkpt lat="49.62193" lon="-1.8369">
        <ele>59.068</ele>
      </trkpt>
      <trkpt lat="49.62219" lon="-1.83698">
        <ele>56.566</ele>
      </trkpt>
      <trkpt lat="49.62218" lon="-1.83706">
        <ele>55.081</ele>
      </trkpt>
      <trkpt lat="49.62211" lon="-1.83707">
        <ele>54.977</ele>
      </trkpt>
      <trkpt lat="49.62177" lon="-1.83703">
        <ele>55.021</ele>
      </trkpt>
      <trkpt lat="49.6214" lon="-1.83692">
        <ele>54.794</ele>
      </trkpt>
      <trkpt lat="49.6208" lon="-1.83671">
        <ele>53.589</ele>
      </trkpt>
      <trkpt lat="49.62039" lon="-1.83677">
        <ele>53.77</ele>
      </trkpt>
      <trkpt lat="49.61953" lon="-1.83647">
        <ele>53.403</ele>
      </trkpt>
      <trkpt lat="49.61867" lon="-1.83635">
        <ele>47.306</ele>
      </trkpt>
      <trkpt lat="49.61811" lon="-1.83616">
        <ele>41.569</ele>
      </trkpt>
      <trkpt lat="49.61764" lon="-1.8361">
        <ele>38.227</ele>
      </trkpt>
      <trkpt lat="49.61725" lon="-1.83628">
        <ele>33.508</ele>
      </trkpt>
      <trkpt lat="49.61721" lon="-1.83686">
        <ele>25.062</ele>
      </trkpt>
      <trkpt lat="49.61706" lon="-1.83704">
        <ele>21.74</ele>
      </trkpt>
      <trkpt lat="49.61701" lon="-1.83732">
        <ele>19.297</ele>
      </trkpt>
      <trkpt lat="49.6169" lon="-1.83751">
        <ele>16.015</ele>
      </trkpt>
      <trkpt lat="49.61684" lon="-1.83771">
        <ele>16.158</ele>
      </trkpt>
      <trkpt lat="49.61681" lon="-1.83794">
        <ele>15.122</ele>
      </trkpt>
      <trkpt lat="49.61661" lon="-1.83834">
        <ele>15.005</ele>
      </trkpt>
      <trkpt lat="49.61636" lon="-1.83904">
        <ele>15.042</ele>
      </trkpt>
      <trkpt lat="49.6162" lon="-1.83974">
        <ele>13.017</ele>
      </trkpt>
      <trkpt lat="49.61591" lon="-1.84066">
        <ele>13.122</ele>
      </trkpt>
      <trkpt lat="49.61576" lon="-1.84108">
        <ele>11.986</ele>
      </trkpt>
      <trkpt lat="49.61559" lon="-1.8412">
        <ele>9.599</ele>
      </trkpt>
      <trkpt lat="49.61548" lon="-1.84143">
        <ele>9.474</ele>
      </trkpt>
      <trkpt lat="49.61544" lon="-1.84174">
        <ele>10.844</ele>
      </trkpt>
      <trkpt lat="49.61525" lon="-1.84235">
        <ele>11.494</ele>
      </trkpt>
      <trkpt lat="49.61502" lon="-1.84259">
        <ele>11.992</ele>
      </trkpt>
      <trkpt lat="49.6146" lon="-1.84377">
        <ele>12.137</ele>
      </trkpt>
      <trkpt lat="49.61494" lon="-1.84385">
        <ele>12.698</ele>
      </trkpt>
      <trkpt lat="49.61514" lon="-1.84391">
        <ele>12.804</ele>
      </trkpt>
      <trkpt lat="49.61539" lon="-1.84396">
        <ele>12.838</ele>
      </trkpt>
      <trkpt lat="49.61553" lon="-1.84405">
        <ele>12.953</ele>
      </trkpt>
      <trkpt lat="49.61576" lon="-1.84407">
        <ele>13.228</ele>
      </trkpt>
      <trkpt lat="49.61611" lon="-1.84405">
        <ele>12.437</ele>
      </trkpt>
      <trkpt lat="49.61619" lon="-1.84405">
        <ele>12.06</ele>
      </trkpt>
      <trkpt lat="49.61631" lon="-1.84395">
        <ele>11.155</ele>
      </trkpt>
      <trkpt lat="49.61652" lon="-1.84382">
        <ele>10.835</ele>
      </trkpt>
      <trkpt lat="49.61657" lon="-1.84376">
        <ele>11.135</ele>
      </trkpt>
      <trkpt lat="49.61661" lon="-1.84332">
        <ele>11.204</ele>
      </trkpt>
      <trkpt lat="49.61667" lon="-1.84304">
        <ele>10.946</ele>
      </trkpt>
      <trkpt lat="49.61674" lon="-1.84272">
        <ele>10.567</ele>
      </trkpt>
      <trkpt lat="49.61676" lon="-1.84251">
        <ele>8.791</ele>
      </trkpt>
      <trkpt lat="49.61681" lon="-1.84254">
        <ele>8.971</ele>
      </trkpt>
      <trkpt lat="49.61708" lon="-1.84235">
        <ele>6.882</ele>
      </trkpt>
      <trkpt lat="49.61751" lon="-1.84223">
        <ele>7.105</ele>
      </trkpt>
      <trkpt lat="49.61766" lon="-1.84213">
        <ele>6.716</ele>
      </trkpt>
      <trkpt lat="49.61807" lon="-1.84235">
        <ele>6.799</ele>
      </trkpt>
      <trkpt lat="49.61845" lon="-1.84263">
        <ele>5.765</ele>
      </trkpt>
      <trkpt lat="49.61898" lon="-1.84307">
        <ele>5.416</ele>
      </trkpt>
      <trkpt lat="49.61912" lon="-1.8432">
        <ele>6.085</ele>
      </trkpt>
      <trkpt lat="49.6192" lon="-1.84341">
        <ele>6.634</ele>
      </trkpt>
      <trkpt lat="49.61949" lon="-1.84354">
        <ele>5.73</ele>
      </trkpt>
      <trkpt lat="49.62005" lon="-1.84359">
        <ele>6</ele>
      </trkpt>
      <trkpt lat="49.62043" lon="-1.84359">
        <ele>6</ele>
      </trkpt>
      <trkpt lat="49.62082" lon="-1.84379">
        <ele>6</ele>
      </trkpt>
      <trkpt lat="49.62101" lon="-1.84403">
        <ele>6</ele>
      </trkpt>
      <trkpt lat="49.62131" lon="-1.84414">
        <ele>6</ele>
      </trkpt>
      <trkpt lat="49.622" lon="-1.8442">
        <ele>6.026</ele>
      </trkpt>
      <trkpt lat="49.6222" lon="-1.84415">
        <ele>6</ele>
      </trkpt>
      <trkpt lat="49.62236" lon="-1.84408">
        <ele>6.325</ele>
      </trkpt>
      <trkpt lat="49.62272" lon="-1.84427">
        <ele>6.488</ele>
      </trkpt>
      <trkpt lat="49.62285" lon="-1.84444">
        <ele>6.738</ele>
      </trkpt>
      <trkpt lat="49.62306" lon="-1.84457">
        <ele>6.45</ele>
      </trkpt>
      <trkpt lat="49.6233" lon="-1.84487">
        <ele>6.63</ele>
      </trkpt>
      <trkpt lat="49.62342" lon="-1.84516">
        <ele>7.26</ele>
      </trkpt>
      <trkpt lat="49.62391" lon="-1.84533">
        <ele>6.527</ele>
      </trkpt>
      <trkpt lat="49.62427" lon="-1.84543">
        <ele>6.9</ele>
      </trkpt>
      <trkpt lat="49.62442" lon="-1.84543">
        <ele>6.604</ele>
      </trkpt>
      <trkpt lat="49.62465" lon="-1.84555">
        <ele>6.269</ele>
      </trkpt>
      <trkpt lat="49.62487" lon="-1.8456">
        <ele>6.333</ele>
      </trkpt>
      <trkpt lat="49.62501" lon="-1.84571">
        <ele>6.539</ele>
      </trkpt>
      <trkpt lat="49.62518" lon="-1.84577">
        <ele>6.284</ele>
      </trkpt>
      <trkpt lat="49.62532" lon="-1.84593">
        <ele>6.341</ele>
      </trkpt>
      <trkpt lat="49.6254" lon="-1.846">
        <ele>6.604</ele>
      </trkpt>
      <trkpt lat="49.62583" lon="-1.84605">
        <ele>6.787</ele>
      </trkpt>
      <trkpt lat="49.62594" lon="-1.8461">
        <ele>6.574</ele>
      </trkpt>
      <trkpt lat="49.62629" lon="-1.84631">
        <ele>6.959</ele>
      </trkpt>
      <trkpt lat="49.62645" lon="-1.84646">
        <ele>7.414</ele>
      </trkpt>
      <trkpt lat="49.62661" lon="-1.84662">
        <ele>7.356</ele>
      </trkpt>
      <trkpt lat="49.62671" lon="-1.84677">
        <ele>7.154</ele>
      </trkpt>
      <trkpt lat="49.62691" lon="-1.84688">
        <ele>6.696</ele>
      </trkpt>
      <trkpt lat="49.62739" lon="-1.84704">
        <ele>7.196</ele>
      </trkpt>
      <trkpt lat="49.62773" lon="-1.84713">
        <ele>6.932</ele>
      </trkpt>
      <trkpt lat="49.62789" lon="-1.8472">
        <ele>6.558</ele>
      </trkpt>
      <trkpt lat="49.62816" lon="-1.84718">
        <ele>6.315</ele>
      </trkpt>
      <trkpt lat="49.62853" lon="-1.84707">
        <ele>6.127</ele>
      </trkpt>
      <trkpt lat="49.62875" lon="-1.84715">
        <ele>6</ele>
      </trkpt>
      <trkpt lat="49.62899" lon="-1.84734">
        <ele>6.42</ele>
      </trkpt>
      <trkpt lat="49.62924" lon="-1.84758">
        <ele>6.74</ele>
      </trkpt>
      <trkpt lat="49.6294" lon="-1.84789">
        <ele>6.997</ele>
      </trkpt>
      <trkpt lat="49.62952" lon="-1.84796">
        <ele>7.106</ele>
      </trkpt>
      <trkpt lat="49.62973" lon="-1.84804">
        <ele>6.897</ele>
      </trkpt>
      <trkpt lat="49.63013" lon="-1.84811">
        <ele>6.738</ele>
      </trkpt>
      <trkpt lat="49.63046" lon="-1.84824">
        <ele>7.104</ele>
      </trkpt>
      <trkpt lat="49.63062" lon="-1.84831">
        <ele>6.705</ele>
      </trkpt>
      <trkpt lat="49.63088" lon="-1.84853">
        <ele>6.529</ele>
      </trkpt>
      <trkpt lat="49.63108" lon="-1.8486">
        <ele>6.054</ele>
      </trkpt>
      <trkpt lat="49.63147" lon="-1.84862">
        <ele>7.139</ele>
      </trkpt>
      <trkpt lat="49.63182" lon="-1.84874">
        <ele>7.604</ele>
      </trkpt>
      <trkpt lat="49.63233" lon="-1.84909">
        <ele>6.888</ele>
      </trkpt>
      <trkpt lat="49.63278" lon="-1.84928">
        <ele>7.846</ele>
      </trkpt>
      <trkpt lat="49.63319" lon="-1.84934">
        <ele>8.484</ele>
      </trkpt>
      <trkpt lat="49.63343" lon="-1.84938">
        <ele>9</ele>
      </trkpt>
      <trkpt lat="49.63485" lon="-1.85013">
        <ele>10.453</ele>
      </trkpt>
      <trkpt lat="49.6349" lon="-1.84987">
        <ele>10.809</ele>
      </trkpt>
      <trkpt lat="49.63517" lon="-1.84764">
        <ele>14.507</ele>
      </trkpt>
      <trkpt lat="49.63528" lon="-1.84661">
        <ele>18.411</ele>
      </trkpt>
      <trkpt lat="49.63532" lon="-1.84641">
        <ele>19.716</ele>
      </trkpt>
      <trkpt lat="49.63553" lon="-1.84638">
        <ele>19.15</ele>
      </trkpt>
      <trkpt lat="49.6357" lon="-1.84641">
        <ele>18.427</ele>
      </trkpt>
      <trkpt lat="49.63587" lon="-1.84648">
        <ele>17.679</ele>
      </trkpt>
      <trkpt lat="49.63624" lon="-1.84656">
        <ele>16.949</ele>
      </trkpt>
      <trkpt lat="49.63641" lon="-1.84657">
        <ele>16.341</ele>
      </trkpt>
      <trkpt lat="49.6365" lon="-1.84657">
        <ele>16.359</ele>
      </trkpt>
      <trkpt lat="49.63679" lon="-1.84643">
        <ele>16.852</ele>
      </trkpt>
      <trkpt lat="49.63702" lon="-1.84688">
        <ele>16.653</ele>
      </trkpt>
      <trkpt lat="49.63728" lon="-1.84738">
        <ele>17.822</ele>
      </trkpt>
      <trkpt lat="49.63726" lon="-1.847">
        <ele>18.548</ele>
      </trkpt>
      <trkpt lat="49.63721" lon="-1.84651">
        <ele>20.392</ele>
      </trkpt>
      <trkpt lat="49.63732" lon="-1.84642">
        <ele>22.013</ele>
      </trkpt>
    </trkseg>
  </trk>
</gpx>